﻿<?xml version="1.0" encoding="UTF-8" standalone="no" ?>
<gpx xmlns="http://www.topografix.com/GPX/1/1" creator="CompeGPS" version="1.1" xmlns:xsi="http://www.w3.org/2001/XMLSchema-instance" xsi:schemaLocation="http://www.topografix.com/GPX/1/1 http://www.topografix.com/GPX/1/1/gpx.xsd http://www.garmin.com/xmlschemas/GpxExtensions/v3 http://www.garmin.com/xmlschemas/GpxExtensionsv3.xsd http://www.garmin.com/xmlschemas/TrackPointExtension/v1 http://www.garmin.com/xmlschemas/TrackPointExtensionv1.xsd" xmlns:gpxtpx="http://www.garmin.com/xmlschemas/TrackPointExtension/v1">
  <metadata>
    <link href="http://www.compegps.com">
      <text>CompeGPS TEAM, SL</text>
    </link>
    <time>2014-08-16T20:49:01Z</time>
    <bounds maxlat="47.217369" maxlon="-121.909008" minlat="46.973779" minlon="-122.060627"/>
  </metadata>
  <trk>
    <name>Jour_73</name>
    <trkseg>
      <trkpt lat="46.973779" lon="-121.951820">
        <ele>961.1</ele>
        <time>2014-08-14T15:54:11Z</time>
        <sat>6</sat>
      </trkpt>
      <trkpt lat="46.973782" lon="-121.951820">
        <ele>961.2</ele>
        <time>2014-08-14T15:54:12Z</time>
        <sat>6</sat>
      </trkpt>
      <trkpt lat="46.973910" lon="-121.951860">
        <ele>960.9</ele>
        <time>2014-08-14T15:54:18Z</time>
        <sat>6</sat>
      </trkpt>
      <trkpt lat="46.974024" lon="-121.951833">
        <ele>960.3</ele>
        <time>2014-08-14T15:54:28Z</time>
        <sat>6</sat>
      </trkpt>
      <trkpt lat="46.973980" lon="-121.951966">
        <ele>961.0</ele>
        <time>2014-08-14T15:54:42Z</time>
        <sat>6</sat>
      </trkpt>
      <trkpt lat="46.973973" lon="-121.952105">
        <ele>960.6</ele>
        <time>2014-08-14T15:54:45Z</time>
        <sat>6</sat>
      </trkpt>
      <trkpt lat="46.974030" lon="-121.952233">
        <ele>959.0</ele>
        <time>2014-08-14T15:54:49Z</time>
        <sat>6</sat>
      </trkpt>
      <trkpt lat="46.974077" lon="-121.952347">
        <ele>955.0</ele>
        <time>2014-08-14T15:54:57Z</time>
        <sat>5</sat>
      </trkpt>
      <trkpt lat="46.974147" lon="-121.952437">
        <ele>953.7</ele>
        <time>2014-08-14T15:55:05Z</time>
        <sat>5</sat>
      </trkpt>
      <trkpt lat="46.974217" lon="-121.952530">
        <ele>952.5</ele>
        <time>2014-08-14T15:55:09Z</time>
        <sat>5</sat>
      </trkpt>
      <trkpt lat="46.974282" lon="-121.952633">
        <ele>951.1</ele>
        <time>2014-08-14T15:55:12Z</time>
        <sat>5</sat>
      </trkpt>
      <trkpt lat="46.974344" lon="-121.952760">
        <ele>949.8</ele>
        <time>2014-08-14T15:55:15Z</time>
        <sat>5</sat>
      </trkpt>
      <trkpt lat="46.974395" lon="-121.952868">
        <ele>948.6</ele>
        <time>2014-08-14T15:55:18Z</time>
        <sat>5</sat>
      </trkpt>
      <trkpt lat="46.974442" lon="-121.952998">
        <ele>947.2</ele>
        <time>2014-08-14T15:55:21Z</time>
        <sat>5</sat>
      </trkpt>
      <trkpt lat="46.974508" lon="-121.953110">
        <ele>945.2</ele>
        <time>2014-08-14T15:55:24Z</time>
        <sat>5</sat>
      </trkpt>
      <trkpt lat="46.974587" lon="-121.953180">
        <ele>943.7</ele>
        <time>2014-08-14T15:55:27Z</time>
        <sat>5</sat>
      </trkpt>
      <trkpt lat="46.974665" lon="-121.953285">
        <ele>941.6</ele>
        <time>2014-08-14T15:55:30Z</time>
        <sat>5</sat>
      </trkpt>
      <trkpt lat="46.974752" lon="-121.953421">
        <ele>939.5</ele>
        <time>2014-08-14T15:55:33Z</time>
        <sat>5</sat>
      </trkpt>
      <trkpt lat="46.974814" lon="-121.953557">
        <ele>937.3</ele>
        <time>2014-08-14T15:55:36Z</time>
        <sat>5</sat>
      </trkpt>
      <trkpt lat="46.974860" lon="-121.953690">
        <ele>935.1</ele>
        <time>2014-08-14T15:55:39Z</time>
        <sat>5</sat>
      </trkpt>
      <trkpt lat="46.974933" lon="-121.953828">
        <ele>932.2</ele>
        <time>2014-08-14T15:55:43Z</time>
        <sat>5</sat>
      </trkpt>
      <trkpt lat="46.974990" lon="-121.953948">
        <ele>929.4</ele>
        <time>2014-08-14T15:55:46Z</time>
        <sat>5</sat>
      </trkpt>
      <trkpt lat="46.975077" lon="-121.954050">
        <ele>927.1</ele>
        <time>2014-08-14T15:55:49Z</time>
        <sat>5</sat>
      </trkpt>
      <trkpt lat="46.975165" lon="-121.954123">
        <ele>925.2</ele>
        <time>2014-08-14T15:55:52Z</time>
        <sat>5</sat>
      </trkpt>
      <trkpt lat="46.975250" lon="-121.954172">
        <ele>923.5</ele>
        <time>2014-08-14T15:55:55Z</time>
        <sat>5</sat>
      </trkpt>
      <trkpt lat="46.975354" lon="-121.954240">
        <ele>920.9</ele>
        <time>2014-08-14T15:55:59Z</time>
        <sat>5</sat>
      </trkpt>
      <trkpt lat="46.975423" lon="-121.954333">
        <ele>918.8</ele>
        <time>2014-08-14T15:56:03Z</time>
        <sat>5</sat>
      </trkpt>
      <trkpt lat="46.975549" lon="-121.954402">
        <ele>916.0</ele>
        <time>2014-08-14T15:56:07Z</time>
        <sat>5</sat>
      </trkpt>
      <trkpt lat="46.975665" lon="-121.954463">
        <ele>914.6</ele>
        <time>2014-08-14T15:56:11Z</time>
        <sat>5</sat>
      </trkpt>
      <trkpt lat="46.975762" lon="-121.954530">
        <ele>913.3</ele>
        <time>2014-08-14T15:56:14Z</time>
        <sat>5</sat>
      </trkpt>
      <trkpt lat="46.975868" lon="-121.954582">
        <ele>911.8</ele>
        <time>2014-08-14T15:56:17Z</time>
        <sat>5</sat>
      </trkpt>
      <trkpt lat="46.975983" lon="-121.954645">
        <ele>910.2</ele>
        <time>2014-08-14T15:56:20Z</time>
        <sat>5</sat>
      </trkpt>
      <trkpt lat="46.976077" lon="-121.954740">
        <ele>907.9</ele>
        <time>2014-08-14T15:56:23Z</time>
        <sat>5</sat>
      </trkpt>
      <trkpt lat="46.976157" lon="-121.954860">
        <ele>905.7</ele>
        <time>2014-08-14T15:56:26Z</time>
        <sat>5</sat>
      </trkpt>
      <trkpt lat="46.976220" lon="-121.954973">
        <ele>903.3</ele>
        <time>2014-08-14T15:56:30Z</time>
        <sat>5</sat>
      </trkpt>
      <trkpt lat="46.976305" lon="-121.955101">
        <ele>897.3</ele>
        <time>2014-08-14T15:56:53Z</time>
        <sat>6</sat>
      </trkpt>
      <trkpt lat="46.976413" lon="-121.955172">
        <ele>895.8</ele>
        <time>2014-08-14T15:56:57Z</time>
        <sat>5</sat>
      </trkpt>
      <trkpt lat="46.976562" lon="-121.955218">
        <ele>893.0</ele>
        <time>2014-08-14T15:57:01Z</time>
        <sat>5</sat>
      </trkpt>
      <trkpt lat="46.976655" lon="-121.955218">
        <ele>892.3</ele>
        <time>2014-08-14T15:57:04Z</time>
        <sat>6</sat>
      </trkpt>
      <trkpt lat="46.976750" lon="-121.955238">
        <ele>891.0</ele>
        <time>2014-08-14T15:57:07Z</time>
        <sat>6</sat>
      </trkpt>
      <trkpt lat="46.976855" lon="-121.955280">
        <ele>888.5</ele>
        <time>2014-08-14T15:57:11Z</time>
        <sat>6</sat>
      </trkpt>
      <trkpt lat="46.976945" lon="-121.955298">
        <ele>886.6</ele>
        <time>2014-08-14T15:57:14Z</time>
        <sat>6</sat>
      </trkpt>
      <trkpt lat="46.977032" lon="-121.955238">
        <ele>884.0</ele>
        <time>2014-08-14T15:57:18Z</time>
        <sat>7</sat>
      </trkpt>
      <trkpt lat="46.977078" lon="-121.955116">
        <ele>880.9</ele>
        <time>2014-08-14T15:57:22Z</time>
        <sat>7</sat>
      </trkpt>
      <trkpt lat="46.977054" lon="-121.954955">
        <ele>879.2</ele>
        <time>2014-08-14T15:57:25Z</time>
        <sat>7</sat>
      </trkpt>
      <trkpt lat="46.977055" lon="-121.954805">
        <ele>877.7</ele>
        <time>2014-08-14T15:57:28Z</time>
        <sat>7</sat>
      </trkpt>
      <trkpt lat="46.977014" lon="-121.954663">
        <ele>875.6</ele>
        <time>2014-08-14T15:57:35Z</time>
        <sat>7</sat>
      </trkpt>
      <trkpt lat="46.976947" lon="-121.954525">
        <ele>873.3</ele>
        <time>2014-08-14T15:57:39Z</time>
        <sat>7</sat>
      </trkpt>
      <trkpt lat="46.976883" lon="-121.954380">
        <ele>868.8</ele>
        <time>2014-08-14T15:57:44Z</time>
        <sat>7</sat>
      </trkpt>
      <trkpt lat="46.976790" lon="-121.954308">
        <ele>871.9</ele>
        <time>2014-08-14T15:57:47Z</time>
        <sat>7</sat>
      </trkpt>
      <trkpt lat="46.976737" lon="-121.954181">
        <ele>873.5</ele>
        <time>2014-08-14T15:57:53Z</time>
        <sat>7</sat>
      </trkpt>
      <trkpt lat="46.976662" lon="-121.954091">
        <ele>873.3</ele>
        <time>2014-08-14T15:57:57Z</time>
        <sat>8</sat>
      </trkpt>
      <trkpt lat="46.976560" lon="-121.954057">
        <ele>873.5</ele>
        <time>2014-08-14T15:57:59Z</time>
        <sat>8</sat>
      </trkpt>
      <trkpt lat="46.976452" lon="-121.954035">
        <ele>873.8</ele>
        <time>2014-08-14T15:58:01Z</time>
        <sat>8</sat>
      </trkpt>
      <trkpt lat="46.976293" lon="-121.954020">
        <ele>873.5</ele>
        <time>2014-08-14T15:58:03Z</time>
        <sat>8</sat>
      </trkpt>
      <trkpt lat="46.976219" lon="-121.953923">
        <ele>873.4</ele>
        <time>2014-08-14T15:58:07Z</time>
        <sat>8</sat>
      </trkpt>
      <trkpt lat="46.976220" lon="-121.953770">
        <ele>873.4</ele>
        <time>2014-08-14T15:58:11Z</time>
        <sat>8</sat>
      </trkpt>
      <trkpt lat="46.976235" lon="-121.953628">
        <ele>873.3</ele>
        <time>2014-08-14T15:58:18Z</time>
        <sat>8</sat>
      </trkpt>
      <trkpt lat="46.976219" lon="-121.953478">
        <ele>874.1</ele>
        <time>2014-08-14T15:58:48Z</time>
        <sat>7</sat>
      </trkpt>
      <trkpt lat="46.976188" lon="-121.953350">
        <ele>873.8</ele>
        <time>2014-08-14T15:58:51Z</time>
        <sat>7</sat>
      </trkpt>
      <trkpt lat="46.976155" lon="-121.953220">
        <ele>873.8</ele>
        <time>2014-08-14T15:58:54Z</time>
        <sat>7</sat>
      </trkpt>
      <trkpt lat="46.976124" lon="-121.953095">
        <ele>873.7</ele>
        <time>2014-08-14T15:58:57Z</time>
        <sat>7</sat>
      </trkpt>
      <trkpt lat="46.976142" lon="-121.952927">
        <ele>873.3</ele>
        <time>2014-08-14T15:59:01Z</time>
        <sat>7</sat>
      </trkpt>
      <trkpt lat="46.976198" lon="-121.952803">
        <ele>873.6</ele>
        <time>2014-08-14T15:59:04Z</time>
        <sat>7</sat>
      </trkpt>
      <trkpt lat="46.976234" lon="-121.952662">
        <ele>873.2</ele>
        <time>2014-08-14T15:59:08Z</time>
        <sat>7</sat>
      </trkpt>
      <trkpt lat="46.976315" lon="-121.952545">
        <ele>873.3</ele>
        <time>2014-08-14T15:59:36Z</time>
        <sat>7</sat>
      </trkpt>
      <trkpt lat="46.976400" lon="-121.952428">
        <ele>874.0</ele>
        <time>2014-08-14T15:59:41Z</time>
        <sat>7</sat>
      </trkpt>
      <trkpt lat="46.976502" lon="-121.952342">
        <ele>873.9</ele>
        <time>2014-08-14T15:59:44Z</time>
        <sat>7</sat>
      </trkpt>
      <trkpt lat="46.976587" lon="-121.952247">
        <ele>873.9</ele>
        <time>2014-08-14T15:59:47Z</time>
        <sat>6</sat>
      </trkpt>
      <trkpt lat="46.976682" lon="-121.952153">
        <ele>874.2</ele>
        <time>2014-08-14T15:59:50Z</time>
        <sat>6</sat>
      </trkpt>
      <trkpt lat="46.976758" lon="-121.952053">
        <ele>874.2</ele>
        <time>2014-08-14T15:59:53Z</time>
        <sat>7</sat>
      </trkpt>
      <trkpt lat="46.976832" lon="-121.951960">
        <ele>874.3</ele>
        <time>2014-08-14T15:59:56Z</time>
        <sat>7</sat>
      </trkpt>
      <trkpt lat="46.976883" lon="-121.951848">
        <ele>874.4</ele>
        <time>2014-08-14T16:00:02Z</time>
        <sat>7</sat>
      </trkpt>
      <trkpt lat="46.976999" lon="-121.951755">
        <ele>873.0</ele>
        <time>2014-08-14T16:00:13Z</time>
        <sat>5</sat>
      </trkpt>
      <trkpt lat="46.977163" lon="-121.951698">
        <ele>872.0</ele>
        <time>2014-08-14T16:00:17Z</time>
        <sat>5</sat>
      </trkpt>
      <trkpt lat="46.977269" lon="-121.951723">
        <ele>872.0</ele>
        <time>2014-08-14T16:00:21Z</time>
        <sat>6</sat>
      </trkpt>
      <trkpt lat="46.977370" lon="-121.951714">
        <ele>870.0</ele>
        <time>2014-08-14T16:00:26Z</time>
        <sat>6</sat>
      </trkpt>
      <trkpt lat="46.977480" lon="-121.951702">
        <ele>870.0</ele>
        <time>2014-08-14T16:00:29Z</time>
        <sat>7</sat>
      </trkpt>
      <trkpt lat="46.977575" lon="-121.951693">
        <ele>869.8</ele>
        <time>2014-08-14T16:00:31Z</time>
        <sat>7</sat>
      </trkpt>
      <trkpt lat="46.977705" lon="-121.951675">
        <ele>868.5</ele>
        <time>2014-08-14T16:00:34Z</time>
        <sat>7</sat>
      </trkpt>
      <trkpt lat="46.977799" lon="-121.951663">
        <ele>867.8</ele>
        <time>2014-08-14T16:00:36Z</time>
        <sat>7</sat>
      </trkpt>
      <trkpt lat="46.977920" lon="-121.951631">
        <ele>865.7</ele>
        <time>2014-08-14T16:00:39Z</time>
        <sat>7</sat>
      </trkpt>
      <trkpt lat="46.978017" lon="-121.951588">
        <ele>865.4</ele>
        <time>2014-08-14T16:00:41Z</time>
        <sat>8</sat>
      </trkpt>
      <trkpt lat="46.978139" lon="-121.951526">
        <ele>864.5</ele>
        <time>2014-08-14T16:00:43Z</time>
        <sat>8</sat>
      </trkpt>
      <trkpt lat="46.978247" lon="-121.951465">
        <ele>862.6</ele>
        <time>2014-08-14T16:00:45Z</time>
        <sat>8</sat>
      </trkpt>
      <trkpt lat="46.978362" lon="-121.951403">
        <ele>859.6</ele>
        <time>2014-08-14T16:00:48Z</time>
        <sat>8</sat>
      </trkpt>
      <trkpt lat="46.978469" lon="-121.951353">
        <ele>855.7</ele>
        <time>2014-08-14T16:00:54Z</time>
        <sat>9</sat>
      </trkpt>
      <trkpt lat="46.978565" lon="-121.951267">
        <ele>854.2</ele>
        <time>2014-08-14T16:00:57Z</time>
        <sat>9</sat>
      </trkpt>
      <trkpt lat="46.978650" lon="-121.951152">
        <ele>853.0</ele>
        <time>2014-08-14T16:01:00Z</time>
        <sat>9</sat>
      </trkpt>
      <trkpt lat="46.978748" lon="-121.951020">
        <ele>851.2</ele>
        <time>2014-08-14T16:01:03Z</time>
        <sat>9</sat>
      </trkpt>
      <trkpt lat="46.978822" lon="-121.950880">
        <ele>849.8</ele>
        <time>2014-08-14T16:01:06Z</time>
        <sat>9</sat>
      </trkpt>
      <trkpt lat="46.978878" lon="-121.950762">
        <ele>848.7</ele>
        <time>2014-08-14T16:01:09Z</time>
        <sat>9</sat>
      </trkpt>
      <trkpt lat="46.978944" lon="-121.950625">
        <ele>846.8</ele>
        <time>2014-08-14T16:01:12Z</time>
        <sat>8</sat>
      </trkpt>
      <trkpt lat="46.979000" lon="-121.950493">
        <ele>845.2</ele>
        <time>2014-08-14T16:01:15Z</time>
        <sat>8</sat>
      </trkpt>
      <trkpt lat="46.979070" lon="-121.950357">
        <ele>842.0</ele>
        <time>2014-08-14T16:01:19Z</time>
        <sat>8</sat>
      </trkpt>
      <trkpt lat="46.979137" lon="-121.950237">
        <ele>840.5</ele>
        <time>2014-08-14T16:01:22Z</time>
        <sat>8</sat>
      </trkpt>
      <trkpt lat="46.979202" lon="-121.950083">
        <ele>839.3</ele>
        <time>2014-08-14T16:01:25Z</time>
        <sat>8</sat>
      </trkpt>
      <trkpt lat="46.979218" lon="-121.949898">
        <ele>837.9</ele>
        <time>2014-08-14T16:01:28Z</time>
        <sat>8</sat>
      </trkpt>
      <trkpt lat="46.979208" lon="-121.949763">
        <ele>836.5</ele>
        <time>2014-08-14T16:01:30Z</time>
        <sat>8</sat>
      </trkpt>
      <trkpt lat="46.979183" lon="-121.949586">
        <ele>834.3</ele>
        <time>2014-08-14T16:01:33Z</time>
        <sat>8</sat>
      </trkpt>
      <trkpt lat="46.979154" lon="-121.949425">
        <ele>832.1</ele>
        <time>2014-08-14T16:01:36Z</time>
        <sat>8</sat>
      </trkpt>
      <trkpt lat="46.979140" lon="-121.949271">
        <ele>831.0</ele>
        <time>2014-08-14T16:01:39Z</time>
        <sat>8</sat>
      </trkpt>
      <trkpt lat="46.979145" lon="-121.949133">
        <ele>828.2</ele>
        <time>2014-08-14T16:01:45Z</time>
        <sat>8</sat>
      </trkpt>
      <trkpt lat="46.979224" lon="-121.949040">
        <ele>826.4</ele>
        <time>2014-08-14T16:01:49Z</time>
        <sat>8</sat>
      </trkpt>
      <trkpt lat="46.979293" lon="-121.948950">
        <ele>825.5</ele>
        <time>2014-08-14T16:01:51Z</time>
        <sat>8</sat>
      </trkpt>
      <trkpt lat="46.979377" lon="-121.948865">
        <ele>824.5</ele>
        <time>2014-08-14T16:01:53Z</time>
        <sat>7</sat>
      </trkpt>
      <trkpt lat="46.979455" lon="-121.948777">
        <ele>823.5</ele>
        <time>2014-08-14T16:01:55Z</time>
        <sat>8</sat>
      </trkpt>
      <trkpt lat="46.979530" lon="-121.948702">
        <ele>823.0</ele>
        <time>2014-08-14T16:01:57Z</time>
        <sat>8</sat>
      </trkpt>
      <trkpt lat="46.979629" lon="-121.948585">
        <ele>820.6</ele>
        <time>2014-08-14T16:02:00Z</time>
        <sat>8</sat>
      </trkpt>
      <trkpt lat="46.979700" lon="-121.948490">
        <ele>819.4</ele>
        <time>2014-08-14T16:02:02Z</time>
        <sat>8</sat>
      </trkpt>
      <trkpt lat="46.979802" lon="-121.948385">
        <ele>817.8</ele>
        <time>2014-08-14T16:02:04Z</time>
        <sat>8</sat>
      </trkpt>
      <trkpt lat="46.979875" lon="-121.948288">
        <ele>816.3</ele>
        <time>2014-08-14T16:02:06Z</time>
        <sat>8</sat>
      </trkpt>
      <trkpt lat="46.979945" lon="-121.948188">
        <ele>815.4</ele>
        <time>2014-08-14T16:02:08Z</time>
        <sat>8</sat>
      </trkpt>
      <trkpt lat="46.980013" lon="-121.948076">
        <ele>813.9</ele>
        <time>2014-08-14T16:02:10Z</time>
        <sat>8</sat>
      </trkpt>
      <trkpt lat="46.980075" lon="-121.947961">
        <ele>812.7</ele>
        <time>2014-08-14T16:02:12Z</time>
        <sat>8</sat>
      </trkpt>
      <trkpt lat="46.980149" lon="-121.947835">
        <ele>811.2</ele>
        <time>2014-08-14T16:02:14Z</time>
        <sat>8</sat>
      </trkpt>
      <trkpt lat="46.980207" lon="-121.947728">
        <ele>809.9</ele>
        <time>2014-08-14T16:02:16Z</time>
        <sat>8</sat>
      </trkpt>
      <trkpt lat="46.980285" lon="-121.947613">
        <ele>808.0</ele>
        <time>2014-08-14T16:02:19Z</time>
        <sat>8</sat>
      </trkpt>
      <trkpt lat="46.980338" lon="-121.947500">
        <ele>805.1</ele>
        <time>2014-08-14T16:02:24Z</time>
        <sat>8</sat>
      </trkpt>
      <trkpt lat="46.980415" lon="-121.947388">
        <ele>802.4</ele>
        <time>2014-08-14T16:02:33Z</time>
        <sat>8</sat>
      </trkpt>
      <trkpt lat="46.980489" lon="-121.947305">
        <ele>801.7</ele>
        <time>2014-08-14T16:02:37Z</time>
        <sat>8</sat>
      </trkpt>
      <trkpt lat="46.980555" lon="-121.947213">
        <ele>799.9</ele>
        <time>2014-08-14T16:02:40Z</time>
        <sat>8</sat>
      </trkpt>
      <trkpt lat="46.980604" lon="-121.947102">
        <ele>798.8</ele>
        <time>2014-08-14T16:02:42Z</time>
        <sat>8</sat>
      </trkpt>
      <trkpt lat="46.980622" lon="-121.946951">
        <ele>797.8</ele>
        <time>2014-08-14T16:02:44Z</time>
        <sat>8</sat>
      </trkpt>
      <trkpt lat="46.980630" lon="-121.946811">
        <ele>797.0</ele>
        <time>2014-08-14T16:02:46Z</time>
        <sat>8</sat>
      </trkpt>
      <trkpt lat="46.980612" lon="-121.946677">
        <ele>795.8</ele>
        <time>2014-08-14T16:02:48Z</time>
        <sat>8</sat>
      </trkpt>
      <trkpt lat="46.980602" lon="-121.946521">
        <ele>795.0</ele>
        <time>2014-08-14T16:02:50Z</time>
        <sat>8</sat>
      </trkpt>
      <trkpt lat="46.980565" lon="-121.946363">
        <ele>794.1</ele>
        <time>2014-08-14T16:02:52Z</time>
        <sat>8</sat>
      </trkpt>
      <trkpt lat="46.980510" lon="-121.946207">
        <ele>792.2</ele>
        <time>2014-08-14T16:02:54Z</time>
        <sat>8</sat>
      </trkpt>
      <trkpt lat="46.980477" lon="-121.946073">
        <ele>790.6</ele>
        <time>2014-08-14T16:02:56Z</time>
        <sat>8</sat>
      </trkpt>
      <trkpt lat="46.980465" lon="-121.945931">
        <ele>788.7</ele>
        <time>2014-08-14T16:02:59Z</time>
        <sat>8</sat>
      </trkpt>
      <trkpt lat="46.980432" lon="-121.945777">
        <ele>783.8</ele>
        <time>2014-08-14T16:03:14Z</time>
        <sat>8</sat>
      </trkpt>
      <trkpt lat="46.980398" lon="-121.945637">
        <ele>783.4</ele>
        <time>2014-08-14T16:03:17Z</time>
        <sat>8</sat>
      </trkpt>
      <trkpt lat="46.980362" lon="-121.945480">
        <ele>781.5</ele>
        <time>2014-08-14T16:03:21Z</time>
        <sat>8</sat>
      </trkpt>
      <trkpt lat="46.980308" lon="-121.945320">
        <ele>780.2</ele>
        <time>2014-08-14T16:03:25Z</time>
        <sat>8</sat>
      </trkpt>
      <trkpt lat="46.980225" lon="-121.945200">
        <ele>779.2</ele>
        <time>2014-08-14T16:03:28Z</time>
        <sat>8</sat>
      </trkpt>
      <trkpt lat="46.980145" lon="-121.945053">
        <ele>777.2</ele>
        <time>2014-08-14T16:03:31Z</time>
        <sat>8</sat>
      </trkpt>
      <trkpt lat="46.980082" lon="-121.944893">
        <ele>775.5</ele>
        <time>2014-08-14T16:03:34Z</time>
        <sat>8</sat>
      </trkpt>
      <trkpt lat="46.980027" lon="-121.944738">
        <ele>773.2</ele>
        <time>2014-08-14T16:03:37Z</time>
        <sat>8</sat>
      </trkpt>
      <trkpt lat="46.979973" lon="-121.944630">
        <ele>767.8</ele>
        <time>2014-08-14T16:03:51Z</time>
        <sat>8</sat>
      </trkpt>
      <trkpt lat="46.979942" lon="-121.944496">
        <ele>766.4</ele>
        <time>2014-08-14T16:04:12Z</time>
        <sat>8</sat>
      </trkpt>
      <trkpt lat="46.979900" lon="-121.944338">
        <ele>765.7</ele>
        <time>2014-08-14T16:04:15Z</time>
        <sat>8</sat>
      </trkpt>
      <trkpt lat="46.979830" lon="-121.944195">
        <ele>765.1</ele>
        <time>2014-08-14T16:04:18Z</time>
        <sat>8</sat>
      </trkpt>
      <trkpt lat="46.979738" lon="-121.944068">
        <ele>764.0</ele>
        <time>2014-08-14T16:04:21Z</time>
        <sat>8</sat>
      </trkpt>
      <trkpt lat="46.979675" lon="-121.943925">
        <ele>762.9</ele>
        <time>2014-08-14T16:04:24Z</time>
        <sat>8</sat>
      </trkpt>
      <trkpt lat="46.979619" lon="-121.943780">
        <ele>761.2</ele>
        <time>2014-08-14T16:04:27Z</time>
        <sat>8</sat>
      </trkpt>
      <trkpt lat="46.979572" lon="-121.943655">
        <ele>760.0</ele>
        <time>2014-08-14T16:04:30Z</time>
        <sat>8</sat>
      </trkpt>
      <trkpt lat="46.979507" lon="-121.943537">
        <ele>758.4</ele>
        <time>2014-08-14T16:04:34Z</time>
        <sat>8</sat>
      </trkpt>
      <trkpt lat="46.979433" lon="-121.943413">
        <ele>757.6</ele>
        <time>2014-08-14T16:04:37Z</time>
        <sat>8</sat>
      </trkpt>
      <trkpt lat="46.979374" lon="-121.943287">
        <ele>756.5</ele>
        <time>2014-08-14T16:04:41Z</time>
        <sat>8</sat>
      </trkpt>
      <trkpt lat="46.979303" lon="-121.943203">
        <ele>754.7</ele>
        <time>2014-08-14T16:04:44Z</time>
        <sat>8</sat>
      </trkpt>
      <trkpt lat="46.979212" lon="-121.943115">
        <ele>754.0</ele>
        <time>2014-08-14T16:04:46Z</time>
        <sat>8</sat>
      </trkpt>
      <trkpt lat="46.979122" lon="-121.943016">
        <ele>752.3</ele>
        <time>2014-08-14T16:04:50Z</time>
        <sat>8</sat>
      </trkpt>
      <trkpt lat="46.979118" lon="-121.942870">
        <ele>749.7</ele>
        <time>2014-08-14T16:05:04Z</time>
        <sat>8</sat>
      </trkpt>
      <trkpt lat="46.979080" lon="-121.942733">
        <ele>749.3</ele>
        <time>2014-08-14T16:05:08Z</time>
        <sat>8</sat>
      </trkpt>
      <trkpt lat="46.979030" lon="-121.942603">
        <ele>748.5</ele>
        <time>2014-08-14T16:05:11Z</time>
        <sat>8</sat>
      </trkpt>
      <trkpt lat="46.978944" lon="-121.942455">
        <ele>747.8</ele>
        <time>2014-08-14T16:05:14Z</time>
        <sat>8</sat>
      </trkpt>
      <trkpt lat="46.978870" lon="-121.942361">
        <ele>747.0</ele>
        <time>2014-08-14T16:05:16Z</time>
        <sat>8</sat>
      </trkpt>
      <trkpt lat="46.978814" lon="-121.942187">
        <ele>746.3</ele>
        <time>2014-08-14T16:05:19Z</time>
        <sat>8</sat>
      </trkpt>
      <trkpt lat="46.978763" lon="-121.942038">
        <ele>745.3</ele>
        <time>2014-08-14T16:05:22Z</time>
        <sat>8</sat>
      </trkpt>
      <trkpt lat="46.978707" lon="-121.941903">
        <ele>744.0</ele>
        <time>2014-08-14T16:05:25Z</time>
        <sat>8</sat>
      </trkpt>
      <trkpt lat="46.978628" lon="-121.941837">
        <ele>742.5</ele>
        <time>2014-08-14T16:05:33Z</time>
        <sat>8</sat>
      </trkpt>
      <trkpt lat="46.978599" lon="-121.941691">
        <ele>741.3</ele>
        <time>2014-08-14T16:05:41Z</time>
        <sat>8</sat>
      </trkpt>
      <trkpt lat="46.978617" lon="-121.941533">
        <ele>741.2</ele>
        <time>2014-08-14T16:05:46Z</time>
        <sat>8</sat>
      </trkpt>
      <trkpt lat="46.978570" lon="-121.941405">
        <ele>741.3</ele>
        <time>2014-08-14T16:05:51Z</time>
        <sat>8</sat>
      </trkpt>
      <trkpt lat="46.978523" lon="-121.941266">
        <ele>741.4</ele>
        <time>2014-08-14T16:05:56Z</time>
        <sat>8</sat>
      </trkpt>
      <trkpt lat="46.978513" lon="-121.941130">
        <ele>741.0</ele>
        <time>2014-08-14T16:06:00Z</time>
        <sat>8</sat>
      </trkpt>
      <trkpt lat="46.978530" lon="-121.940977">
        <ele>741.4</ele>
        <time>2014-08-14T16:06:04Z</time>
        <sat>8</sat>
      </trkpt>
      <trkpt lat="46.978487" lon="-121.940852">
        <ele>741.4</ele>
        <time>2014-08-14T16:06:08Z</time>
        <sat>7</sat>
      </trkpt>
      <trkpt lat="46.978470" lon="-121.940722">
        <ele>741.8</ele>
        <time>2014-08-14T16:06:11Z</time>
        <sat>7</sat>
      </trkpt>
      <trkpt lat="46.978413" lon="-121.940539">
        <ele>741.0</ele>
        <time>2014-08-14T16:06:16Z</time>
        <sat>6</sat>
      </trkpt>
      <trkpt lat="46.978238" lon="-121.940511">
        <ele>742.0</ele>
        <time>2014-08-14T16:06:24Z</time>
        <sat>6</sat>
      </trkpt>
      <trkpt lat="46.978123" lon="-121.940536">
        <ele>742.0</ele>
        <time>2014-08-14T16:06:32Z</time>
        <sat>6</sat>
      </trkpt>
      <trkpt lat="46.978038" lon="-121.940443">
        <ele>742.0</ele>
        <time>2014-08-14T16:06:44Z</time>
        <sat>6</sat>
      </trkpt>
      <trkpt lat="46.978060" lon="-121.940218">
        <ele>743.0</ele>
        <time>2014-08-14T16:06:52Z</time>
        <sat>6</sat>
      </trkpt>
      <trkpt lat="46.978118" lon="-121.939967">
        <ele>743.0</ele>
        <time>2014-08-14T16:07:00Z</time>
        <sat>6</sat>
      </trkpt>
      <trkpt lat="46.978050" lon="-121.939879">
        <ele>743.0</ele>
        <time>2014-08-14T16:07:04Z</time>
        <sat>6</sat>
      </trkpt>
      <trkpt lat="46.977955" lon="-121.939720">
        <ele>744.0</ele>
        <time>2014-08-14T16:07:12Z</time>
        <sat>6</sat>
      </trkpt>
      <trkpt lat="46.977815" lon="-121.939770">
        <ele>744.0</ele>
        <time>2014-08-14T16:07:32Z</time>
        <sat>6</sat>
      </trkpt>
      <trkpt lat="46.977718" lon="-121.939795">
        <ele>745.0</ele>
        <time>2014-08-14T16:07:44Z</time>
        <sat>6</sat>
      </trkpt>
      <trkpt lat="46.977622" lon="-121.939801">
        <ele>745.0</ele>
        <time>2014-08-14T16:07:52Z</time>
        <sat>6</sat>
      </trkpt>
      <trkpt lat="46.977635" lon="-121.939617">
        <ele>745.0</ele>
        <time>2014-08-14T16:08:04Z</time>
        <sat>6</sat>
      </trkpt>
      <trkpt lat="46.977621" lon="-121.939465">
        <ele>745.0</ele>
        <time>2014-08-14T16:08:20Z</time>
        <sat>6</sat>
      </trkpt>
      <trkpt lat="46.977576" lon="-121.939245">
        <ele>745.0</ele>
        <time>2014-08-14T16:08:28Z</time>
        <sat>6</sat>
      </trkpt>
      <trkpt lat="46.977535" lon="-121.938994">
        <ele>745.0</ele>
        <time>2014-08-14T16:08:36Z</time>
        <sat>6</sat>
      </trkpt>
      <trkpt lat="46.977564" lon="-121.938815">
        <ele>746.0</ele>
        <time>2014-08-14T16:08:40Z</time>
        <sat>6</sat>
      </trkpt>
      <trkpt lat="46.977607" lon="-121.938658">
        <ele>746.0</ele>
        <time>2014-08-14T16:08:44Z</time>
        <sat>6</sat>
      </trkpt>
      <trkpt lat="46.977699" lon="-121.938459">
        <ele>746.0</ele>
        <time>2014-08-14T16:08:48Z</time>
        <sat>6</sat>
      </trkpt>
      <trkpt lat="46.977803" lon="-121.938287">
        <ele>746.0</ele>
        <time>2014-08-14T16:08:52Z</time>
        <sat>6</sat>
      </trkpt>
      <trkpt lat="46.977830" lon="-121.938153">
        <ele>746.0</ele>
        <time>2014-08-14T16:08:56Z</time>
        <sat>6</sat>
      </trkpt>
      <trkpt lat="46.977768" lon="-121.938035">
        <ele>746.0</ele>
        <time>2014-08-14T16:09:00Z</time>
        <sat>5</sat>
      </trkpt>
      <trkpt lat="46.977633" lon="-121.937894">
        <ele>745.0</ele>
        <time>2014-08-14T16:09:04Z</time>
        <sat>6</sat>
      </trkpt>
      <trkpt lat="46.977588" lon="-121.937689">
        <ele>745.0</ele>
        <time>2014-08-14T16:09:12Z</time>
        <sat>6</sat>
      </trkpt>
      <trkpt lat="46.977600" lon="-121.937558">
        <ele>745.7</ele>
        <time>2014-08-14T16:09:18Z</time>
        <sat>7</sat>
      </trkpt>
      <trkpt lat="46.977680" lon="-121.937496">
        <ele>744.0</ele>
        <time>2014-08-14T16:09:31Z</time>
        <sat>6</sat>
      </trkpt>
      <trkpt lat="46.977776" lon="-121.937502">
        <ele>744.0</ele>
        <time>2014-08-14T16:09:35Z</time>
        <sat>6</sat>
      </trkpt>
      <trkpt lat="46.977869" lon="-121.937603">
        <ele>744.0</ele>
        <time>2014-08-14T16:09:39Z</time>
        <sat>6</sat>
      </trkpt>
      <trkpt lat="46.977909" lon="-121.937799">
        <ele>743.0</ele>
        <time>2014-08-14T16:09:43Z</time>
        <sat>6</sat>
      </trkpt>
      <trkpt lat="46.977991" lon="-121.937925">
        <ele>743.0</ele>
        <time>2014-08-14T16:09:47Z</time>
        <sat>6</sat>
      </trkpt>
      <trkpt lat="46.978100" lon="-121.937999">
        <ele>742.0</ele>
        <time>2014-08-14T16:09:51Z</time>
        <sat>6</sat>
      </trkpt>
      <trkpt lat="46.978171" lon="-121.938221">
        <ele>740.0</ele>
        <time>2014-08-14T16:09:55Z</time>
        <sat>6</sat>
      </trkpt>
      <trkpt lat="46.978159" lon="-121.938501">
        <ele>738.0</ele>
        <time>2014-08-14T16:09:59Z</time>
        <sat>6</sat>
      </trkpt>
      <trkpt lat="46.978127" lon="-121.938697">
        <ele>736.0</ele>
        <time>2014-08-14T16:10:03Z</time>
        <sat>6</sat>
      </trkpt>
      <trkpt lat="46.978217" lon="-121.938738">
        <ele>734.0</ele>
        <time>2014-08-14T16:10:11Z</time>
        <sat>6</sat>
      </trkpt>
      <trkpt lat="46.978363" lon="-121.938917">
        <ele>731.0</ele>
        <time>2014-08-14T16:10:23Z</time>
        <sat>6</sat>
      </trkpt>
      <trkpt lat="46.978480" lon="-121.938962">
        <ele>730.6</ele>
        <time>2014-08-14T16:10:26Z</time>
        <sat>7</sat>
      </trkpt>
      <trkpt lat="46.978568" lon="-121.939013">
        <ele>729.2</ele>
        <time>2014-08-14T16:10:30Z</time>
        <sat>7</sat>
      </trkpt>
      <trkpt lat="46.978630" lon="-121.939157">
        <ele>728.8</ele>
        <time>2014-08-14T16:10:33Z</time>
        <sat>7</sat>
      </trkpt>
      <trkpt lat="46.978715" lon="-121.939216">
        <ele>727.9</ele>
        <time>2014-08-14T16:10:35Z</time>
        <sat>7</sat>
      </trkpt>
      <trkpt lat="46.978832" lon="-121.939283">
        <ele>726.3</ele>
        <time>2014-08-14T16:10:38Z</time>
        <sat>7</sat>
      </trkpt>
      <trkpt lat="46.978930" lon="-121.939351">
        <ele>725.1</ele>
        <time>2014-08-14T16:10:41Z</time>
        <sat>7</sat>
      </trkpt>
      <trkpt lat="46.979025" lon="-121.939420">
        <ele>723.3</ele>
        <time>2014-08-14T16:10:44Z</time>
        <sat>7</sat>
      </trkpt>
      <trkpt lat="46.979120" lon="-121.939458">
        <ele>721.8</ele>
        <time>2014-08-14T16:10:47Z</time>
        <sat>7</sat>
      </trkpt>
      <trkpt lat="46.979202" lon="-121.939527">
        <ele>720.0</ele>
        <time>2014-08-14T16:10:51Z</time>
        <sat>7</sat>
      </trkpt>
      <trkpt lat="46.979340" lon="-121.939520">
        <ele>718.7</ele>
        <time>2014-08-14T16:10:53Z</time>
        <sat>7</sat>
      </trkpt>
      <trkpt lat="46.979433" lon="-121.939523">
        <ele>718.2</ele>
        <time>2014-08-14T16:10:54Z</time>
        <sat>7</sat>
      </trkpt>
      <trkpt lat="46.979540" lon="-121.939533">
        <ele>717.3</ele>
        <time>2014-08-14T16:10:55Z</time>
        <sat>7</sat>
      </trkpt>
      <trkpt lat="46.979630" lon="-121.939556">
        <ele>716.9</ele>
        <time>2014-08-14T16:10:56Z</time>
        <sat>7</sat>
      </trkpt>
      <trkpt lat="46.979753" lon="-121.939635">
        <ele>716.2</ele>
        <time>2014-08-14T16:10:58Z</time>
        <sat>7</sat>
      </trkpt>
      <trkpt lat="46.979859" lon="-121.939698">
        <ele>715.1</ele>
        <time>2014-08-14T16:11:00Z</time>
        <sat>7</sat>
      </trkpt>
      <trkpt lat="46.979949" lon="-121.939745">
        <ele>714.7</ele>
        <time>2014-08-14T16:11:02Z</time>
        <sat>7</sat>
      </trkpt>
      <trkpt lat="46.980060" lon="-121.939832">
        <ele>712.7</ele>
        <time>2014-08-14T16:11:05Z</time>
        <sat>7</sat>
      </trkpt>
      <trkpt lat="46.980090" lon="-121.939995">
        <ele>710.7</ele>
        <time>2014-08-14T16:11:08Z</time>
        <sat>7</sat>
      </trkpt>
      <trkpt lat="46.980090" lon="-121.940141">
        <ele>709.7</ele>
        <time>2014-08-14T16:11:11Z</time>
        <sat>7</sat>
      </trkpt>
      <trkpt lat="46.980179" lon="-121.940293">
        <ele>707.9</ele>
        <time>2014-08-14T16:11:14Z</time>
        <sat>7</sat>
      </trkpt>
      <trkpt lat="46.980265" lon="-121.940393">
        <ele>706.0</ele>
        <time>2014-08-14T16:11:17Z</time>
        <sat>7</sat>
      </trkpt>
      <trkpt lat="46.980345" lon="-121.940466">
        <ele>703.6</ele>
        <time>2014-08-14T16:11:22Z</time>
        <sat>7</sat>
      </trkpt>
      <trkpt lat="46.980437" lon="-121.940493">
        <ele>702.2</ele>
        <time>2014-08-14T16:11:27Z</time>
        <sat>7</sat>
      </trkpt>
      <trkpt lat="46.980524" lon="-121.940553">
        <ele>701.5</ele>
        <time>2014-08-14T16:11:29Z</time>
        <sat>7</sat>
      </trkpt>
      <trkpt lat="46.980677" lon="-121.940730">
        <ele>699.0</ele>
        <time>2014-08-14T16:11:32Z</time>
        <sat>6</sat>
      </trkpt>
      <trkpt lat="46.980856" lon="-121.940920">
        <ele>697.0</ele>
        <time>2014-08-14T16:11:36Z</time>
        <sat>6</sat>
      </trkpt>
      <trkpt lat="46.980978" lon="-121.941072">
        <ele>696.0</ele>
        <time>2014-08-14T16:11:40Z</time>
        <sat>6</sat>
      </trkpt>
      <trkpt lat="46.981087" lon="-121.941292">
        <ele>694.0</ele>
        <time>2014-08-14T16:11:44Z</time>
        <sat>6</sat>
      </trkpt>
      <trkpt lat="46.981149" lon="-121.941458">
        <ele>692.0</ele>
        <time>2014-08-14T16:11:48Z</time>
        <sat>6</sat>
      </trkpt>
      <trkpt lat="46.981254" lon="-121.941602">
        <ele>690.0</ele>
        <time>2014-08-14T16:11:52Z</time>
        <sat>6</sat>
      </trkpt>
      <trkpt lat="46.981427" lon="-121.941663">
        <ele>687.0</ele>
        <time>2014-08-14T16:11:56Z</time>
        <sat>6</sat>
      </trkpt>
      <trkpt lat="46.981567" lon="-121.941743">
        <ele>684.0</ele>
        <time>2014-08-14T16:12:00Z</time>
        <sat>6</sat>
      </trkpt>
      <trkpt lat="46.981786" lon="-121.941797">
        <ele>681.0</ele>
        <time>2014-08-14T16:12:04Z</time>
        <sat>6</sat>
      </trkpt>
      <trkpt lat="46.981909" lon="-121.941820">
        <ele>678.0</ele>
        <time>2014-08-14T16:12:08Z</time>
        <sat>6</sat>
      </trkpt>
      <trkpt lat="46.982030" lon="-121.941989">
        <ele>674.0</ele>
        <time>2014-08-14T16:12:16Z</time>
        <sat>6</sat>
      </trkpt>
      <trkpt lat="46.982163" lon="-121.942124">
        <ele>673.0</ele>
        <time>2014-08-14T16:12:20Z</time>
        <sat>6</sat>
      </trkpt>
      <trkpt lat="46.982330" lon="-121.942170">
        <ele>671.0</ele>
        <time>2014-08-14T16:12:24Z</time>
        <sat>6</sat>
      </trkpt>
      <trkpt lat="46.982545" lon="-121.942197">
        <ele>669.0</ele>
        <time>2014-08-14T16:12:28Z</time>
        <sat>6</sat>
      </trkpt>
      <trkpt lat="46.982678" lon="-121.942237">
        <ele>667.0</ele>
        <time>2014-08-14T16:12:32Z</time>
        <sat>6</sat>
      </trkpt>
      <trkpt lat="46.982809" lon="-121.942273">
        <ele>664.0</ele>
        <time>2014-08-14T16:12:36Z</time>
        <sat>6</sat>
      </trkpt>
      <trkpt lat="46.982948" lon="-121.942327">
        <ele>661.0</ele>
        <time>2014-08-14T16:12:40Z</time>
        <sat>6</sat>
      </trkpt>
      <trkpt lat="46.983087" lon="-121.942396">
        <ele>657.0</ele>
        <time>2014-08-14T16:12:44Z</time>
        <sat>6</sat>
      </trkpt>
      <trkpt lat="46.983227" lon="-121.942548">
        <ele>655.0</ele>
        <time>2014-08-14T16:12:48Z</time>
        <sat>6</sat>
      </trkpt>
      <trkpt lat="46.983535" lon="-121.942625">
        <ele>651.0</ele>
        <time>2014-08-14T16:12:52Z</time>
        <sat>6</sat>
      </trkpt>
      <trkpt lat="46.983761" lon="-121.942732">
        <ele>647.0</ele>
        <time>2014-08-14T16:12:56Z</time>
        <sat>6</sat>
      </trkpt>
      <trkpt lat="46.983928" lon="-121.942862">
        <ele>644.0</ele>
        <time>2014-08-14T16:13:00Z</time>
        <sat>6</sat>
      </trkpt>
      <trkpt lat="46.984072" lon="-121.942935">
        <ele>641.0</ele>
        <time>2014-08-14T16:13:04Z</time>
        <sat>6</sat>
      </trkpt>
      <trkpt lat="46.984261" lon="-121.943006">
        <ele>639.0</ele>
        <time>2014-08-14T16:13:08Z</time>
        <sat>6</sat>
      </trkpt>
      <trkpt lat="46.984385" lon="-121.943164">
        <ele>636.0</ele>
        <time>2014-08-14T16:13:12Z</time>
        <sat>6</sat>
      </trkpt>
      <trkpt lat="46.984517" lon="-121.943312">
        <ele>633.0</ele>
        <time>2014-08-14T16:13:16Z</time>
        <sat>6</sat>
      </trkpt>
      <trkpt lat="46.984693" lon="-121.943429">
        <ele>629.0</ele>
        <time>2014-08-14T16:13:20Z</time>
        <sat>6</sat>
      </trkpt>
      <trkpt lat="46.984847" lon="-121.943546">
        <ele>626.0</ele>
        <time>2014-08-14T16:13:24Z</time>
        <sat>6</sat>
      </trkpt>
      <trkpt lat="46.984943" lon="-121.943652">
        <ele>623.0</ele>
        <time>2014-08-14T16:13:28Z</time>
        <sat>6</sat>
      </trkpt>
      <trkpt lat="46.985020" lon="-121.943737">
        <ele>620.9</ele>
        <time>2014-08-14T16:13:32Z</time>
        <sat>7</sat>
      </trkpt>
      <trkpt lat="46.985165" lon="-121.943772">
        <ele>618.8</ele>
        <time>2014-08-14T16:13:35Z</time>
        <sat>7</sat>
      </trkpt>
      <trkpt lat="46.985257" lon="-121.943835">
        <ele>617.7</ele>
        <time>2014-08-14T16:13:37Z</time>
        <sat>7</sat>
      </trkpt>
      <trkpt lat="46.985389" lon="-121.943864">
        <ele>615.0</ele>
        <time>2014-08-14T16:13:39Z</time>
        <sat>6</sat>
      </trkpt>
      <trkpt lat="46.985520" lon="-121.943867">
        <ele>613.9</ele>
        <time>2014-08-14T16:13:42Z</time>
        <sat>7</sat>
      </trkpt>
      <trkpt lat="46.985637" lon="-121.943860">
        <ele>611.3</ele>
        <time>2014-08-14T16:13:45Z</time>
        <sat>7</sat>
      </trkpt>
      <trkpt lat="46.985772" lon="-121.943848">
        <ele>610.3</ele>
        <time>2014-08-14T16:13:47Z</time>
        <sat>7</sat>
      </trkpt>
      <trkpt lat="46.985913" lon="-121.943825">
        <ele>608.8</ele>
        <time>2014-08-14T16:13:49Z</time>
        <sat>7</sat>
      </trkpt>
      <trkpt lat="46.986035" lon="-121.943770">
        <ele>607.1</ele>
        <time>2014-08-14T16:13:51Z</time>
        <sat>8</sat>
      </trkpt>
      <trkpt lat="46.986132" lon="-121.943698">
        <ele>605.8</ele>
        <time>2014-08-14T16:13:53Z</time>
        <sat>8</sat>
      </trkpt>
      <trkpt lat="46.986204" lon="-121.943576">
        <ele>603.4</ele>
        <time>2014-08-14T16:13:56Z</time>
        <sat>8</sat>
      </trkpt>
      <trkpt lat="46.986275" lon="-121.943491">
        <ele>598.6</ele>
        <time>2014-08-14T16:14:03Z</time>
        <sat>8</sat>
      </trkpt>
      <trkpt lat="46.986325" lon="-121.943378">
        <ele>595.9</ele>
        <time>2014-08-14T16:14:10Z</time>
        <sat>7</sat>
      </trkpt>
      <trkpt lat="46.986404" lon="-121.943307">
        <ele>594.7</ele>
        <time>2014-08-14T16:14:14Z</time>
        <sat>8</sat>
      </trkpt>
      <trkpt lat="46.986505" lon="-121.943183">
        <ele>593.5</ele>
        <time>2014-08-14T16:14:17Z</time>
        <sat>8</sat>
      </trkpt>
      <trkpt lat="46.986598" lon="-121.943077">
        <ele>591.6</ele>
        <time>2014-08-14T16:14:20Z</time>
        <sat>8</sat>
      </trkpt>
      <trkpt lat="46.986685" lon="-121.943192">
        <ele>588.9</ele>
        <time>2014-08-14T16:14:24Z</time>
        <sat>7</sat>
      </trkpt>
      <trkpt lat="46.986742" lon="-121.943320">
        <ele>587.5</ele>
        <time>2014-08-14T16:14:26Z</time>
        <sat>7</sat>
      </trkpt>
      <trkpt lat="46.986807" lon="-121.943455">
        <ele>585.4</ele>
        <time>2014-08-14T16:14:28Z</time>
        <sat>7</sat>
      </trkpt>
      <trkpt lat="46.986857" lon="-121.943576">
        <ele>583.8</ele>
        <time>2014-08-14T16:14:30Z</time>
        <sat>7</sat>
      </trkpt>
      <trkpt lat="46.986812" lon="-121.943728">
        <ele>581.4</ele>
        <time>2014-08-14T16:14:33Z</time>
        <sat>7</sat>
      </trkpt>
      <trkpt lat="46.986815" lon="-121.943878">
        <ele>577.9</ele>
        <time>2014-08-14T16:14:36Z</time>
        <sat>8</sat>
      </trkpt>
      <trkpt lat="46.986820" lon="-121.944031">
        <ele>576.4</ele>
        <time>2014-08-14T16:14:39Z</time>
        <sat>8</sat>
      </trkpt>
      <trkpt lat="46.986800" lon="-121.944218">
        <ele>573.8</ele>
        <time>2014-08-14T16:14:42Z</time>
        <sat>7</sat>
      </trkpt>
      <trkpt lat="46.986780" lon="-121.944386">
        <ele>572.0</ele>
        <time>2014-08-14T16:14:44Z</time>
        <sat>7</sat>
      </trkpt>
      <trkpt lat="46.986770" lon="-121.944555">
        <ele>570.8</ele>
        <time>2014-08-14T16:14:46Z</time>
        <sat>7</sat>
      </trkpt>
      <trkpt lat="46.986745" lon="-121.944715">
        <ele>568.7</ele>
        <time>2014-08-14T16:14:49Z</time>
        <sat>7</sat>
      </trkpt>
      <trkpt lat="46.986772" lon="-121.944843">
        <ele>564.7</ele>
        <time>2014-08-14T16:14:54Z</time>
        <sat>7</sat>
      </trkpt>
      <trkpt lat="46.986705" lon="-121.944988">
        <ele>560.2</ele>
        <time>2014-08-14T16:15:07Z</time>
        <sat>8</sat>
      </trkpt>
      <trkpt lat="46.986663" lon="-121.945117">
        <ele>559.4</ele>
        <time>2014-08-14T16:15:12Z</time>
        <sat>8</sat>
      </trkpt>
      <trkpt lat="46.986665" lon="-121.945251">
        <ele>558.1</ele>
        <time>2014-08-14T16:15:16Z</time>
        <sat>9</sat>
      </trkpt>
      <trkpt lat="46.986668" lon="-121.945388">
        <ele>557.3</ele>
        <time>2014-08-14T16:15:19Z</time>
        <sat>9</sat>
      </trkpt>
      <trkpt lat="46.986649" lon="-121.945532">
        <ele>556.0</ele>
        <time>2014-08-14T16:15:22Z</time>
        <sat>9</sat>
      </trkpt>
      <trkpt lat="46.986598" lon="-121.945650">
        <ele>552.8</ele>
        <time>2014-08-14T16:15:39Z</time>
        <sat>9</sat>
      </trkpt>
      <trkpt lat="46.986524" lon="-121.945733">
        <ele>553.2</ele>
        <time>2014-08-14T16:15:43Z</time>
        <sat>8</sat>
      </trkpt>
      <trkpt lat="46.986503" lon="-121.945893">
        <ele>552.1</ele>
        <time>2014-08-14T16:15:51Z</time>
        <sat>8</sat>
      </trkpt>
      <trkpt lat="46.986465" lon="-121.946031">
        <ele>551.3</ele>
        <time>2014-08-14T16:15:54Z</time>
        <sat>8</sat>
      </trkpt>
      <trkpt lat="46.986384" lon="-121.946093">
        <ele>548.8</ele>
        <time>2014-08-14T16:16:46Z</time>
        <sat>9</sat>
      </trkpt>
      <trkpt lat="46.986287" lon="-121.946123">
        <ele>548.9</ele>
        <time>2014-08-14T16:17:00Z</time>
        <sat>9</sat>
      </trkpt>
      <trkpt lat="46.986192" lon="-121.946087">
        <ele>548.3</ele>
        <time>2014-08-14T16:17:08Z</time>
        <sat>8</sat>
      </trkpt>
      <trkpt lat="46.986204" lon="-121.945921">
        <ele>547.1</ele>
        <time>2014-08-14T16:17:20Z</time>
        <sat>9</sat>
      </trkpt>
      <trkpt lat="46.986262" lon="-121.945770">
        <ele>547.4</ele>
        <time>2014-08-14T16:17:24Z</time>
        <sat>8</sat>
      </trkpt>
      <trkpt lat="46.986335" lon="-121.945626">
        <ele>548.5</ele>
        <time>2014-08-14T16:17:28Z</time>
        <sat>8</sat>
      </trkpt>
      <trkpt lat="46.986392" lon="-121.945470">
        <ele>548.6</ele>
        <time>2014-08-14T16:17:36Z</time>
        <sat>8</sat>
      </trkpt>
      <trkpt lat="46.986417" lon="-121.945330">
        <ele>548.7</ele>
        <time>2014-08-14T16:17:41Z</time>
        <sat>8</sat>
      </trkpt>
      <trkpt lat="46.986319" lon="-121.945381">
        <ele>548.9</ele>
        <time>2014-08-14T16:17:48Z</time>
        <sat>8</sat>
      </trkpt>
      <trkpt lat="46.986362" lon="-121.945545">
        <ele>549.0</ele>
        <time>2014-08-14T16:17:52Z</time>
        <sat>8</sat>
      </trkpt>
      <trkpt lat="46.986255" lon="-121.946043">
        <ele>549.0</ele>
        <time>2014-08-14T16:17:57Z</time>
        <sat>8</sat>
      </trkpt>
      <trkpt lat="46.986138" lon="-121.946215">
        <ele>549.4</ele>
        <time>2014-08-14T16:18:02Z</time>
        <sat>8</sat>
      </trkpt>
      <trkpt lat="46.986094" lon="-121.946355">
        <ele>549.8</ele>
        <time>2014-08-14T16:18:04Z</time>
        <sat>8</sat>
      </trkpt>
      <trkpt lat="46.986079" lon="-121.946525">
        <ele>550.5</ele>
        <time>2014-08-14T16:18:11Z</time>
        <sat>7</sat>
      </trkpt>
      <trkpt lat="46.986047" lon="-121.946683">
        <ele>550.8</ele>
        <time>2014-08-14T16:18:14Z</time>
        <sat>9</sat>
      </trkpt>
      <trkpt lat="46.986047" lon="-121.946823">
        <ele>551.5</ele>
        <time>2014-08-14T16:18:17Z</time>
        <sat>8</sat>
      </trkpt>
      <trkpt lat="46.986013" lon="-121.946958">
        <ele>552.0</ele>
        <time>2014-08-14T16:18:21Z</time>
        <sat>8</sat>
      </trkpt>
      <trkpt lat="46.986042" lon="-121.947087">
        <ele>553.0</ele>
        <time>2014-08-14T16:18:25Z</time>
        <sat>9</sat>
      </trkpt>
      <trkpt lat="46.986079" lon="-121.947212">
        <ele>554.1</ele>
        <time>2014-08-14T16:18:30Z</time>
        <sat>8</sat>
      </trkpt>
      <trkpt lat="46.986087" lon="-121.947350">
        <ele>555.0</ele>
        <time>2014-08-14T16:18:37Z</time>
        <sat>8</sat>
      </trkpt>
      <trkpt lat="46.986070" lon="-121.947493">
        <ele>555.8</ele>
        <time>2014-08-14T16:18:43Z</time>
        <sat>8</sat>
      </trkpt>
      <trkpt lat="46.986023" lon="-121.947636">
        <ele>556.7</ele>
        <time>2014-08-14T16:18:48Z</time>
        <sat>8</sat>
      </trkpt>
      <trkpt lat="46.985982" lon="-121.947780">
        <ele>557.3</ele>
        <time>2014-08-14T16:18:52Z</time>
        <sat>8</sat>
      </trkpt>
      <trkpt lat="46.985952" lon="-121.947941">
        <ele>557.8</ele>
        <time>2014-08-14T16:18:57Z</time>
        <sat>8</sat>
      </trkpt>
      <trkpt lat="46.985940" lon="-121.948073">
        <ele>558.3</ele>
        <time>2014-08-14T16:19:01Z</time>
        <sat>8</sat>
      </trkpt>
      <trkpt lat="46.985908" lon="-121.948203">
        <ele>558.4</ele>
        <time>2014-08-14T16:19:04Z</time>
        <sat>8</sat>
      </trkpt>
      <trkpt lat="46.985862" lon="-121.948347">
        <ele>558.2</ele>
        <time>2014-08-14T16:19:07Z</time>
        <sat>8</sat>
      </trkpt>
      <trkpt lat="46.985830" lon="-121.948496">
        <ele>558.1</ele>
        <time>2014-08-14T16:19:10Z</time>
        <sat>9</sat>
      </trkpt>
      <trkpt lat="46.985820" lon="-121.948662">
        <ele>557.7</ele>
        <time>2014-08-14T16:19:13Z</time>
        <sat>9</sat>
      </trkpt>
      <trkpt lat="46.985773" lon="-121.948800">
        <ele>557.6</ele>
        <time>2014-08-14T16:19:15Z</time>
        <sat>9</sat>
      </trkpt>
      <trkpt lat="46.985724" lon="-121.948946">
        <ele>557.3</ele>
        <time>2014-08-14T16:19:17Z</time>
        <sat>8</sat>
      </trkpt>
      <trkpt lat="46.985673" lon="-121.949120">
        <ele>557.0</ele>
        <time>2014-08-14T16:19:19Z</time>
        <sat>8</sat>
      </trkpt>
      <trkpt lat="46.985619" lon="-121.949300">
        <ele>556.8</ele>
        <time>2014-08-14T16:19:21Z</time>
        <sat>8</sat>
      </trkpt>
      <trkpt lat="46.985562" lon="-121.949495">
        <ele>556.2</ele>
        <time>2014-08-14T16:19:23Z</time>
        <sat>8</sat>
      </trkpt>
      <trkpt lat="46.985502" lon="-121.949697">
        <ele>555.8</ele>
        <time>2014-08-14T16:19:25Z</time>
        <sat>8</sat>
      </trkpt>
      <trkpt lat="46.985463" lon="-121.949905">
        <ele>555.3</ele>
        <time>2014-08-14T16:19:27Z</time>
        <sat>8</sat>
      </trkpt>
      <trkpt lat="46.985404" lon="-121.950133">
        <ele>554.7</ele>
        <time>2014-08-14T16:19:29Z</time>
        <sat>8</sat>
      </trkpt>
      <trkpt lat="46.985399" lon="-121.950333">
        <ele>554.1</ele>
        <time>2014-08-14T16:19:31Z</time>
        <sat>8</sat>
      </trkpt>
      <trkpt lat="46.985380" lon="-121.950520">
        <ele>553.3</ele>
        <time>2014-08-14T16:19:33Z</time>
        <sat>8</sat>
      </trkpt>
      <trkpt lat="46.985348" lon="-121.950726">
        <ele>552.7</ele>
        <time>2014-08-14T16:19:35Z</time>
        <sat>8</sat>
      </trkpt>
      <trkpt lat="46.985300" lon="-121.950946">
        <ele>552.1</ele>
        <time>2014-08-14T16:19:37Z</time>
        <sat>8</sat>
      </trkpt>
      <trkpt lat="46.985212" lon="-121.951076">
        <ele>551.7</ele>
        <time>2014-08-14T16:19:38Z</time>
        <sat>8</sat>
      </trkpt>
      <trkpt lat="46.985128" lon="-121.951323">
        <ele>550.9</ele>
        <time>2014-08-14T16:19:40Z</time>
        <sat>8</sat>
      </trkpt>
      <trkpt lat="46.985090" lon="-121.951447">
        <ele>550.2</ele>
        <time>2014-08-14T16:19:41Z</time>
        <sat>8</sat>
      </trkpt>
      <trkpt lat="46.985065" lon="-121.951573">
        <ele>550.1</ele>
        <time>2014-08-14T16:19:42Z</time>
        <sat>8</sat>
      </trkpt>
      <trkpt lat="46.984979" lon="-121.951715">
        <ele>549.6</ele>
        <time>2014-08-14T16:19:43Z</time>
        <sat>8</sat>
      </trkpt>
      <trkpt lat="46.984959" lon="-121.951845">
        <ele>549.4</ele>
        <time>2014-08-14T16:19:44Z</time>
        <sat>8</sat>
      </trkpt>
      <trkpt lat="46.985015" lon="-121.952093">
        <ele>548.1</ele>
        <time>2014-08-14T16:19:46Z</time>
        <sat>8</sat>
      </trkpt>
      <trkpt lat="46.985080" lon="-121.952200">
        <ele>547.9</ele>
        <time>2014-08-14T16:19:47Z</time>
        <sat>8</sat>
      </trkpt>
      <trkpt lat="46.985137" lon="-121.952306">
        <ele>547.5</ele>
        <time>2014-08-14T16:19:48Z</time>
        <sat>8</sat>
      </trkpt>
      <trkpt lat="46.985230" lon="-121.952530">
        <ele>546.7</ele>
        <time>2014-08-14T16:19:50Z</time>
        <sat>8</sat>
      </trkpt>
      <trkpt lat="46.985329" lon="-121.952751">
        <ele>546.3</ele>
        <time>2014-08-14T16:19:52Z</time>
        <sat>8</sat>
      </trkpt>
      <trkpt lat="46.985327" lon="-121.952888">
        <ele>546.1</ele>
        <time>2014-08-14T16:19:53Z</time>
        <sat>9</sat>
      </trkpt>
      <trkpt lat="46.985330" lon="-121.953022">
        <ele>545.8</ele>
        <time>2014-08-14T16:19:54Z</time>
        <sat>8</sat>
      </trkpt>
      <trkpt lat="46.985329" lon="-121.953155">
        <ele>545.3</ele>
        <time>2014-08-14T16:19:55Z</time>
        <sat>8</sat>
      </trkpt>
      <trkpt lat="46.985324" lon="-121.953291">
        <ele>544.9</ele>
        <time>2014-08-14T16:19:56Z</time>
        <sat>8</sat>
      </trkpt>
      <trkpt lat="46.985314" lon="-121.953430">
        <ele>544.6</ele>
        <time>2014-08-14T16:19:57Z</time>
        <sat>8</sat>
      </trkpt>
      <trkpt lat="46.985302" lon="-121.953565">
        <ele>544.3</ele>
        <time>2014-08-14T16:19:58Z</time>
        <sat>8</sat>
      </trkpt>
      <trkpt lat="46.985280" lon="-121.953700">
        <ele>543.8</ele>
        <time>2014-08-14T16:19:59Z</time>
        <sat>8</sat>
      </trkpt>
      <trkpt lat="46.985264" lon="-121.953832">
        <ele>543.5</ele>
        <time>2014-08-14T16:20:00Z</time>
        <sat>8</sat>
      </trkpt>
      <trkpt lat="46.985235" lon="-121.953958">
        <ele>543.1</ele>
        <time>2014-08-14T16:20:01Z</time>
        <sat>7</sat>
      </trkpt>
      <trkpt lat="46.985195" lon="-121.954206">
        <ele>542.2</ele>
        <time>2014-08-14T16:20:03Z</time>
        <sat>7</sat>
      </trkpt>
      <trkpt lat="46.985172" lon="-121.954335">
        <ele>541.6</ele>
        <time>2014-08-14T16:20:04Z</time>
        <sat>8</sat>
      </trkpt>
      <trkpt lat="46.985145" lon="-121.954472">
        <ele>541.4</ele>
        <time>2014-08-14T16:20:05Z</time>
        <sat>7</sat>
      </trkpt>
      <trkpt lat="46.985117" lon="-121.954620">
        <ele>540.7</ele>
        <time>2014-08-14T16:20:06Z</time>
        <sat>7</sat>
      </trkpt>
      <trkpt lat="46.985089" lon="-121.954765">
        <ele>540.3</ele>
        <time>2014-08-14T16:20:07Z</time>
        <sat>7</sat>
      </trkpt>
      <trkpt lat="46.985118" lon="-121.954891">
        <ele>539.8</ele>
        <time>2014-08-14T16:20:08Z</time>
        <sat>7</sat>
      </trkpt>
      <trkpt lat="46.985165" lon="-121.955011">
        <ele>538.9</ele>
        <time>2014-08-14T16:20:09Z</time>
        <sat>7</sat>
      </trkpt>
      <trkpt lat="46.985255" lon="-121.955121">
        <ele>538.5</ele>
        <time>2014-08-14T16:20:10Z</time>
        <sat>7</sat>
      </trkpt>
      <trkpt lat="46.985350" lon="-121.955221">
        <ele>537.8</ele>
        <time>2014-08-14T16:20:11Z</time>
        <sat>7</sat>
      </trkpt>
      <trkpt lat="46.985463" lon="-121.955301">
        <ele>537.4</ele>
        <time>2014-08-14T16:20:12Z</time>
        <sat>8</sat>
      </trkpt>
      <trkpt lat="46.985573" lon="-121.955377">
        <ele>536.7</ele>
        <time>2014-08-14T16:20:13Z</time>
        <sat>8</sat>
      </trkpt>
      <trkpt lat="46.985673" lon="-121.955460">
        <ele>536.2</ele>
        <time>2014-08-14T16:20:14Z</time>
        <sat>8</sat>
      </trkpt>
      <trkpt lat="46.985762" lon="-121.955533">
        <ele>535.5</ele>
        <time>2014-08-14T16:20:15Z</time>
        <sat>7</sat>
      </trkpt>
      <trkpt lat="46.985823" lon="-121.955636">
        <ele>534.9</ele>
        <time>2014-08-14T16:20:16Z</time>
        <sat>8</sat>
      </trkpt>
      <trkpt lat="46.985880" lon="-121.955751">
        <ele>534.4</ele>
        <time>2014-08-14T16:20:17Z</time>
        <sat>8</sat>
      </trkpt>
      <trkpt lat="46.985928" lon="-121.955876">
        <ele>533.8</ele>
        <time>2014-08-14T16:20:18Z</time>
        <sat>8</sat>
      </trkpt>
      <trkpt lat="46.985933" lon="-121.956137">
        <ele>533.2</ele>
        <time>2014-08-14T16:20:20Z</time>
        <sat>7</sat>
      </trkpt>
      <trkpt lat="46.985927" lon="-121.956277">
        <ele>532.8</ele>
        <time>2014-08-14T16:20:21Z</time>
        <sat>7</sat>
      </trkpt>
      <trkpt lat="46.985879" lon="-121.956428">
        <ele>532.4</ele>
        <time>2014-08-14T16:20:22Z</time>
        <sat>7</sat>
      </trkpt>
      <trkpt lat="46.985870" lon="-121.956566">
        <ele>532.0</ele>
        <time>2014-08-14T16:20:23Z</time>
        <sat>7</sat>
      </trkpt>
      <trkpt lat="46.985895" lon="-121.956822">
        <ele>531.1</ele>
        <time>2014-08-14T16:20:25Z</time>
        <sat>7</sat>
      </trkpt>
      <trkpt lat="46.985918" lon="-121.957063">
        <ele>530.3</ele>
        <time>2014-08-14T16:20:27Z</time>
        <sat>8</sat>
      </trkpt>
      <trkpt lat="46.985908" lon="-121.957292">
        <ele>529.7</ele>
        <time>2014-08-14T16:20:29Z</time>
        <sat>7</sat>
      </trkpt>
      <trkpt lat="46.985975" lon="-121.957518">
        <ele>528.7</ele>
        <time>2014-08-14T16:20:31Z</time>
        <sat>8</sat>
      </trkpt>
      <trkpt lat="46.985997" lon="-121.957785">
        <ele>528.0</ele>
        <time>2014-08-14T16:20:33Z</time>
        <sat>7</sat>
      </trkpt>
      <trkpt lat="46.986002" lon="-121.957930">
        <ele>527.4</ele>
        <time>2014-08-14T16:20:34Z</time>
        <sat>7</sat>
      </trkpt>
      <trkpt lat="46.986008" lon="-121.958072">
        <ele>526.8</ele>
        <time>2014-08-14T16:20:35Z</time>
        <sat>8</sat>
      </trkpt>
      <trkpt lat="46.986013" lon="-121.958220">
        <ele>526.2</ele>
        <time>2014-08-14T16:20:36Z</time>
        <sat>7</sat>
      </trkpt>
      <trkpt lat="46.986005" lon="-121.958377">
        <ele>525.7</ele>
        <time>2014-08-14T16:20:37Z</time>
        <sat>7</sat>
      </trkpt>
      <trkpt lat="46.986007" lon="-121.958528">
        <ele>525.0</ele>
        <time>2014-08-14T16:20:38Z</time>
        <sat>7</sat>
      </trkpt>
      <trkpt lat="46.986067" lon="-121.958663">
        <ele>524.2</ele>
        <time>2014-08-14T16:20:39Z</time>
        <sat>8</sat>
      </trkpt>
      <trkpt lat="46.986107" lon="-121.958801">
        <ele>523.7</ele>
        <time>2014-08-14T16:20:40Z</time>
        <sat>7</sat>
      </trkpt>
      <trkpt lat="46.986147" lon="-121.958942">
        <ele>523.4</ele>
        <time>2014-08-14T16:20:41Z</time>
        <sat>8</sat>
      </trkpt>
      <trkpt lat="46.986200" lon="-121.959085">
        <ele>522.8</ele>
        <time>2014-08-14T16:20:42Z</time>
        <sat>7</sat>
      </trkpt>
      <trkpt lat="46.986223" lon="-121.959225">
        <ele>522.1</ele>
        <time>2014-08-14T16:20:43Z</time>
        <sat>7</sat>
      </trkpt>
      <trkpt lat="46.986235" lon="-121.959375">
        <ele>521.4</ele>
        <time>2014-08-14T16:20:44Z</time>
        <sat>7</sat>
      </trkpt>
      <trkpt lat="46.986243" lon="-121.959525">
        <ele>520.9</ele>
        <time>2014-08-14T16:20:45Z</time>
        <sat>8</sat>
      </trkpt>
      <trkpt lat="46.986257" lon="-121.959676">
        <ele>520.4</ele>
        <time>2014-08-14T16:20:46Z</time>
        <sat>7</sat>
      </trkpt>
      <trkpt lat="46.986314" lon="-121.959815">
        <ele>519.7</ele>
        <time>2014-08-14T16:20:47Z</time>
        <sat>7</sat>
      </trkpt>
      <trkpt lat="46.986348" lon="-121.959957">
        <ele>519.0</ele>
        <time>2014-08-14T16:20:48Z</time>
        <sat>7</sat>
      </trkpt>
      <trkpt lat="46.986390" lon="-121.960093">
        <ele>518.4</ele>
        <time>2014-08-14T16:20:49Z</time>
        <sat>7</sat>
      </trkpt>
      <trkpt lat="46.986429" lon="-121.960228">
        <ele>518.0</ele>
        <time>2014-08-14T16:20:50Z</time>
        <sat>7</sat>
      </trkpt>
      <trkpt lat="46.986455" lon="-121.960361">
        <ele>517.5</ele>
        <time>2014-08-14T16:20:51Z</time>
        <sat>7</sat>
      </trkpt>
      <trkpt lat="46.986530" lon="-121.960606">
        <ele>516.5</ele>
        <time>2014-08-14T16:20:53Z</time>
        <sat>8</sat>
      </trkpt>
      <trkpt lat="46.986597" lon="-121.960720">
        <ele>515.8</ele>
        <time>2014-08-14T16:20:54Z</time>
        <sat>8</sat>
      </trkpt>
      <trkpt lat="46.986675" lon="-121.960821">
        <ele>515.3</ele>
        <time>2014-08-14T16:20:55Z</time>
        <sat>7</sat>
      </trkpt>
      <trkpt lat="46.986775" lon="-121.960901">
        <ele>515.0</ele>
        <time>2014-08-14T16:20:56Z</time>
        <sat>8</sat>
      </trkpt>
      <trkpt lat="46.986864" lon="-121.960962">
        <ele>514.5</ele>
        <time>2014-08-14T16:20:57Z</time>
        <sat>8</sat>
      </trkpt>
      <trkpt lat="46.986975" lon="-121.961098">
        <ele>513.7</ele>
        <time>2014-08-14T16:20:59Z</time>
        <sat>7</sat>
      </trkpt>
      <trkpt lat="46.987050" lon="-121.961230">
        <ele>513.1</ele>
        <time>2014-08-14T16:21:01Z</time>
        <sat>7</sat>
      </trkpt>
      <trkpt lat="46.987114" lon="-121.961340">
        <ele>512.4</ele>
        <time>2014-08-14T16:21:03Z</time>
        <sat>8</sat>
      </trkpt>
      <trkpt lat="46.987215" lon="-121.961423">
        <ele>512.0</ele>
        <time>2014-08-14T16:21:05Z</time>
        <sat>8</sat>
      </trkpt>
      <trkpt lat="46.987265" lon="-121.961288">
        <ele>509.8</ele>
        <time>2014-08-14T16:21:12Z</time>
        <sat>8</sat>
      </trkpt>
      <trkpt lat="46.987167" lon="-121.961298">
        <ele>508.1</ele>
        <time>2014-08-14T16:21:21Z</time>
        <sat>8</sat>
      </trkpt>
      <trkpt lat="46.987079" lon="-121.961361">
        <ele>513.9</ele>
        <time>2014-08-14T16:29:02Z</time>
        <sat>9</sat>
      </trkpt>
      <trkpt lat="46.987089" lon="-121.961517">
        <ele>514.4</ele>
        <time>2014-08-14T16:29:20Z</time>
        <sat>9</sat>
      </trkpt>
      <trkpt lat="46.987062" lon="-121.961661">
        <ele>515.1</ele>
        <time>2014-08-14T16:29:24Z</time>
        <sat>9</sat>
      </trkpt>
      <trkpt lat="46.987072" lon="-121.961806">
        <ele>514.9</ele>
        <time>2014-08-14T16:29:28Z</time>
        <sat>9</sat>
      </trkpt>
      <trkpt lat="46.987105" lon="-121.961965">
        <ele>514.9</ele>
        <time>2014-08-14T16:29:32Z</time>
        <sat>9</sat>
      </trkpt>
      <trkpt lat="46.987135" lon="-121.962095">
        <ele>515.0</ele>
        <time>2014-08-14T16:29:35Z</time>
        <sat>9</sat>
      </trkpt>
      <trkpt lat="46.987177" lon="-121.962256">
        <ele>515.2</ele>
        <time>2014-08-14T16:29:39Z</time>
        <sat>9</sat>
      </trkpt>
      <trkpt lat="46.987199" lon="-121.962417">
        <ele>515.5</ele>
        <time>2014-08-14T16:29:43Z</time>
        <sat>9</sat>
      </trkpt>
      <trkpt lat="46.987230" lon="-121.962570">
        <ele>516.0</ele>
        <time>2014-08-14T16:29:47Z</time>
        <sat>9</sat>
      </trkpt>
      <trkpt lat="46.987235" lon="-121.962711">
        <ele>516.4</ele>
        <time>2014-08-14T16:29:51Z</time>
        <sat>9</sat>
      </trkpt>
      <trkpt lat="46.987253" lon="-121.962860">
        <ele>516.7</ele>
        <time>2014-08-14T16:29:55Z</time>
        <sat>9</sat>
      </trkpt>
      <trkpt lat="46.987272" lon="-121.963010">
        <ele>517.4</ele>
        <time>2014-08-14T16:29:59Z</time>
        <sat>9</sat>
      </trkpt>
      <trkpt lat="46.987287" lon="-121.963175">
        <ele>518.3</ele>
        <time>2014-08-14T16:30:04Z</time>
        <sat>9</sat>
      </trkpt>
      <trkpt lat="46.987280" lon="-121.963331">
        <ele>518.6</ele>
        <time>2014-08-14T16:30:08Z</time>
        <sat>8</sat>
      </trkpt>
      <trkpt lat="46.987274" lon="-121.963485">
        <ele>518.8</ele>
        <time>2014-08-14T16:30:12Z</time>
        <sat>8</sat>
      </trkpt>
      <trkpt lat="46.987287" lon="-121.963638">
        <ele>519.8</ele>
        <time>2014-08-14T16:30:16Z</time>
        <sat>9</sat>
      </trkpt>
      <trkpt lat="46.987333" lon="-121.963785">
        <ele>520.0</ele>
        <time>2014-08-14T16:30:20Z</time>
        <sat>9</sat>
      </trkpt>
      <trkpt lat="46.987360" lon="-121.963921">
        <ele>520.1</ele>
        <time>2014-08-14T16:30:24Z</time>
        <sat>9</sat>
      </trkpt>
      <trkpt lat="46.987424" lon="-121.964082">
        <ele>520.5</ele>
        <time>2014-08-14T16:30:28Z</time>
        <sat>8</sat>
      </trkpt>
      <trkpt lat="46.987367" lon="-121.964225">
        <ele>521.1</ele>
        <time>2014-08-14T16:30:31Z</time>
        <sat>9</sat>
      </trkpt>
      <trkpt lat="46.987319" lon="-121.964356">
        <ele>521.6</ele>
        <time>2014-08-14T16:30:34Z</time>
        <sat>9</sat>
      </trkpt>
      <trkpt lat="46.987320" lon="-121.964523">
        <ele>522.0</ele>
        <time>2014-08-14T16:30:38Z</time>
        <sat>9</sat>
      </trkpt>
      <trkpt lat="46.987360" lon="-121.964678">
        <ele>522.4</ele>
        <time>2014-08-14T16:30:42Z</time>
        <sat>9</sat>
      </trkpt>
      <trkpt lat="46.987417" lon="-121.964782">
        <ele>522.6</ele>
        <time>2014-08-14T16:30:45Z</time>
        <sat>9</sat>
      </trkpt>
      <trkpt lat="46.987499" lon="-121.964887">
        <ele>523.2</ele>
        <time>2014-08-14T16:30:48Z</time>
        <sat>8</sat>
      </trkpt>
      <trkpt lat="46.987587" lon="-121.965020">
        <ele>523.6</ele>
        <time>2014-08-14T16:30:51Z</time>
        <sat>8</sat>
      </trkpt>
      <trkpt lat="46.987600" lon="-121.965155">
        <ele>524.0</ele>
        <time>2014-08-14T16:30:54Z</time>
        <sat>8</sat>
      </trkpt>
      <trkpt lat="46.987600" lon="-121.965315">
        <ele>524.3</ele>
        <time>2014-08-14T16:30:58Z</time>
        <sat>8</sat>
      </trkpt>
      <trkpt lat="46.987578" lon="-121.965491">
        <ele>524.8</ele>
        <time>2014-08-14T16:31:02Z</time>
        <sat>9</sat>
      </trkpt>
      <trkpt lat="46.987525" lon="-121.965652">
        <ele>524.7</ele>
        <time>2014-08-14T16:31:05Z</time>
        <sat>8</sat>
      </trkpt>
      <trkpt lat="46.987510" lon="-121.965811">
        <ele>524.9</ele>
        <time>2014-08-14T16:31:08Z</time>
        <sat>9</sat>
      </trkpt>
      <trkpt lat="46.987517" lon="-121.965961">
        <ele>525.3</ele>
        <time>2014-08-14T16:31:11Z</time>
        <sat>9</sat>
      </trkpt>
      <trkpt lat="46.987520" lon="-121.966100">
        <ele>525.6</ele>
        <time>2014-08-14T16:31:14Z</time>
        <sat>9</sat>
      </trkpt>
      <trkpt lat="46.987532" lon="-121.966232">
        <ele>526.1</ele>
        <time>2014-08-14T16:31:17Z</time>
        <sat>9</sat>
      </trkpt>
      <trkpt lat="46.987562" lon="-121.966358">
        <ele>526.4</ele>
        <time>2014-08-14T16:31:20Z</time>
        <sat>9</sat>
      </trkpt>
      <trkpt lat="46.987583" lon="-121.966503">
        <ele>527.0</ele>
        <time>2014-08-14T16:31:23Z</time>
        <sat>9</sat>
      </trkpt>
      <trkpt lat="46.987612" lon="-121.966642">
        <ele>527.3</ele>
        <time>2014-08-14T16:31:26Z</time>
        <sat>9</sat>
      </trkpt>
      <trkpt lat="46.987660" lon="-121.966763">
        <ele>527.7</ele>
        <time>2014-08-14T16:31:29Z</time>
        <sat>8</sat>
      </trkpt>
      <trkpt lat="46.987730" lon="-121.966855">
        <ele>527.8</ele>
        <time>2014-08-14T16:31:32Z</time>
        <sat>9</sat>
      </trkpt>
      <trkpt lat="46.987783" lon="-121.966970">
        <ele>528.5</ele>
        <time>2014-08-14T16:31:35Z</time>
        <sat>8</sat>
      </trkpt>
      <trkpt lat="46.987849" lon="-121.967092">
        <ele>528.4</ele>
        <time>2014-08-14T16:31:38Z</time>
        <sat>9</sat>
      </trkpt>
      <trkpt lat="46.987935" lon="-121.967200">
        <ele>528.5</ele>
        <time>2014-08-14T16:31:41Z</time>
        <sat>9</sat>
      </trkpt>
      <trkpt lat="46.988017" lon="-121.967325">
        <ele>528.4</ele>
        <time>2014-08-14T16:31:44Z</time>
        <sat>9</sat>
      </trkpt>
      <trkpt lat="46.988087" lon="-121.967411">
        <ele>528.5</ele>
        <time>2014-08-14T16:31:46Z</time>
        <sat>9</sat>
      </trkpt>
      <trkpt lat="46.988160" lon="-121.967578">
        <ele>528.2</ele>
        <time>2014-08-14T16:31:49Z</time>
        <sat>9</sat>
      </trkpt>
      <trkpt lat="46.988219" lon="-121.967690">
        <ele>528.0</ele>
        <time>2014-08-14T16:31:51Z</time>
        <sat>8</sat>
      </trkpt>
      <trkpt lat="46.988265" lon="-121.967821">
        <ele>528.2</ele>
        <time>2014-08-14T16:31:53Z</time>
        <sat>9</sat>
      </trkpt>
      <trkpt lat="46.988309" lon="-121.967956">
        <ele>528.1</ele>
        <time>2014-08-14T16:31:55Z</time>
        <sat>9</sat>
      </trkpt>
      <trkpt lat="46.988365" lon="-121.968078">
        <ele>527.9</ele>
        <time>2014-08-14T16:31:57Z</time>
        <sat>8</sat>
      </trkpt>
      <trkpt lat="46.988419" lon="-121.968212">
        <ele>527.7</ele>
        <time>2014-08-14T16:31:59Z</time>
        <sat>9</sat>
      </trkpt>
      <trkpt lat="46.988480" lon="-121.968347">
        <ele>527.4</ele>
        <time>2014-08-14T16:32:01Z</time>
        <sat>8</sat>
      </trkpt>
      <trkpt lat="46.988539" lon="-121.968485">
        <ele>527.6</ele>
        <time>2014-08-14T16:32:03Z</time>
        <sat>8</sat>
      </trkpt>
      <trkpt lat="46.988592" lon="-121.968626">
        <ele>527.3</ele>
        <time>2014-08-14T16:32:05Z</time>
        <sat>9</sat>
      </trkpt>
      <trkpt lat="46.988632" lon="-121.968773">
        <ele>527.3</ele>
        <time>2014-08-14T16:32:07Z</time>
        <sat>9</sat>
      </trkpt>
      <trkpt lat="46.988669" lon="-121.968925">
        <ele>527.1</ele>
        <time>2014-08-14T16:32:09Z</time>
        <sat>9</sat>
      </trkpt>
      <trkpt lat="46.988710" lon="-121.969070">
        <ele>526.9</ele>
        <time>2014-08-14T16:32:11Z</time>
        <sat>9</sat>
      </trkpt>
      <trkpt lat="46.988757" lon="-121.969218">
        <ele>526.4</ele>
        <time>2014-08-14T16:32:13Z</time>
        <sat>8</sat>
      </trkpt>
      <trkpt lat="46.988802" lon="-121.969375">
        <ele>526.1</ele>
        <time>2014-08-14T16:32:15Z</time>
        <sat>9</sat>
      </trkpt>
      <trkpt lat="46.988854" lon="-121.969526">
        <ele>525.7</ele>
        <time>2014-08-14T16:32:17Z</time>
        <sat>9</sat>
      </trkpt>
      <trkpt lat="46.988907" lon="-121.969680">
        <ele>525.3</ele>
        <time>2014-08-14T16:32:19Z</time>
        <sat>9</sat>
      </trkpt>
      <trkpt lat="46.988970" lon="-121.969838">
        <ele>525.0</ele>
        <time>2014-08-14T16:32:21Z</time>
        <sat>9</sat>
      </trkpt>
      <trkpt lat="46.989045" lon="-121.969983">
        <ele>525.1</ele>
        <time>2014-08-14T16:32:23Z</time>
        <sat>9</sat>
      </trkpt>
      <trkpt lat="46.989124" lon="-121.970122">
        <ele>524.9</ele>
        <time>2014-08-14T16:32:25Z</time>
        <sat>9</sat>
      </trkpt>
      <trkpt lat="46.989197" lon="-121.970245">
        <ele>524.6</ele>
        <time>2014-08-14T16:32:27Z</time>
        <sat>9</sat>
      </trkpt>
      <trkpt lat="46.989252" lon="-121.970395">
        <ele>524.1</ele>
        <time>2014-08-14T16:32:29Z</time>
        <sat>9</sat>
      </trkpt>
      <trkpt lat="46.989314" lon="-121.970577">
        <ele>524.1</ele>
        <time>2014-08-14T16:32:31Z</time>
        <sat>8</sat>
      </trkpt>
      <trkpt lat="46.989357" lon="-121.970751">
        <ele>523.9</ele>
        <time>2014-08-14T16:32:33Z</time>
        <sat>8</sat>
      </trkpt>
      <trkpt lat="46.989397" lon="-121.970918">
        <ele>523.6</ele>
        <time>2014-08-14T16:32:35Z</time>
        <sat>9</sat>
      </trkpt>
      <trkpt lat="46.989447" lon="-121.971086">
        <ele>523.5</ele>
        <time>2014-08-14T16:32:37Z</time>
        <sat>9</sat>
      </trkpt>
      <trkpt lat="46.989488" lon="-121.971266">
        <ele>522.8</ele>
        <time>2014-08-14T16:32:39Z</time>
        <sat>8</sat>
      </trkpt>
      <trkpt lat="46.989522" lon="-121.971440">
        <ele>522.3</ele>
        <time>2014-08-14T16:32:41Z</time>
        <sat>8</sat>
      </trkpt>
      <trkpt lat="46.989550" lon="-121.971611">
        <ele>522.0</ele>
        <time>2014-08-14T16:32:43Z</time>
        <sat>8</sat>
      </trkpt>
      <trkpt lat="46.989567" lon="-121.971777">
        <ele>521.9</ele>
        <time>2014-08-14T16:32:45Z</time>
        <sat>8</sat>
      </trkpt>
      <trkpt lat="46.989597" lon="-121.971946">
        <ele>521.6</ele>
        <time>2014-08-14T16:32:47Z</time>
        <sat>8</sat>
      </trkpt>
      <trkpt lat="46.989630" lon="-121.972113">
        <ele>521.3</ele>
        <time>2014-08-14T16:32:49Z</time>
        <sat>9</sat>
      </trkpt>
      <trkpt lat="46.989675" lon="-121.972283">
        <ele>521.0</ele>
        <time>2014-08-14T16:32:51Z</time>
        <sat>8</sat>
      </trkpt>
      <trkpt lat="46.989720" lon="-121.972458">
        <ele>520.9</ele>
        <time>2014-08-14T16:32:53Z</time>
        <sat>8</sat>
      </trkpt>
      <trkpt lat="46.989792" lon="-121.972630">
        <ele>521.0</ele>
        <time>2014-08-14T16:32:55Z</time>
        <sat>8</sat>
      </trkpt>
      <trkpt lat="46.989880" lon="-121.972808">
        <ele>521.0</ele>
        <time>2014-08-14T16:32:57Z</time>
        <sat>8</sat>
      </trkpt>
      <trkpt lat="46.989952" lon="-121.972956">
        <ele>515.4</ele>
        <time>2014-08-14T16:32:59Z</time>
        <sat>8</sat>
      </trkpt>
      <trkpt lat="46.989999" lon="-121.973117">
        <ele>517.7</ele>
        <time>2014-08-14T16:33:01Z</time>
        <sat>8</sat>
      </trkpt>
      <trkpt lat="46.990035" lon="-121.973281">
        <ele>518.9</ele>
        <time>2014-08-14T16:33:03Z</time>
        <sat>8</sat>
      </trkpt>
      <trkpt lat="46.990099" lon="-121.973433">
        <ele>519.1</ele>
        <time>2014-08-14T16:33:05Z</time>
        <sat>8</sat>
      </trkpt>
      <trkpt lat="46.990152" lon="-121.973588">
        <ele>519.3</ele>
        <time>2014-08-14T16:33:07Z</time>
        <sat>8</sat>
      </trkpt>
      <trkpt lat="46.990207" lon="-121.973750">
        <ele>519.3</ele>
        <time>2014-08-14T16:33:09Z</time>
        <sat>9</sat>
      </trkpt>
      <trkpt lat="46.990282" lon="-121.973910">
        <ele>519.0</ele>
        <time>2014-08-14T16:33:11Z</time>
        <sat>9</sat>
      </trkpt>
      <trkpt lat="46.990334" lon="-121.974061">
        <ele>518.7</ele>
        <time>2014-08-14T16:33:13Z</time>
        <sat>9</sat>
      </trkpt>
      <trkpt lat="46.990370" lon="-121.974216">
        <ele>518.9</ele>
        <time>2014-08-14T16:33:15Z</time>
        <sat>9</sat>
      </trkpt>
      <trkpt lat="46.990412" lon="-121.974368">
        <ele>518.9</ele>
        <time>2014-08-14T16:33:17Z</time>
        <sat>9</sat>
      </trkpt>
      <trkpt lat="46.990449" lon="-121.974536">
        <ele>518.5</ele>
        <time>2014-08-14T16:33:19Z</time>
        <sat>8</sat>
      </trkpt>
      <trkpt lat="46.990483" lon="-121.974710">
        <ele>518.3</ele>
        <time>2014-08-14T16:33:21Z</time>
        <sat>8</sat>
      </trkpt>
      <trkpt lat="46.990522" lon="-121.974873">
        <ele>518.2</ele>
        <time>2014-08-14T16:33:23Z</time>
        <sat>8</sat>
      </trkpt>
      <trkpt lat="46.990565" lon="-121.975015">
        <ele>517.9</ele>
        <time>2014-08-14T16:33:25Z</time>
        <sat>9</sat>
      </trkpt>
      <trkpt lat="46.990705" lon="-121.975170">
        <ele>517.6</ele>
        <time>2014-08-14T16:33:27Z</time>
        <sat>9</sat>
      </trkpt>
      <trkpt lat="46.990785" lon="-121.975316">
        <ele>517.5</ele>
        <time>2014-08-14T16:33:29Z</time>
        <sat>8</sat>
      </trkpt>
      <trkpt lat="46.990837" lon="-121.975450">
        <ele>517.5</ele>
        <time>2014-08-14T16:33:31Z</time>
        <sat>8</sat>
      </trkpt>
      <trkpt lat="46.990870" lon="-121.975577">
        <ele>517.7</ele>
        <time>2014-08-14T16:33:33Z</time>
        <sat>9</sat>
      </trkpt>
      <trkpt lat="46.990899" lon="-121.975717">
        <ele>517.9</ele>
        <time>2014-08-14T16:33:35Z</time>
        <sat>9</sat>
      </trkpt>
      <trkpt lat="46.990923" lon="-121.975871">
        <ele>517.9</ele>
        <time>2014-08-14T16:33:37Z</time>
        <sat>9</sat>
      </trkpt>
      <trkpt lat="46.990950" lon="-121.976025">
        <ele>517.7</ele>
        <time>2014-08-14T16:33:39Z</time>
        <sat>9</sat>
      </trkpt>
      <trkpt lat="46.990985" lon="-121.976177">
        <ele>517.5</ele>
        <time>2014-08-14T16:33:41Z</time>
        <sat>9</sat>
      </trkpt>
      <trkpt lat="46.990987" lon="-121.976350">
        <ele>517.5</ele>
        <time>2014-08-14T16:33:43Z</time>
        <sat>8</sat>
      </trkpt>
      <trkpt lat="46.991019" lon="-121.976523">
        <ele>517.2</ele>
        <time>2014-08-14T16:33:45Z</time>
        <sat>8</sat>
      </trkpt>
      <trkpt lat="46.991070" lon="-121.976680">
        <ele>517.1</ele>
        <time>2014-08-14T16:33:47Z</time>
        <sat>9</sat>
      </trkpt>
      <trkpt lat="46.991102" lon="-121.976833">
        <ele>516.6</ele>
        <time>2014-08-14T16:33:49Z</time>
        <sat>8</sat>
      </trkpt>
      <trkpt lat="46.991162" lon="-121.977008">
        <ele>516.4</ele>
        <time>2014-08-14T16:33:51Z</time>
        <sat>8</sat>
      </trkpt>
      <trkpt lat="46.991207" lon="-121.977167">
        <ele>516.6</ele>
        <time>2014-08-14T16:33:53Z</time>
        <sat>8</sat>
      </trkpt>
      <trkpt lat="46.991249" lon="-121.977326">
        <ele>516.4</ele>
        <time>2014-08-14T16:33:55Z</time>
        <sat>8</sat>
      </trkpt>
      <trkpt lat="46.991282" lon="-121.977495">
        <ele>516.5</ele>
        <time>2014-08-14T16:33:57Z</time>
        <sat>8</sat>
      </trkpt>
      <trkpt lat="46.991324" lon="-121.977642">
        <ele>516.5</ele>
        <time>2014-08-14T16:33:59Z</time>
        <sat>8</sat>
      </trkpt>
      <trkpt lat="46.991355" lon="-121.977798">
        <ele>516.4</ele>
        <time>2014-08-14T16:34:01Z</time>
        <sat>8</sat>
      </trkpt>
      <trkpt lat="46.991397" lon="-121.977952">
        <ele>516.3</ele>
        <time>2014-08-14T16:34:03Z</time>
        <sat>8</sat>
      </trkpt>
      <trkpt lat="46.991432" lon="-121.978103">
        <ele>516.1</ele>
        <time>2014-08-14T16:34:05Z</time>
        <sat>8</sat>
      </trkpt>
      <trkpt lat="46.991460" lon="-121.978260">
        <ele>516.3</ele>
        <time>2014-08-14T16:34:07Z</time>
        <sat>8</sat>
      </trkpt>
      <trkpt lat="46.991485" lon="-121.978415">
        <ele>515.9</ele>
        <time>2014-08-14T16:34:09Z</time>
        <sat>8</sat>
      </trkpt>
      <trkpt lat="46.991503" lon="-121.978566">
        <ele>516.1</ele>
        <time>2014-08-14T16:34:11Z</time>
        <sat>9</sat>
      </trkpt>
      <trkpt lat="46.991527" lon="-121.978718">
        <ele>516.1</ele>
        <time>2014-08-14T16:34:13Z</time>
        <sat>9</sat>
      </trkpt>
      <trkpt lat="46.991557" lon="-121.978875">
        <ele>515.8</ele>
        <time>2014-08-14T16:34:15Z</time>
        <sat>9</sat>
      </trkpt>
      <trkpt lat="46.991595" lon="-121.979035">
        <ele>515.6</ele>
        <time>2014-08-14T16:34:17Z</time>
        <sat>8</sat>
      </trkpt>
      <trkpt lat="46.991632" lon="-121.979203">
        <ele>515.7</ele>
        <time>2014-08-14T16:34:19Z</time>
        <sat>9</sat>
      </trkpt>
      <trkpt lat="46.991667" lon="-121.979375">
        <ele>515.7</ele>
        <time>2014-08-14T16:34:21Z</time>
        <sat>9</sat>
      </trkpt>
      <trkpt lat="46.991702" lon="-121.979546">
        <ele>515.5</ele>
        <time>2014-08-14T16:34:23Z</time>
        <sat>9</sat>
      </trkpt>
      <trkpt lat="46.991733" lon="-121.979718">
        <ele>515.1</ele>
        <time>2014-08-14T16:34:25Z</time>
        <sat>9</sat>
      </trkpt>
      <trkpt lat="46.991762" lon="-121.979906">
        <ele>514.6</ele>
        <time>2014-08-14T16:34:27Z</time>
        <sat>9</sat>
      </trkpt>
      <trkpt lat="46.991820" lon="-121.980106">
        <ele>514.4</ele>
        <time>2014-08-14T16:34:29Z</time>
        <sat>9</sat>
      </trkpt>
      <trkpt lat="46.991855" lon="-121.980283">
        <ele>513.9</ele>
        <time>2014-08-14T16:34:31Z</time>
        <sat>9</sat>
      </trkpt>
      <trkpt lat="46.991894" lon="-121.980445">
        <ele>513.6</ele>
        <time>2014-08-14T16:34:33Z</time>
        <sat>9</sat>
      </trkpt>
      <trkpt lat="46.991919" lon="-121.980600">
        <ele>513.7</ele>
        <time>2014-08-14T16:34:35Z</time>
        <sat>9</sat>
      </trkpt>
      <trkpt lat="46.991945" lon="-121.980742">
        <ele>513.9</ele>
        <time>2014-08-14T16:34:37Z</time>
        <sat>10</sat>
      </trkpt>
      <trkpt lat="46.991975" lon="-121.980876">
        <ele>513.9</ele>
        <time>2014-08-14T16:34:39Z</time>
        <sat>9</sat>
      </trkpt>
      <trkpt lat="46.991990" lon="-121.981013">
        <ele>514.0</ele>
        <time>2014-08-14T16:34:41Z</time>
        <sat>8</sat>
      </trkpt>
      <trkpt lat="46.992020" lon="-121.981138">
        <ele>514.2</ele>
        <time>2014-08-14T16:34:43Z</time>
        <sat>9</sat>
      </trkpt>
      <trkpt lat="46.992048" lon="-121.981330">
        <ele>514.4</ele>
        <time>2014-08-14T16:34:46Z</time>
        <sat>9</sat>
      </trkpt>
      <trkpt lat="46.992082" lon="-121.981453">
        <ele>514.7</ele>
        <time>2014-08-14T16:34:48Z</time>
        <sat>9</sat>
      </trkpt>
      <trkpt lat="46.992132" lon="-121.981638">
        <ele>514.5</ele>
        <time>2014-08-14T16:34:51Z</time>
        <sat>10</sat>
      </trkpt>
      <trkpt lat="46.992198" lon="-121.981773">
        <ele>514.8</ele>
        <time>2014-08-14T16:34:53Z</time>
        <sat>9</sat>
      </trkpt>
      <trkpt lat="46.992255" lon="-121.981926">
        <ele>514.9</ele>
        <time>2014-08-14T16:34:55Z</time>
        <sat>9</sat>
      </trkpt>
      <trkpt lat="46.992309" lon="-121.982090">
        <ele>514.5</ele>
        <time>2014-08-14T16:34:57Z</time>
        <sat>9</sat>
      </trkpt>
      <trkpt lat="46.992365" lon="-121.982256">
        <ele>514.2</ele>
        <time>2014-08-14T16:34:59Z</time>
        <sat>9</sat>
      </trkpt>
      <trkpt lat="46.992419" lon="-121.982410">
        <ele>514.1</ele>
        <time>2014-08-14T16:35:01Z</time>
        <sat>9</sat>
      </trkpt>
      <trkpt lat="46.992460" lon="-121.982557">
        <ele>514.1</ele>
        <time>2014-08-14T16:35:03Z</time>
        <sat>9</sat>
      </trkpt>
      <trkpt lat="46.992518" lon="-121.982717">
        <ele>513.7</ele>
        <time>2014-08-14T16:35:05Z</time>
        <sat>9</sat>
      </trkpt>
      <trkpt lat="46.992582" lon="-121.982883">
        <ele>513.6</ele>
        <time>2014-08-14T16:35:07Z</time>
        <sat>9</sat>
      </trkpt>
      <trkpt lat="46.992638" lon="-121.983028">
        <ele>513.6</ele>
        <time>2014-08-14T16:35:09Z</time>
        <sat>10</sat>
      </trkpt>
      <trkpt lat="46.992689" lon="-121.983173">
        <ele>513.5</ele>
        <time>2014-08-14T16:35:11Z</time>
        <sat>9</sat>
      </trkpt>
      <trkpt lat="46.992728" lon="-121.983320">
        <ele>513.6</ele>
        <time>2014-08-14T16:35:13Z</time>
        <sat>9</sat>
      </trkpt>
      <trkpt lat="46.992779" lon="-121.983460">
        <ele>513.5</ele>
        <time>2014-08-14T16:35:15Z</time>
        <sat>9</sat>
      </trkpt>
      <trkpt lat="46.992813" lon="-121.983598">
        <ele>513.6</ele>
        <time>2014-08-14T16:35:17Z</time>
        <sat>10</sat>
      </trkpt>
      <trkpt lat="46.992862" lon="-121.983738">
        <ele>513.5</ele>
        <time>2014-08-14T16:35:19Z</time>
        <sat>8</sat>
      </trkpt>
      <trkpt lat="46.992912" lon="-121.983892">
        <ele>513.5</ele>
        <time>2014-08-14T16:35:21Z</time>
        <sat>8</sat>
      </trkpt>
      <trkpt lat="46.992948" lon="-121.984048">
        <ele>513.4</ele>
        <time>2014-08-14T16:35:23Z</time>
        <sat>8</sat>
      </trkpt>
      <trkpt lat="46.992995" lon="-121.984207">
        <ele>513.1</ele>
        <time>2014-08-14T16:35:25Z</time>
        <sat>8</sat>
      </trkpt>
      <trkpt lat="46.993060" lon="-121.984363">
        <ele>513.0</ele>
        <time>2014-08-14T16:35:27Z</time>
        <sat>8</sat>
      </trkpt>
      <trkpt lat="46.993115" lon="-121.984518">
        <ele>512.8</ele>
        <time>2014-08-14T16:35:29Z</time>
        <sat>8</sat>
      </trkpt>
      <trkpt lat="46.993193" lon="-121.984683">
        <ele>512.7</ele>
        <time>2014-08-14T16:35:31Z</time>
        <sat>8</sat>
      </trkpt>
      <trkpt lat="46.993235" lon="-121.984840">
        <ele>512.4</ele>
        <time>2014-08-14T16:35:33Z</time>
        <sat>8</sat>
      </trkpt>
      <trkpt lat="46.993280" lon="-121.984995">
        <ele>512.0</ele>
        <time>2014-08-14T16:35:35Z</time>
        <sat>8</sat>
      </trkpt>
      <trkpt lat="46.993350" lon="-121.985141">
        <ele>512.2</ele>
        <time>2014-08-14T16:35:37Z</time>
        <sat>8</sat>
      </trkpt>
      <trkpt lat="46.993392" lon="-121.985283">
        <ele>512.1</ele>
        <time>2014-08-14T16:35:39Z</time>
        <sat>8</sat>
      </trkpt>
      <trkpt lat="46.993434" lon="-121.985427">
        <ele>512.0</ele>
        <time>2014-08-14T16:35:41Z</time>
        <sat>8</sat>
      </trkpt>
      <trkpt lat="46.993482" lon="-121.985578">
        <ele>511.9</ele>
        <time>2014-08-14T16:35:43Z</time>
        <sat>8</sat>
      </trkpt>
      <trkpt lat="46.993530" lon="-121.985728">
        <ele>511.9</ele>
        <time>2014-08-14T16:35:45Z</time>
        <sat>8</sat>
      </trkpt>
      <trkpt lat="46.993579" lon="-121.985867">
        <ele>511.9</ele>
        <time>2014-08-14T16:35:47Z</time>
        <sat>9</sat>
      </trkpt>
      <trkpt lat="46.993622" lon="-121.986008">
        <ele>512.0</ele>
        <time>2014-08-14T16:35:49Z</time>
        <sat>9</sat>
      </trkpt>
      <trkpt lat="46.993680" lon="-121.986150">
        <ele>511.7</ele>
        <time>2014-08-14T16:35:51Z</time>
        <sat>9</sat>
      </trkpt>
      <trkpt lat="46.993727" lon="-121.986291">
        <ele>511.9</ele>
        <time>2014-08-14T16:35:53Z</time>
        <sat>8</sat>
      </trkpt>
      <trkpt lat="46.993767" lon="-121.986440">
        <ele>511.8</ele>
        <time>2014-08-14T16:35:55Z</time>
        <sat>9</sat>
      </trkpt>
      <trkpt lat="46.993814" lon="-121.986582">
        <ele>511.8</ele>
        <time>2014-08-14T16:35:57Z</time>
        <sat>8</sat>
      </trkpt>
      <trkpt lat="46.993847" lon="-121.986726">
        <ele>512.1</ele>
        <time>2014-08-14T16:35:59Z</time>
        <sat>8</sat>
      </trkpt>
      <trkpt lat="46.993870" lon="-121.986862">
        <ele>512.0</ele>
        <time>2014-08-14T16:36:01Z</time>
        <sat>8</sat>
      </trkpt>
      <trkpt lat="46.993900" lon="-121.987000">
        <ele>511.9</ele>
        <time>2014-08-14T16:36:03Z</time>
        <sat>8</sat>
      </trkpt>
      <trkpt lat="46.993970" lon="-121.987138">
        <ele>511.5</ele>
        <time>2014-08-14T16:36:05Z</time>
        <sat>8</sat>
      </trkpt>
      <trkpt lat="46.994022" lon="-121.987255">
        <ele>511.4</ele>
        <time>2014-08-14T16:36:07Z</time>
        <sat>8</sat>
      </trkpt>
      <trkpt lat="46.994082" lon="-121.987376">
        <ele>511.3</ele>
        <time>2014-08-14T16:36:09Z</time>
        <sat>8</sat>
      </trkpt>
      <trkpt lat="46.994135" lon="-121.987508">
        <ele>511.2</ele>
        <time>2014-08-14T16:36:11Z</time>
        <sat>8</sat>
      </trkpt>
      <trkpt lat="46.994182" lon="-121.987652">
        <ele>511.4</ele>
        <time>2014-08-14T16:36:13Z</time>
        <sat>8</sat>
      </trkpt>
      <trkpt lat="46.994229" lon="-121.987790">
        <ele>511.4</ele>
        <time>2014-08-14T16:36:15Z</time>
        <sat>8</sat>
      </trkpt>
      <trkpt lat="46.994265" lon="-121.987935">
        <ele>511.6</ele>
        <time>2014-08-14T16:36:17Z</time>
        <sat>8</sat>
      </trkpt>
      <trkpt lat="46.994300" lon="-121.988061">
        <ele>511.6</ele>
        <time>2014-08-14T16:36:19Z</time>
        <sat>8</sat>
      </trkpt>
      <trkpt lat="46.994350" lon="-121.988188">
        <ele>511.6</ele>
        <time>2014-08-14T16:36:21Z</time>
        <sat>9</sat>
      </trkpt>
      <trkpt lat="46.994393" lon="-121.988318">
        <ele>511.7</ele>
        <time>2014-08-14T16:36:23Z</time>
        <sat>8</sat>
      </trkpt>
      <trkpt lat="46.994437" lon="-121.988453">
        <ele>511.7</ele>
        <time>2014-08-14T16:36:25Z</time>
        <sat>8</sat>
      </trkpt>
      <trkpt lat="46.994488" lon="-121.988595">
        <ele>511.3</ele>
        <time>2014-08-14T16:36:27Z</time>
        <sat>8</sat>
      </trkpt>
      <trkpt lat="46.994530" lon="-121.988745">
        <ele>511.0</ele>
        <time>2014-08-14T16:36:29Z</time>
        <sat>8</sat>
      </trkpt>
      <trkpt lat="46.994580" lon="-121.988897">
        <ele>511.0</ele>
        <time>2014-08-14T16:36:31Z</time>
        <sat>8</sat>
      </trkpt>
      <trkpt lat="46.994628" lon="-121.989046">
        <ele>510.8</ele>
        <time>2014-08-14T16:36:33Z</time>
        <sat>9</sat>
      </trkpt>
      <trkpt lat="46.994672" lon="-121.989203">
        <ele>510.3</ele>
        <time>2014-08-14T16:36:35Z</time>
        <sat>9</sat>
      </trkpt>
      <trkpt lat="46.994725" lon="-121.989358">
        <ele>509.9</ele>
        <time>2014-08-14T16:36:37Z</time>
        <sat>9</sat>
      </trkpt>
      <trkpt lat="46.994777" lon="-121.989508">
        <ele>509.7</ele>
        <time>2014-08-14T16:36:39Z</time>
        <sat>9</sat>
      </trkpt>
      <trkpt lat="46.994822" lon="-121.989662">
        <ele>509.5</ele>
        <time>2014-08-14T16:36:41Z</time>
        <sat>8</sat>
      </trkpt>
      <trkpt lat="46.994869" lon="-121.989820">
        <ele>509.4</ele>
        <time>2014-08-14T16:36:43Z</time>
        <sat>9</sat>
      </trkpt>
      <trkpt lat="46.994922" lon="-121.989980">
        <ele>509.1</ele>
        <time>2014-08-14T16:36:45Z</time>
        <sat>9</sat>
      </trkpt>
      <trkpt lat="46.994967" lon="-121.990140">
        <ele>509.0</ele>
        <time>2014-08-14T16:36:47Z</time>
        <sat>8</sat>
      </trkpt>
      <trkpt lat="46.995000" lon="-121.990295">
        <ele>509.1</ele>
        <time>2014-08-14T16:36:49Z</time>
        <sat>9</sat>
      </trkpt>
      <trkpt lat="46.995027" lon="-121.990440">
        <ele>509.2</ele>
        <time>2014-08-14T16:36:51Z</time>
        <sat>9</sat>
      </trkpt>
      <trkpt lat="46.995062" lon="-121.990578">
        <ele>509.4</ele>
        <time>2014-08-14T16:36:53Z</time>
        <sat>8</sat>
      </trkpt>
      <trkpt lat="46.995094" lon="-121.990713">
        <ele>509.5</ele>
        <time>2014-08-14T16:36:55Z</time>
        <sat>9</sat>
      </trkpt>
      <trkpt lat="46.995120" lon="-121.990850">
        <ele>509.7</ele>
        <time>2014-08-14T16:36:57Z</time>
        <sat>9</sat>
      </trkpt>
      <trkpt lat="46.995142" lon="-121.990990">
        <ele>509.8</ele>
        <time>2014-08-14T16:36:59Z</time>
        <sat>8</sat>
      </trkpt>
      <trkpt lat="46.995185" lon="-121.991127">
        <ele>509.7</ele>
        <time>2014-08-14T16:37:01Z</time>
        <sat>8</sat>
      </trkpt>
      <trkpt lat="46.995227" lon="-121.991268">
        <ele>509.8</ele>
        <time>2014-08-14T16:37:03Z</time>
        <sat>8</sat>
      </trkpt>
      <trkpt lat="46.995257" lon="-121.991401">
        <ele>510.0</ele>
        <time>2014-08-14T16:37:05Z</time>
        <sat>8</sat>
      </trkpt>
      <trkpt lat="46.995292" lon="-121.991573">
        <ele>510.1</ele>
        <time>2014-08-14T16:37:08Z</time>
        <sat>8</sat>
      </trkpt>
      <trkpt lat="46.995342" lon="-121.991710">
        <ele>510.7</ele>
        <time>2014-08-14T16:37:11Z</time>
        <sat>8</sat>
      </trkpt>
      <trkpt lat="46.995380" lon="-121.991833">
        <ele>511.3</ele>
        <time>2014-08-14T16:37:14Z</time>
        <sat>9</sat>
      </trkpt>
      <trkpt lat="46.995412" lon="-121.991975">
        <ele>511.6</ele>
        <time>2014-08-14T16:37:17Z</time>
        <sat>8</sat>
      </trkpt>
      <trkpt lat="46.995487" lon="-121.992120">
        <ele>511.6</ele>
        <time>2014-08-14T16:37:20Z</time>
        <sat>9</sat>
      </trkpt>
      <trkpt lat="46.995543" lon="-121.992268">
        <ele>512.0</ele>
        <time>2014-08-14T16:37:23Z</time>
        <sat>9</sat>
      </trkpt>
      <trkpt lat="46.995600" lon="-121.992426">
        <ele>512.0</ele>
        <time>2014-08-14T16:37:26Z</time>
        <sat>9</sat>
      </trkpt>
      <trkpt lat="46.995675" lon="-121.992595">
        <ele>512.1</ele>
        <time>2014-08-14T16:37:29Z</time>
        <sat>8</sat>
      </trkpt>
      <trkpt lat="46.995745" lon="-121.992715">
        <ele>512.7</ele>
        <time>2014-08-14T16:37:31Z</time>
        <sat>9</sat>
      </trkpt>
      <trkpt lat="46.995814" lon="-121.992825">
        <ele>512.8</ele>
        <time>2014-08-14T16:37:33Z</time>
        <sat>8</sat>
      </trkpt>
      <trkpt lat="46.995879" lon="-121.992945">
        <ele>512.7</ele>
        <time>2014-08-14T16:37:35Z</time>
        <sat>9</sat>
      </trkpt>
      <trkpt lat="46.995960" lon="-121.993091">
        <ele>513.1</ele>
        <time>2014-08-14T16:37:38Z</time>
        <sat>9</sat>
      </trkpt>
      <trkpt lat="46.996042" lon="-121.993218">
        <ele>513.1</ele>
        <time>2014-08-14T16:37:41Z</time>
        <sat>9</sat>
      </trkpt>
      <trkpt lat="46.996132" lon="-121.993353">
        <ele>513.7</ele>
        <time>2014-08-14T16:37:44Z</time>
        <sat>9</sat>
      </trkpt>
      <trkpt lat="46.996208" lon="-121.993495">
        <ele>513.9</ele>
        <time>2014-08-14T16:37:47Z</time>
        <sat>9</sat>
      </trkpt>
      <trkpt lat="46.996292" lon="-121.993643">
        <ele>514.2</ele>
        <time>2014-08-14T16:37:50Z</time>
        <sat>9</sat>
      </trkpt>
      <trkpt lat="46.996359" lon="-121.993756">
        <ele>514.0</ele>
        <time>2014-08-14T16:37:52Z</time>
        <sat>9</sat>
      </trkpt>
      <trkpt lat="46.996422" lon="-121.993876">
        <ele>514.0</ele>
        <time>2014-08-14T16:37:54Z</time>
        <sat>9</sat>
      </trkpt>
      <trkpt lat="46.996487" lon="-121.993993">
        <ele>513.8</ele>
        <time>2014-08-14T16:37:56Z</time>
        <sat>9</sat>
      </trkpt>
      <trkpt lat="46.996550" lon="-121.994105">
        <ele>513.7</ele>
        <time>2014-08-14T16:37:58Z</time>
        <sat>9</sat>
      </trkpt>
      <trkpt lat="46.996607" lon="-121.994225">
        <ele>513.7</ele>
        <time>2014-08-14T16:38:00Z</time>
        <sat>9</sat>
      </trkpt>
      <trkpt lat="46.996667" lon="-121.994340">
        <ele>514.0</ele>
        <time>2014-08-14T16:38:02Z</time>
        <sat>9</sat>
      </trkpt>
      <trkpt lat="46.996725" lon="-121.994453">
        <ele>514.4</ele>
        <time>2014-08-14T16:38:04Z</time>
        <sat>9</sat>
      </trkpt>
      <trkpt lat="46.996789" lon="-121.994560">
        <ele>514.4</ele>
        <time>2014-08-14T16:38:06Z</time>
        <sat>9</sat>
      </trkpt>
      <trkpt lat="46.996868" lon="-121.994697">
        <ele>514.5</ele>
        <time>2014-08-14T16:38:09Z</time>
        <sat>9</sat>
      </trkpt>
      <trkpt lat="46.996940" lon="-121.994835">
        <ele>514.6</ele>
        <time>2014-08-14T16:38:12Z</time>
        <sat>9</sat>
      </trkpt>
      <trkpt lat="46.997009" lon="-121.994988">
        <ele>515.1</ele>
        <time>2014-08-14T16:38:15Z</time>
        <sat>8</sat>
      </trkpt>
      <trkpt lat="46.997078" lon="-121.995125">
        <ele>515.3</ele>
        <time>2014-08-14T16:38:18Z</time>
        <sat>9</sat>
      </trkpt>
      <trkpt lat="46.997140" lon="-121.995253">
        <ele>515.7</ele>
        <time>2014-08-14T16:38:21Z</time>
        <sat>9</sat>
      </trkpt>
      <trkpt lat="46.997213" lon="-121.995368">
        <ele>516.1</ele>
        <time>2014-08-14T16:38:24Z</time>
        <sat>9</sat>
      </trkpt>
      <trkpt lat="46.997287" lon="-121.995513">
        <ele>516.2</ele>
        <time>2014-08-14T16:38:27Z</time>
        <sat>9</sat>
      </trkpt>
      <trkpt lat="46.997362" lon="-121.995660">
        <ele>516.2</ele>
        <time>2014-08-14T16:38:30Z</time>
        <sat>8</sat>
      </trkpt>
      <trkpt lat="46.997435" lon="-121.995808">
        <ele>516.1</ele>
        <time>2014-08-14T16:38:33Z</time>
        <sat>9</sat>
      </trkpt>
      <trkpt lat="46.997499" lon="-121.995950">
        <ele>516.0</ele>
        <time>2014-08-14T16:38:36Z</time>
        <sat>9</sat>
      </trkpt>
      <trkpt lat="46.997557" lon="-121.996110">
        <ele>515.7</ele>
        <time>2014-08-14T16:38:39Z</time>
        <sat>9</sat>
      </trkpt>
      <trkpt lat="46.997600" lon="-121.996242">
        <ele>515.2</ele>
        <time>2014-08-14T16:38:41Z</time>
        <sat>9</sat>
      </trkpt>
      <trkpt lat="46.997615" lon="-121.996373">
        <ele>514.5</ele>
        <time>2014-08-14T16:38:43Z</time>
        <sat>9</sat>
      </trkpt>
      <trkpt lat="46.997643" lon="-121.996535">
        <ele>514.6</ele>
        <time>2014-08-14T16:38:45Z</time>
        <sat>8</sat>
      </trkpt>
      <trkpt lat="46.997672" lon="-121.996722">
        <ele>514.0</ele>
        <time>2014-08-14T16:38:47Z</time>
        <sat>8</sat>
      </trkpt>
      <trkpt lat="46.997702" lon="-121.996915">
        <ele>513.2</ele>
        <time>2014-08-14T16:38:49Z</time>
        <sat>9</sat>
      </trkpt>
      <trkpt lat="46.997727" lon="-121.997128">
        <ele>512.2</ele>
        <time>2014-08-14T16:38:51Z</time>
        <sat>9</sat>
      </trkpt>
      <trkpt lat="46.997757" lon="-121.997353">
        <ele>511.3</ele>
        <time>2014-08-14T16:38:53Z</time>
        <sat>8</sat>
      </trkpt>
      <trkpt lat="46.997797" lon="-121.997587">
        <ele>510.2</ele>
        <time>2014-08-14T16:38:55Z</time>
        <sat>9</sat>
      </trkpt>
      <trkpt lat="46.997847" lon="-121.997835">
        <ele>509.3</ele>
        <time>2014-08-14T16:38:57Z</time>
        <sat>9</sat>
      </trkpt>
      <trkpt lat="46.997912" lon="-121.998093">
        <ele>508.1</ele>
        <time>2014-08-14T16:38:59Z</time>
        <sat>8</sat>
      </trkpt>
      <trkpt lat="46.997957" lon="-121.998213">
        <ele>507.5</ele>
        <time>2014-08-14T16:39:00Z</time>
        <sat>9</sat>
      </trkpt>
      <trkpt lat="46.998034" lon="-121.998455">
        <ele>506.1</ele>
        <time>2014-08-14T16:39:02Z</time>
        <sat>9</sat>
      </trkpt>
      <trkpt lat="46.998072" lon="-121.998575">
        <ele>505.6</ele>
        <time>2014-08-14T16:39:03Z</time>
        <sat>9</sat>
      </trkpt>
      <trkpt lat="46.998140" lon="-121.998811">
        <ele>504.4</ele>
        <time>2014-08-14T16:39:05Z</time>
        <sat>9</sat>
      </trkpt>
      <trkpt lat="46.998162" lon="-121.998942">
        <ele>503.9</ele>
        <time>2014-08-14T16:39:06Z</time>
        <sat>9</sat>
      </trkpt>
      <trkpt lat="46.998203" lon="-121.999082">
        <ele>503.3</ele>
        <time>2014-08-14T16:39:07Z</time>
        <sat>8</sat>
      </trkpt>
      <trkpt lat="46.998254" lon="-121.999213">
        <ele>502.7</ele>
        <time>2014-08-14T16:39:08Z</time>
        <sat>8</sat>
      </trkpt>
      <trkpt lat="46.998307" lon="-121.999336">
        <ele>502.3</ele>
        <time>2014-08-14T16:39:09Z</time>
        <sat>8</sat>
      </trkpt>
      <trkpt lat="46.998400" lon="-121.999551">
        <ele>501.3</ele>
        <time>2014-08-14T16:39:11Z</time>
        <sat>8</sat>
      </trkpt>
      <trkpt lat="46.998470" lon="-121.999670">
        <ele>500.9</ele>
        <time>2014-08-14T16:39:12Z</time>
        <sat>8</sat>
      </trkpt>
      <trkpt lat="46.998569" lon="-121.999863">
        <ele>500.3</ele>
        <time>2014-08-14T16:39:14Z</time>
        <sat>9</sat>
      </trkpt>
      <trkpt lat="46.998638" lon="-122.000031">
        <ele>499.8</ele>
        <time>2014-08-14T16:39:16Z</time>
        <sat>9</sat>
      </trkpt>
      <trkpt lat="46.998699" lon="-122.000188">
        <ele>499.4</ele>
        <time>2014-08-14T16:39:18Z</time>
        <sat>9</sat>
      </trkpt>
      <trkpt lat="46.998782" lon="-122.000318">
        <ele>499.3</ele>
        <time>2014-08-14T16:39:20Z</time>
        <sat>9</sat>
      </trkpt>
      <trkpt lat="46.998872" lon="-122.000407">
        <ele>499.2</ele>
        <time>2014-08-14T16:39:22Z</time>
        <sat>9</sat>
      </trkpt>
      <trkpt lat="46.998945" lon="-122.000487">
        <ele>499.0</ele>
        <time>2014-08-14T16:39:24Z</time>
        <sat>9</sat>
      </trkpt>
      <trkpt lat="46.999025" lon="-122.000595">
        <ele>498.4</ele>
        <time>2014-08-14T16:39:26Z</time>
        <sat>8</sat>
      </trkpt>
      <trkpt lat="46.999142" lon="-122.000706">
        <ele>498.0</ele>
        <time>2014-08-14T16:39:28Z</time>
        <sat>8</sat>
      </trkpt>
      <trkpt lat="46.999232" lon="-122.000805">
        <ele>497.6</ele>
        <time>2014-08-14T16:39:30Z</time>
        <sat>8</sat>
      </trkpt>
      <trkpt lat="46.999312" lon="-122.000920">
        <ele>496.9</ele>
        <time>2014-08-14T16:39:32Z</time>
        <sat>8</sat>
      </trkpt>
      <trkpt lat="46.999433" lon="-122.001013">
        <ele>496.1</ele>
        <time>2014-08-14T16:39:34Z</time>
        <sat>9</sat>
      </trkpt>
      <trkpt lat="46.999523" lon="-122.001195">
        <ele>495.4</ele>
        <time>2014-08-14T16:39:36Z</time>
        <sat>9</sat>
      </trkpt>
      <trkpt lat="46.999638" lon="-122.001365">
        <ele>494.8</ele>
        <time>2014-08-14T16:39:38Z</time>
        <sat>9</sat>
      </trkpt>
      <trkpt lat="46.999697" lon="-122.001478">
        <ele>494.6</ele>
        <time>2014-08-14T16:39:39Z</time>
        <sat>9</sat>
      </trkpt>
      <trkpt lat="46.999819" lon="-122.001680">
        <ele>493.2</ele>
        <time>2014-08-14T16:39:41Z</time>
        <sat>9</sat>
      </trkpt>
      <trkpt lat="46.999867" lon="-122.001891">
        <ele>492.7</ele>
        <time>2014-08-14T16:39:42Z</time>
        <sat>9</sat>
      </trkpt>
      <trkpt lat="46.999930" lon="-122.002015">
        <ele>492.2</ele>
        <time>2014-08-14T16:39:43Z</time>
        <sat>9</sat>
      </trkpt>
      <trkpt lat="47.000032" lon="-122.002108">
        <ele>491.6</ele>
        <time>2014-08-14T16:39:44Z</time>
        <sat>9</sat>
      </trkpt>
      <trkpt lat="47.000105" lon="-122.002203">
        <ele>491.1</ele>
        <time>2014-08-14T16:39:45Z</time>
        <sat>9</sat>
      </trkpt>
      <trkpt lat="47.000165" lon="-122.002325">
        <ele>490.5</ele>
        <time>2014-08-14T16:39:46Z</time>
        <sat>9</sat>
      </trkpt>
      <trkpt lat="47.000294" lon="-122.002488">
        <ele>489.5</ele>
        <time>2014-08-14T16:39:48Z</time>
        <sat>9</sat>
      </trkpt>
      <trkpt lat="47.000420" lon="-122.002647">
        <ele>488.9</ele>
        <time>2014-08-14T16:39:50Z</time>
        <sat>9</sat>
      </trkpt>
      <trkpt lat="47.000548" lon="-122.002805">
        <ele>488.1</ele>
        <time>2014-08-14T16:39:52Z</time>
        <sat>9</sat>
      </trkpt>
      <trkpt lat="47.000657" lon="-122.002958">
        <ele>487.6</ele>
        <time>2014-08-14T16:39:54Z</time>
        <sat>9</sat>
      </trkpt>
      <trkpt lat="47.000770" lon="-122.003097">
        <ele>487.2</ele>
        <time>2014-08-14T16:39:56Z</time>
        <sat>9</sat>
      </trkpt>
      <trkpt lat="47.000817" lon="-122.003212">
        <ele>486.9</ele>
        <time>2014-08-14T16:39:57Z</time>
        <sat>9</sat>
      </trkpt>
      <trkpt lat="47.000924" lon="-122.003373">
        <ele>486.7</ele>
        <time>2014-08-14T16:39:59Z</time>
        <sat>9</sat>
      </trkpt>
      <trkpt lat="47.001032" lon="-122.003493">
        <ele>486.6</ele>
        <time>2014-08-14T16:40:01Z</time>
        <sat>9</sat>
      </trkpt>
      <trkpt lat="47.001130" lon="-122.003600">
        <ele>486.4</ele>
        <time>2014-08-14T16:40:03Z</time>
        <sat>9</sat>
      </trkpt>
      <trkpt lat="47.001233" lon="-122.003700">
        <ele>486.1</ele>
        <time>2014-08-14T16:40:05Z</time>
        <sat>9</sat>
      </trkpt>
      <trkpt lat="47.001337" lon="-122.003806">
        <ele>485.9</ele>
        <time>2014-08-14T16:40:07Z</time>
        <sat>9</sat>
      </trkpt>
      <trkpt lat="47.001450" lon="-122.003913">
        <ele>485.8</ele>
        <time>2014-08-14T16:40:09Z</time>
        <sat>9</sat>
      </trkpt>
      <trkpt lat="47.001553" lon="-122.004016">
        <ele>485.5</ele>
        <time>2014-08-14T16:40:11Z</time>
        <sat>9</sat>
      </trkpt>
      <trkpt lat="47.001640" lon="-122.004115">
        <ele>485.3</ele>
        <time>2014-08-14T16:40:13Z</time>
        <sat>9</sat>
      </trkpt>
      <trkpt lat="47.001722" lon="-122.004222">
        <ele>485.1</ele>
        <time>2014-08-14T16:40:15Z</time>
        <sat>9</sat>
      </trkpt>
      <trkpt lat="47.001815" lon="-122.004300">
        <ele>485.4</ele>
        <time>2014-08-14T16:40:17Z</time>
        <sat>9</sat>
      </trkpt>
      <trkpt lat="47.001882" lon="-122.004465">
        <ele>485.7</ele>
        <time>2014-08-14T16:40:19Z</time>
        <sat>9</sat>
      </trkpt>
      <trkpt lat="47.001964" lon="-122.004580">
        <ele>485.6</ele>
        <time>2014-08-14T16:40:21Z</time>
        <sat>9</sat>
      </trkpt>
      <trkpt lat="47.002044" lon="-122.004723">
        <ele>485.4</ele>
        <time>2014-08-14T16:40:23Z</time>
        <sat>9</sat>
      </trkpt>
      <trkpt lat="47.002122" lon="-122.004868">
        <ele>485.3</ele>
        <time>2014-08-14T16:40:25Z</time>
        <sat>9</sat>
      </trkpt>
      <trkpt lat="47.002218" lon="-122.005002">
        <ele>484.9</ele>
        <time>2014-08-14T16:40:27Z</time>
        <sat>9</sat>
      </trkpt>
      <trkpt lat="47.002304" lon="-122.005123">
        <ele>484.7</ele>
        <time>2014-08-14T16:40:28Z</time>
        <sat>9</sat>
      </trkpt>
      <trkpt lat="47.002372" lon="-122.005213">
        <ele>484.6</ele>
        <time>2014-08-14T16:40:29Z</time>
        <sat>9</sat>
      </trkpt>
      <trkpt lat="47.002477" lon="-122.005295">
        <ele>484.0</ele>
        <time>2014-08-14T16:40:30Z</time>
        <sat>9</sat>
      </trkpt>
      <trkpt lat="47.002565" lon="-122.005401">
        <ele>483.8</ele>
        <time>2014-08-14T16:40:31Z</time>
        <sat>9</sat>
      </trkpt>
      <trkpt lat="47.002647" lon="-122.005493">
        <ele>483.5</ele>
        <time>2014-08-14T16:40:32Z</time>
        <sat>9</sat>
      </trkpt>
      <trkpt lat="47.002705" lon="-122.005596">
        <ele>483.2</ele>
        <time>2014-08-14T16:40:33Z</time>
        <sat>9</sat>
      </trkpt>
      <trkpt lat="47.002800" lon="-122.005758">
        <ele>482.7</ele>
        <time>2014-08-14T16:40:35Z</time>
        <sat>9</sat>
      </trkpt>
      <trkpt lat="47.002924" lon="-122.005912">
        <ele>482.4</ele>
        <time>2014-08-14T16:40:37Z</time>
        <sat>8</sat>
      </trkpt>
      <trkpt lat="47.003010" lon="-122.006031">
        <ele>482.1</ele>
        <time>2014-08-14T16:40:39Z</time>
        <sat>9</sat>
      </trkpt>
      <trkpt lat="47.003110" lon="-122.006058">
        <ele>481.0</ele>
        <time>2014-08-14T16:41:07Z</time>
        <sat>8</sat>
      </trkpt>
      <trkpt lat="47.003182" lon="-122.005940">
        <ele>480.4</ele>
        <time>2014-08-14T16:41:10Z</time>
        <sat>9</sat>
      </trkpt>
      <trkpt lat="47.003227" lon="-122.005736">
        <ele>480.0</ele>
        <time>2014-08-14T16:41:13Z</time>
        <sat>9</sat>
      </trkpt>
      <trkpt lat="47.003225" lon="-122.005548">
        <ele>479.7</ele>
        <time>2014-08-14T16:41:15Z</time>
        <sat>9</sat>
      </trkpt>
      <trkpt lat="47.003212" lon="-122.005350">
        <ele>478.6</ele>
        <time>2014-08-14T16:41:17Z</time>
        <sat>9</sat>
      </trkpt>
      <trkpt lat="47.003184" lon="-122.005108">
        <ele>477.6</ele>
        <time>2014-08-14T16:41:19Z</time>
        <sat>9</sat>
      </trkpt>
      <trkpt lat="47.003170" lon="-122.004852">
        <ele>476.8</ele>
        <time>2014-08-14T16:41:21Z</time>
        <sat>9</sat>
      </trkpt>
      <trkpt lat="47.003150" lon="-122.004605">
        <ele>475.6</ele>
        <time>2014-08-14T16:41:23Z</time>
        <sat>9</sat>
      </trkpt>
      <trkpt lat="47.003135" lon="-122.004351">
        <ele>474.8</ele>
        <time>2014-08-14T16:41:25Z</time>
        <sat>9</sat>
      </trkpt>
      <trkpt lat="47.003118" lon="-122.004090">
        <ele>473.5</ele>
        <time>2014-08-14T16:41:27Z</time>
        <sat>9</sat>
      </trkpt>
      <trkpt lat="47.003112" lon="-122.003955">
        <ele>473.0</ele>
        <time>2014-08-14T16:41:28Z</time>
        <sat>9</sat>
      </trkpt>
      <trkpt lat="47.003112" lon="-122.003818">
        <ele>472.6</ele>
        <time>2014-08-14T16:41:29Z</time>
        <sat>9</sat>
      </trkpt>
      <trkpt lat="47.003105" lon="-122.003686">
        <ele>472.0</ele>
        <time>2014-08-14T16:41:30Z</time>
        <sat>9</sat>
      </trkpt>
      <trkpt lat="47.003088" lon="-122.003440">
        <ele>471.0</ele>
        <time>2014-08-14T16:41:32Z</time>
        <sat>9</sat>
      </trkpt>
      <trkpt lat="47.003072" lon="-122.003215">
        <ele>470.8</ele>
        <time>2014-08-14T16:41:34Z</time>
        <sat>9</sat>
      </trkpt>
      <trkpt lat="47.003052" lon="-122.003015">
        <ele>470.8</ele>
        <time>2014-08-14T16:41:36Z</time>
        <sat>9</sat>
      </trkpt>
      <trkpt lat="47.003042" lon="-122.002823">
        <ele>470.6</ele>
        <time>2014-08-14T16:41:38Z</time>
        <sat>9</sat>
      </trkpt>
      <trkpt lat="47.003045" lon="-122.002613">
        <ele>470.6</ele>
        <time>2014-08-14T16:41:40Z</time>
        <sat>9</sat>
      </trkpt>
      <trkpt lat="47.003025" lon="-122.002430">
        <ele>470.6</ele>
        <time>2014-08-14T16:41:42Z</time>
        <sat>9</sat>
      </trkpt>
      <trkpt lat="47.002995" lon="-122.002256">
        <ele>468.8</ele>
        <time>2014-08-14T16:41:44Z</time>
        <sat>9</sat>
      </trkpt>
      <trkpt lat="47.002962" lon="-122.002098">
        <ele>469.7</ele>
        <time>2014-08-14T16:41:46Z</time>
        <sat>9</sat>
      </trkpt>
      <trkpt lat="47.002934" lon="-122.001945">
        <ele>470.5</ele>
        <time>2014-08-14T16:41:48Z</time>
        <sat>9</sat>
      </trkpt>
      <trkpt lat="47.002907" lon="-122.001788">
        <ele>470.5</ele>
        <time>2014-08-14T16:41:50Z</time>
        <sat>9</sat>
      </trkpt>
      <trkpt lat="47.002875" lon="-122.001618">
        <ele>469.9</ele>
        <time>2014-08-14T16:41:52Z</time>
        <sat>9</sat>
      </trkpt>
      <trkpt lat="47.002844" lon="-122.001430">
        <ele>470.0</ele>
        <time>2014-08-14T16:41:54Z</time>
        <sat>9</sat>
      </trkpt>
      <trkpt lat="47.002804" lon="-122.001233">
        <ele>469.8</ele>
        <time>2014-08-14T16:41:56Z</time>
        <sat>9</sat>
      </trkpt>
      <trkpt lat="47.002759" lon="-122.001036">
        <ele>468.8</ele>
        <time>2014-08-14T16:41:58Z</time>
        <sat>9</sat>
      </trkpt>
      <trkpt lat="47.002709" lon="-122.000848">
        <ele>469.3</ele>
        <time>2014-08-14T16:42:00Z</time>
        <sat>9</sat>
      </trkpt>
      <trkpt lat="47.002665" lon="-122.000658">
        <ele>469.4</ele>
        <time>2014-08-14T16:42:02Z</time>
        <sat>9</sat>
      </trkpt>
      <trkpt lat="47.002620" lon="-122.000468">
        <ele>468.7</ele>
        <time>2014-08-14T16:42:04Z</time>
        <sat>9</sat>
      </trkpt>
      <trkpt lat="47.002573" lon="-122.000293">
        <ele>468.1</ele>
        <time>2014-08-14T16:42:06Z</time>
        <sat>9</sat>
      </trkpt>
      <trkpt lat="47.002540" lon="-122.000123">
        <ele>467.6</ele>
        <time>2014-08-14T16:42:08Z</time>
        <sat>9</sat>
      </trkpt>
      <trkpt lat="47.002552" lon="-121.999943">
        <ele>467.3</ele>
        <time>2014-08-14T16:42:10Z</time>
        <sat>9</sat>
      </trkpt>
      <trkpt lat="47.002600" lon="-121.999753">
        <ele>466.9</ele>
        <time>2014-08-14T16:42:12Z</time>
        <sat>8</sat>
      </trkpt>
      <trkpt lat="47.002668" lon="-121.999576">
        <ele>466.8</ele>
        <time>2014-08-14T16:42:14Z</time>
        <sat>8</sat>
      </trkpt>
      <trkpt lat="47.002767" lon="-121.999410">
        <ele>466.9</ele>
        <time>2014-08-14T16:42:16Z</time>
        <sat>8</sat>
      </trkpt>
      <trkpt lat="47.002888" lon="-121.999280">
        <ele>466.5</ele>
        <time>2014-08-14T16:42:18Z</time>
        <sat>9</sat>
      </trkpt>
      <trkpt lat="47.003045" lon="-121.999226">
        <ele>466.1</ele>
        <time>2014-08-14T16:42:20Z</time>
        <sat>8</sat>
      </trkpt>
      <trkpt lat="47.003192" lon="-121.999285">
        <ele>465.2</ele>
        <time>2014-08-14T16:42:22Z</time>
        <sat>8</sat>
      </trkpt>
      <trkpt lat="47.003325" lon="-121.999428">
        <ele>464.3</ele>
        <time>2014-08-14T16:42:24Z</time>
        <sat>8</sat>
      </trkpt>
      <trkpt lat="47.003460" lon="-121.999591">
        <ele>463.0</ele>
        <time>2014-08-14T16:42:26Z</time>
        <sat>8</sat>
      </trkpt>
      <trkpt lat="47.003528" lon="-121.999681">
        <ele>462.4</ele>
        <time>2014-08-14T16:42:27Z</time>
        <sat>9</sat>
      </trkpt>
      <trkpt lat="47.003599" lon="-121.999768">
        <ele>461.9</ele>
        <time>2014-08-14T16:42:28Z</time>
        <sat>9</sat>
      </trkpt>
      <trkpt lat="47.003670" lon="-121.999858">
        <ele>461.3</ele>
        <time>2014-08-14T16:42:29Z</time>
        <sat>9</sat>
      </trkpt>
      <trkpt lat="47.003742" lon="-121.999952">
        <ele>460.4</ele>
        <time>2014-08-14T16:42:30Z</time>
        <sat>9</sat>
      </trkpt>
      <trkpt lat="47.003814" lon="-122.000048">
        <ele>459.3</ele>
        <time>2014-08-14T16:42:31Z</time>
        <sat>8</sat>
      </trkpt>
      <trkpt lat="47.003883" lon="-122.000143">
        <ele>458.2</ele>
        <time>2014-08-14T16:42:32Z</time>
        <sat>9</sat>
      </trkpt>
      <trkpt lat="47.003954" lon="-122.000240">
        <ele>457.1</ele>
        <time>2014-08-14T16:42:33Z</time>
        <sat>9</sat>
      </trkpt>
      <trkpt lat="47.004023" lon="-122.000338">
        <ele>456.0</ele>
        <time>2014-08-14T16:42:34Z</time>
        <sat>9</sat>
      </trkpt>
      <trkpt lat="47.004092" lon="-122.000438">
        <ele>455.0</ele>
        <time>2014-08-14T16:42:35Z</time>
        <sat>9</sat>
      </trkpt>
      <trkpt lat="47.004160" lon="-122.000530">
        <ele>453.9</ele>
        <time>2014-08-14T16:42:36Z</time>
        <sat>9</sat>
      </trkpt>
      <trkpt lat="47.004285" lon="-122.000711">
        <ele>451.3</ele>
        <time>2014-08-14T16:42:38Z</time>
        <sat>9</sat>
      </trkpt>
      <trkpt lat="47.004430" lon="-122.000875">
        <ele>449.0</ele>
        <time>2014-08-14T16:42:40Z</time>
        <sat>9</sat>
      </trkpt>
      <trkpt lat="47.004517" lon="-122.000943">
        <ele>447.9</ele>
        <time>2014-08-14T16:42:41Z</time>
        <sat>9</sat>
      </trkpt>
      <trkpt lat="47.004609" lon="-122.000993">
        <ele>446.6</ele>
        <time>2014-08-14T16:42:42Z</time>
        <sat>9</sat>
      </trkpt>
      <trkpt lat="47.004709" lon="-122.001023">
        <ele>445.4</ele>
        <time>2014-08-14T16:42:43Z</time>
        <sat>9</sat>
      </trkpt>
      <trkpt lat="47.004820" lon="-122.001043">
        <ele>444.4</ele>
        <time>2014-08-14T16:42:44Z</time>
        <sat>9</sat>
      </trkpt>
      <trkpt lat="47.004934" lon="-122.001060">
        <ele>443.2</ele>
        <time>2014-08-14T16:42:45Z</time>
        <sat>9</sat>
      </trkpt>
      <trkpt lat="47.005040" lon="-122.001063">
        <ele>441.9</ele>
        <time>2014-08-14T16:42:46Z</time>
        <sat>9</sat>
      </trkpt>
      <trkpt lat="47.005153" lon="-122.001043">
        <ele>440.8</ele>
        <time>2014-08-14T16:42:47Z</time>
        <sat>9</sat>
      </trkpt>
      <trkpt lat="47.005269" lon="-122.000986">
        <ele>439.7</ele>
        <time>2014-08-14T16:42:48Z</time>
        <sat>9</sat>
      </trkpt>
      <trkpt lat="47.005350" lon="-122.000913">
        <ele>438.7</ele>
        <time>2014-08-14T16:42:49Z</time>
        <sat>9</sat>
      </trkpt>
      <trkpt lat="47.005410" lon="-122.000811">
        <ele>438.0</ele>
        <time>2014-08-14T16:42:50Z</time>
        <sat>9</sat>
      </trkpt>
      <trkpt lat="47.005425" lon="-122.000575">
        <ele>436.8</ele>
        <time>2014-08-14T16:42:52Z</time>
        <sat>9</sat>
      </trkpt>
      <trkpt lat="47.005333" lon="-122.000398">
        <ele>436.0</ele>
        <time>2014-08-14T16:42:54Z</time>
        <sat>8</sat>
      </trkpt>
      <trkpt lat="47.005227" lon="-122.000265">
        <ele>435.6</ele>
        <time>2014-08-14T16:42:56Z</time>
        <sat>9</sat>
      </trkpt>
      <trkpt lat="47.005147" lon="-122.000141">
        <ele>435.3</ele>
        <time>2014-08-14T16:42:58Z</time>
        <sat>8</sat>
      </trkpt>
      <trkpt lat="47.005070" lon="-122.000021">
        <ele>435.2</ele>
        <time>2014-08-14T16:43:00Z</time>
        <sat>8</sat>
      </trkpt>
      <trkpt lat="47.004988" lon="-121.999901">
        <ele>435.2</ele>
        <time>2014-08-14T16:43:02Z</time>
        <sat>8</sat>
      </trkpt>
      <trkpt lat="47.004900" lon="-121.999790">
        <ele>435.0</ele>
        <time>2014-08-14T16:43:04Z</time>
        <sat>8</sat>
      </trkpt>
      <trkpt lat="47.004817" lon="-121.999676">
        <ele>435.1</ele>
        <time>2014-08-14T16:43:06Z</time>
        <sat>9</sat>
      </trkpt>
      <trkpt lat="47.004773" lon="-121.999540">
        <ele>435.4</ele>
        <time>2014-08-14T16:43:08Z</time>
        <sat>9</sat>
      </trkpt>
      <trkpt lat="47.004807" lon="-121.999405">
        <ele>435.6</ele>
        <time>2014-08-14T16:43:10Z</time>
        <sat>8</sat>
      </trkpt>
      <trkpt lat="47.004867" lon="-121.999300">
        <ele>435.8</ele>
        <time>2014-08-14T16:43:12Z</time>
        <sat>8</sat>
      </trkpt>
      <trkpt lat="47.004934" lon="-121.999148">
        <ele>435.7</ele>
        <time>2014-08-14T16:43:15Z</time>
        <sat>7</sat>
      </trkpt>
      <trkpt lat="47.005000" lon="-121.999010">
        <ele>435.9</ele>
        <time>2014-08-14T16:43:19Z</time>
        <sat>9</sat>
      </trkpt>
      <trkpt lat="47.005069" lon="-121.998875">
        <ele>435.7</ele>
        <time>2014-08-14T16:43:23Z</time>
        <sat>8</sat>
      </trkpt>
      <trkpt lat="47.005147" lon="-121.998768">
        <ele>435.8</ele>
        <time>2014-08-14T16:43:26Z</time>
        <sat>8</sat>
      </trkpt>
      <trkpt lat="47.005237" lon="-121.998645">
        <ele>436.0</ele>
        <time>2014-08-14T16:43:29Z</time>
        <sat>9</sat>
      </trkpt>
      <trkpt lat="47.005309" lon="-121.998533">
        <ele>435.9</ele>
        <time>2014-08-14T16:43:33Z</time>
        <sat>9</sat>
      </trkpt>
      <trkpt lat="47.005384" lon="-121.998446">
        <ele>432.4</ele>
        <time>2014-08-14T16:43:38Z</time>
        <sat>9</sat>
      </trkpt>
      <trkpt lat="47.005419" lon="-121.998305">
        <ele>436.0</ele>
        <time>2014-08-14T16:43:42Z</time>
        <sat>7</sat>
      </trkpt>
      <trkpt lat="47.005363" lon="-121.998193">
        <ele>436.8</ele>
        <time>2014-08-14T16:43:47Z</time>
        <sat>7</sat>
      </trkpt>
      <trkpt lat="47.005492" lon="-121.998096">
        <ele>438.2</ele>
        <time>2014-08-14T16:44:17Z</time>
        <sat>7</sat>
      </trkpt>
      <trkpt lat="47.005597" lon="-121.998123">
        <ele>438.5</ele>
        <time>2014-08-14T16:44:20Z</time>
        <sat>8</sat>
      </trkpt>
      <trkpt lat="47.005703" lon="-121.998141">
        <ele>438.2</ele>
        <time>2014-08-14T16:44:27Z</time>
        <sat>8</sat>
      </trkpt>
      <trkpt lat="47.005793" lon="-121.998152">
        <ele>439.7</ele>
        <time>2014-08-14T16:44:36Z</time>
        <sat>9</sat>
      </trkpt>
      <trkpt lat="47.005883" lon="-121.998115">
        <ele>440.1</ele>
        <time>2014-08-14T16:44:40Z</time>
        <sat>8</sat>
      </trkpt>
      <trkpt lat="47.005969" lon="-121.998160">
        <ele>440.6</ele>
        <time>2014-08-14T16:44:47Z</time>
        <sat>7</sat>
      </trkpt>
      <trkpt lat="47.006065" lon="-121.998158">
        <ele>440.6</ele>
        <time>2014-08-14T16:44:50Z</time>
        <sat>7</sat>
      </trkpt>
      <trkpt lat="47.006148" lon="-121.998100">
        <ele>441.8</ele>
        <time>2014-08-14T16:45:02Z</time>
        <sat>7</sat>
      </trkpt>
      <trkpt lat="47.006233" lon="-121.998167">
        <ele>442.1</ele>
        <time>2014-08-14T16:45:12Z</time>
        <sat>8</sat>
      </trkpt>
      <trkpt lat="47.006327" lon="-121.998123">
        <ele>442.1</ele>
        <time>2014-08-14T16:45:16Z</time>
        <sat>8</sat>
      </trkpt>
      <trkpt lat="47.006433" lon="-121.998155">
        <ele>442.6</ele>
        <time>2014-08-14T16:45:21Z</time>
        <sat>8</sat>
      </trkpt>
      <trkpt lat="47.006539" lon="-121.998128">
        <ele>442.9</ele>
        <time>2014-08-14T16:45:24Z</time>
        <sat>9</sat>
      </trkpt>
      <trkpt lat="47.006630" lon="-121.998105">
        <ele>443.9</ele>
        <time>2014-08-14T16:45:31Z</time>
        <sat>8</sat>
      </trkpt>
      <trkpt lat="47.006742" lon="-121.998100">
        <ele>444.3</ele>
        <time>2014-08-14T16:45:39Z</time>
        <sat>9</sat>
      </trkpt>
      <trkpt lat="47.006844" lon="-121.998140">
        <ele>445.1</ele>
        <time>2014-08-14T16:45:47Z</time>
        <sat>8</sat>
      </trkpt>
      <trkpt lat="47.006933" lon="-121.998208">
        <ele>445.8</ele>
        <time>2014-08-14T16:45:52Z</time>
        <sat>8</sat>
      </trkpt>
      <trkpt lat="47.007027" lon="-121.998262">
        <ele>446.6</ele>
        <time>2014-08-14T16:45:58Z</time>
        <sat>8</sat>
      </trkpt>
      <trkpt lat="47.007120" lon="-121.998365">
        <ele>446.5</ele>
        <time>2014-08-14T16:46:02Z</time>
        <sat>8</sat>
      </trkpt>
      <trkpt lat="47.007205" lon="-121.998443">
        <ele>447.0</ele>
        <time>2014-08-14T16:46:07Z</time>
        <sat>8</sat>
      </trkpt>
      <trkpt lat="47.007307" lon="-121.998477">
        <ele>447.7</ele>
        <time>2014-08-14T16:46:15Z</time>
        <sat>8</sat>
      </trkpt>
      <trkpt lat="47.007375" lon="-121.998570">
        <ele>448.1</ele>
        <time>2014-08-14T16:46:19Z</time>
        <sat>8</sat>
      </trkpt>
      <trkpt lat="47.007455" lon="-121.998673">
        <ele>448.5</ele>
        <time>2014-08-14T16:46:26Z</time>
        <sat>8</sat>
      </trkpt>
      <trkpt lat="47.007530" lon="-121.998760">
        <ele>448.8</ele>
        <time>2014-08-14T16:46:33Z</time>
        <sat>8</sat>
      </trkpt>
      <trkpt lat="47.007617" lon="-121.998713">
        <ele>449.8</ele>
        <time>2014-08-14T16:46:42Z</time>
        <sat>8</sat>
      </trkpt>
      <trkpt lat="47.007712" lon="-121.998728">
        <ele>450.3</ele>
        <time>2014-08-14T16:46:48Z</time>
        <sat>8</sat>
      </trkpt>
      <trkpt lat="47.007805" lon="-121.998773">
        <ele>450.5</ele>
        <time>2014-08-14T16:46:55Z</time>
        <sat>9</sat>
      </trkpt>
      <trkpt lat="47.007872" lon="-121.998880">
        <ele>450.9</ele>
        <time>2014-08-14T16:46:59Z</time>
        <sat>8</sat>
      </trkpt>
      <trkpt lat="47.007950" lon="-121.998971">
        <ele>451.0</ele>
        <time>2014-08-14T16:47:02Z</time>
        <sat>8</sat>
      </trkpt>
      <trkpt lat="47.008015" lon="-121.999070">
        <ele>451.8</ele>
        <time>2014-08-14T16:47:08Z</time>
        <sat>8</sat>
      </trkpt>
      <trkpt lat="47.008089" lon="-121.999155">
        <ele>452.1</ele>
        <time>2014-08-14T16:47:14Z</time>
        <sat>9</sat>
      </trkpt>
      <trkpt lat="47.008172" lon="-121.999245">
        <ele>452.3</ele>
        <time>2014-08-14T16:47:19Z</time>
        <sat>8</sat>
      </trkpt>
      <trkpt lat="47.008235" lon="-121.999341">
        <ele>453.1</ele>
        <time>2014-08-14T16:47:28Z</time>
        <sat>9</sat>
      </trkpt>
      <trkpt lat="47.008322" lon="-121.999398">
        <ele>453.7</ele>
        <time>2014-08-14T16:47:35Z</time>
        <sat>9</sat>
      </trkpt>
      <trkpt lat="47.008390" lon="-121.999495">
        <ele>454.3</ele>
        <time>2014-08-14T16:47:44Z</time>
        <sat>9</sat>
      </trkpt>
      <trkpt lat="47.008417" lon="-121.999647">
        <ele>454.9</ele>
        <time>2014-08-14T16:47:50Z</time>
        <sat>8</sat>
      </trkpt>
      <trkpt lat="47.008475" lon="-121.999771">
        <ele>455.3</ele>
        <time>2014-08-14T16:47:56Z</time>
        <sat>9</sat>
      </trkpt>
      <trkpt lat="47.008500" lon="-121.999911">
        <ele>455.7</ele>
        <time>2014-08-14T16:48:01Z</time>
        <sat>9</sat>
      </trkpt>
      <trkpt lat="47.008560" lon="-122.000013">
        <ele>456.4</ele>
        <time>2014-08-14T16:48:07Z</time>
        <sat>9</sat>
      </trkpt>
      <trkpt lat="47.008552" lon="-122.000163">
        <ele>457.1</ele>
        <time>2014-08-14T16:48:15Z</time>
        <sat>9</sat>
      </trkpt>
      <trkpt lat="47.008652" lon="-122.000263">
        <ele>457.4</ele>
        <time>2014-08-14T16:48:20Z</time>
        <sat>9</sat>
      </trkpt>
      <trkpt lat="47.008710" lon="-122.000377">
        <ele>458.0</ele>
        <time>2014-08-14T16:48:24Z</time>
        <sat>9</sat>
      </trkpt>
      <trkpt lat="47.008774" lon="-122.000483">
        <ele>458.1</ele>
        <time>2014-08-14T16:48:28Z</time>
        <sat>9</sat>
      </trkpt>
      <trkpt lat="47.008833" lon="-122.000591">
        <ele>458.8</ele>
        <time>2014-08-14T16:48:40Z</time>
        <sat>9</sat>
      </trkpt>
      <trkpt lat="47.008923" lon="-122.000612">
        <ele>459.2</ele>
        <time>2014-08-14T16:48:46Z</time>
        <sat>9</sat>
      </trkpt>
      <trkpt lat="47.009013" lon="-122.000632">
        <ele>460.3</ele>
        <time>2014-08-14T16:48:54Z</time>
        <sat>9</sat>
      </trkpt>
      <trkpt lat="47.009092" lon="-122.000718">
        <ele>460.7</ele>
        <time>2014-08-14T16:48:58Z</time>
        <sat>9</sat>
      </trkpt>
      <trkpt lat="47.009182" lon="-122.000732">
        <ele>461.3</ele>
        <time>2014-08-14T16:49:07Z</time>
        <sat>9</sat>
      </trkpt>
      <trkpt lat="47.009287" lon="-122.000793">
        <ele>462.6</ele>
        <time>2014-08-14T16:49:22Z</time>
        <sat>9</sat>
      </trkpt>
      <trkpt lat="47.009380" lon="-122.000838">
        <ele>463.1</ele>
        <time>2014-08-14T16:49:33Z</time>
        <sat>9</sat>
      </trkpt>
      <trkpt lat="47.009445" lon="-122.000930">
        <ele>463.5</ele>
        <time>2014-08-14T16:49:42Z</time>
        <sat>9</sat>
      </trkpt>
      <trkpt lat="47.009542" lon="-122.000983">
        <ele>463.4</ele>
        <time>2014-08-14T16:49:47Z</time>
        <sat>9</sat>
      </trkpt>
      <trkpt lat="47.009590" lon="-122.001095">
        <ele>462.9</ele>
        <time>2014-08-14T16:49:55Z</time>
        <sat>9</sat>
      </trkpt>
      <trkpt lat="47.009687" lon="-122.001168">
        <ele>463.1</ele>
        <time>2014-08-14T16:50:02Z</time>
        <sat>9</sat>
      </trkpt>
      <trkpt lat="47.009755" lon="-122.001268">
        <ele>463.9</ele>
        <time>2014-08-14T16:50:12Z</time>
        <sat>9</sat>
      </trkpt>
      <trkpt lat="47.009827" lon="-122.001351">
        <ele>464.5</ele>
        <time>2014-08-14T16:50:17Z</time>
        <sat>9</sat>
      </trkpt>
      <trkpt lat="47.009910" lon="-122.001407">
        <ele>465.6</ele>
        <time>2014-08-14T16:50:23Z</time>
        <sat>9</sat>
      </trkpt>
      <trkpt lat="47.010005" lon="-122.001453">
        <ele>466.2</ele>
        <time>2014-08-14T16:50:29Z</time>
        <sat>9</sat>
      </trkpt>
      <trkpt lat="47.010100" lon="-122.001502">
        <ele>466.7</ele>
        <time>2014-08-14T16:50:35Z</time>
        <sat>9</sat>
      </trkpt>
      <trkpt lat="47.010202" lon="-122.001553">
        <ele>466.9</ele>
        <time>2014-08-14T16:50:39Z</time>
        <sat>9</sat>
      </trkpt>
      <trkpt lat="47.010317" lon="-122.001603">
        <ele>467.4</ele>
        <time>2014-08-14T16:50:43Z</time>
        <sat>9</sat>
      </trkpt>
      <trkpt lat="47.010419" lon="-122.001627">
        <ele>467.9</ele>
        <time>2014-08-14T16:50:48Z</time>
        <sat>9</sat>
      </trkpt>
      <trkpt lat="47.010510" lon="-122.001610">
        <ele>468.1</ele>
        <time>2014-08-14T16:50:53Z</time>
        <sat>9</sat>
      </trkpt>
      <trkpt lat="47.010612" lon="-122.001633">
        <ele>468.6</ele>
        <time>2014-08-14T16:50:59Z</time>
        <sat>9</sat>
      </trkpt>
      <trkpt lat="47.010703" lon="-122.001658">
        <ele>469.0</ele>
        <time>2014-08-14T16:51:03Z</time>
        <sat>9</sat>
      </trkpt>
      <trkpt lat="47.010794" lon="-122.001720">
        <ele>469.4</ele>
        <time>2014-08-14T16:51:09Z</time>
        <sat>9</sat>
      </trkpt>
      <trkpt lat="47.010892" lon="-122.001760">
        <ele>469.6</ele>
        <time>2014-08-14T16:51:13Z</time>
        <sat>9</sat>
      </trkpt>
      <trkpt lat="47.010987" lon="-122.001780">
        <ele>469.9</ele>
        <time>2014-08-14T16:51:16Z</time>
        <sat>9</sat>
      </trkpt>
      <trkpt lat="47.011085" lon="-122.001800">
        <ele>470.1</ele>
        <time>2014-08-14T16:51:20Z</time>
        <sat>9</sat>
      </trkpt>
      <trkpt lat="47.011194" lon="-122.001808">
        <ele>470.3</ele>
        <time>2014-08-14T16:51:24Z</time>
        <sat>9</sat>
      </trkpt>
      <trkpt lat="47.011290" lon="-122.001818">
        <ele>470.6</ele>
        <time>2014-08-14T16:51:28Z</time>
        <sat>8</sat>
      </trkpt>
      <trkpt lat="47.011400" lon="-122.001840">
        <ele>470.9</ele>
        <time>2014-08-14T16:51:32Z</time>
        <sat>9</sat>
      </trkpt>
      <trkpt lat="47.011492" lon="-122.001863">
        <ele>470.9</ele>
        <time>2014-08-14T16:51:35Z</time>
        <sat>9</sat>
      </trkpt>
      <trkpt lat="47.011585" lon="-122.001858">
        <ele>471.5</ele>
        <time>2014-08-14T16:51:39Z</time>
        <sat>9</sat>
      </trkpt>
      <trkpt lat="47.011688" lon="-122.001906">
        <ele>472.2</ele>
        <time>2014-08-14T16:51:45Z</time>
        <sat>9</sat>
      </trkpt>
      <trkpt lat="47.011779" lon="-122.001960">
        <ele>472.5</ele>
        <time>2014-08-14T16:51:48Z</time>
        <sat>9</sat>
      </trkpt>
      <trkpt lat="47.011857" lon="-122.002036">
        <ele>472.9</ele>
        <time>2014-08-14T16:51:51Z</time>
        <sat>9</sat>
      </trkpt>
      <trkpt lat="47.011982" lon="-122.002077">
        <ele>473.0</ele>
        <time>2014-08-14T16:51:55Z</time>
        <sat>9</sat>
      </trkpt>
      <trkpt lat="47.012065" lon="-122.002153">
        <ele>473.5</ele>
        <time>2014-08-14T16:51:59Z</time>
        <sat>9</sat>
      </trkpt>
      <trkpt lat="47.012157" lon="-122.002168">
        <ele>474.0</ele>
        <time>2014-08-14T16:52:12Z</time>
        <sat>9</sat>
      </trkpt>
      <trkpt lat="47.012209" lon="-122.002278">
        <ele>474.1</ele>
        <time>2014-08-14T16:52:36Z</time>
        <sat>9</sat>
      </trkpt>
      <trkpt lat="47.012192" lon="-122.002145">
        <ele>473.6</ele>
        <time>2014-08-14T16:52:57Z</time>
        <sat>9</sat>
      </trkpt>
      <trkpt lat="47.012110" lon="-122.002083">
        <ele>473.5</ele>
        <time>2014-08-14T16:53:04Z</time>
        <sat>9</sat>
      </trkpt>
      <trkpt lat="47.012172" lon="-122.002182">
        <ele>473.6</ele>
        <time>2014-08-14T16:53:27Z</time>
        <sat>9</sat>
      </trkpt>
      <trkpt lat="47.012260" lon="-122.002243">
        <ele>474.0</ele>
        <time>2014-08-14T16:55:47Z</time>
        <sat>9</sat>
      </trkpt>
      <trkpt lat="47.012334" lon="-122.002350">
        <ele>474.5</ele>
        <time>2014-08-14T16:55:54Z</time>
        <sat>9</sat>
      </trkpt>
      <trkpt lat="47.012388" lon="-122.002463">
        <ele>475.3</ele>
        <time>2014-08-14T16:56:00Z</time>
        <sat>9</sat>
      </trkpt>
      <trkpt lat="47.012422" lon="-122.002610">
        <ele>475.8</ele>
        <time>2014-08-14T16:56:07Z</time>
        <sat>9</sat>
      </trkpt>
      <trkpt lat="47.012447" lon="-122.002740">
        <ele>476.1</ele>
        <time>2014-08-14T16:56:12Z</time>
        <sat>9</sat>
      </trkpt>
      <trkpt lat="47.012455" lon="-122.002875">
        <ele>476.7</ele>
        <time>2014-08-14T16:56:17Z</time>
        <sat>9</sat>
      </trkpt>
      <trkpt lat="47.012480" lon="-122.003018">
        <ele>477.4</ele>
        <time>2014-08-14T16:56:22Z</time>
        <sat>9</sat>
      </trkpt>
      <trkpt lat="47.012485" lon="-122.003163">
        <ele>477.3</ele>
        <time>2014-08-14T16:56:27Z</time>
        <sat>9</sat>
      </trkpt>
      <trkpt lat="47.012498" lon="-122.003295">
        <ele>477.2</ele>
        <time>2014-08-14T16:56:32Z</time>
        <sat>9</sat>
      </trkpt>
      <trkpt lat="47.012535" lon="-122.003447">
        <ele>477.2</ele>
        <time>2014-08-14T16:56:38Z</time>
        <sat>9</sat>
      </trkpt>
      <trkpt lat="47.012640" lon="-122.003550">
        <ele>477.3</ele>
        <time>2014-08-14T16:56:41Z</time>
        <sat>9</sat>
      </trkpt>
      <trkpt lat="47.012910" lon="-122.003826">
        <ele>477.0</ele>
        <time>2014-08-14T16:56:47Z</time>
        <sat>9</sat>
      </trkpt>
      <trkpt lat="47.013065" lon="-122.004093">
        <ele>477.5</ele>
        <time>2014-08-14T16:56:52Z</time>
        <sat>9</sat>
      </trkpt>
      <trkpt lat="47.013132" lon="-122.004222">
        <ele>477.3</ele>
        <time>2014-08-14T16:56:57Z</time>
        <sat>9</sat>
      </trkpt>
      <trkpt lat="47.013173" lon="-122.004380">
        <ele>477.4</ele>
        <time>2014-08-14T16:57:01Z</time>
        <sat>9</sat>
      </trkpt>
      <trkpt lat="47.013180" lon="-122.004532">
        <ele>477.6</ele>
        <time>2014-08-14T16:57:06Z</time>
        <sat>9</sat>
      </trkpt>
      <trkpt lat="47.013245" lon="-122.004625">
        <ele>477.9</ele>
        <time>2014-08-14T16:57:11Z</time>
        <sat>9</sat>
      </trkpt>
      <trkpt lat="47.013283" lon="-122.004745">
        <ele>477.6</ele>
        <time>2014-08-14T16:57:17Z</time>
        <sat>9</sat>
      </trkpt>
      <trkpt lat="47.013340" lon="-122.004877">
        <ele>477.8</ele>
        <time>2014-08-14T16:57:22Z</time>
        <sat>9</sat>
      </trkpt>
      <trkpt lat="47.013412" lon="-122.005007">
        <ele>478.0</ele>
        <time>2014-08-14T16:57:27Z</time>
        <sat>9</sat>
      </trkpt>
      <trkpt lat="47.013490" lon="-122.005093">
        <ele>478.2</ele>
        <time>2014-08-14T16:57:32Z</time>
        <sat>9</sat>
      </trkpt>
      <trkpt lat="47.013567" lon="-122.005202">
        <ele>477.8</ele>
        <time>2014-08-14T16:57:36Z</time>
        <sat>9</sat>
      </trkpt>
      <trkpt lat="47.013617" lon="-122.005333">
        <ele>477.8</ele>
        <time>2014-08-14T16:57:41Z</time>
        <sat>9</sat>
      </trkpt>
      <trkpt lat="47.013649" lon="-122.005485">
        <ele>478.0</ele>
        <time>2014-08-14T16:57:45Z</time>
        <sat>9</sat>
      </trkpt>
      <trkpt lat="47.013687" lon="-122.005635">
        <ele>478.3</ele>
        <time>2014-08-14T16:57:49Z</time>
        <sat>10</sat>
      </trkpt>
      <trkpt lat="47.013750" lon="-122.005773">
        <ele>478.4</ele>
        <time>2014-08-14T16:57:53Z</time>
        <sat>10</sat>
      </trkpt>
      <trkpt lat="47.013809" lon="-122.005910">
        <ele>478.4</ele>
        <time>2014-08-14T16:57:57Z</time>
        <sat>10</sat>
      </trkpt>
      <trkpt lat="47.013870" lon="-122.006036">
        <ele>478.5</ele>
        <time>2014-08-14T16:58:02Z</time>
        <sat>10</sat>
      </trkpt>
      <trkpt lat="47.013922" lon="-122.006176">
        <ele>478.7</ele>
        <time>2014-08-14T16:58:07Z</time>
        <sat>10</sat>
      </trkpt>
      <trkpt lat="47.013957" lon="-122.006307">
        <ele>478.5</ele>
        <time>2014-08-14T16:58:11Z</time>
        <sat>10</sat>
      </trkpt>
      <trkpt lat="47.014002" lon="-122.006443">
        <ele>478.7</ele>
        <time>2014-08-14T16:58:19Z</time>
        <sat>10</sat>
      </trkpt>
      <trkpt lat="47.014072" lon="-122.006530">
        <ele>478.7</ele>
        <time>2014-08-14T16:58:24Z</time>
        <sat>10</sat>
      </trkpt>
      <trkpt lat="47.014142" lon="-122.006628">
        <ele>478.6</ele>
        <time>2014-08-14T16:58:29Z</time>
        <sat>10</sat>
      </trkpt>
      <trkpt lat="47.014208" lon="-122.006718">
        <ele>478.6</ele>
        <time>2014-08-14T16:58:34Z</time>
        <sat>10</sat>
      </trkpt>
      <trkpt lat="47.014264" lon="-122.006840">
        <ele>478.6</ele>
        <time>2014-08-14T16:58:39Z</time>
        <sat>10</sat>
      </trkpt>
      <trkpt lat="47.014347" lon="-122.006948">
        <ele>478.4</ele>
        <time>2014-08-14T16:58:44Z</time>
        <sat>10</sat>
      </trkpt>
      <trkpt lat="47.014422" lon="-122.007026">
        <ele>478.3</ele>
        <time>2014-08-14T16:58:47Z</time>
        <sat>10</sat>
      </trkpt>
      <trkpt lat="47.014487" lon="-122.007140">
        <ele>478.1</ele>
        <time>2014-08-14T16:58:51Z</time>
        <sat>10</sat>
      </trkpt>
      <trkpt lat="47.014539" lon="-122.007265">
        <ele>478.1</ele>
        <time>2014-08-14T16:58:55Z</time>
        <sat>9</sat>
      </trkpt>
      <trkpt lat="47.014593" lon="-122.007375">
        <ele>478.1</ele>
        <time>2014-08-14T16:58:59Z</time>
        <sat>8</sat>
      </trkpt>
      <trkpt lat="47.014662" lon="-122.007475">
        <ele>477.6</ele>
        <time>2014-08-14T16:59:04Z</time>
        <sat>10</sat>
      </trkpt>
      <trkpt lat="47.014747" lon="-122.007573">
        <ele>477.7</ele>
        <time>2014-08-14T16:59:09Z</time>
        <sat>9</sat>
      </trkpt>
      <trkpt lat="47.014802" lon="-122.007678">
        <ele>477.8</ele>
        <time>2014-08-14T16:59:14Z</time>
        <sat>10</sat>
      </trkpt>
      <trkpt lat="47.014884" lon="-122.007758">
        <ele>477.7</ele>
        <time>2014-08-14T16:59:20Z</time>
        <sat>10</sat>
      </trkpt>
      <trkpt lat="47.014963" lon="-122.007823">
        <ele>477.5</ele>
        <time>2014-08-14T16:59:24Z</time>
        <sat>10</sat>
      </trkpt>
      <trkpt lat="47.015052" lon="-122.007892">
        <ele>477.4</ele>
        <time>2014-08-14T16:59:29Z</time>
        <sat>10</sat>
      </trkpt>
      <trkpt lat="47.015129" lon="-122.007985">
        <ele>477.4</ele>
        <time>2014-08-14T16:59:33Z</time>
        <sat>9</sat>
      </trkpt>
      <trkpt lat="47.015207" lon="-122.008061">
        <ele>477.3</ele>
        <time>2014-08-14T16:59:37Z</time>
        <sat>9</sat>
      </trkpt>
      <trkpt lat="47.015255" lon="-122.008208">
        <ele>477.4</ele>
        <time>2014-08-14T16:59:43Z</time>
        <sat>10</sat>
      </trkpt>
      <trkpt lat="47.015293" lon="-122.008338">
        <ele>477.3</ele>
        <time>2014-08-14T16:59:48Z</time>
        <sat>10</sat>
      </trkpt>
      <trkpt lat="47.015339" lon="-122.008458">
        <ele>477.4</ele>
        <time>2014-08-14T16:59:55Z</time>
        <sat>10</sat>
      </trkpt>
      <trkpt lat="47.015347" lon="-122.008608">
        <ele>477.6</ele>
        <time>2014-08-14T17:00:02Z</time>
        <sat>10</sat>
      </trkpt>
      <trkpt lat="47.015378" lon="-122.008756">
        <ele>477.4</ele>
        <time>2014-08-14T17:00:08Z</time>
        <sat>10</sat>
      </trkpt>
      <trkpt lat="47.015429" lon="-122.008902">
        <ele>477.3</ele>
        <time>2014-08-14T17:00:13Z</time>
        <sat>10</sat>
      </trkpt>
      <trkpt lat="47.015502" lon="-122.009017">
        <ele>477.2</ele>
        <time>2014-08-14T17:00:18Z</time>
        <sat>10</sat>
      </trkpt>
      <trkpt lat="47.015552" lon="-122.009127">
        <ele>477.3</ele>
        <time>2014-08-14T17:00:22Z</time>
        <sat>8</sat>
      </trkpt>
      <trkpt lat="47.015617" lon="-122.009232">
        <ele>477.1</ele>
        <time>2014-08-14T17:00:26Z</time>
        <sat>9</sat>
      </trkpt>
      <trkpt lat="47.015650" lon="-122.009390">
        <ele>477.2</ele>
        <time>2014-08-14T17:00:30Z</time>
        <sat>9</sat>
      </trkpt>
      <trkpt lat="47.015702" lon="-122.009508">
        <ele>476.9</ele>
        <time>2014-08-14T17:00:33Z</time>
        <sat>10</sat>
      </trkpt>
      <trkpt lat="47.015745" lon="-122.009630">
        <ele>476.6</ele>
        <time>2014-08-14T17:00:37Z</time>
        <sat>9</sat>
      </trkpt>
      <trkpt lat="47.015794" lon="-122.009782">
        <ele>476.2</ele>
        <time>2014-08-14T17:00:42Z</time>
        <sat>10</sat>
      </trkpt>
      <trkpt lat="47.015853" lon="-122.009907">
        <ele>476.2</ele>
        <time>2014-08-14T17:00:47Z</time>
        <sat>10</sat>
      </trkpt>
      <trkpt lat="47.015897" lon="-122.010028">
        <ele>476.0</ele>
        <time>2014-08-14T17:00:51Z</time>
        <sat>10</sat>
      </trkpt>
      <trkpt lat="47.015958" lon="-122.010147">
        <ele>475.9</ele>
        <time>2014-08-14T17:00:56Z</time>
        <sat>10</sat>
      </trkpt>
      <trkpt lat="47.016025" lon="-122.010265">
        <ele>475.5</ele>
        <time>2014-08-14T17:01:00Z</time>
        <sat>9</sat>
      </trkpt>
      <trkpt lat="47.016093" lon="-122.010372">
        <ele>475.7</ele>
        <time>2014-08-14T17:01:03Z</time>
        <sat>10</sat>
      </trkpt>
      <trkpt lat="47.016155" lon="-122.010496">
        <ele>475.8</ele>
        <time>2014-08-14T17:01:06Z</time>
        <sat>10</sat>
      </trkpt>
      <trkpt lat="47.016210" lon="-122.010603">
        <ele>475.8</ele>
        <time>2014-08-14T17:01:09Z</time>
        <sat>10</sat>
      </trkpt>
      <trkpt lat="47.016280" lon="-122.010740">
        <ele>475.6</ele>
        <time>2014-08-14T17:01:13Z</time>
        <sat>9</sat>
      </trkpt>
      <trkpt lat="47.016337" lon="-122.010846">
        <ele>475.5</ele>
        <time>2014-08-14T17:01:16Z</time>
        <sat>9</sat>
      </trkpt>
      <trkpt lat="47.016405" lon="-122.010988">
        <ele>475.4</ele>
        <time>2014-08-14T17:01:20Z</time>
        <sat>8</sat>
      </trkpt>
      <trkpt lat="47.016477" lon="-122.011122">
        <ele>475.5</ele>
        <time>2014-08-14T17:01:24Z</time>
        <sat>9</sat>
      </trkpt>
      <trkpt lat="47.016533" lon="-122.011273">
        <ele>475.4</ele>
        <time>2014-08-14T17:01:28Z</time>
        <sat>10</sat>
      </trkpt>
      <trkpt lat="47.016580" lon="-122.011428">
        <ele>475.9</ele>
        <time>2014-08-14T17:01:32Z</time>
        <sat>10</sat>
      </trkpt>
      <trkpt lat="47.016623" lon="-122.011555">
        <ele>475.7</ele>
        <time>2014-08-14T17:01:35Z</time>
        <sat>10</sat>
      </trkpt>
      <trkpt lat="47.016684" lon="-122.011700">
        <ele>475.5</ele>
        <time>2014-08-14T17:01:39Z</time>
        <sat>10</sat>
      </trkpt>
      <trkpt lat="47.016718" lon="-122.011825">
        <ele>475.3</ele>
        <time>2014-08-14T17:01:42Z</time>
        <sat>10</sat>
      </trkpt>
      <trkpt lat="47.016753" lon="-122.011963">
        <ele>475.2</ele>
        <time>2014-08-14T17:01:45Z</time>
        <sat>10</sat>
      </trkpt>
      <trkpt lat="47.016795" lon="-122.012105">
        <ele>475.0</ele>
        <time>2014-08-14T17:01:49Z</time>
        <sat>10</sat>
      </trkpt>
      <trkpt lat="47.016838" lon="-122.012250">
        <ele>475.5</ele>
        <time>2014-08-14T17:01:53Z</time>
        <sat>10</sat>
      </trkpt>
      <trkpt lat="47.016878" lon="-122.012390">
        <ele>475.5</ele>
        <time>2014-08-14T17:01:57Z</time>
        <sat>10</sat>
      </trkpt>
      <trkpt lat="47.016909" lon="-122.012515">
        <ele>475.5</ele>
        <time>2014-08-14T17:02:00Z</time>
        <sat>10</sat>
      </trkpt>
      <trkpt lat="47.016942" lon="-122.012645">
        <ele>475.5</ele>
        <time>2014-08-14T17:02:03Z</time>
        <sat>10</sat>
      </trkpt>
      <trkpt lat="47.016989" lon="-122.012773">
        <ele>475.4</ele>
        <time>2014-08-14T17:02:06Z</time>
        <sat>10</sat>
      </trkpt>
      <trkpt lat="47.017040" lon="-122.012908">
        <ele>475.7</ele>
        <time>2014-08-14T17:02:10Z</time>
        <sat>10</sat>
      </trkpt>
      <trkpt lat="47.017088" lon="-122.013063">
        <ele>475.7</ele>
        <time>2014-08-14T17:02:14Z</time>
        <sat>10</sat>
      </trkpt>
      <trkpt lat="47.017137" lon="-122.013210">
        <ele>475.8</ele>
        <time>2014-08-14T17:02:18Z</time>
        <sat>10</sat>
      </trkpt>
      <trkpt lat="47.017180" lon="-122.013328">
        <ele>475.6</ele>
        <time>2014-08-14T17:02:22Z</time>
        <sat>10</sat>
      </trkpt>
      <trkpt lat="47.017240" lon="-122.013458">
        <ele>475.7</ele>
        <time>2014-08-14T17:02:27Z</time>
        <sat>10</sat>
      </trkpt>
      <trkpt lat="47.017297" lon="-122.013588">
        <ele>475.8</ele>
        <time>2014-08-14T17:02:32Z</time>
        <sat>10</sat>
      </trkpt>
      <trkpt lat="47.017365" lon="-122.013713">
        <ele>475.7</ele>
        <time>2014-08-14T17:02:36Z</time>
        <sat>10</sat>
      </trkpt>
      <trkpt lat="47.017437" lon="-122.013840">
        <ele>475.5</ele>
        <time>2014-08-14T17:02:40Z</time>
        <sat>9</sat>
      </trkpt>
      <trkpt lat="47.017502" lon="-122.013945">
        <ele>475.4</ele>
        <time>2014-08-14T17:02:44Z</time>
        <sat>10</sat>
      </trkpt>
      <trkpt lat="47.017579" lon="-122.014022">
        <ele>475.6</ele>
        <time>2014-08-14T17:02:47Z</time>
        <sat>9</sat>
      </trkpt>
      <trkpt lat="47.017650" lon="-122.014145">
        <ele>475.8</ele>
        <time>2014-08-14T17:02:51Z</time>
        <sat>10</sat>
      </trkpt>
      <trkpt lat="47.017715" lon="-122.014282">
        <ele>475.7</ele>
        <time>2014-08-14T17:02:55Z</time>
        <sat>10</sat>
      </trkpt>
      <trkpt lat="47.017780" lon="-122.014403">
        <ele>475.9</ele>
        <time>2014-08-14T17:02:58Z</time>
        <sat>9</sat>
      </trkpt>
      <trkpt lat="47.017848" lon="-122.014541">
        <ele>476.1</ele>
        <time>2014-08-14T17:03:02Z</time>
        <sat>9</sat>
      </trkpt>
      <trkpt lat="47.017909" lon="-122.014675">
        <ele>476.3</ele>
        <time>2014-08-14T17:03:06Z</time>
        <sat>9</sat>
      </trkpt>
      <trkpt lat="47.017957" lon="-122.014805">
        <ele>476.1</ele>
        <time>2014-08-14T17:03:10Z</time>
        <sat>10</sat>
      </trkpt>
      <trkpt lat="47.018024" lon="-122.014918">
        <ele>476.2</ele>
        <time>2014-08-14T17:03:14Z</time>
        <sat>10</sat>
      </trkpt>
      <trkpt lat="47.018040" lon="-122.015078">
        <ele>476.5</ele>
        <time>2014-08-14T17:03:18Z</time>
        <sat>9</sat>
      </trkpt>
      <trkpt lat="47.018059" lon="-122.015218">
        <ele>476.2</ele>
        <time>2014-08-14T17:03:22Z</time>
        <sat>8</sat>
      </trkpt>
      <trkpt lat="47.018035" lon="-122.015355">
        <ele>476.4</ele>
        <time>2014-08-14T17:03:26Z</time>
        <sat>9</sat>
      </trkpt>
      <trkpt lat="47.018040" lon="-122.015490">
        <ele>476.8</ele>
        <time>2014-08-14T17:03:30Z</time>
        <sat>9</sat>
      </trkpt>
      <trkpt lat="47.018027" lon="-122.015643">
        <ele>477.0</ele>
        <time>2014-08-14T17:03:34Z</time>
        <sat>10</sat>
      </trkpt>
      <trkpt lat="47.018068" lon="-122.015805">
        <ele>477.1</ele>
        <time>2014-08-14T17:03:38Z</time>
        <sat>10</sat>
      </trkpt>
      <trkpt lat="47.018103" lon="-122.015968">
        <ele>477.4</ele>
        <time>2014-08-14T17:03:42Z</time>
        <sat>9</sat>
      </trkpt>
      <trkpt lat="47.018142" lon="-122.016123">
        <ele>477.5</ele>
        <time>2014-08-14T17:03:46Z</time>
        <sat>10</sat>
      </trkpt>
      <trkpt lat="47.018188" lon="-122.016255">
        <ele>477.4</ele>
        <time>2014-08-14T17:03:50Z</time>
        <sat>8</sat>
      </trkpt>
      <trkpt lat="47.018217" lon="-122.016385">
        <ele>477.6</ele>
        <time>2014-08-14T17:03:55Z</time>
        <sat>9</sat>
      </trkpt>
      <trkpt lat="47.018307" lon="-122.016475">
        <ele>477.5</ele>
        <time>2014-08-14T17:04:00Z</time>
        <sat>10</sat>
      </trkpt>
      <trkpt lat="47.018407" lon="-122.016540">
        <ele>477.4</ele>
        <time>2014-08-14T17:04:06Z</time>
        <sat>8</sat>
      </trkpt>
      <trkpt lat="47.018505" lon="-122.016580">
        <ele>477.2</ele>
        <time>2014-08-14T17:04:10Z</time>
        <sat>9</sat>
      </trkpt>
      <trkpt lat="47.018600" lon="-122.016615">
        <ele>477.2</ele>
        <time>2014-08-14T17:04:14Z</time>
        <sat>9</sat>
      </trkpt>
      <trkpt lat="47.018680" lon="-122.016685">
        <ele>477.5</ele>
        <time>2014-08-14T17:04:18Z</time>
        <sat>7</sat>
      </trkpt>
      <trkpt lat="47.018778" lon="-122.016735">
        <ele>477.0</ele>
        <time>2014-08-14T17:04:23Z</time>
        <sat>9</sat>
      </trkpt>
      <trkpt lat="47.018860" lon="-122.016795">
        <ele>476.8</ele>
        <time>2014-08-14T17:04:27Z</time>
        <sat>8</sat>
      </trkpt>
      <trkpt lat="47.018943" lon="-122.016880">
        <ele>476.7</ele>
        <time>2014-08-14T17:04:33Z</time>
        <sat>8</sat>
      </trkpt>
      <trkpt lat="47.019045" lon="-122.016970">
        <ele>477.0</ele>
        <time>2014-08-14T17:04:36Z</time>
        <sat>8</sat>
      </trkpt>
      <trkpt lat="47.019139" lon="-122.017015">
        <ele>477.1</ele>
        <time>2014-08-14T17:04:39Z</time>
        <sat>8</sat>
      </trkpt>
      <trkpt lat="47.019244" lon="-122.017083">
        <ele>477.1</ele>
        <time>2014-08-14T17:04:41Z</time>
        <sat>8</sat>
      </trkpt>
      <trkpt lat="47.019349" lon="-122.017095">
        <ele>477.1</ele>
        <time>2014-08-14T17:04:45Z</time>
        <sat>9</sat>
      </trkpt>
      <trkpt lat="47.019425" lon="-122.017196">
        <ele>477.0</ele>
        <time>2014-08-14T17:04:50Z</time>
        <sat>7</sat>
      </trkpt>
      <trkpt lat="47.019533" lon="-122.017246">
        <ele>477.0</ele>
        <time>2014-08-14T17:04:55Z</time>
        <sat>8</sat>
      </trkpt>
      <trkpt lat="47.019623" lon="-122.017270">
        <ele>477.0</ele>
        <time>2014-08-14T17:04:59Z</time>
        <sat>7</sat>
      </trkpt>
      <trkpt lat="47.019725" lon="-122.017340">
        <ele>476.9</ele>
        <time>2014-08-14T17:05:04Z</time>
        <sat>8</sat>
      </trkpt>
      <trkpt lat="47.019807" lon="-122.017433">
        <ele>476.6</ele>
        <time>2014-08-14T17:05:08Z</time>
        <sat>8</sat>
      </trkpt>
      <trkpt lat="47.019865" lon="-122.017585">
        <ele>476.7</ele>
        <time>2014-08-14T17:05:12Z</time>
        <sat>9</sat>
      </trkpt>
      <trkpt lat="47.019914" lon="-122.017730">
        <ele>476.8</ele>
        <time>2014-08-14T17:05:16Z</time>
        <sat>9</sat>
      </trkpt>
      <trkpt lat="47.019947" lon="-122.017860">
        <ele>476.9</ele>
        <time>2014-08-14T17:05:21Z</time>
        <sat>9</sat>
      </trkpt>
      <trkpt lat="47.019982" lon="-122.017993">
        <ele>477.2</ele>
        <time>2014-08-14T17:05:25Z</time>
        <sat>9</sat>
      </trkpt>
      <trkpt lat="47.020020" lon="-122.018118">
        <ele>477.7</ele>
        <time>2014-08-14T17:05:29Z</time>
        <sat>9</sat>
      </trkpt>
      <trkpt lat="47.020055" lon="-122.018248">
        <ele>477.4</ele>
        <time>2014-08-14T17:05:33Z</time>
        <sat>10</sat>
      </trkpt>
      <trkpt lat="47.020105" lon="-122.018365">
        <ele>477.4</ele>
        <time>2014-08-14T17:05:38Z</time>
        <sat>8</sat>
      </trkpt>
      <trkpt lat="47.020190" lon="-122.018466">
        <ele>477.2</ele>
        <time>2014-08-14T17:05:42Z</time>
        <sat>9</sat>
      </trkpt>
      <trkpt lat="47.020265" lon="-122.018550">
        <ele>477.0</ele>
        <time>2014-08-14T17:05:48Z</time>
        <sat>10</sat>
      </trkpt>
      <trkpt lat="47.020357" lon="-122.018563">
        <ele>477.0</ele>
        <time>2014-08-14T17:05:52Z</time>
        <sat>10</sat>
      </trkpt>
      <trkpt lat="47.020458" lon="-122.018603">
        <ele>476.8</ele>
        <time>2014-08-14T17:05:56Z</time>
        <sat>10</sat>
      </trkpt>
      <trkpt lat="47.020560" lon="-122.018653">
        <ele>476.3</ele>
        <time>2014-08-14T17:06:01Z</time>
        <sat>10</sat>
      </trkpt>
      <trkpt lat="47.020670" lon="-122.018712">
        <ele>475.9</ele>
        <time>2014-08-14T17:06:05Z</time>
        <sat>9</sat>
      </trkpt>
      <trkpt lat="47.020763" lon="-122.018763">
        <ele>475.9</ele>
        <time>2014-08-14T17:06:09Z</time>
        <sat>10</sat>
      </trkpt>
      <trkpt lat="47.020855" lon="-122.018830">
        <ele>475.9</ele>
        <time>2014-08-14T17:06:12Z</time>
        <sat>8</sat>
      </trkpt>
      <trkpt lat="47.020944" lon="-122.018886">
        <ele>475.9</ele>
        <time>2014-08-14T17:06:16Z</time>
        <sat>10</sat>
      </trkpt>
      <trkpt lat="47.021030" lon="-122.018942">
        <ele>476.0</ele>
        <time>2014-08-14T17:06:22Z</time>
        <sat>9</sat>
      </trkpt>
      <trkpt lat="47.021144" lon="-122.019018">
        <ele>476.2</ele>
        <time>2014-08-14T17:06:32Z</time>
        <sat>10</sat>
      </trkpt>
      <trkpt lat="47.021244" lon="-122.019088">
        <ele>476.0</ele>
        <time>2014-08-14T17:06:35Z</time>
        <sat>10</sat>
      </trkpt>
      <trkpt lat="47.021343" lon="-122.019163">
        <ele>475.8</ele>
        <time>2014-08-14T17:06:39Z</time>
        <sat>10</sat>
      </trkpt>
      <trkpt lat="47.021442" lon="-122.019297">
        <ele>476.1</ele>
        <time>2014-08-14T17:06:42Z</time>
        <sat>10</sat>
      </trkpt>
      <trkpt lat="47.021532" lon="-122.019398">
        <ele>476.1</ele>
        <time>2014-08-14T17:06:44Z</time>
        <sat>10</sat>
      </trkpt>
      <trkpt lat="47.021610" lon="-122.019518">
        <ele>476.1</ele>
        <time>2014-08-14T17:06:47Z</time>
        <sat>10</sat>
      </trkpt>
      <trkpt lat="47.021668" lon="-122.019638">
        <ele>476.0</ele>
        <time>2014-08-14T17:06:50Z</time>
        <sat>10</sat>
      </trkpt>
      <trkpt lat="47.021710" lon="-122.019775">
        <ele>476.0</ele>
        <time>2014-08-14T17:06:53Z</time>
        <sat>10</sat>
      </trkpt>
      <trkpt lat="47.021755" lon="-122.019928">
        <ele>476.1</ele>
        <time>2014-08-14T17:06:57Z</time>
        <sat>10</sat>
      </trkpt>
      <trkpt lat="47.021797" lon="-122.020065">
        <ele>476.4</ele>
        <time>2014-08-14T17:07:01Z</time>
        <sat>10</sat>
      </trkpt>
      <trkpt lat="47.021855" lon="-122.020185">
        <ele>476.7</ele>
        <time>2014-08-14T17:07:06Z</time>
        <sat>10</sat>
      </trkpt>
      <trkpt lat="47.021929" lon="-122.020305">
        <ele>476.6</ele>
        <time>2014-08-14T17:07:11Z</time>
        <sat>10</sat>
      </trkpt>
      <trkpt lat="47.022019" lon="-122.020387">
        <ele>476.7</ele>
        <time>2014-08-14T17:07:15Z</time>
        <sat>9</sat>
      </trkpt>
      <trkpt lat="47.022087" lon="-122.020475">
        <ele>476.7</ele>
        <time>2014-08-14T17:07:18Z</time>
        <sat>10</sat>
      </trkpt>
      <trkpt lat="47.022169" lon="-122.020576">
        <ele>476.6</ele>
        <time>2014-08-14T17:07:23Z</time>
        <sat>8</sat>
      </trkpt>
      <trkpt lat="47.022252" lon="-122.020700">
        <ele>476.7</ele>
        <time>2014-08-14T17:07:27Z</time>
        <sat>10</sat>
      </trkpt>
      <trkpt lat="47.022310" lon="-122.020837">
        <ele>476.9</ele>
        <time>2014-08-14T17:07:31Z</time>
        <sat>10</sat>
      </trkpt>
      <trkpt lat="47.022364" lon="-122.020947">
        <ele>476.7</ele>
        <time>2014-08-14T17:07:35Z</time>
        <sat>10</sat>
      </trkpt>
      <trkpt lat="47.022438" lon="-122.021028">
        <ele>476.6</ele>
        <time>2014-08-14T17:07:39Z</time>
        <sat>9</sat>
      </trkpt>
      <trkpt lat="47.022502" lon="-122.021141">
        <ele>476.6</ele>
        <time>2014-08-14T17:07:43Z</time>
        <sat>10</sat>
      </trkpt>
      <trkpt lat="47.022558" lon="-122.021245">
        <ele>476.6</ele>
        <time>2014-08-14T17:07:46Z</time>
        <sat>10</sat>
      </trkpt>
      <trkpt lat="47.022634" lon="-122.021353">
        <ele>476.3</ele>
        <time>2014-08-14T17:07:50Z</time>
        <sat>10</sat>
      </trkpt>
      <trkpt lat="47.022697" lon="-122.021475">
        <ele>475.6</ele>
        <time>2014-08-14T17:07:55Z</time>
        <sat>8</sat>
      </trkpt>
      <trkpt lat="47.022750" lon="-122.021617">
        <ele>475.6</ele>
        <time>2014-08-14T17:08:00Z</time>
        <sat>9</sat>
      </trkpt>
      <trkpt lat="47.022790" lon="-122.021735">
        <ele>475.8</ele>
        <time>2014-08-14T17:08:04Z</time>
        <sat>9</sat>
      </trkpt>
      <trkpt lat="47.022860" lon="-122.021840">
        <ele>476.0</ele>
        <time>2014-08-14T17:08:09Z</time>
        <sat>9</sat>
      </trkpt>
      <trkpt lat="47.022903" lon="-122.021963">
        <ele>475.9</ele>
        <time>2014-08-14T17:08:14Z</time>
        <sat>8</sat>
      </trkpt>
      <trkpt lat="47.022965" lon="-122.022070">
        <ele>475.7</ele>
        <time>2014-08-14T17:08:18Z</time>
        <sat>9</sat>
      </trkpt>
      <trkpt lat="47.023055" lon="-122.022135">
        <ele>476.0</ele>
        <time>2014-08-14T17:08:22Z</time>
        <sat>8</sat>
      </trkpt>
      <trkpt lat="47.023165" lon="-122.022188">
        <ele>475.8</ele>
        <time>2014-08-14T17:08:26Z</time>
        <sat>8</sat>
      </trkpt>
      <trkpt lat="47.023275" lon="-122.022210">
        <ele>476.0</ele>
        <time>2014-08-14T17:08:30Z</time>
        <sat>8</sat>
      </trkpt>
      <trkpt lat="47.023379" lon="-122.022211">
        <ele>476.1</ele>
        <time>2014-08-14T17:08:34Z</time>
        <sat>8</sat>
      </trkpt>
      <trkpt lat="47.023485" lon="-122.022223">
        <ele>475.9</ele>
        <time>2014-08-14T17:08:38Z</time>
        <sat>8</sat>
      </trkpt>
      <trkpt lat="47.023578" lon="-122.022278">
        <ele>475.7</ele>
        <time>2014-08-14T17:08:42Z</time>
        <sat>9</sat>
      </trkpt>
      <trkpt lat="47.023652" lon="-122.022402">
        <ele>476.0</ele>
        <time>2014-08-14T17:08:46Z</time>
        <sat>8</sat>
      </trkpt>
      <trkpt lat="47.023724" lon="-122.022513">
        <ele>475.8</ele>
        <time>2014-08-14T17:08:49Z</time>
        <sat>8</sat>
      </trkpt>
      <trkpt lat="47.023793" lon="-122.022612">
        <ele>475.9</ele>
        <time>2014-08-14T17:08:53Z</time>
        <sat>8</sat>
      </trkpt>
      <trkpt lat="47.023898" lon="-122.022625">
        <ele>475.9</ele>
        <time>2014-08-14T17:08:57Z</time>
        <sat>9</sat>
      </trkpt>
      <trkpt lat="47.023992" lon="-122.022610">
        <ele>476.2</ele>
        <time>2014-08-14T17:09:01Z</time>
        <sat>9</sat>
      </trkpt>
      <trkpt lat="47.024080" lon="-122.022581">
        <ele>476.0</ele>
        <time>2014-08-14T17:09:05Z</time>
        <sat>10</sat>
      </trkpt>
      <trkpt lat="47.024165" lon="-122.022675">
        <ele>476.0</ele>
        <time>2014-08-14T17:09:09Z</time>
        <sat>9</sat>
      </trkpt>
      <trkpt lat="47.024222" lon="-122.022818">
        <ele>475.8</ele>
        <time>2014-08-14T17:09:13Z</time>
        <sat>9</sat>
      </trkpt>
      <trkpt lat="47.024264" lon="-122.022977">
        <ele>475.8</ele>
        <time>2014-08-14T17:09:17Z</time>
        <sat>9</sat>
      </trkpt>
      <trkpt lat="47.024304" lon="-122.023113">
        <ele>475.8</ele>
        <time>2014-08-14T17:09:20Z</time>
        <sat>9</sat>
      </trkpt>
      <trkpt lat="47.024350" lon="-122.023256">
        <ele>475.8</ele>
        <time>2014-08-14T17:09:24Z</time>
        <sat>9</sat>
      </trkpt>
      <trkpt lat="47.024404" lon="-122.023396">
        <ele>475.7</ele>
        <time>2014-08-14T17:09:28Z</time>
        <sat>9</sat>
      </trkpt>
      <trkpt lat="47.024455" lon="-122.023507">
        <ele>475.3</ele>
        <time>2014-08-14T17:09:34Z</time>
        <sat>9</sat>
      </trkpt>
      <trkpt lat="47.024532" lon="-122.023591">
        <ele>475.5</ele>
        <time>2014-08-14T17:09:39Z</time>
        <sat>10</sat>
      </trkpt>
      <trkpt lat="47.024614" lon="-122.023655">
        <ele>474.8</ele>
        <time>2014-08-14T17:09:44Z</time>
        <sat>10</sat>
      </trkpt>
      <trkpt lat="47.024727" lon="-122.023716">
        <ele>474.7</ele>
        <time>2014-08-14T17:09:49Z</time>
        <sat>10</sat>
      </trkpt>
      <trkpt lat="47.024817" lon="-122.023813">
        <ele>474.7</ele>
        <time>2014-08-14T17:09:53Z</time>
        <sat>10</sat>
      </trkpt>
      <trkpt lat="47.024898" lon="-122.023925">
        <ele>474.9</ele>
        <time>2014-08-14T17:09:57Z</time>
        <sat>10</sat>
      </trkpt>
      <trkpt lat="47.024983" lon="-122.024028">
        <ele>474.8</ele>
        <time>2014-08-14T17:10:01Z</time>
        <sat>10</sat>
      </trkpt>
      <trkpt lat="47.025067" lon="-122.024118">
        <ele>474.8</ele>
        <time>2014-08-14T17:10:05Z</time>
        <sat>10</sat>
      </trkpt>
      <trkpt lat="47.025133" lon="-122.024218">
        <ele>474.8</ele>
        <time>2014-08-14T17:10:09Z</time>
        <sat>10</sat>
      </trkpt>
      <trkpt lat="47.025220" lon="-122.024297">
        <ele>474.9</ele>
        <time>2014-08-14T17:10:14Z</time>
        <sat>10</sat>
      </trkpt>
      <trkpt lat="47.025292" lon="-122.024388">
        <ele>475.0</ele>
        <time>2014-08-14T17:10:19Z</time>
        <sat>10</sat>
      </trkpt>
      <trkpt lat="47.025363" lon="-122.024486">
        <ele>475.0</ele>
        <time>2014-08-14T17:10:22Z</time>
        <sat>10</sat>
      </trkpt>
      <trkpt lat="47.025433" lon="-122.024571">
        <ele>474.9</ele>
        <time>2014-08-14T17:10:25Z</time>
        <sat>10</sat>
      </trkpt>
      <trkpt lat="47.025515" lon="-122.024683">
        <ele>474.9</ele>
        <time>2014-08-14T17:10:29Z</time>
        <sat>10</sat>
      </trkpt>
      <trkpt lat="47.025567" lon="-122.024818">
        <ele>474.9</ele>
        <time>2014-08-14T17:10:34Z</time>
        <sat>9</sat>
      </trkpt>
      <trkpt lat="47.025593" lon="-122.024962">
        <ele>474.8</ele>
        <time>2014-08-14T17:10:39Z</time>
        <sat>10</sat>
      </trkpt>
      <trkpt lat="47.025697" lon="-122.024982">
        <ele>474.9</ele>
        <time>2014-08-14T17:10:46Z</time>
        <sat>10</sat>
      </trkpt>
      <trkpt lat="47.025800" lon="-122.025058">
        <ele>474.5</ele>
        <time>2014-08-14T17:10:51Z</time>
        <sat>10</sat>
      </trkpt>
      <trkpt lat="47.025892" lon="-122.025122">
        <ele>474.4</ele>
        <time>2014-08-14T17:10:56Z</time>
        <sat>10</sat>
      </trkpt>
      <trkpt lat="47.025969" lon="-122.025195">
        <ele>474.5</ele>
        <time>2014-08-14T17:11:01Z</time>
        <sat>10</sat>
      </trkpt>
      <trkpt lat="47.026053" lon="-122.025260">
        <ele>475.0</ele>
        <time>2014-08-14T17:11:06Z</time>
        <sat>10</sat>
      </trkpt>
      <trkpt lat="47.026140" lon="-122.025325">
        <ele>474.9</ele>
        <time>2014-08-14T17:11:11Z</time>
        <sat>10</sat>
      </trkpt>
      <trkpt lat="47.026218" lon="-122.025402">
        <ele>474.9</ele>
        <time>2014-08-14T17:11:16Z</time>
        <sat>10</sat>
      </trkpt>
      <trkpt lat="47.026292" lon="-122.025486">
        <ele>475.3</ele>
        <time>2014-08-14T17:11:21Z</time>
        <sat>10</sat>
      </trkpt>
      <trkpt lat="47.026389" lon="-122.025563">
        <ele>475.4</ele>
        <time>2014-08-14T17:11:25Z</time>
        <sat>10</sat>
      </trkpt>
      <trkpt lat="47.026470" lon="-122.025642">
        <ele>475.9</ele>
        <time>2014-08-14T17:11:30Z</time>
        <sat>10</sat>
      </trkpt>
      <trkpt lat="47.026560" lon="-122.025725">
        <ele>475.9</ele>
        <time>2014-08-14T17:11:35Z</time>
        <sat>10</sat>
      </trkpt>
      <trkpt lat="47.026650" lon="-122.025798">
        <ele>475.8</ele>
        <time>2014-08-14T17:11:40Z</time>
        <sat>10</sat>
      </trkpt>
      <trkpt lat="47.026735" lon="-122.025870">
        <ele>476.3</ele>
        <time>2014-08-14T17:11:45Z</time>
        <sat>10</sat>
      </trkpt>
      <trkpt lat="47.026820" lon="-122.025953">
        <ele>476.5</ele>
        <time>2014-08-14T17:11:49Z</time>
        <sat>10</sat>
      </trkpt>
      <trkpt lat="47.026905" lon="-122.026010">
        <ele>476.5</ele>
        <time>2014-08-14T17:11:53Z</time>
        <sat>10</sat>
      </trkpt>
      <trkpt lat="47.026998" lon="-122.026075">
        <ele>476.7</ele>
        <time>2014-08-14T17:11:57Z</time>
        <sat>10</sat>
      </trkpt>
      <trkpt lat="47.027092" lon="-122.026132">
        <ele>476.6</ele>
        <time>2014-08-14T17:12:02Z</time>
        <sat>10</sat>
      </trkpt>
      <trkpt lat="47.027194" lon="-122.026207">
        <ele>476.8</ele>
        <time>2014-08-14T17:12:07Z</time>
        <sat>10</sat>
      </trkpt>
      <trkpt lat="47.027273" lon="-122.026275">
        <ele>476.8</ele>
        <time>2014-08-14T17:12:11Z</time>
        <sat>10</sat>
      </trkpt>
      <trkpt lat="47.027375" lon="-122.026330">
        <ele>477.1</ele>
        <time>2014-08-14T17:12:16Z</time>
        <sat>10</sat>
      </trkpt>
      <trkpt lat="47.027458" lon="-122.026386">
        <ele>477.0</ele>
        <time>2014-08-14T17:12:20Z</time>
        <sat>10</sat>
      </trkpt>
      <trkpt lat="47.027557" lon="-122.026471">
        <ele>477.0</ele>
        <time>2014-08-14T17:12:24Z</time>
        <sat>10</sat>
      </trkpt>
      <trkpt lat="47.027642" lon="-122.026545">
        <ele>477.0</ele>
        <time>2014-08-14T17:12:27Z</time>
        <sat>10</sat>
      </trkpt>
      <trkpt lat="47.027744" lon="-122.026576">
        <ele>476.8</ele>
        <time>2014-08-14T17:12:31Z</time>
        <sat>10</sat>
      </trkpt>
      <trkpt lat="47.027850" lon="-122.026586">
        <ele>476.5</ele>
        <time>2014-08-14T17:12:35Z</time>
        <sat>10</sat>
      </trkpt>
      <trkpt lat="47.027950" lon="-122.026605">
        <ele>476.5</ele>
        <time>2014-08-14T17:12:39Z</time>
        <sat>9</sat>
      </trkpt>
      <trkpt lat="47.028060" lon="-122.026603">
        <ele>476.6</ele>
        <time>2014-08-14T17:12:43Z</time>
        <sat>10</sat>
      </trkpt>
      <trkpt lat="47.028169" lon="-122.026647">
        <ele>476.6</ele>
        <time>2014-08-14T17:12:47Z</time>
        <sat>10</sat>
      </trkpt>
      <trkpt lat="47.028278" lon="-122.026668">
        <ele>476.4</ele>
        <time>2014-08-14T17:12:51Z</time>
        <sat>10</sat>
      </trkpt>
      <trkpt lat="47.028390" lon="-122.026685">
        <ele>476.1</ele>
        <time>2014-08-14T17:12:55Z</time>
        <sat>10</sat>
      </trkpt>
      <trkpt lat="47.028502" lon="-122.026715">
        <ele>476.2</ele>
        <time>2014-08-14T17:12:59Z</time>
        <sat>10</sat>
      </trkpt>
      <trkpt lat="47.028612" lon="-122.026741">
        <ele>476.1</ele>
        <time>2014-08-14T17:13:03Z</time>
        <sat>10</sat>
      </trkpt>
      <trkpt lat="47.028702" lon="-122.026753">
        <ele>476.0</ele>
        <time>2014-08-14T17:13:06Z</time>
        <sat>10</sat>
      </trkpt>
      <trkpt lat="47.028792" lon="-122.026767">
        <ele>476.1</ele>
        <time>2014-08-14T17:13:09Z</time>
        <sat>10</sat>
      </trkpt>
      <trkpt lat="47.028880" lon="-122.026823">
        <ele>475.7</ele>
        <time>2014-08-14T17:13:16Z</time>
        <sat>10</sat>
      </trkpt>
      <trkpt lat="47.028962" lon="-122.026883">
        <ele>475.5</ele>
        <time>2014-08-14T17:13:21Z</time>
        <sat>10</sat>
      </trkpt>
      <trkpt lat="47.029053" lon="-122.026953">
        <ele>475.5</ele>
        <time>2014-08-14T17:13:26Z</time>
        <sat>10</sat>
      </trkpt>
      <trkpt lat="47.029137" lon="-122.027008">
        <ele>475.6</ele>
        <time>2014-08-14T17:13:30Z</time>
        <sat>10</sat>
      </trkpt>
      <trkpt lat="47.029248" lon="-122.027030">
        <ele>475.9</ele>
        <time>2014-08-14T17:13:35Z</time>
        <sat>10</sat>
      </trkpt>
      <trkpt lat="47.029358" lon="-122.027051">
        <ele>476.0</ele>
        <time>2014-08-14T17:13:40Z</time>
        <sat>10</sat>
      </trkpt>
      <trkpt lat="47.029468" lon="-122.027076">
        <ele>475.8</ele>
        <time>2014-08-14T17:13:45Z</time>
        <sat>10</sat>
      </trkpt>
      <trkpt lat="47.029570" lon="-122.027092">
        <ele>476.2</ele>
        <time>2014-08-14T17:13:49Z</time>
        <sat>9</sat>
      </trkpt>
      <trkpt lat="47.029665" lon="-122.027103">
        <ele>476.4</ele>
        <time>2014-08-14T17:13:53Z</time>
        <sat>10</sat>
      </trkpt>
      <trkpt lat="47.029757" lon="-122.027093">
        <ele>476.2</ele>
        <time>2014-08-14T17:13:57Z</time>
        <sat>10</sat>
      </trkpt>
      <trkpt lat="47.029859" lon="-122.027107">
        <ele>476.4</ele>
        <time>2014-08-14T17:14:01Z</time>
        <sat>10</sat>
      </trkpt>
      <trkpt lat="47.029960" lon="-122.027130">
        <ele>477.2</ele>
        <time>2014-08-14T17:14:06Z</time>
        <sat>10</sat>
      </trkpt>
      <trkpt lat="47.030052" lon="-122.027163">
        <ele>477.0</ele>
        <time>2014-08-14T17:14:11Z</time>
        <sat>10</sat>
      </trkpt>
      <trkpt lat="47.030152" lon="-122.027193">
        <ele>477.0</ele>
        <time>2014-08-14T17:14:17Z</time>
        <sat>10</sat>
      </trkpt>
      <trkpt lat="47.030253" lon="-122.027237">
        <ele>477.2</ele>
        <time>2014-08-14T17:14:21Z</time>
        <sat>9</sat>
      </trkpt>
      <trkpt lat="47.030360" lon="-122.027273">
        <ele>477.3</ele>
        <time>2014-08-14T17:14:25Z</time>
        <sat>9</sat>
      </trkpt>
      <trkpt lat="47.030470" lon="-122.027308">
        <ele>477.2</ele>
        <time>2014-08-14T17:14:29Z</time>
        <sat>8</sat>
      </trkpt>
      <trkpt lat="47.030578" lon="-122.027343">
        <ele>477.1</ele>
        <time>2014-08-14T17:14:33Z</time>
        <sat>9</sat>
      </trkpt>
      <trkpt lat="47.030675" lon="-122.027375">
        <ele>477.3</ele>
        <time>2014-08-14T17:14:37Z</time>
        <sat>9</sat>
      </trkpt>
      <trkpt lat="47.030770" lon="-122.027400">
        <ele>477.4</ele>
        <time>2014-08-14T17:14:42Z</time>
        <sat>8</sat>
      </trkpt>
      <trkpt lat="47.030858" lon="-122.027428">
        <ele>477.6</ele>
        <time>2014-08-14T17:14:46Z</time>
        <sat>8</sat>
      </trkpt>
      <trkpt lat="47.030955" lon="-122.027457">
        <ele>477.5</ele>
        <time>2014-08-14T17:14:50Z</time>
        <sat>10</sat>
      </trkpt>
      <trkpt lat="47.031052" lon="-122.027471">
        <ele>477.3</ele>
        <time>2014-08-14T17:14:54Z</time>
        <sat>10</sat>
      </trkpt>
      <trkpt lat="47.031158" lon="-122.027485">
        <ele>477.1</ele>
        <time>2014-08-14T17:14:58Z</time>
        <sat>9</sat>
      </trkpt>
      <trkpt lat="47.031255" lon="-122.027485">
        <ele>477.2</ele>
        <time>2014-08-14T17:15:02Z</time>
        <sat>10</sat>
      </trkpt>
      <trkpt lat="47.031350" lon="-122.027513">
        <ele>477.5</ele>
        <time>2014-08-14T17:15:07Z</time>
        <sat>10</sat>
      </trkpt>
      <trkpt lat="47.031454" lon="-122.027511">
        <ele>477.5</ele>
        <time>2014-08-14T17:15:12Z</time>
        <sat>9</sat>
      </trkpt>
      <trkpt lat="47.031552" lon="-122.027515">
        <ele>478.0</ele>
        <time>2014-08-14T17:15:17Z</time>
        <sat>8</sat>
      </trkpt>
      <trkpt lat="47.031645" lon="-122.027500">
        <ele>477.8</ele>
        <time>2014-08-14T17:15:22Z</time>
        <sat>8</sat>
      </trkpt>
      <trkpt lat="47.031744" lon="-122.027460">
        <ele>477.5</ele>
        <time>2014-08-14T17:15:27Z</time>
        <sat>8</sat>
      </trkpt>
      <trkpt lat="47.031862" lon="-122.027447">
        <ele>477.5</ele>
        <time>2014-08-14T17:15:32Z</time>
        <sat>8</sat>
      </trkpt>
      <trkpt lat="47.031952" lon="-122.027433">
        <ele>477.2</ele>
        <time>2014-08-14T17:15:36Z</time>
        <sat>8</sat>
      </trkpt>
      <trkpt lat="47.032037" lon="-122.027380">
        <ele>477.4</ele>
        <time>2014-08-14T17:15:41Z</time>
        <sat>8</sat>
      </trkpt>
      <trkpt lat="47.032134" lon="-122.027353">
        <ele>476.9</ele>
        <time>2014-08-14T17:15:46Z</time>
        <sat>8</sat>
      </trkpt>
      <trkpt lat="47.032244" lon="-122.027353">
        <ele>476.8</ele>
        <time>2014-08-14T17:15:51Z</time>
        <sat>8</sat>
      </trkpt>
      <trkpt lat="47.032332" lon="-122.027378">
        <ele>477.0</ele>
        <time>2014-08-14T17:15:55Z</time>
        <sat>8</sat>
      </trkpt>
      <trkpt lat="47.032422" lon="-122.027442">
        <ele>476.9</ele>
        <time>2014-08-14T17:16:00Z</time>
        <sat>8</sat>
      </trkpt>
      <trkpt lat="47.032522" lon="-122.027506">
        <ele>476.7</ele>
        <time>2014-08-14T17:16:05Z</time>
        <sat>8</sat>
      </trkpt>
      <trkpt lat="47.032615" lon="-122.027521">
        <ele>476.6</ele>
        <time>2014-08-14T17:16:09Z</time>
        <sat>8</sat>
      </trkpt>
      <trkpt lat="47.032705" lon="-122.027552">
        <ele>476.7</ele>
        <time>2014-08-14T17:16:13Z</time>
        <sat>8</sat>
      </trkpt>
      <trkpt lat="47.032800" lon="-122.027578">
        <ele>476.5</ele>
        <time>2014-08-14T17:16:17Z</time>
        <sat>8</sat>
      </trkpt>
      <trkpt lat="47.032890" lon="-122.027601">
        <ele>476.5</ele>
        <time>2014-08-14T17:16:21Z</time>
        <sat>8</sat>
      </trkpt>
      <trkpt lat="47.032994" lon="-122.027618">
        <ele>477.1</ele>
        <time>2014-08-14T17:16:26Z</time>
        <sat>8</sat>
      </trkpt>
      <trkpt lat="47.033100" lon="-122.027657">
        <ele>477.2</ele>
        <time>2014-08-14T17:16:31Z</time>
        <sat>8</sat>
      </trkpt>
      <trkpt lat="47.033192" lon="-122.027701">
        <ele>477.2</ele>
        <time>2014-08-14T17:16:35Z</time>
        <sat>9</sat>
      </trkpt>
      <trkpt lat="47.033285" lon="-122.027693">
        <ele>477.1</ele>
        <time>2014-08-14T17:16:39Z</time>
        <sat>9</sat>
      </trkpt>
      <trkpt lat="47.033375" lon="-122.027706">
        <ele>477.3</ele>
        <time>2014-08-14T17:16:43Z</time>
        <sat>9</sat>
      </trkpt>
      <trkpt lat="47.033474" lon="-122.027740">
        <ele>477.5</ele>
        <time>2014-08-14T17:16:47Z</time>
        <sat>8</sat>
      </trkpt>
      <trkpt lat="47.033577" lon="-122.027741">
        <ele>477.5</ele>
        <time>2014-08-14T17:16:51Z</time>
        <sat>9</sat>
      </trkpt>
      <trkpt lat="47.033672" lon="-122.027753">
        <ele>477.6</ele>
        <time>2014-08-14T17:16:55Z</time>
        <sat>9</sat>
      </trkpt>
      <trkpt lat="47.033767" lon="-122.027763">
        <ele>477.6</ele>
        <time>2014-08-14T17:16:59Z</time>
        <sat>8</sat>
      </trkpt>
      <trkpt lat="47.033862" lon="-122.027805">
        <ele>478.1</ele>
        <time>2014-08-14T17:17:03Z</time>
        <sat>9</sat>
      </trkpt>
      <trkpt lat="47.033962" lon="-122.027823">
        <ele>478.0</ele>
        <time>2014-08-14T17:17:07Z</time>
        <sat>9</sat>
      </trkpt>
      <trkpt lat="47.034058" lon="-122.027865">
        <ele>477.9</ele>
        <time>2014-08-14T17:17:11Z</time>
        <sat>9</sat>
      </trkpt>
      <trkpt lat="47.034162" lon="-122.027875">
        <ele>477.7</ele>
        <time>2014-08-14T17:17:15Z</time>
        <sat>9</sat>
      </trkpt>
      <trkpt lat="47.034260" lon="-122.027900">
        <ele>477.7</ele>
        <time>2014-08-14T17:17:19Z</time>
        <sat>9</sat>
      </trkpt>
      <trkpt lat="47.034355" lon="-122.027940">
        <ele>477.7</ele>
        <time>2014-08-14T17:17:23Z</time>
        <sat>9</sat>
      </trkpt>
      <trkpt lat="47.034449" lon="-122.027965">
        <ele>477.8</ele>
        <time>2014-08-14T17:17:27Z</time>
        <sat>9</sat>
      </trkpt>
      <trkpt lat="47.034540" lon="-122.027996">
        <ele>477.8</ele>
        <time>2014-08-14T17:17:32Z</time>
        <sat>9</sat>
      </trkpt>
      <trkpt lat="47.034645" lon="-122.028045">
        <ele>477.9</ele>
        <time>2014-08-14T17:17:37Z</time>
        <sat>9</sat>
      </trkpt>
      <trkpt lat="47.034737" lon="-122.028093">
        <ele>477.5</ele>
        <time>2014-08-14T17:17:41Z</time>
        <sat>9</sat>
      </trkpt>
      <trkpt lat="47.034830" lon="-122.028168">
        <ele>478.0</ele>
        <time>2014-08-14T17:17:45Z</time>
        <sat>9</sat>
      </trkpt>
      <trkpt lat="47.034922" lon="-122.028203">
        <ele>478.0</ele>
        <time>2014-08-14T17:17:49Z</time>
        <sat>9</sat>
      </trkpt>
      <trkpt lat="47.035009" lon="-122.028245">
        <ele>478.2</ele>
        <time>2014-08-14T17:17:53Z</time>
        <sat>9</sat>
      </trkpt>
      <trkpt lat="47.035112" lon="-122.028296">
        <ele>478.6</ele>
        <time>2014-08-14T17:17:58Z</time>
        <sat>9</sat>
      </trkpt>
      <trkpt lat="47.035200" lon="-122.028378">
        <ele>478.8</ele>
        <time>2014-08-14T17:18:03Z</time>
        <sat>8</sat>
      </trkpt>
      <trkpt lat="47.035300" lon="-122.028450">
        <ele>478.9</ele>
        <time>2014-08-14T17:18:06Z</time>
        <sat>8</sat>
      </trkpt>
      <trkpt lat="47.035402" lon="-122.028505">
        <ele>478.9</ele>
        <time>2014-08-14T17:18:10Z</time>
        <sat>8</sat>
      </trkpt>
      <trkpt lat="47.035502" lon="-122.028520">
        <ele>478.6</ele>
        <time>2014-08-14T17:18:14Z</time>
        <sat>8</sat>
      </trkpt>
      <trkpt lat="47.035604" lon="-122.028537">
        <ele>478.5</ele>
        <time>2014-08-14T17:18:18Z</time>
        <sat>8</sat>
      </trkpt>
      <trkpt lat="47.035712" lon="-122.028555">
        <ele>478.5</ele>
        <time>2014-08-14T17:18:22Z</time>
        <sat>8</sat>
      </trkpt>
      <trkpt lat="47.035819" lon="-122.028560">
        <ele>478.4</ele>
        <time>2014-08-14T17:18:26Z</time>
        <sat>9</sat>
      </trkpt>
      <trkpt lat="47.035924" lon="-122.028540">
        <ele>478.4</ele>
        <time>2014-08-14T17:18:30Z</time>
        <sat>9</sat>
      </trkpt>
      <trkpt lat="47.036027" lon="-122.028508">
        <ele>478.3</ele>
        <time>2014-08-14T17:18:34Z</time>
        <sat>9</sat>
      </trkpt>
      <trkpt lat="47.036140" lon="-122.028516">
        <ele>478.1</ele>
        <time>2014-08-14T17:18:38Z</time>
        <sat>9</sat>
      </trkpt>
      <trkpt lat="47.036245" lon="-122.028558">
        <ele>478.1</ele>
        <time>2014-08-14T17:18:42Z</time>
        <sat>9</sat>
      </trkpt>
      <trkpt lat="47.036355" lon="-122.028596">
        <ele>477.8</ele>
        <time>2014-08-14T17:18:45Z</time>
        <sat>9</sat>
      </trkpt>
      <trkpt lat="47.036455" lon="-122.028620">
        <ele>477.9</ele>
        <time>2014-08-14T17:18:48Z</time>
        <sat>9</sat>
      </trkpt>
      <trkpt lat="47.036552" lon="-122.028640">
        <ele>477.9</ele>
        <time>2014-08-14T17:18:51Z</time>
        <sat>9</sat>
      </trkpt>
      <trkpt lat="47.036660" lon="-122.028635">
        <ele>477.4</ele>
        <time>2014-08-14T17:18:55Z</time>
        <sat>9</sat>
      </trkpt>
      <trkpt lat="47.036753" lon="-122.028618">
        <ele>477.2</ele>
        <time>2014-08-14T17:18:58Z</time>
        <sat>8</sat>
      </trkpt>
      <trkpt lat="47.036852" lon="-122.028620">
        <ele>476.7</ele>
        <time>2014-08-14T17:19:01Z</time>
        <sat>9</sat>
      </trkpt>
      <trkpt lat="47.036952" lon="-122.028613">
        <ele>476.5</ele>
        <time>2014-08-14T17:19:04Z</time>
        <sat>8</sat>
      </trkpt>
      <trkpt lat="47.037045" lon="-122.028575">
        <ele>476.6</ele>
        <time>2014-08-14T17:19:07Z</time>
        <sat>8</sat>
      </trkpt>
      <trkpt lat="47.037167" lon="-122.028548">
        <ele>475.7</ele>
        <time>2014-08-14T17:19:11Z</time>
        <sat>7</sat>
      </trkpt>
      <trkpt lat="47.037279" lon="-122.028557">
        <ele>475.6</ele>
        <time>2014-08-14T17:19:14Z</time>
        <sat>5</sat>
      </trkpt>
      <trkpt lat="47.037370" lon="-122.028555">
        <ele>475.2</ele>
        <time>2014-08-14T17:19:17Z</time>
        <sat>5</sat>
      </trkpt>
      <trkpt lat="47.037472" lon="-122.028585">
        <ele>474.6</ele>
        <time>2014-08-14T17:19:20Z</time>
        <sat>5</sat>
      </trkpt>
      <trkpt lat="47.037584" lon="-122.028635">
        <ele>474.3</ele>
        <time>2014-08-14T17:19:23Z</time>
        <sat>5</sat>
      </trkpt>
      <trkpt lat="47.037692" lon="-122.028660">
        <ele>474.0</ele>
        <time>2014-08-14T17:19:26Z</time>
        <sat>5</sat>
      </trkpt>
      <trkpt lat="47.037782" lon="-122.028708">
        <ele>473.7</ele>
        <time>2014-08-14T17:19:29Z</time>
        <sat>5</sat>
      </trkpt>
      <trkpt lat="47.037885" lon="-122.028748">
        <ele>473.6</ele>
        <time>2014-08-14T17:19:33Z</time>
        <sat>5</sat>
      </trkpt>
      <trkpt lat="47.037972" lon="-122.028798">
        <ele>473.3</ele>
        <time>2014-08-14T17:19:36Z</time>
        <sat>5</sat>
      </trkpt>
      <trkpt lat="47.038100" lon="-122.028853">
        <ele>472.9</ele>
        <time>2014-08-14T17:19:39Z</time>
        <sat>5</sat>
      </trkpt>
      <trkpt lat="47.038225" lon="-122.028885">
        <ele>472.7</ele>
        <time>2014-08-14T17:19:42Z</time>
        <sat>5</sat>
      </trkpt>
      <trkpt lat="47.038340" lon="-122.028960">
        <ele>472.7</ele>
        <time>2014-08-14T17:19:45Z</time>
        <sat>5</sat>
      </trkpt>
      <trkpt lat="47.038445" lon="-122.029028">
        <ele>472.4</ele>
        <time>2014-08-14T17:19:48Z</time>
        <sat>5</sat>
      </trkpt>
      <trkpt lat="47.038562" lon="-122.029080">
        <ele>472.2</ele>
        <time>2014-08-14T17:19:51Z</time>
        <sat>5</sat>
      </trkpt>
      <trkpt lat="47.038672" lon="-122.029127">
        <ele>472.2</ele>
        <time>2014-08-14T17:19:54Z</time>
        <sat>5</sat>
      </trkpt>
      <trkpt lat="47.038773" lon="-122.029178">
        <ele>471.8</ele>
        <time>2014-08-14T17:19:57Z</time>
        <sat>5</sat>
      </trkpt>
      <trkpt lat="47.038857" lon="-122.029240">
        <ele>471.9</ele>
        <time>2014-08-14T17:20:00Z</time>
        <sat>5</sat>
      </trkpt>
      <trkpt lat="47.038942" lon="-122.029325">
        <ele>471.5</ele>
        <time>2014-08-14T17:20:03Z</time>
        <sat>5</sat>
      </trkpt>
      <trkpt lat="47.039032" lon="-122.029401">
        <ele>471.4</ele>
        <time>2014-08-14T17:20:06Z</time>
        <sat>5</sat>
      </trkpt>
      <trkpt lat="47.039124" lon="-122.029462">
        <ele>470.9</ele>
        <time>2014-08-14T17:20:09Z</time>
        <sat>5</sat>
      </trkpt>
      <trkpt lat="47.039230" lon="-122.029506">
        <ele>470.7</ele>
        <time>2014-08-14T17:20:12Z</time>
        <sat>5</sat>
      </trkpt>
      <trkpt lat="47.039347" lon="-122.029540">
        <ele>470.4</ele>
        <time>2014-08-14T17:20:15Z</time>
        <sat>5</sat>
      </trkpt>
      <trkpt lat="47.039462" lon="-122.029582">
        <ele>470.3</ele>
        <time>2014-08-14T17:20:18Z</time>
        <sat>5</sat>
      </trkpt>
      <trkpt lat="47.039587" lon="-122.029626">
        <ele>470.0</ele>
        <time>2014-08-14T17:20:21Z</time>
        <sat>5</sat>
      </trkpt>
      <trkpt lat="47.039707" lon="-122.029658">
        <ele>469.5</ele>
        <time>2014-08-14T17:20:24Z</time>
        <sat>5</sat>
      </trkpt>
      <trkpt lat="47.039840" lon="-122.029672">
        <ele>469.0</ele>
        <time>2014-08-14T17:20:27Z</time>
        <sat>5</sat>
      </trkpt>
      <trkpt lat="47.039965" lon="-122.029635">
        <ele>468.8</ele>
        <time>2014-08-14T17:20:30Z</time>
        <sat>5</sat>
      </trkpt>
      <trkpt lat="47.040093" lon="-122.029653">
        <ele>468.3</ele>
        <time>2014-08-14T17:20:33Z</time>
        <sat>5</sat>
      </trkpt>
      <trkpt lat="47.040213" lon="-122.029610">
        <ele>467.9</ele>
        <time>2014-08-14T17:20:36Z</time>
        <sat>5</sat>
      </trkpt>
      <trkpt lat="47.040327" lon="-122.029568">
        <ele>467.8</ele>
        <time>2014-08-14T17:20:39Z</time>
        <sat>5</sat>
      </trkpt>
      <trkpt lat="47.040459" lon="-122.029518">
        <ele>467.2</ele>
        <time>2014-08-14T17:20:42Z</time>
        <sat>5</sat>
      </trkpt>
      <trkpt lat="47.040572" lon="-122.029550">
        <ele>467.2</ele>
        <time>2014-08-14T17:20:44Z</time>
        <sat>5</sat>
      </trkpt>
      <trkpt lat="47.040693" lon="-122.029552">
        <ele>466.8</ele>
        <time>2014-08-14T17:20:46Z</time>
        <sat>5</sat>
      </trkpt>
      <trkpt lat="47.040785" lon="-122.029511">
        <ele>466.6</ele>
        <time>2014-08-14T17:20:48Z</time>
        <sat>5</sat>
      </trkpt>
      <trkpt lat="47.040900" lon="-122.029555">
        <ele>466.1</ele>
        <time>2014-08-14T17:20:51Z</time>
        <sat>5</sat>
      </trkpt>
      <trkpt lat="47.041030" lon="-122.029523">
        <ele>465.7</ele>
        <time>2014-08-14T17:20:54Z</time>
        <sat>5</sat>
      </trkpt>
      <trkpt lat="47.041128" lon="-122.029515">
        <ele>465.5</ele>
        <time>2014-08-14T17:20:56Z</time>
        <sat>5</sat>
      </trkpt>
      <trkpt lat="47.041249" lon="-122.029516">
        <ele>465.5</ele>
        <time>2014-08-14T17:20:59Z</time>
        <sat>5</sat>
      </trkpt>
      <trkpt lat="47.041369" lon="-122.029537">
        <ele>465.1</ele>
        <time>2014-08-14T17:21:02Z</time>
        <sat>5</sat>
      </trkpt>
      <trkpt lat="47.041484" lon="-122.029562">
        <ele>464.7</ele>
        <time>2014-08-14T17:21:05Z</time>
        <sat>5</sat>
      </trkpt>
      <trkpt lat="47.041609" lon="-122.029600">
        <ele>464.4</ele>
        <time>2014-08-14T17:21:08Z</time>
        <sat>5</sat>
      </trkpt>
      <trkpt lat="47.041727" lon="-122.029653">
        <ele>464.0</ele>
        <time>2014-08-14T17:21:11Z</time>
        <sat>6</sat>
      </trkpt>
      <trkpt lat="47.041845" lon="-122.029708">
        <ele>463.9</ele>
        <time>2014-08-14T17:21:14Z</time>
        <sat>6</sat>
      </trkpt>
      <trkpt lat="47.041962" lon="-122.029770">
        <ele>463.6</ele>
        <time>2014-08-14T17:21:17Z</time>
        <sat>6</sat>
      </trkpt>
      <trkpt lat="47.042072" lon="-122.029830">
        <ele>463.6</ele>
        <time>2014-08-14T17:21:20Z</time>
        <sat>7</sat>
      </trkpt>
      <trkpt lat="47.042174" lon="-122.029883">
        <ele>463.3</ele>
        <time>2014-08-14T17:21:24Z</time>
        <sat>7</sat>
      </trkpt>
      <trkpt lat="47.042260" lon="-122.029938">
        <ele>462.9</ele>
        <time>2014-08-14T17:21:31Z</time>
        <sat>7</sat>
      </trkpt>
      <trkpt lat="47.042355" lon="-122.029903">
        <ele>462.0</ele>
        <time>2014-08-14T17:21:42Z</time>
        <sat>7</sat>
      </trkpt>
      <trkpt lat="47.042448" lon="-122.029945">
        <ele>461.7</ele>
        <time>2014-08-14T17:21:48Z</time>
        <sat>7</sat>
      </trkpt>
      <trkpt lat="47.042538" lon="-122.029965">
        <ele>461.4</ele>
        <time>2014-08-14T17:21:52Z</time>
        <sat>7</sat>
      </trkpt>
      <trkpt lat="47.042653" lon="-122.029985">
        <ele>461.4</ele>
        <time>2014-08-14T17:21:57Z</time>
        <sat>6</sat>
      </trkpt>
      <trkpt lat="47.042749" lon="-122.029961">
        <ele>461.3</ele>
        <time>2014-08-14T17:22:01Z</time>
        <sat>8</sat>
      </trkpt>
      <trkpt lat="47.042847" lon="-122.029940">
        <ele>459.5</ele>
        <time>2014-08-14T17:22:24Z</time>
        <sat>8</sat>
      </trkpt>
      <trkpt lat="47.042922" lon="-122.029845">
        <ele>458.7</ele>
        <time>2014-08-14T17:22:30Z</time>
        <sat>7</sat>
      </trkpt>
      <trkpt lat="47.043013" lon="-122.029883">
        <ele>456.5</ele>
        <time>2014-08-14T17:22:58Z</time>
        <sat>6</sat>
      </trkpt>
      <trkpt lat="47.042972" lon="-122.029760">
        <ele>455.1</ele>
        <time>2014-08-14T17:23:09Z</time>
        <sat>6</sat>
      </trkpt>
      <trkpt lat="47.043050" lon="-122.029683">
        <ele>454.3</ele>
        <time>2014-08-14T17:23:15Z</time>
        <sat>6</sat>
      </trkpt>
      <trkpt lat="47.043122" lon="-122.029568">
        <ele>452.8</ele>
        <time>2014-08-14T17:23:34Z</time>
        <sat>7</sat>
      </trkpt>
      <trkpt lat="47.043035" lon="-122.029613">
        <ele>451.0</ele>
        <time>2014-08-14T17:23:58Z</time>
        <sat>7</sat>
      </trkpt>
      <trkpt lat="47.043025" lon="-122.029606">
        <ele>450.9</ele>
        <time>2014-08-14T17:23:59Z</time>
        <sat>7</sat>
      </trkpt>
      <trkpt lat="47.042752" lon="-122.030698">
        <ele>484.7</ele>
        <time>2014-08-14T17:46:35Z</time>
        <sat>9</sat>
      </trkpt>
      <trkpt lat="47.042757" lon="-122.030740">
        <ele>484.8</ele>
        <time>2014-08-14T17:46:36Z</time>
        <sat>9</sat>
      </trkpt>
      <trkpt lat="47.042745" lon="-122.030901">
        <ele>484.5</ele>
        <time>2014-08-14T17:46:40Z</time>
        <sat>9</sat>
      </trkpt>
      <trkpt lat="47.042777" lon="-122.031055">
        <ele>484.2</ele>
        <time>2014-08-14T17:46:44Z</time>
        <sat>9</sat>
      </trkpt>
      <trkpt lat="47.042837" lon="-122.031198">
        <ele>484.3</ele>
        <time>2014-08-14T17:46:47Z</time>
        <sat>9</sat>
      </trkpt>
      <trkpt lat="47.042875" lon="-122.031352">
        <ele>484.1</ele>
        <time>2014-08-14T17:46:51Z</time>
        <sat>9</sat>
      </trkpt>
      <trkpt lat="47.042947" lon="-122.031492">
        <ele>483.2</ele>
        <time>2014-08-14T17:46:55Z</time>
        <sat>9</sat>
      </trkpt>
      <trkpt lat="47.043028" lon="-122.031630">
        <ele>482.8</ele>
        <time>2014-08-14T17:46:58Z</time>
        <sat>9</sat>
      </trkpt>
      <trkpt lat="47.043090" lon="-122.031746">
        <ele>482.2</ele>
        <time>2014-08-14T17:47:00Z</time>
        <sat>9</sat>
      </trkpt>
      <trkpt lat="47.043164" lon="-122.031883">
        <ele>481.5</ele>
        <time>2014-08-14T17:47:02Z</time>
        <sat>9</sat>
      </trkpt>
      <trkpt lat="47.043253" lon="-122.032028">
        <ele>480.2</ele>
        <time>2014-08-14T17:47:04Z</time>
        <sat>9</sat>
      </trkpt>
      <trkpt lat="47.043364" lon="-122.032183">
        <ele>479.0</ele>
        <time>2014-08-14T17:47:06Z</time>
        <sat>9</sat>
      </trkpt>
      <trkpt lat="47.043490" lon="-122.032318">
        <ele>477.9</ele>
        <time>2014-08-14T17:47:08Z</time>
        <sat>9</sat>
      </trkpt>
      <trkpt lat="47.043630" lon="-122.032440">
        <ele>476.6</ele>
        <time>2014-08-14T17:47:10Z</time>
        <sat>9</sat>
      </trkpt>
      <trkpt lat="47.043765" lon="-122.032577">
        <ele>475.5</ele>
        <time>2014-08-14T17:47:12Z</time>
        <sat>9</sat>
      </trkpt>
      <trkpt lat="47.043900" lon="-122.032738">
        <ele>474.5</ele>
        <time>2014-08-14T17:47:14Z</time>
        <sat>9</sat>
      </trkpt>
      <trkpt lat="47.044002" lon="-122.032922">
        <ele>473.8</ele>
        <time>2014-08-14T17:47:16Z</time>
        <sat>9</sat>
      </trkpt>
      <trkpt lat="47.044070" lon="-122.033112">
        <ele>473.5</ele>
        <time>2014-08-14T17:47:18Z</time>
        <sat>9</sat>
      </trkpt>
      <trkpt lat="47.044118" lon="-122.033320">
        <ele>473.5</ele>
        <time>2014-08-14T17:47:20Z</time>
        <sat>9</sat>
      </trkpt>
      <trkpt lat="47.044142" lon="-122.033503">
        <ele>473.5</ele>
        <time>2014-08-14T17:47:22Z</time>
        <sat>9</sat>
      </trkpt>
      <trkpt lat="47.044148" lon="-122.033658">
        <ele>473.8</ele>
        <time>2014-08-14T17:47:24Z</time>
        <sat>9</sat>
      </trkpt>
      <trkpt lat="47.044174" lon="-122.033812">
        <ele>474.2</ele>
        <time>2014-08-14T17:47:26Z</time>
        <sat>9</sat>
      </trkpt>
      <trkpt lat="47.044194" lon="-122.033963">
        <ele>474.1</ele>
        <time>2014-08-14T17:47:28Z</time>
        <sat>9</sat>
      </trkpt>
      <trkpt lat="47.044209" lon="-122.034120">
        <ele>474.2</ele>
        <time>2014-08-14T17:47:30Z</time>
        <sat>9</sat>
      </trkpt>
      <trkpt lat="47.044210" lon="-122.034288">
        <ele>474.2</ele>
        <time>2014-08-14T17:47:32Z</time>
        <sat>9</sat>
      </trkpt>
      <trkpt lat="47.044210" lon="-122.034465">
        <ele>474.0</ele>
        <time>2014-08-14T17:47:34Z</time>
        <sat>9</sat>
      </trkpt>
      <trkpt lat="47.044213" lon="-122.034645">
        <ele>474.2</ele>
        <time>2014-08-14T17:47:36Z</time>
        <sat>9</sat>
      </trkpt>
      <trkpt lat="47.044217" lon="-122.034832">
        <ele>474.0</ele>
        <time>2014-08-14T17:47:38Z</time>
        <sat>9</sat>
      </trkpt>
      <trkpt lat="47.044207" lon="-122.035020">
        <ele>473.8</ele>
        <time>2014-08-14T17:47:40Z</time>
        <sat>9</sat>
      </trkpt>
      <trkpt lat="47.044202" lon="-122.035200">
        <ele>473.6</ele>
        <time>2014-08-14T17:47:42Z</time>
        <sat>9</sat>
      </trkpt>
      <trkpt lat="47.044197" lon="-122.035377">
        <ele>473.6</ele>
        <time>2014-08-14T17:47:44Z</time>
        <sat>9</sat>
      </trkpt>
      <trkpt lat="47.044210" lon="-122.035535">
        <ele>473.3</ele>
        <time>2014-08-14T17:47:46Z</time>
        <sat>9</sat>
      </trkpt>
      <trkpt lat="47.044197" lon="-122.035712">
        <ele>473.3</ele>
        <time>2014-08-14T17:47:48Z</time>
        <sat>9</sat>
      </trkpt>
      <trkpt lat="47.044185" lon="-122.035903">
        <ele>473.3</ele>
        <time>2014-08-14T17:47:50Z</time>
        <sat>9</sat>
      </trkpt>
      <trkpt lat="47.044180" lon="-122.036078">
        <ele>473.3</ele>
        <time>2014-08-14T17:47:52Z</time>
        <sat>9</sat>
      </trkpt>
      <trkpt lat="47.044185" lon="-122.036257">
        <ele>473.2</ele>
        <time>2014-08-14T17:47:54Z</time>
        <sat>9</sat>
      </trkpt>
      <trkpt lat="47.044192" lon="-122.036435">
        <ele>473.3</ele>
        <time>2014-08-14T17:47:56Z</time>
        <sat>9</sat>
      </trkpt>
      <trkpt lat="47.044194" lon="-122.036603">
        <ele>473.0</ele>
        <time>2014-08-14T17:47:58Z</time>
        <sat>9</sat>
      </trkpt>
      <trkpt lat="47.044195" lon="-122.036778">
        <ele>473.1</ele>
        <time>2014-08-14T17:48:00Z</time>
        <sat>9</sat>
      </trkpt>
      <trkpt lat="47.044232" lon="-122.036935">
        <ele>473.3</ele>
        <time>2014-08-14T17:48:02Z</time>
        <sat>9</sat>
      </trkpt>
      <trkpt lat="47.044284" lon="-122.037087">
        <ele>473.4</ele>
        <time>2014-08-14T17:48:04Z</time>
        <sat>9</sat>
      </trkpt>
      <trkpt lat="47.044343" lon="-122.037205">
        <ele>473.2</ele>
        <time>2014-08-14T17:48:06Z</time>
        <sat>9</sat>
      </trkpt>
      <trkpt lat="47.044443" lon="-122.037343">
        <ele>473.2</ele>
        <time>2014-08-14T17:48:09Z</time>
        <sat>9</sat>
      </trkpt>
      <trkpt lat="47.044535" lon="-122.037400">
        <ele>472.8</ele>
        <time>2014-08-14T17:48:11Z</time>
        <sat>9</sat>
      </trkpt>
      <trkpt lat="47.044630" lon="-122.037436">
        <ele>472.8</ele>
        <time>2014-08-14T17:48:13Z</time>
        <sat>9</sat>
      </trkpt>
      <trkpt lat="47.044720" lon="-122.037412">
        <ele>472.8</ele>
        <time>2014-08-14T17:48:15Z</time>
        <sat>9</sat>
      </trkpt>
      <trkpt lat="47.044844" lon="-122.037328">
        <ele>472.7</ele>
        <time>2014-08-14T17:48:18Z</time>
        <sat>9</sat>
      </trkpt>
      <trkpt lat="47.044967" lon="-122.037252">
        <ele>472.6</ele>
        <time>2014-08-14T17:48:21Z</time>
        <sat>9</sat>
      </trkpt>
      <trkpt lat="47.045064" lon="-122.037206">
        <ele>472.7</ele>
        <time>2014-08-14T17:48:23Z</time>
        <sat>8</sat>
      </trkpt>
      <trkpt lat="47.045130" lon="-122.037101">
        <ele>472.8</ele>
        <time>2014-08-14T17:48:26Z</time>
        <sat>9</sat>
      </trkpt>
      <trkpt lat="47.045170" lon="-122.036966">
        <ele>472.8</ele>
        <time>2014-08-14T17:48:29Z</time>
        <sat>8</sat>
      </trkpt>
      <trkpt lat="47.045190" lon="-122.036818">
        <ele>472.7</ele>
        <time>2014-08-14T17:48:35Z</time>
        <sat>9</sat>
      </trkpt>
      <trkpt lat="47.045130" lon="-122.036700">
        <ele>472.2</ele>
        <time>2014-08-14T17:48:40Z</time>
        <sat>9</sat>
      </trkpt>
      <trkpt lat="47.045092" lon="-122.036580">
        <ele>471.7</ele>
        <time>2014-08-14T17:48:44Z</time>
        <sat>9</sat>
      </trkpt>
      <trkpt lat="47.045140" lon="-122.036715">
        <ele>471.3</ele>
        <time>2014-08-14T17:48:47Z</time>
        <sat>7</sat>
      </trkpt>
      <trkpt lat="47.045190" lon="-122.036837">
        <ele>471.3</ele>
        <time>2014-08-14T17:48:48Z</time>
        <sat>9</sat>
      </trkpt>
      <trkpt lat="47.045511" lon="-122.037343">
        <ele>470.0</ele>
        <time>2014-08-14T17:48:53Z</time>
        <sat>8</sat>
      </trkpt>
      <trkpt lat="47.045847" lon="-122.037760">
        <ele>469.9</ele>
        <time>2014-08-14T17:48:58Z</time>
        <sat>8</sat>
      </trkpt>
      <trkpt lat="47.046689" lon="-122.038661">
        <ele>468.0</ele>
        <time>2014-08-14T17:49:03Z</time>
        <sat>8</sat>
      </trkpt>
      <trkpt lat="47.046969" lon="-122.038612">
        <ele>467.7</ele>
        <time>2014-08-14T17:49:08Z</time>
        <sat>9</sat>
      </trkpt>
      <trkpt lat="47.047052" lon="-122.038510">
        <ele>467.4</ele>
        <time>2014-08-14T17:49:10Z</time>
        <sat>9</sat>
      </trkpt>
      <trkpt lat="47.047105" lon="-122.038403">
        <ele>467.2</ele>
        <time>2014-08-14T17:49:12Z</time>
        <sat>9</sat>
      </trkpt>
      <trkpt lat="47.047152" lon="-122.038273">
        <ele>466.9</ele>
        <time>2014-08-14T17:49:14Z</time>
        <sat>9</sat>
      </trkpt>
      <trkpt lat="47.047227" lon="-122.038190">
        <ele>466.8</ele>
        <time>2014-08-14T17:49:16Z</time>
        <sat>9</sat>
      </trkpt>
      <trkpt lat="47.047253" lon="-122.037993">
        <ele>466.5</ele>
        <time>2014-08-14T17:49:18Z</time>
        <sat>9</sat>
      </trkpt>
      <trkpt lat="47.047304" lon="-122.037835">
        <ele>466.0</ele>
        <time>2014-08-14T17:49:20Z</time>
        <sat>9</sat>
      </trkpt>
      <trkpt lat="47.047830" lon="-122.038454">
        <ele>465.0</ele>
        <time>2014-08-14T17:49:28Z</time>
        <sat>8</sat>
      </trkpt>
      <trkpt lat="47.047922" lon="-122.038515">
        <ele>465.7</ele>
        <time>2014-08-14T17:49:33Z</time>
        <sat>8</sat>
      </trkpt>
      <trkpt lat="47.047880" lon="-122.038380">
        <ele>465.8</ele>
        <time>2014-08-14T17:49:45Z</time>
        <sat>9</sat>
      </trkpt>
      <trkpt lat="47.047889" lon="-122.038248">
        <ele>466.0</ele>
        <time>2014-08-14T17:49:50Z</time>
        <sat>8</sat>
      </trkpt>
      <trkpt lat="47.047887" lon="-122.038105">
        <ele>465.9</ele>
        <time>2014-08-14T17:49:58Z</time>
        <sat>8</sat>
      </trkpt>
      <trkpt lat="47.047802" lon="-122.038170">
        <ele>466.2</ele>
        <time>2014-08-14T17:50:13Z</time>
        <sat>8</sat>
      </trkpt>
      <trkpt lat="47.047939" lon="-122.038536">
        <ele>466.0</ele>
        <time>2014-08-14T17:50:32Z</time>
        <sat>9</sat>
      </trkpt>
      <trkpt lat="47.047967" lon="-122.038410">
        <ele>467.7</ele>
        <time>2014-08-14T17:51:04Z</time>
        <sat>8</sat>
      </trkpt>
      <trkpt lat="47.047984" lon="-122.038250">
        <ele>467.4</ele>
        <time>2014-08-14T17:51:07Z</time>
        <sat>9</sat>
      </trkpt>
      <trkpt lat="47.047997" lon="-122.038072">
        <ele>467.5</ele>
        <time>2014-08-14T17:51:10Z</time>
        <sat>9</sat>
      </trkpt>
      <trkpt lat="47.048002" lon="-122.037930">
        <ele>467.5</ele>
        <time>2014-08-14T17:51:12Z</time>
        <sat>9</sat>
      </trkpt>
      <trkpt lat="47.048008" lon="-122.037727">
        <ele>467.1</ele>
        <time>2014-08-14T17:51:14Z</time>
        <sat>9</sat>
      </trkpt>
      <trkpt lat="47.048043" lon="-122.037578">
        <ele>467.1</ele>
        <time>2014-08-14T17:51:16Z</time>
        <sat>9</sat>
      </trkpt>
      <trkpt lat="47.048105" lon="-122.037438">
        <ele>466.5</ele>
        <time>2014-08-14T17:51:18Z</time>
        <sat>9</sat>
      </trkpt>
      <trkpt lat="47.048160" lon="-122.037308">
        <ele>466.2</ele>
        <time>2014-08-14T17:51:20Z</time>
        <sat>9</sat>
      </trkpt>
      <trkpt lat="47.048212" lon="-122.037182">
        <ele>465.6</ele>
        <time>2014-08-14T17:51:22Z</time>
        <sat>8</sat>
      </trkpt>
      <trkpt lat="47.048284" lon="-122.037072">
        <ele>465.4</ele>
        <time>2014-08-14T17:51:24Z</time>
        <sat>8</sat>
      </trkpt>
      <trkpt lat="47.048373" lon="-122.036976">
        <ele>465.2</ele>
        <time>2014-08-14T17:51:26Z</time>
        <sat>9</sat>
      </trkpt>
      <trkpt lat="47.048460" lon="-122.036913">
        <ele>464.8</ele>
        <time>2014-08-14T17:51:28Z</time>
        <sat>9</sat>
      </trkpt>
      <trkpt lat="47.048568" lon="-122.036881">
        <ele>464.3</ele>
        <time>2014-08-14T17:51:31Z</time>
        <sat>9</sat>
      </trkpt>
      <trkpt lat="47.048692" lon="-122.036888">
        <ele>464.0</ele>
        <time>2014-08-14T17:51:34Z</time>
        <sat>9</sat>
      </trkpt>
      <trkpt lat="47.048775" lon="-122.036950">
        <ele>463.8</ele>
        <time>2014-08-14T17:51:35Z</time>
        <sat>9</sat>
      </trkpt>
      <trkpt lat="47.048897" lon="-122.036978">
        <ele>463.5</ele>
        <time>2014-08-14T17:51:37Z</time>
        <sat>9</sat>
      </trkpt>
      <trkpt lat="47.049025" lon="-122.037000">
        <ele>463.1</ele>
        <time>2014-08-14T17:51:39Z</time>
        <sat>9</sat>
      </trkpt>
      <trkpt lat="47.049155" lon="-122.037023">
        <ele>462.6</ele>
        <time>2014-08-14T17:51:41Z</time>
        <sat>9</sat>
      </trkpt>
      <trkpt lat="47.049290" lon="-122.037022">
        <ele>462.0</ele>
        <time>2014-08-14T17:51:43Z</time>
        <sat>9</sat>
      </trkpt>
      <trkpt lat="47.049429" lon="-122.037040">
        <ele>461.4</ele>
        <time>2014-08-14T17:51:45Z</time>
        <sat>9</sat>
      </trkpt>
      <trkpt lat="47.049580" lon="-122.037038">
        <ele>460.8</ele>
        <time>2014-08-14T17:51:47Z</time>
        <sat>9</sat>
      </trkpt>
      <trkpt lat="47.049739" lon="-122.037108">
        <ele>460.3</ele>
        <time>2014-08-14T17:51:49Z</time>
        <sat>9</sat>
      </trkpt>
      <trkpt lat="47.049869" lon="-122.037196">
        <ele>459.8</ele>
        <time>2014-08-14T17:51:51Z</time>
        <sat>9</sat>
      </trkpt>
      <trkpt lat="47.049984" lon="-122.037338">
        <ele>459.4</ele>
        <time>2014-08-14T17:51:53Z</time>
        <sat>9</sat>
      </trkpt>
      <trkpt lat="47.050070" lon="-122.037497">
        <ele>459.4</ele>
        <time>2014-08-14T17:51:55Z</time>
        <sat>8</sat>
      </trkpt>
      <trkpt lat="47.050135" lon="-122.037646">
        <ele>458.8</ele>
        <time>2014-08-14T17:51:57Z</time>
        <sat>9</sat>
      </trkpt>
      <trkpt lat="47.050209" lon="-122.037795">
        <ele>458.5</ele>
        <time>2014-08-14T17:51:59Z</time>
        <sat>8</sat>
      </trkpt>
      <trkpt lat="47.050300" lon="-122.037963">
        <ele>458.2</ele>
        <time>2014-08-14T17:52:01Z</time>
        <sat>9</sat>
      </trkpt>
      <trkpt lat="47.050392" lon="-122.038110">
        <ele>457.7</ele>
        <time>2014-08-14T17:52:03Z</time>
        <sat>9</sat>
      </trkpt>
      <trkpt lat="47.050493" lon="-122.038226">
        <ele>457.3</ele>
        <time>2014-08-14T17:52:05Z</time>
        <sat>9</sat>
      </trkpt>
      <trkpt lat="47.050600" lon="-122.038311">
        <ele>456.9</ele>
        <time>2014-08-14T17:52:07Z</time>
        <sat>9</sat>
      </trkpt>
      <trkpt lat="47.050715" lon="-122.038380">
        <ele>456.4</ele>
        <time>2014-08-14T17:52:09Z</time>
        <sat>9</sat>
      </trkpt>
      <trkpt lat="47.050835" lon="-122.038407">
        <ele>456.1</ele>
        <time>2014-08-14T17:52:11Z</time>
        <sat>9</sat>
      </trkpt>
      <trkpt lat="47.050974" lon="-122.038418">
        <ele>455.9</ele>
        <time>2014-08-14T17:52:13Z</time>
        <sat>9</sat>
      </trkpt>
      <trkpt lat="47.051104" lon="-122.038390">
        <ele>455.6</ele>
        <time>2014-08-14T17:52:15Z</time>
        <sat>9</sat>
      </trkpt>
      <trkpt lat="47.051185" lon="-122.038483">
        <ele>455.5</ele>
        <time>2014-08-14T17:52:16Z</time>
        <sat>8</sat>
      </trkpt>
      <trkpt lat="47.051322" lon="-122.038408">
        <ele>455.1</ele>
        <time>2014-08-14T17:52:18Z</time>
        <sat>9</sat>
      </trkpt>
      <trkpt lat="47.051430" lon="-122.038323">
        <ele>454.9</ele>
        <time>2014-08-14T17:52:20Z</time>
        <sat>9</sat>
      </trkpt>
      <trkpt lat="47.051552" lon="-122.038231">
        <ele>454.5</ele>
        <time>2014-08-14T17:52:22Z</time>
        <sat>9</sat>
      </trkpt>
      <trkpt lat="47.051672" lon="-122.038147">
        <ele>454.1</ele>
        <time>2014-08-14T17:52:24Z</time>
        <sat>8</sat>
      </trkpt>
      <trkpt lat="47.051789" lon="-122.038048">
        <ele>453.7</ele>
        <time>2014-08-14T17:52:26Z</time>
        <sat>9</sat>
      </trkpt>
      <trkpt lat="47.051912" lon="-122.037962">
        <ele>453.1</ele>
        <time>2014-08-14T17:52:28Z</time>
        <sat>9</sat>
      </trkpt>
      <trkpt lat="47.052040" lon="-122.037861">
        <ele>452.8</ele>
        <time>2014-08-14T17:52:30Z</time>
        <sat>8</sat>
      </trkpt>
      <trkpt lat="47.052197" lon="-122.037806">
        <ele>452.5</ele>
        <time>2014-08-14T17:52:32Z</time>
        <sat>9</sat>
      </trkpt>
      <trkpt lat="47.052352" lon="-122.037723">
        <ele>452.1</ele>
        <time>2014-08-14T17:52:34Z</time>
        <sat>9</sat>
      </trkpt>
      <trkpt lat="47.052503" lon="-122.037648">
        <ele>451.7</ele>
        <time>2014-08-14T17:52:36Z</time>
        <sat>9</sat>
      </trkpt>
      <trkpt lat="47.052640" lon="-122.037550">
        <ele>450.9</ele>
        <time>2014-08-14T17:52:38Z</time>
        <sat>9</sat>
      </trkpt>
      <trkpt lat="47.052770" lon="-122.037435">
        <ele>450.3</ele>
        <time>2014-08-14T17:52:40Z</time>
        <sat>9</sat>
      </trkpt>
      <trkpt lat="47.052880" lon="-122.037290">
        <ele>449.6</ele>
        <time>2014-08-14T17:52:42Z</time>
        <sat>9</sat>
      </trkpt>
      <trkpt lat="47.052962" lon="-122.037115">
        <ele>449.1</ele>
        <time>2014-08-14T17:52:44Z</time>
        <sat>9</sat>
      </trkpt>
      <trkpt lat="47.053032" lon="-122.036955">
        <ele>448.7</ele>
        <time>2014-08-14T17:52:46Z</time>
        <sat>9</sat>
      </trkpt>
      <trkpt lat="47.053104" lon="-122.036755">
        <ele>448.3</ele>
        <time>2014-08-14T17:52:48Z</time>
        <sat>9</sat>
      </trkpt>
      <trkpt lat="47.053150" lon="-122.036580">
        <ele>447.7</ele>
        <time>2014-08-14T17:52:50Z</time>
        <sat>9</sat>
      </trkpt>
      <trkpt lat="47.053202" lon="-122.036388">
        <ele>447.2</ele>
        <time>2014-08-14T17:52:52Z</time>
        <sat>9</sat>
      </trkpt>
      <trkpt lat="47.053258" lon="-122.036198">
        <ele>446.6</ele>
        <time>2014-08-14T17:52:54Z</time>
        <sat>9</sat>
      </trkpt>
      <trkpt lat="47.053312" lon="-122.036010">
        <ele>446.3</ele>
        <time>2014-08-14T17:52:56Z</time>
        <sat>9</sat>
      </trkpt>
      <trkpt lat="47.053378" lon="-122.035827">
        <ele>445.9</ele>
        <time>2014-08-14T17:52:58Z</time>
        <sat>9</sat>
      </trkpt>
      <trkpt lat="47.053447" lon="-122.035643">
        <ele>445.4</ele>
        <time>2014-08-14T17:53:00Z</time>
        <sat>9</sat>
      </trkpt>
      <trkpt lat="47.053528" lon="-122.035467">
        <ele>445.0</ele>
        <time>2014-08-14T17:53:02Z</time>
        <sat>9</sat>
      </trkpt>
      <trkpt lat="47.053628" lon="-122.035328">
        <ele>444.7</ele>
        <time>2014-08-14T17:53:04Z</time>
        <sat>9</sat>
      </trkpt>
      <trkpt lat="47.053733" lon="-122.035230">
        <ele>444.1</ele>
        <time>2014-08-14T17:53:06Z</time>
        <sat>9</sat>
      </trkpt>
      <trkpt lat="47.053830" lon="-122.035150">
        <ele>444.0</ele>
        <time>2014-08-14T17:53:08Z</time>
        <sat>9</sat>
      </trkpt>
      <trkpt lat="47.053930" lon="-122.035133">
        <ele>444.0</ele>
        <time>2014-08-14T17:53:10Z</time>
        <sat>9</sat>
      </trkpt>
      <trkpt lat="47.054022" lon="-122.035123">
        <ele>444.2</ele>
        <time>2014-08-14T17:53:12Z</time>
        <sat>9</sat>
      </trkpt>
      <trkpt lat="47.054150" lon="-122.035110">
        <ele>444.3</ele>
        <time>2014-08-14T17:53:15Z</time>
        <sat>9</sat>
      </trkpt>
      <trkpt lat="47.054244" lon="-122.035128">
        <ele>444.4</ele>
        <time>2014-08-14T17:53:17Z</time>
        <sat>9</sat>
      </trkpt>
      <trkpt lat="47.054339" lon="-122.035221">
        <ele>444.5</ele>
        <time>2014-08-14T17:53:18Z</time>
        <sat>9</sat>
      </trkpt>
      <trkpt lat="47.054697" lon="-122.036050">
        <ele>445.0</ele>
        <time>2014-08-14T17:53:24Z</time>
        <sat>8</sat>
      </trkpt>
      <trkpt lat="47.055045" lon="-122.036231">
        <ele>445.9</ele>
        <time>2014-08-14T17:53:29Z</time>
        <sat>9</sat>
      </trkpt>
      <trkpt lat="47.055170" lon="-122.036303">
        <ele>445.7</ele>
        <time>2014-08-14T17:53:31Z</time>
        <sat>9</sat>
      </trkpt>
      <trkpt lat="47.055268" lon="-122.036353">
        <ele>445.5</ele>
        <time>2014-08-14T17:53:33Z</time>
        <sat>8</sat>
      </trkpt>
      <trkpt lat="47.055362" lon="-122.036420">
        <ele>445.4</ele>
        <time>2014-08-14T17:53:35Z</time>
        <sat>9</sat>
      </trkpt>
      <trkpt lat="47.055467" lon="-122.036492">
        <ele>445.1</ele>
        <time>2014-08-14T17:53:37Z</time>
        <sat>9</sat>
      </trkpt>
      <trkpt lat="47.055562" lon="-122.036533">
        <ele>444.9</ele>
        <time>2014-08-14T17:53:39Z</time>
        <sat>9</sat>
      </trkpt>
      <trkpt lat="47.055672" lon="-122.036555">
        <ele>444.4</ele>
        <time>2014-08-14T17:53:41Z</time>
        <sat>9</sat>
      </trkpt>
      <trkpt lat="47.055799" lon="-122.036567">
        <ele>443.9</ele>
        <time>2014-08-14T17:53:43Z</time>
        <sat>8</sat>
      </trkpt>
      <trkpt lat="47.055933" lon="-122.036570">
        <ele>442.8</ele>
        <time>2014-08-14T17:53:45Z</time>
        <sat>9</sat>
      </trkpt>
      <trkpt lat="47.056095" lon="-122.036563">
        <ele>441.9</ele>
        <time>2014-08-14T17:53:47Z</time>
        <sat>8</sat>
      </trkpt>
      <trkpt lat="47.056225" lon="-122.036510">
        <ele>441.1</ele>
        <time>2014-08-14T17:53:49Z</time>
        <sat>8</sat>
      </trkpt>
      <trkpt lat="47.056380" lon="-122.036448">
        <ele>440.3</ele>
        <time>2014-08-14T17:53:51Z</time>
        <sat>8</sat>
      </trkpt>
      <trkpt lat="47.056540" lon="-122.036385">
        <ele>439.4</ele>
        <time>2014-08-14T17:53:53Z</time>
        <sat>9</sat>
      </trkpt>
      <trkpt lat="47.056692" lon="-122.036293">
        <ele>438.4</ele>
        <time>2014-08-14T17:53:55Z</time>
        <sat>9</sat>
      </trkpt>
      <trkpt lat="47.056822" lon="-122.036195">
        <ele>437.4</ele>
        <time>2014-08-14T17:53:57Z</time>
        <sat>9</sat>
      </trkpt>
      <trkpt lat="47.056967" lon="-122.036127">
        <ele>436.7</ele>
        <time>2014-08-14T17:53:59Z</time>
        <sat>9</sat>
      </trkpt>
      <trkpt lat="47.057105" lon="-122.036068">
        <ele>436.3</ele>
        <time>2014-08-14T17:54:01Z</time>
        <sat>8</sat>
      </trkpt>
      <trkpt lat="47.057257" lon="-122.036058">
        <ele>435.8</ele>
        <time>2014-08-14T17:54:03Z</time>
        <sat>7</sat>
      </trkpt>
      <trkpt lat="47.057402" lon="-122.036065">
        <ele>435.6</ele>
        <time>2014-08-14T17:54:05Z</time>
        <sat>8</sat>
      </trkpt>
      <trkpt lat="47.057547" lon="-122.036110">
        <ele>435.1</ele>
        <time>2014-08-14T17:54:07Z</time>
        <sat>8</sat>
      </trkpt>
      <trkpt lat="47.057714" lon="-122.036157">
        <ele>434.6</ele>
        <time>2014-08-14T17:54:09Z</time>
        <sat>8</sat>
      </trkpt>
      <trkpt lat="47.057862" lon="-122.036190">
        <ele>434.0</ele>
        <time>2014-08-14T17:54:11Z</time>
        <sat>8</sat>
      </trkpt>
      <trkpt lat="47.058008" lon="-122.036220">
        <ele>433.5</ele>
        <time>2014-08-14T17:54:13Z</time>
        <sat>8</sat>
      </trkpt>
      <trkpt lat="47.058135" lon="-122.036253">
        <ele>432.9</ele>
        <time>2014-08-14T17:54:15Z</time>
        <sat>9</sat>
      </trkpt>
      <trkpt lat="47.058252" lon="-122.036270">
        <ele>432.9</ele>
        <time>2014-08-14T17:54:17Z</time>
        <sat>9</sat>
      </trkpt>
      <trkpt lat="47.058385" lon="-122.036303">
        <ele>432.5</ele>
        <time>2014-08-14T17:54:19Z</time>
        <sat>9</sat>
      </trkpt>
      <trkpt lat="47.058545" lon="-122.036368">
        <ele>432.3</ele>
        <time>2014-08-14T17:54:21Z</time>
        <sat>9</sat>
      </trkpt>
      <trkpt lat="47.058635" lon="-122.036408">
        <ele>432.2</ele>
        <time>2014-08-14T17:54:22Z</time>
        <sat>8</sat>
      </trkpt>
      <trkpt lat="47.058788" lon="-122.036420">
        <ele>431.7</ele>
        <time>2014-08-14T17:54:24Z</time>
        <sat>8</sat>
      </trkpt>
      <trkpt lat="47.058940" lon="-122.036393">
        <ele>431.6</ele>
        <time>2014-08-14T17:54:26Z</time>
        <sat>8</sat>
      </trkpt>
      <trkpt lat="47.059090" lon="-122.036373">
        <ele>431.4</ele>
        <time>2014-08-14T17:54:28Z</time>
        <sat>8</sat>
      </trkpt>
      <trkpt lat="47.059225" lon="-122.036333">
        <ele>431.5</ele>
        <time>2014-08-14T17:54:30Z</time>
        <sat>8</sat>
      </trkpt>
      <trkpt lat="47.059350" lon="-122.036270">
        <ele>431.6</ele>
        <time>2014-08-14T17:54:32Z</time>
        <sat>8</sat>
      </trkpt>
      <trkpt lat="47.059469" lon="-122.036198">
        <ele>431.7</ele>
        <time>2014-08-14T17:54:34Z</time>
        <sat>9</sat>
      </trkpt>
      <trkpt lat="47.059587" lon="-122.036132">
        <ele>431.5</ele>
        <time>2014-08-14T17:54:36Z</time>
        <sat>9</sat>
      </trkpt>
      <trkpt lat="47.059702" lon="-122.036065">
        <ele>431.2</ele>
        <time>2014-08-14T17:54:38Z</time>
        <sat>9</sat>
      </trkpt>
      <trkpt lat="47.059827" lon="-122.036010">
        <ele>431.1</ele>
        <time>2014-08-14T17:54:40Z</time>
        <sat>9</sat>
      </trkpt>
      <trkpt lat="47.059958" lon="-122.035973">
        <ele>430.8</ele>
        <time>2014-08-14T17:54:42Z</time>
        <sat>8</sat>
      </trkpt>
      <trkpt lat="47.060105" lon="-122.035947">
        <ele>430.4</ele>
        <time>2014-08-14T17:54:44Z</time>
        <sat>9</sat>
      </trkpt>
      <trkpt lat="47.060254" lon="-122.035930">
        <ele>430.1</ele>
        <time>2014-08-14T17:54:46Z</time>
        <sat>8</sat>
      </trkpt>
      <trkpt lat="47.060397" lon="-122.035906">
        <ele>429.7</ele>
        <time>2014-08-14T17:54:48Z</time>
        <sat>9</sat>
      </trkpt>
      <trkpt lat="47.060545" lon="-122.035873">
        <ele>429.5</ele>
        <time>2014-08-14T17:54:50Z</time>
        <sat>8</sat>
      </trkpt>
      <trkpt lat="47.060687" lon="-122.035835">
        <ele>429.4</ele>
        <time>2014-08-14T17:54:52Z</time>
        <sat>8</sat>
      </trkpt>
      <trkpt lat="47.060837" lon="-122.035796">
        <ele>429.3</ele>
        <time>2014-08-14T17:54:54Z</time>
        <sat>9</sat>
      </trkpt>
      <trkpt lat="47.060969" lon="-122.035751">
        <ele>429.1</ele>
        <time>2014-08-14T17:54:56Z</time>
        <sat>9</sat>
      </trkpt>
      <trkpt lat="47.061097" lon="-122.035698">
        <ele>428.8</ele>
        <time>2014-08-14T17:54:58Z</time>
        <sat>9</sat>
      </trkpt>
      <trkpt lat="47.061232" lon="-122.035628">
        <ele>428.4</ele>
        <time>2014-08-14T17:55:00Z</time>
        <sat>9</sat>
      </trkpt>
      <trkpt lat="47.061365" lon="-122.035551">
        <ele>428.2</ele>
        <time>2014-08-14T17:55:02Z</time>
        <sat>8</sat>
      </trkpt>
      <trkpt lat="47.061497" lon="-122.035477">
        <ele>427.9</ele>
        <time>2014-08-14T17:55:04Z</time>
        <sat>8</sat>
      </trkpt>
      <trkpt lat="47.061634" lon="-122.035406">
        <ele>427.4</ele>
        <time>2014-08-14T17:55:06Z</time>
        <sat>9</sat>
      </trkpt>
      <trkpt lat="47.061773" lon="-122.035335">
        <ele>426.8</ele>
        <time>2014-08-14T17:55:08Z</time>
        <sat>9</sat>
      </trkpt>
      <trkpt lat="47.061917" lon="-122.035267">
        <ele>426.5</ele>
        <time>2014-08-14T17:55:10Z</time>
        <sat>9</sat>
      </trkpt>
      <trkpt lat="47.062055" lon="-122.035201">
        <ele>426.2</ele>
        <time>2014-08-14T17:55:12Z</time>
        <sat>9</sat>
      </trkpt>
      <trkpt lat="47.062190" lon="-122.035133">
        <ele>426.0</ele>
        <time>2014-08-14T17:55:14Z</time>
        <sat>9</sat>
      </trkpt>
      <trkpt lat="47.062315" lon="-122.035055">
        <ele>425.7</ele>
        <time>2014-08-14T17:55:16Z</time>
        <sat>9</sat>
      </trkpt>
      <trkpt lat="47.062432" lon="-122.034978">
        <ele>425.5</ele>
        <time>2014-08-14T17:55:18Z</time>
        <sat>9</sat>
      </trkpt>
      <trkpt lat="47.062553" lon="-122.034908">
        <ele>425.3</ele>
        <time>2014-08-14T17:55:20Z</time>
        <sat>8</sat>
      </trkpt>
      <trkpt lat="47.062677" lon="-122.034838">
        <ele>425.1</ele>
        <time>2014-08-14T17:55:22Z</time>
        <sat>9</sat>
      </trkpt>
      <trkpt lat="47.062793" lon="-122.034760">
        <ele>425.2</ele>
        <time>2014-08-14T17:55:24Z</time>
        <sat>9</sat>
      </trkpt>
      <trkpt lat="47.062922" lon="-122.034687">
        <ele>425.0</ele>
        <time>2014-08-14T17:55:26Z</time>
        <sat>9</sat>
      </trkpt>
      <trkpt lat="47.063050" lon="-122.034608">
        <ele>424.6</ele>
        <time>2014-08-14T17:55:28Z</time>
        <sat>9</sat>
      </trkpt>
      <trkpt lat="47.063180" lon="-122.034543">
        <ele>424.4</ele>
        <time>2014-08-14T17:55:30Z</time>
        <sat>8</sat>
      </trkpt>
      <trkpt lat="47.063315" lon="-122.034492">
        <ele>424.1</ele>
        <time>2014-08-14T17:55:32Z</time>
        <sat>9</sat>
      </trkpt>
      <trkpt lat="47.063442" lon="-122.034428">
        <ele>423.9</ele>
        <time>2014-08-14T17:55:34Z</time>
        <sat>9</sat>
      </trkpt>
      <trkpt lat="47.063580" lon="-122.034360">
        <ele>423.4</ele>
        <time>2014-08-14T17:55:36Z</time>
        <sat>9</sat>
      </trkpt>
      <trkpt lat="47.063724" lon="-122.034280">
        <ele>422.7</ele>
        <time>2014-08-14T17:55:38Z</time>
        <sat>9</sat>
      </trkpt>
      <trkpt lat="47.063865" lon="-122.034188">
        <ele>421.9</ele>
        <time>2014-08-14T17:55:40Z</time>
        <sat>9</sat>
      </trkpt>
      <trkpt lat="47.064022" lon="-122.034088">
        <ele>420.7</ele>
        <time>2014-08-14T17:55:42Z</time>
        <sat>9</sat>
      </trkpt>
      <trkpt lat="47.064112" lon="-122.034060">
        <ele>419.9</ele>
        <time>2014-08-14T17:55:43Z</time>
        <sat>8</sat>
      </trkpt>
      <trkpt lat="47.064207" lon="-122.034017">
        <ele>419.3</ele>
        <time>2014-08-14T17:55:44Z</time>
        <sat>8</sat>
      </trkpt>
      <trkpt lat="47.064295" lon="-122.033968">
        <ele>418.5</ele>
        <time>2014-08-14T17:55:45Z</time>
        <sat>9</sat>
      </trkpt>
      <trkpt lat="47.064382" lon="-122.033923">
        <ele>417.8</ele>
        <time>2014-08-14T17:55:46Z</time>
        <sat>9</sat>
      </trkpt>
      <trkpt lat="47.064548" lon="-122.033835">
        <ele>417.0</ele>
        <time>2014-08-14T17:55:48Z</time>
        <sat>9</sat>
      </trkpt>
      <trkpt lat="47.064705" lon="-122.033750">
        <ele>416.3</ele>
        <time>2014-08-14T17:55:50Z</time>
        <sat>9</sat>
      </trkpt>
      <trkpt lat="47.064865" lon="-122.033670">
        <ele>415.8</ele>
        <time>2014-08-14T17:55:52Z</time>
        <sat>8</sat>
      </trkpt>
      <trkpt lat="47.065020" lon="-122.033590">
        <ele>415.3</ele>
        <time>2014-08-14T17:55:54Z</time>
        <sat>9</sat>
      </trkpt>
      <trkpt lat="47.065170" lon="-122.033516">
        <ele>414.9</ele>
        <time>2014-08-14T17:55:56Z</time>
        <sat>9</sat>
      </trkpt>
      <trkpt lat="47.065304" lon="-122.033453">
        <ele>414.7</ele>
        <time>2014-08-14T17:55:58Z</time>
        <sat>9</sat>
      </trkpt>
      <trkpt lat="47.065430" lon="-122.033395">
        <ele>414.6</ele>
        <time>2014-08-14T17:56:00Z</time>
        <sat>9</sat>
      </trkpt>
      <trkpt lat="47.065555" lon="-122.033330">
        <ele>414.3</ele>
        <time>2014-08-14T17:56:02Z</time>
        <sat>9</sat>
      </trkpt>
      <trkpt lat="47.065678" lon="-122.033280">
        <ele>414.1</ele>
        <time>2014-08-14T17:56:04Z</time>
        <sat>9</sat>
      </trkpt>
      <trkpt lat="47.065803" lon="-122.033216">
        <ele>413.8</ele>
        <time>2014-08-14T17:56:06Z</time>
        <sat>9</sat>
      </trkpt>
      <trkpt lat="47.065927" lon="-122.033155">
        <ele>413.5</ele>
        <time>2014-08-14T17:56:08Z</time>
        <sat>9</sat>
      </trkpt>
      <trkpt lat="47.066040" lon="-122.033090">
        <ele>413.1</ele>
        <time>2014-08-14T17:56:10Z</time>
        <sat>9</sat>
      </trkpt>
      <trkpt lat="47.066172" lon="-122.033047">
        <ele>412.8</ele>
        <time>2014-08-14T17:56:12Z</time>
        <sat>9</sat>
      </trkpt>
      <trkpt lat="47.066299" lon="-122.033003">
        <ele>412.7</ele>
        <time>2014-08-14T17:56:14Z</time>
        <sat>9</sat>
      </trkpt>
      <trkpt lat="47.066420" lon="-122.032963">
        <ele>412.3</ele>
        <time>2014-08-14T17:56:16Z</time>
        <sat>9</sat>
      </trkpt>
      <trkpt lat="47.066540" lon="-122.032927">
        <ele>412.4</ele>
        <time>2014-08-14T17:56:18Z</time>
        <sat>8</sat>
      </trkpt>
      <trkpt lat="47.066660" lon="-122.032880">
        <ele>412.4</ele>
        <time>2014-08-14T17:56:20Z</time>
        <sat>9</sat>
      </trkpt>
      <trkpt lat="47.066775" lon="-122.032828">
        <ele>412.3</ele>
        <time>2014-08-14T17:56:22Z</time>
        <sat>8</sat>
      </trkpt>
      <trkpt lat="47.066902" lon="-122.032793">
        <ele>411.9</ele>
        <time>2014-08-14T17:56:24Z</time>
        <sat>9</sat>
      </trkpt>
      <trkpt lat="47.067027" lon="-122.032763">
        <ele>411.8</ele>
        <time>2014-08-14T17:56:26Z</time>
        <sat>9</sat>
      </trkpt>
      <trkpt lat="47.067145" lon="-122.032730">
        <ele>411.7</ele>
        <time>2014-08-14T17:56:28Z</time>
        <sat>8</sat>
      </trkpt>
      <trkpt lat="47.067260" lon="-122.032698">
        <ele>411.8</ele>
        <time>2014-08-14T17:56:30Z</time>
        <sat>9</sat>
      </trkpt>
      <trkpt lat="47.067382" lon="-122.032682">
        <ele>411.5</ele>
        <time>2014-08-14T17:56:32Z</time>
        <sat>9</sat>
      </trkpt>
      <trkpt lat="47.067498" lon="-122.032663">
        <ele>411.7</ele>
        <time>2014-08-14T17:56:34Z</time>
        <sat>9</sat>
      </trkpt>
      <trkpt lat="47.067610" lon="-122.032640">
        <ele>411.6</ele>
        <time>2014-08-14T17:56:36Z</time>
        <sat>9</sat>
      </trkpt>
      <trkpt lat="47.067728" lon="-122.032623">
        <ele>411.5</ele>
        <time>2014-08-14T17:56:38Z</time>
        <sat>9</sat>
      </trkpt>
      <trkpt lat="47.067837" lon="-122.032598">
        <ele>411.3</ele>
        <time>2014-08-14T17:56:40Z</time>
        <sat>9</sat>
      </trkpt>
      <trkpt lat="47.067943" lon="-122.032573">
        <ele>411.5</ele>
        <time>2014-08-14T17:56:42Z</time>
        <sat>8</sat>
      </trkpt>
      <trkpt lat="47.068040" lon="-122.032538">
        <ele>411.4</ele>
        <time>2014-08-14T17:56:44Z</time>
        <sat>9</sat>
      </trkpt>
      <trkpt lat="47.068135" lon="-122.032511">
        <ele>411.5</ele>
        <time>2014-08-14T17:56:46Z</time>
        <sat>9</sat>
      </trkpt>
      <trkpt lat="47.068263" lon="-122.032477">
        <ele>411.8</ele>
        <time>2014-08-14T17:56:49Z</time>
        <sat>9</sat>
      </trkpt>
      <trkpt lat="47.068378" lon="-122.032440">
        <ele>412.2</ele>
        <time>2014-08-14T17:56:52Z</time>
        <sat>9</sat>
      </trkpt>
      <trkpt lat="47.068493" lon="-122.032396">
        <ele>412.7</ele>
        <time>2014-08-14T17:56:55Z</time>
        <sat>9</sat>
      </trkpt>
      <trkpt lat="47.068585" lon="-122.032372">
        <ele>412.9</ele>
        <time>2014-08-14T17:56:57Z</time>
        <sat>9</sat>
      </trkpt>
      <trkpt lat="47.068695" lon="-122.032325">
        <ele>413.2</ele>
        <time>2014-08-14T17:57:00Z</time>
        <sat>9</sat>
      </trkpt>
      <trkpt lat="47.068810" lon="-122.032268">
        <ele>413.1</ele>
        <time>2014-08-14T17:57:03Z</time>
        <sat>9</sat>
      </trkpt>
      <trkpt lat="47.068938" lon="-122.032225">
        <ele>412.9</ele>
        <time>2014-08-14T17:57:06Z</time>
        <sat>9</sat>
      </trkpt>
      <trkpt lat="47.069030" lon="-122.032198">
        <ele>412.7</ele>
        <time>2014-08-14T17:57:08Z</time>
        <sat>9</sat>
      </trkpt>
      <trkpt lat="47.069119" lon="-122.032168">
        <ele>412.9</ele>
        <time>2014-08-14T17:57:10Z</time>
        <sat>9</sat>
      </trkpt>
      <trkpt lat="47.069238" lon="-122.032135">
        <ele>412.8</ele>
        <time>2014-08-14T17:57:13Z</time>
        <sat>9</sat>
      </trkpt>
      <trkpt lat="47.069372" lon="-122.032103">
        <ele>412.4</ele>
        <time>2014-08-14T17:57:16Z</time>
        <sat>9</sat>
      </trkpt>
      <trkpt lat="47.069478" lon="-122.032088">
        <ele>412.4</ele>
        <time>2014-08-14T17:57:18Z</time>
        <sat>9</sat>
      </trkpt>
      <trkpt lat="47.069593" lon="-122.032070">
        <ele>412.1</ele>
        <time>2014-08-14T17:57:20Z</time>
        <sat>9</sat>
      </trkpt>
      <trkpt lat="47.069707" lon="-122.032043">
        <ele>411.8</ele>
        <time>2014-08-14T17:57:22Z</time>
        <sat>9</sat>
      </trkpt>
      <trkpt lat="47.069815" lon="-122.032015">
        <ele>411.3</ele>
        <time>2014-08-14T17:57:24Z</time>
        <sat>9</sat>
      </trkpt>
      <trkpt lat="47.069920" lon="-122.031963">
        <ele>410.8</ele>
        <time>2014-08-14T17:57:26Z</time>
        <sat>9</sat>
      </trkpt>
      <trkpt lat="47.070017" lon="-122.031883">
        <ele>410.2</ele>
        <time>2014-08-14T17:57:28Z</time>
        <sat>9</sat>
      </trkpt>
      <trkpt lat="47.070117" lon="-122.031805">
        <ele>409.7</ele>
        <time>2014-08-14T17:57:30Z</time>
        <sat>9</sat>
      </trkpt>
      <trkpt lat="47.070240" lon="-122.031706">
        <ele>408.7</ele>
        <time>2014-08-14T17:57:32Z</time>
        <sat>9</sat>
      </trkpt>
      <trkpt lat="47.070383" lon="-122.031610">
        <ele>407.7</ele>
        <time>2014-08-14T17:57:34Z</time>
        <sat>9</sat>
      </trkpt>
      <trkpt lat="47.070534" lon="-122.031488">
        <ele>406.9</ele>
        <time>2014-08-14T17:57:36Z</time>
        <sat>9</sat>
      </trkpt>
      <trkpt lat="47.070672" lon="-122.031365">
        <ele>406.0</ele>
        <time>2014-08-14T17:57:38Z</time>
        <sat>9</sat>
      </trkpt>
      <trkpt lat="47.070805" lon="-122.031237">
        <ele>405.6</ele>
        <time>2014-08-14T17:57:40Z</time>
        <sat>9</sat>
      </trkpt>
      <trkpt lat="47.070927" lon="-122.031100">
        <ele>405.1</ele>
        <time>2014-08-14T17:57:42Z</time>
        <sat>9</sat>
      </trkpt>
      <trkpt lat="47.071037" lon="-122.030951">
        <ele>404.7</ele>
        <time>2014-08-14T17:57:44Z</time>
        <sat>9</sat>
      </trkpt>
      <trkpt lat="47.071127" lon="-122.030783">
        <ele>404.3</ele>
        <time>2014-08-14T17:57:46Z</time>
        <sat>9</sat>
      </trkpt>
      <trkpt lat="47.071197" lon="-122.030603">
        <ele>404.2</ele>
        <time>2014-08-14T17:57:48Z</time>
        <sat>9</sat>
      </trkpt>
      <trkpt lat="47.071275" lon="-122.030435">
        <ele>404.2</ele>
        <time>2014-08-14T17:57:50Z</time>
        <sat>9</sat>
      </trkpt>
      <trkpt lat="47.071342" lon="-122.030265">
        <ele>403.9</ele>
        <time>2014-08-14T17:57:52Z</time>
        <sat>9</sat>
      </trkpt>
      <trkpt lat="47.071398" lon="-122.030096">
        <ele>404.0</ele>
        <time>2014-08-14T17:57:54Z</time>
        <sat>9</sat>
      </trkpt>
      <trkpt lat="47.071447" lon="-122.029921">
        <ele>403.9</ele>
        <time>2014-08-14T17:57:56Z</time>
        <sat>9</sat>
      </trkpt>
      <trkpt lat="47.071495" lon="-122.029743">
        <ele>403.8</ele>
        <time>2014-08-14T17:57:58Z</time>
        <sat>9</sat>
      </trkpt>
      <trkpt lat="47.071547" lon="-122.029562">
        <ele>403.5</ele>
        <time>2014-08-14T17:58:00Z</time>
        <sat>9</sat>
      </trkpt>
      <trkpt lat="47.071590" lon="-122.029376">
        <ele>403.2</ele>
        <time>2014-08-14T17:58:02Z</time>
        <sat>9</sat>
      </trkpt>
      <trkpt lat="47.071628" lon="-122.029191">
        <ele>403.3</ele>
        <time>2014-08-14T17:58:04Z</time>
        <sat>9</sat>
      </trkpt>
      <trkpt lat="47.071672" lon="-122.029026">
        <ele>403.4</ele>
        <time>2014-08-14T17:58:06Z</time>
        <sat>9</sat>
      </trkpt>
      <trkpt lat="47.071715" lon="-122.028872">
        <ele>403.5</ele>
        <time>2014-08-14T17:58:08Z</time>
        <sat>9</sat>
      </trkpt>
      <trkpt lat="47.071770" lon="-122.028740">
        <ele>403.7</ele>
        <time>2014-08-14T17:58:10Z</time>
        <sat>9</sat>
      </trkpt>
      <trkpt lat="47.071817" lon="-122.028600">
        <ele>403.5</ele>
        <time>2014-08-14T17:58:12Z</time>
        <sat>9</sat>
      </trkpt>
      <trkpt lat="47.071869" lon="-122.028473">
        <ele>403.7</ele>
        <time>2014-08-14T17:58:14Z</time>
        <sat>9</sat>
      </trkpt>
      <trkpt lat="47.071902" lon="-122.028330">
        <ele>403.7</ele>
        <time>2014-08-14T17:58:16Z</time>
        <sat>9</sat>
      </trkpt>
      <trkpt lat="47.071935" lon="-122.028190">
        <ele>404.0</ele>
        <time>2014-08-14T17:58:18Z</time>
        <sat>9</sat>
      </trkpt>
      <trkpt lat="47.071968" lon="-122.028045">
        <ele>404.0</ele>
        <time>2014-08-14T17:58:20Z</time>
        <sat>9</sat>
      </trkpt>
      <trkpt lat="47.071995" lon="-122.027897">
        <ele>404.2</ele>
        <time>2014-08-14T17:58:22Z</time>
        <sat>9</sat>
      </trkpt>
      <trkpt lat="47.072030" lon="-122.027760">
        <ele>404.1</ele>
        <time>2014-08-14T17:58:24Z</time>
        <sat>9</sat>
      </trkpt>
      <trkpt lat="47.072063" lon="-122.027616">
        <ele>403.9</ele>
        <time>2014-08-14T17:58:26Z</time>
        <sat>9</sat>
      </trkpt>
      <trkpt lat="47.072102" lon="-122.027480">
        <ele>404.0</ele>
        <time>2014-08-14T17:58:28Z</time>
        <sat>9</sat>
      </trkpt>
      <trkpt lat="47.072122" lon="-122.027325">
        <ele>403.9</ele>
        <time>2014-08-14T17:58:30Z</time>
        <sat>9</sat>
      </trkpt>
      <trkpt lat="47.072153" lon="-122.027168">
        <ele>403.6</ele>
        <time>2014-08-14T17:58:32Z</time>
        <sat>9</sat>
      </trkpt>
      <trkpt lat="47.072184" lon="-122.027030">
        <ele>403.6</ele>
        <time>2014-08-14T17:58:34Z</time>
        <sat>9</sat>
      </trkpt>
      <trkpt lat="47.072229" lon="-122.026858">
        <ele>403.8</ele>
        <time>2014-08-14T17:58:37Z</time>
        <sat>9</sat>
      </trkpt>
      <trkpt lat="47.072270" lon="-122.026693">
        <ele>403.6</ele>
        <time>2014-08-14T17:58:40Z</time>
        <sat>9</sat>
      </trkpt>
      <trkpt lat="47.072295" lon="-122.026563">
        <ele>403.7</ele>
        <time>2014-08-14T17:58:42Z</time>
        <sat>9</sat>
      </trkpt>
      <trkpt lat="47.072319" lon="-122.026432">
        <ele>403.8</ele>
        <time>2014-08-14T17:58:44Z</time>
        <sat>9</sat>
      </trkpt>
      <trkpt lat="47.072355" lon="-122.026276">
        <ele>403.9</ele>
        <time>2014-08-14T17:58:47Z</time>
        <sat>9</sat>
      </trkpt>
      <trkpt lat="47.072392" lon="-122.026121">
        <ele>403.9</ele>
        <time>2014-08-14T17:58:51Z</time>
        <sat>9</sat>
      </trkpt>
      <trkpt lat="47.072444" lon="-122.026011">
        <ele>404.0</ele>
        <time>2014-08-14T17:58:56Z</time>
        <sat>9</sat>
      </trkpt>
      <trkpt lat="47.072487" lon="-122.025895">
        <ele>403.8</ele>
        <time>2014-08-14T17:59:00Z</time>
        <sat>9</sat>
      </trkpt>
      <trkpt lat="47.072533" lon="-122.025735">
        <ele>403.5</ele>
        <time>2014-08-14T17:59:04Z</time>
        <sat>9</sat>
      </trkpt>
      <trkpt lat="47.072575" lon="-122.025555">
        <ele>403.5</ele>
        <time>2014-08-14T17:59:07Z</time>
        <sat>9</sat>
      </trkpt>
      <trkpt lat="47.072623" lon="-122.025420">
        <ele>403.5</ele>
        <time>2014-08-14T17:59:10Z</time>
        <sat>9</sat>
      </trkpt>
      <trkpt lat="47.072672" lon="-122.025265">
        <ele>403.3</ele>
        <time>2014-08-14T17:59:13Z</time>
        <sat>9</sat>
      </trkpt>
      <trkpt lat="47.072733" lon="-122.025150">
        <ele>403.8</ele>
        <time>2014-08-14T17:59:16Z</time>
        <sat>9</sat>
      </trkpt>
      <trkpt lat="47.072782" lon="-122.025021">
        <ele>403.9</ele>
        <time>2014-08-14T17:59:19Z</time>
        <sat>9</sat>
      </trkpt>
      <trkpt lat="47.072827" lon="-122.024857">
        <ele>404.1</ele>
        <time>2014-08-14T17:59:22Z</time>
        <sat>9</sat>
      </trkpt>
      <trkpt lat="47.072870" lon="-122.024690">
        <ele>404.4</ele>
        <time>2014-08-14T17:59:25Z</time>
        <sat>9</sat>
      </trkpt>
      <trkpt lat="47.072907" lon="-122.024568">
        <ele>404.5</ele>
        <time>2014-08-14T17:59:27Z</time>
        <sat>9</sat>
      </trkpt>
      <trkpt lat="47.072973" lon="-122.024435">
        <ele>404.4</ele>
        <time>2014-08-14T17:59:30Z</time>
        <sat>9</sat>
      </trkpt>
      <trkpt lat="47.073029" lon="-122.024286">
        <ele>404.6</ele>
        <time>2014-08-14T17:59:33Z</time>
        <sat>9</sat>
      </trkpt>
      <trkpt lat="47.073080" lon="-122.024126">
        <ele>404.5</ele>
        <time>2014-08-14T17:59:36Z</time>
        <sat>9</sat>
      </trkpt>
      <trkpt lat="47.073145" lon="-122.023972">
        <ele>404.5</ele>
        <time>2014-08-14T17:59:39Z</time>
        <sat>9</sat>
      </trkpt>
      <trkpt lat="47.073155" lon="-122.023825">
        <ele>404.5</ele>
        <time>2014-08-14T17:59:41Z</time>
        <sat>9</sat>
      </trkpt>
      <trkpt lat="47.073192" lon="-122.023630">
        <ele>404.3</ele>
        <time>2014-08-14T17:59:44Z</time>
        <sat>9</sat>
      </trkpt>
      <trkpt lat="47.073205" lon="-122.023471">
        <ele>404.1</ele>
        <time>2014-08-14T17:59:46Z</time>
        <sat>9</sat>
      </trkpt>
      <trkpt lat="47.073235" lon="-122.023278">
        <ele>403.8</ele>
        <time>2014-08-14T17:59:49Z</time>
        <sat>9</sat>
      </trkpt>
      <trkpt lat="47.073275" lon="-122.023150">
        <ele>403.6</ele>
        <time>2014-08-14T17:59:51Z</time>
        <sat>9</sat>
      </trkpt>
      <trkpt lat="47.073302" lon="-122.023000">
        <ele>403.6</ele>
        <time>2014-08-14T17:59:53Z</time>
        <sat>9</sat>
      </trkpt>
      <trkpt lat="47.073358" lon="-122.022821">
        <ele>403.2</ele>
        <time>2014-08-14T17:59:56Z</time>
        <sat>9</sat>
      </trkpt>
      <trkpt lat="47.073392" lon="-122.022691">
        <ele>402.9</ele>
        <time>2014-08-14T17:59:58Z</time>
        <sat>9</sat>
      </trkpt>
      <trkpt lat="47.073435" lon="-122.022571">
        <ele>402.5</ele>
        <time>2014-08-14T18:00:00Z</time>
        <sat>9</sat>
      </trkpt>
      <trkpt lat="47.073473" lon="-122.022438">
        <ele>402.2</ele>
        <time>2014-08-14T18:00:02Z</time>
        <sat>9</sat>
      </trkpt>
      <trkpt lat="47.073503" lon="-122.022270">
        <ele>401.6</ele>
        <time>2014-08-14T18:00:04Z</time>
        <sat>9</sat>
      </trkpt>
      <trkpt lat="47.073547" lon="-122.022115">
        <ele>401.1</ele>
        <time>2014-08-14T18:00:06Z</time>
        <sat>9</sat>
      </trkpt>
      <trkpt lat="47.073603" lon="-122.021963">
        <ele>400.6</ele>
        <time>2014-08-14T18:00:08Z</time>
        <sat>9</sat>
      </trkpt>
      <trkpt lat="47.073635" lon="-122.021803">
        <ele>400.0</ele>
        <time>2014-08-14T18:00:10Z</time>
        <sat>9</sat>
      </trkpt>
      <trkpt lat="47.073669" lon="-122.021618">
        <ele>399.1</ele>
        <time>2014-08-14T18:00:12Z</time>
        <sat>9</sat>
      </trkpt>
      <trkpt lat="47.073712" lon="-122.021438">
        <ele>398.3</ele>
        <time>2014-08-14T18:00:14Z</time>
        <sat>9</sat>
      </trkpt>
      <trkpt lat="47.073755" lon="-122.021262">
        <ele>397.4</ele>
        <time>2014-08-14T18:00:16Z</time>
        <sat>9</sat>
      </trkpt>
      <trkpt lat="47.073790" lon="-122.021070">
        <ele>396.5</ele>
        <time>2014-08-14T18:00:18Z</time>
        <sat>9</sat>
      </trkpt>
      <trkpt lat="47.073828" lon="-122.020888">
        <ele>395.7</ele>
        <time>2014-08-14T18:00:20Z</time>
        <sat>9</sat>
      </trkpt>
      <trkpt lat="47.073858" lon="-122.020691">
        <ele>395.1</ele>
        <time>2014-08-14T18:00:22Z</time>
        <sat>9</sat>
      </trkpt>
      <trkpt lat="47.073902" lon="-122.020485">
        <ele>393.9</ele>
        <time>2014-08-14T18:00:24Z</time>
        <sat>9</sat>
      </trkpt>
      <trkpt lat="47.073957" lon="-122.020277">
        <ele>392.4</ele>
        <time>2014-08-14T18:00:26Z</time>
        <sat>9</sat>
      </trkpt>
      <trkpt lat="47.074035" lon="-122.020070">
        <ele>390.5</ele>
        <time>2014-08-14T18:00:28Z</time>
        <sat>9</sat>
      </trkpt>
      <trkpt lat="47.074115" lon="-122.019875">
        <ele>388.6</ele>
        <time>2014-08-14T18:00:30Z</time>
        <sat>9</sat>
      </trkpt>
      <trkpt lat="47.074215" lon="-122.019698">
        <ele>386.5</ele>
        <time>2014-08-14T18:00:32Z</time>
        <sat>9</sat>
      </trkpt>
      <trkpt lat="47.074327" lon="-122.019502">
        <ele>384.6</ele>
        <time>2014-08-14T18:00:34Z</time>
        <sat>9</sat>
      </trkpt>
      <trkpt lat="47.074397" lon="-122.019395">
        <ele>383.4</ele>
        <time>2014-08-14T18:00:35Z</time>
        <sat>9</sat>
      </trkpt>
      <trkpt lat="47.074465" lon="-122.019290">
        <ele>382.5</ele>
        <time>2014-08-14T18:00:36Z</time>
        <sat>9</sat>
      </trkpt>
      <trkpt lat="47.074533" lon="-122.019192">
        <ele>381.1</ele>
        <time>2014-08-14T18:00:37Z</time>
        <sat>9</sat>
      </trkpt>
      <trkpt lat="47.074602" lon="-122.019092">
        <ele>379.8</ele>
        <time>2014-08-14T18:00:38Z</time>
        <sat>9</sat>
      </trkpt>
      <trkpt lat="47.074655" lon="-122.018977">
        <ele>378.3</ele>
        <time>2014-08-14T18:00:39Z</time>
        <sat>9</sat>
      </trkpt>
      <trkpt lat="47.074713" lon="-122.018843">
        <ele>376.4</ele>
        <time>2014-08-14T18:00:40Z</time>
        <sat>9</sat>
      </trkpt>
      <trkpt lat="47.074780" lon="-122.018700">
        <ele>374.8</ele>
        <time>2014-08-14T18:00:41Z</time>
        <sat>9</sat>
      </trkpt>
      <trkpt lat="47.074852" lon="-122.018553">
        <ele>372.9</ele>
        <time>2014-08-14T18:00:42Z</time>
        <sat>9</sat>
      </trkpt>
      <trkpt lat="47.074927" lon="-122.018405">
        <ele>371.0</ele>
        <time>2014-08-14T18:00:43Z</time>
        <sat>9</sat>
      </trkpt>
      <trkpt lat="47.075007" lon="-122.018263">
        <ele>369.1</ele>
        <time>2014-08-14T18:00:44Z</time>
        <sat>9</sat>
      </trkpt>
      <trkpt lat="47.075089" lon="-122.018125">
        <ele>367.4</ele>
        <time>2014-08-14T18:00:45Z</time>
        <sat>9</sat>
      </trkpt>
      <trkpt lat="47.075168" lon="-122.017988">
        <ele>365.6</ele>
        <time>2014-08-14T18:00:46Z</time>
        <sat>9</sat>
      </trkpt>
      <trkpt lat="47.075245" lon="-122.017857">
        <ele>364.3</ele>
        <time>2014-08-14T18:00:47Z</time>
        <sat>9</sat>
      </trkpt>
      <trkpt lat="47.075322" lon="-122.017735">
        <ele>362.8</ele>
        <time>2014-08-14T18:00:48Z</time>
        <sat>9</sat>
      </trkpt>
      <trkpt lat="47.075397" lon="-122.017658">
        <ele>361.5</ele>
        <time>2014-08-14T18:00:49Z</time>
        <sat>9</sat>
      </trkpt>
      <trkpt lat="47.075490" lon="-122.017570">
        <ele>360.0</ele>
        <time>2014-08-14T18:00:50Z</time>
        <sat>9</sat>
      </trkpt>
      <trkpt lat="47.075592" lon="-122.017482">
        <ele>358.7</ele>
        <time>2014-08-14T18:00:51Z</time>
        <sat>9</sat>
      </trkpt>
      <trkpt lat="47.075690" lon="-122.017402">
        <ele>357.5</ele>
        <time>2014-08-14T18:00:52Z</time>
        <sat>9</sat>
      </trkpt>
      <trkpt lat="47.075780" lon="-122.017316">
        <ele>356.4</ele>
        <time>2014-08-14T18:00:53Z</time>
        <sat>9</sat>
      </trkpt>
      <trkpt lat="47.075870" lon="-122.017231">
        <ele>355.3</ele>
        <time>2014-08-14T18:00:54Z</time>
        <sat>9</sat>
      </trkpt>
      <trkpt lat="47.075967" lon="-122.017123">
        <ele>354.4</ele>
        <time>2014-08-14T18:00:55Z</time>
        <sat>9</sat>
      </trkpt>
      <trkpt lat="47.076062" lon="-122.017030">
        <ele>353.5</ele>
        <time>2014-08-14T18:00:56Z</time>
        <sat>9</sat>
      </trkpt>
      <trkpt lat="47.076145" lon="-122.016923">
        <ele>352.6</ele>
        <time>2014-08-14T18:00:57Z</time>
        <sat>9</sat>
      </trkpt>
      <trkpt lat="47.076242" lon="-122.016825">
        <ele>352.1</ele>
        <time>2014-08-14T18:00:58Z</time>
        <sat>9</sat>
      </trkpt>
      <trkpt lat="47.076342" lon="-122.016730">
        <ele>351.4</ele>
        <time>2014-08-14T18:00:59Z</time>
        <sat>9</sat>
      </trkpt>
      <trkpt lat="47.076454" lon="-122.016650">
        <ele>350.4</ele>
        <time>2014-08-14T18:01:00Z</time>
        <sat>9</sat>
      </trkpt>
      <trkpt lat="47.076558" lon="-122.016558">
        <ele>349.4</ele>
        <time>2014-08-14T18:01:01Z</time>
        <sat>9</sat>
      </trkpt>
      <trkpt lat="47.076650" lon="-122.016453">
        <ele>348.4</ele>
        <time>2014-08-14T18:01:02Z</time>
        <sat>9</sat>
      </trkpt>
      <trkpt lat="47.076747" lon="-122.016348">
        <ele>347.5</ele>
        <time>2014-08-14T18:01:03Z</time>
        <sat>9</sat>
      </trkpt>
      <trkpt lat="47.076840" lon="-122.016247">
        <ele>346.6</ele>
        <time>2014-08-14T18:01:04Z</time>
        <sat>9</sat>
      </trkpt>
      <trkpt lat="47.076930" lon="-122.016145">
        <ele>345.8</ele>
        <time>2014-08-14T18:01:05Z</time>
        <sat>9</sat>
      </trkpt>
      <trkpt lat="47.077027" lon="-122.016048">
        <ele>345.1</ele>
        <time>2014-08-14T18:01:06Z</time>
        <sat>9</sat>
      </trkpt>
      <trkpt lat="47.077112" lon="-122.015953">
        <ele>344.4</ele>
        <time>2014-08-14T18:01:07Z</time>
        <sat>9</sat>
      </trkpt>
      <trkpt lat="47.077192" lon="-122.015866">
        <ele>343.5</ele>
        <time>2014-08-14T18:01:08Z</time>
        <sat>9</sat>
      </trkpt>
      <trkpt lat="47.077265" lon="-122.015781">
        <ele>342.7</ele>
        <time>2014-08-14T18:01:09Z</time>
        <sat>9</sat>
      </trkpt>
      <trkpt lat="47.077347" lon="-122.015712">
        <ele>341.9</ele>
        <time>2014-08-14T18:01:10Z</time>
        <sat>9</sat>
      </trkpt>
      <trkpt lat="47.077520" lon="-122.015607">
        <ele>340.0</ele>
        <time>2014-08-14T18:01:12Z</time>
        <sat>9</sat>
      </trkpt>
      <trkpt lat="47.077609" lon="-122.015571">
        <ele>339.1</ele>
        <time>2014-08-14T18:01:13Z</time>
        <sat>9</sat>
      </trkpt>
      <trkpt lat="47.077780" lon="-122.015508">
        <ele>337.6</ele>
        <time>2014-08-14T18:01:15Z</time>
        <sat>9</sat>
      </trkpt>
      <trkpt lat="47.077945" lon="-122.015426">
        <ele>336.0</ele>
        <time>2014-08-14T18:01:17Z</time>
        <sat>9</sat>
      </trkpt>
      <trkpt lat="47.078113" lon="-122.015330">
        <ele>334.1</ele>
        <time>2014-08-14T18:01:19Z</time>
        <sat>9</sat>
      </trkpt>
      <trkpt lat="47.078205" lon="-122.015293">
        <ele>333.1</ele>
        <time>2014-08-14T18:01:20Z</time>
        <sat>9</sat>
      </trkpt>
      <trkpt lat="47.078303" lon="-122.015255">
        <ele>332.4</ele>
        <time>2014-08-14T18:01:21Z</time>
        <sat>9</sat>
      </trkpt>
      <trkpt lat="47.078412" lon="-122.015223">
        <ele>331.4</ele>
        <time>2014-08-14T18:01:22Z</time>
        <sat>9</sat>
      </trkpt>
      <trkpt lat="47.078510" lon="-122.015193">
        <ele>330.4</ele>
        <time>2014-08-14T18:01:23Z</time>
        <sat>9</sat>
      </trkpt>
      <trkpt lat="47.078614" lon="-122.015175">
        <ele>329.5</ele>
        <time>2014-08-14T18:01:24Z</time>
        <sat>9</sat>
      </trkpt>
      <trkpt lat="47.078715" lon="-122.015162">
        <ele>328.4</ele>
        <time>2014-08-14T18:01:25Z</time>
        <sat>9</sat>
      </trkpt>
      <trkpt lat="47.078810" lon="-122.015157">
        <ele>327.3</ele>
        <time>2014-08-14T18:01:26Z</time>
        <sat>9</sat>
      </trkpt>
      <trkpt lat="47.078905" lon="-122.015183">
        <ele>326.3</ele>
        <time>2014-08-14T18:01:27Z</time>
        <sat>9</sat>
      </trkpt>
      <trkpt lat="47.079005" lon="-122.015226">
        <ele>325.2</ele>
        <time>2014-08-14T18:01:28Z</time>
        <sat>9</sat>
      </trkpt>
      <trkpt lat="47.079120" lon="-122.015288">
        <ele>324.2</ele>
        <time>2014-08-14T18:01:29Z</time>
        <sat>9</sat>
      </trkpt>
      <trkpt lat="47.079229" lon="-122.015340">
        <ele>323.1</ele>
        <time>2014-08-14T18:01:30Z</time>
        <sat>9</sat>
      </trkpt>
      <trkpt lat="47.079337" lon="-122.015383">
        <ele>322.5</ele>
        <time>2014-08-14T18:01:31Z</time>
        <sat>9</sat>
      </trkpt>
      <trkpt lat="47.079452" lon="-122.015423">
        <ele>321.6</ele>
        <time>2014-08-14T18:01:32Z</time>
        <sat>9</sat>
      </trkpt>
      <trkpt lat="47.079569" lon="-122.015450">
        <ele>320.5</ele>
        <time>2014-08-14T18:01:33Z</time>
        <sat>9</sat>
      </trkpt>
      <trkpt lat="47.079690" lon="-122.015461">
        <ele>319.4</ele>
        <time>2014-08-14T18:01:34Z</time>
        <sat>9</sat>
      </trkpt>
      <trkpt lat="47.079815" lon="-122.015463">
        <ele>318.1</ele>
        <time>2014-08-14T18:01:35Z</time>
        <sat>9</sat>
      </trkpt>
      <trkpt lat="47.079937" lon="-122.015445">
        <ele>317.1</ele>
        <time>2014-08-14T18:01:36Z</time>
        <sat>9</sat>
      </trkpt>
      <trkpt lat="47.080052" lon="-122.015413">
        <ele>316.0</ele>
        <time>2014-08-14T18:01:37Z</time>
        <sat>9</sat>
      </trkpt>
      <trkpt lat="47.080155" lon="-122.015378">
        <ele>315.0</ele>
        <time>2014-08-14T18:01:38Z</time>
        <sat>9</sat>
      </trkpt>
      <trkpt lat="47.080259" lon="-122.015348">
        <ele>313.9</ele>
        <time>2014-08-14T18:01:39Z</time>
        <sat>9</sat>
      </trkpt>
      <trkpt lat="47.080369" lon="-122.015326">
        <ele>312.5</ele>
        <time>2014-08-14T18:01:40Z</time>
        <sat>9</sat>
      </trkpt>
      <trkpt lat="47.080475" lon="-122.015313">
        <ele>311.4</ele>
        <time>2014-08-14T18:01:41Z</time>
        <sat>9</sat>
      </trkpt>
      <trkpt lat="47.080577" lon="-122.015293">
        <ele>310.1</ele>
        <time>2014-08-14T18:01:42Z</time>
        <sat>9</sat>
      </trkpt>
      <trkpt lat="47.080683" lon="-122.015272">
        <ele>308.9</ele>
        <time>2014-08-14T18:01:43Z</time>
        <sat>9</sat>
      </trkpt>
      <trkpt lat="47.080787" lon="-122.015238">
        <ele>307.6</ele>
        <time>2014-08-14T18:01:44Z</time>
        <sat>9</sat>
      </trkpt>
      <trkpt lat="47.080883" lon="-122.015213">
        <ele>306.3</ele>
        <time>2014-08-14T18:01:45Z</time>
        <sat>9</sat>
      </trkpt>
      <trkpt lat="47.080983" lon="-122.015190">
        <ele>305.2</ele>
        <time>2014-08-14T18:01:46Z</time>
        <sat>9</sat>
      </trkpt>
      <trkpt lat="47.081082" lon="-122.015170">
        <ele>304.0</ele>
        <time>2014-08-14T18:01:47Z</time>
        <sat>9</sat>
      </trkpt>
      <trkpt lat="47.081179" lon="-122.015160">
        <ele>302.8</ele>
        <time>2014-08-14T18:01:48Z</time>
        <sat>9</sat>
      </trkpt>
      <trkpt lat="47.081270" lon="-122.015145">
        <ele>301.5</ele>
        <time>2014-08-14T18:01:49Z</time>
        <sat>9</sat>
      </trkpt>
      <trkpt lat="47.081365" lon="-122.015150">
        <ele>300.4</ele>
        <time>2014-08-14T18:01:50Z</time>
        <sat>9</sat>
      </trkpt>
      <trkpt lat="47.081453" lon="-122.015206">
        <ele>299.3</ele>
        <time>2014-08-14T18:01:51Z</time>
        <sat>9</sat>
      </trkpt>
      <trkpt lat="47.081555" lon="-122.015228">
        <ele>298.0</ele>
        <time>2014-08-14T18:01:52Z</time>
        <sat>9</sat>
      </trkpt>
      <trkpt lat="47.081657" lon="-122.015233">
        <ele>297.1</ele>
        <time>2014-08-14T18:01:53Z</time>
        <sat>9</sat>
      </trkpt>
      <trkpt lat="47.081765" lon="-122.015226">
        <ele>296.1</ele>
        <time>2014-08-14T18:01:54Z</time>
        <sat>9</sat>
      </trkpt>
      <trkpt lat="47.081867" lon="-122.015215">
        <ele>295.0</ele>
        <time>2014-08-14T18:01:55Z</time>
        <sat>9</sat>
      </trkpt>
      <trkpt lat="47.081980" lon="-122.015196">
        <ele>293.8</ele>
        <time>2014-08-14T18:01:56Z</time>
        <sat>9</sat>
      </trkpt>
      <trkpt lat="47.082088" lon="-122.015180">
        <ele>292.8</ele>
        <time>2014-08-14T18:01:57Z</time>
        <sat>9</sat>
      </trkpt>
      <trkpt lat="47.082190" lon="-122.015168">
        <ele>291.6</ele>
        <time>2014-08-14T18:01:58Z</time>
        <sat>9</sat>
      </trkpt>
      <trkpt lat="47.082290" lon="-122.015152">
        <ele>290.6</ele>
        <time>2014-08-14T18:01:59Z</time>
        <sat>9</sat>
      </trkpt>
      <trkpt lat="47.082384" lon="-122.015135">
        <ele>289.4</ele>
        <time>2014-08-14T18:02:00Z</time>
        <sat>9</sat>
      </trkpt>
      <trkpt lat="47.082475" lon="-122.015132">
        <ele>288.4</ele>
        <time>2014-08-14T18:02:01Z</time>
        <sat>9</sat>
      </trkpt>
      <trkpt lat="47.082569" lon="-122.015143">
        <ele>287.3</ele>
        <time>2014-08-14T18:02:02Z</time>
        <sat>9</sat>
      </trkpt>
      <trkpt lat="47.082663" lon="-122.015180">
        <ele>286.4</ele>
        <time>2014-08-14T18:02:03Z</time>
        <sat>9</sat>
      </trkpt>
      <trkpt lat="47.082760" lon="-122.015213">
        <ele>285.8</ele>
        <time>2014-08-14T18:02:04Z</time>
        <sat>9</sat>
      </trkpt>
      <trkpt lat="47.082892" lon="-122.015281">
        <ele>285.0</ele>
        <time>2014-08-14T18:02:05Z</time>
        <sat>9</sat>
      </trkpt>
      <trkpt lat="47.083044" lon="-122.015348">
        <ele>283.7</ele>
        <time>2014-08-14T18:02:07Z</time>
        <sat>9</sat>
      </trkpt>
      <trkpt lat="47.083167" lon="-122.015336">
        <ele>283.2</ele>
        <time>2014-08-14T18:02:08Z</time>
        <sat>9</sat>
      </trkpt>
      <trkpt lat="47.083297" lon="-122.015326">
        <ele>283.0</ele>
        <time>2014-08-14T18:02:09Z</time>
        <sat>9</sat>
      </trkpt>
      <trkpt lat="47.083400" lon="-122.015315">
        <ele>282.5</ele>
        <time>2014-08-14T18:02:10Z</time>
        <sat>9</sat>
      </trkpt>
      <trkpt lat="47.083570" lon="-122.015301">
        <ele>281.8</ele>
        <time>2014-08-14T18:02:12Z</time>
        <sat>9</sat>
      </trkpt>
      <trkpt lat="47.083722" lon="-122.015303">
        <ele>280.8</ele>
        <time>2014-08-14T18:02:14Z</time>
        <sat>9</sat>
      </trkpt>
      <trkpt lat="47.083888" lon="-122.015298">
        <ele>280.0</ele>
        <time>2014-08-14T18:02:16Z</time>
        <sat>9</sat>
      </trkpt>
      <trkpt lat="47.084042" lon="-122.015287">
        <ele>279.5</ele>
        <time>2014-08-14T18:02:18Z</time>
        <sat>9</sat>
      </trkpt>
      <trkpt lat="47.084184" lon="-122.015257">
        <ele>279.1</ele>
        <time>2014-08-14T18:02:20Z</time>
        <sat>9</sat>
      </trkpt>
      <trkpt lat="47.084335" lon="-122.015303">
        <ele>279.2</ele>
        <time>2014-08-14T18:02:22Z</time>
        <sat>9</sat>
      </trkpt>
      <trkpt lat="47.084463" lon="-122.015313">
        <ele>279.5</ele>
        <time>2014-08-14T18:02:24Z</time>
        <sat>9</sat>
      </trkpt>
      <trkpt lat="47.084555" lon="-122.015311">
        <ele>279.4</ele>
        <time>2014-08-14T18:02:25Z</time>
        <sat>9</sat>
      </trkpt>
      <trkpt lat="47.084710" lon="-122.015308">
        <ele>279.1</ele>
        <time>2014-08-14T18:02:27Z</time>
        <sat>9</sat>
      </trkpt>
      <trkpt lat="47.084870" lon="-122.015310">
        <ele>278.6</ele>
        <time>2014-08-14T18:02:29Z</time>
        <sat>9</sat>
      </trkpt>
      <trkpt lat="47.085028" lon="-122.015335">
        <ele>277.9</ele>
        <time>2014-08-14T18:02:31Z</time>
        <sat>9</sat>
      </trkpt>
      <trkpt lat="47.085164" lon="-122.015357">
        <ele>277.1</ele>
        <time>2014-08-14T18:02:33Z</time>
        <sat>9</sat>
      </trkpt>
      <trkpt lat="47.085312" lon="-122.015396">
        <ele>276.0</ele>
        <time>2014-08-14T18:02:35Z</time>
        <sat>9</sat>
      </trkpt>
      <trkpt lat="47.085457" lon="-122.015445">
        <ele>274.5</ele>
        <time>2014-08-14T18:02:37Z</time>
        <sat>9</sat>
      </trkpt>
      <trkpt lat="47.085547" lon="-122.015475">
        <ele>273.6</ele>
        <time>2014-08-14T18:02:38Z</time>
        <sat>8</sat>
      </trkpt>
      <trkpt lat="47.085700" lon="-122.015533">
        <ele>271.7</ele>
        <time>2014-08-14T18:02:40Z</time>
        <sat>9</sat>
      </trkpt>
      <trkpt lat="47.085803" lon="-122.015570">
        <ele>270.8</ele>
        <time>2014-08-14T18:02:41Z</time>
        <sat>8</sat>
      </trkpt>
      <trkpt lat="47.085970" lon="-122.015623">
        <ele>268.2</ele>
        <time>2014-08-14T18:02:43Z</time>
        <sat>9</sat>
      </trkpt>
      <trkpt lat="47.086060" lon="-122.015678">
        <ele>267.4</ele>
        <time>2014-08-14T18:02:44Z</time>
        <sat>8</sat>
      </trkpt>
      <trkpt lat="47.086222" lon="-122.015775">
        <ele>265.4</ele>
        <time>2014-08-14T18:02:46Z</time>
        <sat>9</sat>
      </trkpt>
      <trkpt lat="47.086903" lon="-122.016472">
        <ele>260.0</ele>
        <time>2014-08-14T18:02:51Z</time>
        <sat>8</sat>
      </trkpt>
      <trkpt lat="47.087402" lon="-122.016786">
        <ele>256.7</ele>
        <time>2014-08-14T18:02:56Z</time>
        <sat>8</sat>
      </trkpt>
      <trkpt lat="47.087492" lon="-122.016817">
        <ele>256.4</ele>
        <time>2014-08-14T18:02:57Z</time>
        <sat>8</sat>
      </trkpt>
      <trkpt lat="47.087660" lon="-122.016868">
        <ele>256.0</ele>
        <time>2014-08-14T18:02:59Z</time>
        <sat>8</sat>
      </trkpt>
      <trkpt lat="47.087802" lon="-122.016878">
        <ele>255.5</ele>
        <time>2014-08-14T18:03:01Z</time>
        <sat>8</sat>
      </trkpt>
      <trkpt lat="47.087979" lon="-122.016913">
        <ele>255.3</ele>
        <time>2014-08-14T18:03:03Z</time>
        <sat>8</sat>
      </trkpt>
      <trkpt lat="47.088137" lon="-122.016937">
        <ele>254.9</ele>
        <time>2014-08-14T18:03:05Z</time>
        <sat>8</sat>
      </trkpt>
      <trkpt lat="47.088305" lon="-122.016978">
        <ele>254.7</ele>
        <time>2014-08-14T18:03:07Z</time>
        <sat>8</sat>
      </trkpt>
      <trkpt lat="47.088449" lon="-122.017037">
        <ele>254.1</ele>
        <time>2014-08-14T18:03:09Z</time>
        <sat>8</sat>
      </trkpt>
      <trkpt lat="47.088592" lon="-122.017093">
        <ele>253.8</ele>
        <time>2014-08-14T18:03:11Z</time>
        <sat>8</sat>
      </trkpt>
      <trkpt lat="47.088750" lon="-122.017165">
        <ele>253.5</ele>
        <time>2014-08-14T18:03:13Z</time>
        <sat>9</sat>
      </trkpt>
      <trkpt lat="47.088889" lon="-122.017228">
        <ele>253.1</ele>
        <time>2014-08-14T18:03:15Z</time>
        <sat>9</sat>
      </trkpt>
      <trkpt lat="47.089030" lon="-122.017278">
        <ele>252.9</ele>
        <time>2014-08-14T18:03:17Z</time>
        <sat>9</sat>
      </trkpt>
      <trkpt lat="47.089175" lon="-122.017298">
        <ele>252.8</ele>
        <time>2014-08-14T18:03:19Z</time>
        <sat>9</sat>
      </trkpt>
      <trkpt lat="47.089309" lon="-122.017252">
        <ele>252.7</ele>
        <time>2014-08-14T18:03:21Z</time>
        <sat>9</sat>
      </trkpt>
      <trkpt lat="47.089417" lon="-122.017177">
        <ele>252.9</ele>
        <time>2014-08-14T18:03:23Z</time>
        <sat>9</sat>
      </trkpt>
      <trkpt lat="47.089500" lon="-122.017088">
        <ele>253.1</ele>
        <time>2014-08-14T18:03:25Z</time>
        <sat>9</sat>
      </trkpt>
      <trkpt lat="47.089598" lon="-122.016983">
        <ele>253.1</ele>
        <time>2014-08-14T18:03:28Z</time>
        <sat>9</sat>
      </trkpt>
      <trkpt lat="47.089677" lon="-122.016895">
        <ele>253.6</ele>
        <time>2014-08-14T18:03:31Z</time>
        <sat>9</sat>
      </trkpt>
      <trkpt lat="47.089764" lon="-122.016840">
        <ele>253.8</ele>
        <time>2014-08-14T18:03:35Z</time>
        <sat>9</sat>
      </trkpt>
      <trkpt lat="47.089845" lon="-122.016753">
        <ele>254.8</ele>
        <time>2014-08-14T18:03:46Z</time>
        <sat>9</sat>
      </trkpt>
      <trkpt lat="47.089885" lon="-122.016920">
        <ele>255.0</ele>
        <time>2014-08-14T18:03:53Z</time>
        <sat>9</sat>
      </trkpt>
      <trkpt lat="47.089965" lon="-122.017050">
        <ele>255.7</ele>
        <time>2014-08-14T18:04:02Z</time>
        <sat>9</sat>
      </trkpt>
      <trkpt lat="47.090045" lon="-122.017160">
        <ele>258.7</ele>
        <time>2014-08-14T18:04:17Z</time>
        <sat>8</sat>
      </trkpt>
      <trkpt lat="47.090125" lon="-122.017235">
        <ele>260.1</ele>
        <time>2014-08-14T18:04:25Z</time>
        <sat>9</sat>
      </trkpt>
      <trkpt lat="47.090167" lon="-122.017367">
        <ele>262.1</ele>
        <time>2014-08-14T18:04:41Z</time>
        <sat>9</sat>
      </trkpt>
      <trkpt lat="47.090210" lon="-122.017507">
        <ele>263.2</ele>
        <time>2014-08-14T18:04:47Z</time>
        <sat>9</sat>
      </trkpt>
      <trkpt lat="47.090237" lon="-122.017640">
        <ele>263.9</ele>
        <time>2014-08-14T18:04:51Z</time>
        <sat>9</sat>
      </trkpt>
      <trkpt lat="47.090302" lon="-122.017748">
        <ele>264.7</ele>
        <time>2014-08-14T18:04:55Z</time>
        <sat>8</sat>
      </trkpt>
      <trkpt lat="47.090362" lon="-122.017855">
        <ele>264.8</ele>
        <time>2014-08-14T18:04:58Z</time>
        <sat>9</sat>
      </trkpt>
      <trkpt lat="47.090419" lon="-122.017975">
        <ele>265.6</ele>
        <time>2014-08-14T18:05:03Z</time>
        <sat>8</sat>
      </trkpt>
      <trkpt lat="47.090475" lon="-122.018082">
        <ele>266.5</ele>
        <time>2014-08-14T18:05:09Z</time>
        <sat>9</sat>
      </trkpt>
      <trkpt lat="47.090524" lon="-122.018216">
        <ele>268.0</ele>
        <time>2014-08-14T18:05:16Z</time>
        <sat>9</sat>
      </trkpt>
      <trkpt lat="47.090552" lon="-122.018345">
        <ele>268.7</ele>
        <time>2014-08-14T18:05:21Z</time>
        <sat>8</sat>
      </trkpt>
      <trkpt lat="47.090608" lon="-122.018472">
        <ele>269.5</ele>
        <time>2014-08-14T18:05:26Z</time>
        <sat>8</sat>
      </trkpt>
      <trkpt lat="47.090659" lon="-122.018605">
        <ele>270.0</ele>
        <time>2014-08-14T18:05:30Z</time>
        <sat>8</sat>
      </trkpt>
      <trkpt lat="47.090722" lon="-122.018713">
        <ele>270.4</ele>
        <time>2014-08-14T18:05:34Z</time>
        <sat>8</sat>
      </trkpt>
      <trkpt lat="47.090797" lon="-122.018813">
        <ele>271.1</ele>
        <time>2014-08-14T18:05:38Z</time>
        <sat>8</sat>
      </trkpt>
      <trkpt lat="47.090877" lon="-122.018910">
        <ele>271.7</ele>
        <time>2014-08-14T18:05:42Z</time>
        <sat>9</sat>
      </trkpt>
      <trkpt lat="47.090977" lon="-122.018998">
        <ele>271.9</ele>
        <time>2014-08-14T18:05:46Z</time>
        <sat>9</sat>
      </trkpt>
      <trkpt lat="47.091080" lon="-122.019083">
        <ele>272.1</ele>
        <time>2014-08-14T18:05:50Z</time>
        <sat>9</sat>
      </trkpt>
      <trkpt lat="47.091163" lon="-122.019152">
        <ele>272.0</ele>
        <time>2014-08-14T18:05:53Z</time>
        <sat>9</sat>
      </trkpt>
      <trkpt lat="47.091247" lon="-122.019218">
        <ele>272.5</ele>
        <time>2014-08-14T18:05:56Z</time>
        <sat>9</sat>
      </trkpt>
      <trkpt lat="47.091352" lon="-122.019275">
        <ele>272.5</ele>
        <time>2014-08-14T18:05:59Z</time>
        <sat>9</sat>
      </trkpt>
      <trkpt lat="47.091462" lon="-122.019302">
        <ele>272.6</ele>
        <time>2014-08-14T18:06:02Z</time>
        <sat>9</sat>
      </trkpt>
      <trkpt lat="47.091568" lon="-122.019310">
        <ele>272.7</ele>
        <time>2014-08-14T18:06:05Z</time>
        <sat>9</sat>
      </trkpt>
      <trkpt lat="47.091689" lon="-122.019318">
        <ele>272.8</ele>
        <time>2014-08-14T18:06:08Z</time>
        <sat>9</sat>
      </trkpt>
      <trkpt lat="47.091812" lon="-122.019306">
        <ele>273.3</ele>
        <time>2014-08-14T18:06:11Z</time>
        <sat>9</sat>
      </trkpt>
      <trkpt lat="47.091932" lon="-122.019283">
        <ele>273.5</ele>
        <time>2014-08-14T18:06:14Z</time>
        <sat>9</sat>
      </trkpt>
      <trkpt lat="47.092058" lon="-122.019256">
        <ele>273.7</ele>
        <time>2014-08-14T18:06:17Z</time>
        <sat>9</sat>
      </trkpt>
      <trkpt lat="47.092168" lon="-122.019223">
        <ele>274.1</ele>
        <time>2014-08-14T18:06:20Z</time>
        <sat>9</sat>
      </trkpt>
      <trkpt lat="47.092280" lon="-122.019188">
        <ele>274.4</ele>
        <time>2014-08-14T18:06:23Z</time>
        <sat>9</sat>
      </trkpt>
      <trkpt lat="47.092382" lon="-122.019153">
        <ele>274.8</ele>
        <time>2014-08-14T18:06:26Z</time>
        <sat>9</sat>
      </trkpt>
      <trkpt lat="47.092474" lon="-122.019126">
        <ele>275.0</ele>
        <time>2014-08-14T18:06:29Z</time>
        <sat>9</sat>
      </trkpt>
      <trkpt lat="47.092593" lon="-122.019053">
        <ele>275.3</ele>
        <time>2014-08-14T18:06:32Z</time>
        <sat>9</sat>
      </trkpt>
      <trkpt lat="47.092699" lon="-122.019026">
        <ele>275.7</ele>
        <time>2014-08-14T18:06:35Z</time>
        <sat>9</sat>
      </trkpt>
      <trkpt lat="47.092799" lon="-122.019023">
        <ele>276.1</ele>
        <time>2014-08-14T18:06:38Z</time>
        <sat>9</sat>
      </trkpt>
      <trkpt lat="47.092905" lon="-122.019023">
        <ele>276.0</ele>
        <time>2014-08-14T18:06:41Z</time>
        <sat>9</sat>
      </trkpt>
      <trkpt lat="47.093009" lon="-122.019045">
        <ele>276.1</ele>
        <time>2014-08-14T18:06:44Z</time>
        <sat>9</sat>
      </trkpt>
      <trkpt lat="47.093122" lon="-122.019090">
        <ele>276.2</ele>
        <time>2014-08-14T18:06:47Z</time>
        <sat>9</sat>
      </trkpt>
      <trkpt lat="47.093225" lon="-122.019146">
        <ele>276.2</ele>
        <time>2014-08-14T18:06:50Z</time>
        <sat>9</sat>
      </trkpt>
      <trkpt lat="47.093332" lon="-122.019211">
        <ele>276.1</ele>
        <time>2014-08-14T18:06:53Z</time>
        <sat>9</sat>
      </trkpt>
      <trkpt lat="47.093432" lon="-122.019288">
        <ele>276.3</ele>
        <time>2014-08-14T18:06:56Z</time>
        <sat>9</sat>
      </trkpt>
      <trkpt lat="47.093518" lon="-122.019377">
        <ele>276.1</ele>
        <time>2014-08-14T18:06:59Z</time>
        <sat>9</sat>
      </trkpt>
      <trkpt lat="47.093613" lon="-122.019480">
        <ele>276.1</ele>
        <time>2014-08-14T18:07:02Z</time>
        <sat>9</sat>
      </trkpt>
      <trkpt lat="47.093692" lon="-122.019592">
        <ele>275.8</ele>
        <time>2014-08-14T18:07:05Z</time>
        <sat>9</sat>
      </trkpt>
      <trkpt lat="47.093767" lon="-122.019717">
        <ele>275.6</ele>
        <time>2014-08-14T18:07:08Z</time>
        <sat>9</sat>
      </trkpt>
      <trkpt lat="47.093843" lon="-122.019833">
        <ele>275.6</ele>
        <time>2014-08-14T18:07:11Z</time>
        <sat>9</sat>
      </trkpt>
      <trkpt lat="47.093914" lon="-122.019955">
        <ele>275.5</ele>
        <time>2014-08-14T18:07:14Z</time>
        <sat>9</sat>
      </trkpt>
      <trkpt lat="47.093982" lon="-122.020062">
        <ele>275.4</ele>
        <time>2014-08-14T18:07:17Z</time>
        <sat>9</sat>
      </trkpt>
      <trkpt lat="47.094047" lon="-122.020183">
        <ele>274.8</ele>
        <time>2014-08-14T18:07:20Z</time>
        <sat>9</sat>
      </trkpt>
      <trkpt lat="47.094122" lon="-122.020325">
        <ele>274.8</ele>
        <time>2014-08-14T18:07:23Z</time>
        <sat>9</sat>
      </trkpt>
      <trkpt lat="47.094180" lon="-122.020430">
        <ele>274.9</ele>
        <time>2014-08-14T18:07:25Z</time>
        <sat>9</sat>
      </trkpt>
      <trkpt lat="47.094263" lon="-122.020573">
        <ele>274.7</ele>
        <time>2014-08-14T18:07:28Z</time>
        <sat>9</sat>
      </trkpt>
      <trkpt lat="47.094350" lon="-122.020718">
        <ele>274.8</ele>
        <time>2014-08-14T18:07:31Z</time>
        <sat>9</sat>
      </trkpt>
      <trkpt lat="47.094439" lon="-122.020860">
        <ele>274.8</ele>
        <time>2014-08-14T18:07:34Z</time>
        <sat>9</sat>
      </trkpt>
      <trkpt lat="47.094545" lon="-122.020991">
        <ele>274.8</ele>
        <time>2014-08-14T18:07:37Z</time>
        <sat>9</sat>
      </trkpt>
      <trkpt lat="47.094630" lon="-122.021068">
        <ele>274.6</ele>
        <time>2014-08-14T18:07:39Z</time>
        <sat>9</sat>
      </trkpt>
      <trkpt lat="47.094723" lon="-122.021125">
        <ele>274.4</ele>
        <time>2014-08-14T18:07:41Z</time>
        <sat>9</sat>
      </trkpt>
      <trkpt lat="47.094817" lon="-122.021167">
        <ele>274.5</ele>
        <time>2014-08-14T18:07:43Z</time>
        <sat>9</sat>
      </trkpt>
      <trkpt lat="47.094935" lon="-122.021195">
        <ele>274.9</ele>
        <time>2014-08-14T18:07:46Z</time>
        <sat>9</sat>
      </trkpt>
      <trkpt lat="47.095032" lon="-122.021173">
        <ele>275.3</ele>
        <time>2014-08-14T18:07:49Z</time>
        <sat>9</sat>
      </trkpt>
      <trkpt lat="47.095147" lon="-122.021165">
        <ele>275.7</ele>
        <time>2014-08-14T18:07:52Z</time>
        <sat>9</sat>
      </trkpt>
      <trkpt lat="47.095257" lon="-122.021153">
        <ele>276.0</ele>
        <time>2014-08-14T18:07:55Z</time>
        <sat>10</sat>
      </trkpt>
      <trkpt lat="47.095367" lon="-122.021140">
        <ele>276.2</ele>
        <time>2014-08-14T18:07:58Z</time>
        <sat>10</sat>
      </trkpt>
      <trkpt lat="47.095469" lon="-122.021123">
        <ele>276.4</ele>
        <time>2014-08-14T18:08:01Z</time>
        <sat>9</sat>
      </trkpt>
      <trkpt lat="47.095577" lon="-122.021138">
        <ele>276.2</ele>
        <time>2014-08-14T18:08:03Z</time>
        <sat>10</sat>
      </trkpt>
      <trkpt lat="47.095672" lon="-122.021155">
        <ele>276.2</ele>
        <time>2014-08-14T18:08:05Z</time>
        <sat>9</sat>
      </trkpt>
      <trkpt lat="47.095784" lon="-122.021193">
        <ele>276.4</ele>
        <time>2014-08-14T18:08:08Z</time>
        <sat>10</sat>
      </trkpt>
      <trkpt lat="47.095885" lon="-122.021240">
        <ele>276.3</ele>
        <time>2014-08-14T18:08:10Z</time>
        <sat>9</sat>
      </trkpt>
      <trkpt lat="47.095997" lon="-122.021285">
        <ele>276.3</ele>
        <time>2014-08-14T18:08:12Z</time>
        <sat>8</sat>
      </trkpt>
      <trkpt lat="47.096119" lon="-122.021361">
        <ele>276.2</ele>
        <time>2014-08-14T18:08:14Z</time>
        <sat>9</sat>
      </trkpt>
      <trkpt lat="47.096252" lon="-122.021433">
        <ele>276.1</ele>
        <time>2014-08-14T18:08:17Z</time>
        <sat>9</sat>
      </trkpt>
      <trkpt lat="47.096352" lon="-122.021500">
        <ele>276.0</ele>
        <time>2014-08-14T18:08:19Z</time>
        <sat>9</sat>
      </trkpt>
      <trkpt lat="47.096429" lon="-122.021575">
        <ele>275.8</ele>
        <time>2014-08-14T18:08:21Z</time>
        <sat>9</sat>
      </trkpt>
      <trkpt lat="47.096523" lon="-122.021645">
        <ele>275.7</ele>
        <time>2014-08-14T18:08:23Z</time>
        <sat>9</sat>
      </trkpt>
      <trkpt lat="47.096610" lon="-122.021743">
        <ele>275.5</ele>
        <time>2014-08-14T18:08:25Z</time>
        <sat>9</sat>
      </trkpt>
      <trkpt lat="47.096695" lon="-122.021865">
        <ele>274.8</ele>
        <time>2014-08-14T18:08:27Z</time>
        <sat>9</sat>
      </trkpt>
      <trkpt lat="47.096775" lon="-122.022025">
        <ele>273.8</ele>
        <time>2014-08-14T18:08:29Z</time>
        <sat>9</sat>
      </trkpt>
      <trkpt lat="47.096857" lon="-122.022195">
        <ele>272.1</ele>
        <time>2014-08-14T18:08:31Z</time>
        <sat>9</sat>
      </trkpt>
      <trkpt lat="47.096948" lon="-122.022388">
        <ele>269.9</ele>
        <time>2014-08-14T18:08:33Z</time>
        <sat>9</sat>
      </trkpt>
      <trkpt lat="47.097014" lon="-122.022523">
        <ele>268.5</ele>
        <time>2014-08-14T18:08:34Z</time>
        <sat>9</sat>
      </trkpt>
      <trkpt lat="47.097083" lon="-122.022632">
        <ele>267.3</ele>
        <time>2014-08-14T18:08:35Z</time>
        <sat>9</sat>
      </trkpt>
      <trkpt lat="47.097159" lon="-122.022750">
        <ele>266.1</ele>
        <time>2014-08-14T18:08:36Z</time>
        <sat>8</sat>
      </trkpt>
      <trkpt lat="47.097212" lon="-122.022890">
        <ele>264.8</ele>
        <time>2014-08-14T18:08:37Z</time>
        <sat>8</sat>
      </trkpt>
      <trkpt lat="47.097275" lon="-122.022993">
        <ele>263.5</ele>
        <time>2014-08-14T18:08:38Z</time>
        <sat>8</sat>
      </trkpt>
      <trkpt lat="47.097422" lon="-122.023146">
        <ele>260.5</ele>
        <time>2014-08-14T18:08:40Z</time>
        <sat>8</sat>
      </trkpt>
      <trkpt lat="47.097547" lon="-122.023313">
        <ele>257.3</ele>
        <time>2014-08-14T18:08:42Z</time>
        <sat>8</sat>
      </trkpt>
      <trkpt lat="47.097590" lon="-122.023580">
        <ele>255.0</ele>
        <time>2014-08-14T18:08:44Z</time>
        <sat>8</sat>
      </trkpt>
      <trkpt lat="47.097614" lon="-122.023752">
        <ele>253.9</ele>
        <time>2014-08-14T18:08:45Z</time>
        <sat>9</sat>
      </trkpt>
      <trkpt lat="47.097630" lon="-122.023901">
        <ele>253.1</ele>
        <time>2014-08-14T18:08:46Z</time>
        <sat>9</sat>
      </trkpt>
      <trkpt lat="47.097640" lon="-122.024043">
        <ele>252.3</ele>
        <time>2014-08-14T18:08:47Z</time>
        <sat>9</sat>
      </trkpt>
      <trkpt lat="47.097657" lon="-122.024192">
        <ele>251.9</ele>
        <time>2014-08-14T18:08:48Z</time>
        <sat>9</sat>
      </trkpt>
      <trkpt lat="47.097650" lon="-122.024328">
        <ele>251.6</ele>
        <time>2014-08-14T18:08:49Z</time>
        <sat>9</sat>
      </trkpt>
      <trkpt lat="47.097655" lon="-122.024557">
        <ele>251.2</ele>
        <time>2014-08-14T18:08:51Z</time>
        <sat>9</sat>
      </trkpt>
      <trkpt lat="47.097690" lon="-122.024742">
        <ele>251.0</ele>
        <time>2014-08-14T18:08:53Z</time>
        <sat>9</sat>
      </trkpt>
      <trkpt lat="47.097748" lon="-122.024887">
        <ele>250.7</ele>
        <time>2014-08-14T18:08:55Z</time>
        <sat>9</sat>
      </trkpt>
      <trkpt lat="47.097822" lon="-122.025015">
        <ele>250.6</ele>
        <time>2014-08-14T18:08:57Z</time>
        <sat>9</sat>
      </trkpt>
      <trkpt lat="47.097905" lon="-122.025122">
        <ele>250.6</ele>
        <time>2014-08-14T18:08:59Z</time>
        <sat>9</sat>
      </trkpt>
      <trkpt lat="47.097992" lon="-122.025222">
        <ele>250.6</ele>
        <time>2014-08-14T18:09:01Z</time>
        <sat>9</sat>
      </trkpt>
      <trkpt lat="47.098082" lon="-122.025323">
        <ele>250.6</ele>
        <time>2014-08-14T18:09:03Z</time>
        <sat>9</sat>
      </trkpt>
      <trkpt lat="47.098172" lon="-122.025432">
        <ele>250.6</ele>
        <time>2014-08-14T18:09:05Z</time>
        <sat>9</sat>
      </trkpt>
      <trkpt lat="47.098264" lon="-122.025545">
        <ele>250.4</ele>
        <time>2014-08-14T18:09:07Z</time>
        <sat>9</sat>
      </trkpt>
      <trkpt lat="47.098372" lon="-122.025637">
        <ele>250.4</ele>
        <time>2014-08-14T18:09:09Z</time>
        <sat>9</sat>
      </trkpt>
      <trkpt lat="47.098470" lon="-122.025721">
        <ele>250.3</ele>
        <time>2014-08-14T18:09:11Z</time>
        <sat>9</sat>
      </trkpt>
      <trkpt lat="47.098574" lon="-122.025801">
        <ele>250.0</ele>
        <time>2014-08-14T18:09:13Z</time>
        <sat>9</sat>
      </trkpt>
      <trkpt lat="47.098665" lon="-122.025893">
        <ele>249.8</ele>
        <time>2014-08-14T18:09:15Z</time>
        <sat>9</sat>
      </trkpt>
      <trkpt lat="47.098755" lon="-122.025998">
        <ele>250.0</ele>
        <time>2014-08-14T18:09:17Z</time>
        <sat>10</sat>
      </trkpt>
      <trkpt lat="47.098819" lon="-122.026132">
        <ele>250.0</ele>
        <time>2014-08-14T18:09:19Z</time>
        <sat>10</sat>
      </trkpt>
      <trkpt lat="47.098868" lon="-122.026253">
        <ele>250.1</ele>
        <time>2014-08-14T18:09:21Z</time>
        <sat>10</sat>
      </trkpt>
      <trkpt lat="47.098893" lon="-122.026383">
        <ele>250.4</ele>
        <time>2014-08-14T18:09:23Z</time>
        <sat>10</sat>
      </trkpt>
      <trkpt lat="47.098919" lon="-122.026543">
        <ele>250.9</ele>
        <time>2014-08-14T18:09:26Z</time>
        <sat>10</sat>
      </trkpt>
      <trkpt lat="47.098942" lon="-122.026705">
        <ele>251.2</ele>
        <time>2014-08-14T18:09:30Z</time>
        <sat>10</sat>
      </trkpt>
      <trkpt lat="47.098944" lon="-122.026841">
        <ele>251.0</ele>
        <time>2014-08-14T18:09:34Z</time>
        <sat>10</sat>
      </trkpt>
      <trkpt lat="47.098935" lon="-122.027030">
        <ele>250.6</ele>
        <time>2014-08-14T18:09:37Z</time>
        <sat>10</sat>
      </trkpt>
      <trkpt lat="47.098914" lon="-122.027163">
        <ele>249.9</ele>
        <time>2014-08-14T18:09:39Z</time>
        <sat>10</sat>
      </trkpt>
      <trkpt lat="47.098834" lon="-122.027325">
        <ele>249.0</ele>
        <time>2014-08-14T18:09:41Z</time>
        <sat>9</sat>
      </trkpt>
      <trkpt lat="47.098793" lon="-122.027543">
        <ele>248.0</ele>
        <time>2014-08-14T18:09:43Z</time>
        <sat>10</sat>
      </trkpt>
      <trkpt lat="47.098735" lon="-122.027795">
        <ele>246.9</ele>
        <time>2014-08-14T18:09:45Z</time>
        <sat>10</sat>
      </trkpt>
      <trkpt lat="47.098695" lon="-122.028038">
        <ele>245.8</ele>
        <time>2014-08-14T18:09:47Z</time>
        <sat>10</sat>
      </trkpt>
      <trkpt lat="47.098712" lon="-122.028260">
        <ele>244.2</ele>
        <time>2014-08-14T18:09:49Z</time>
        <sat>10</sat>
      </trkpt>
      <trkpt lat="47.098817" lon="-122.028463">
        <ele>242.7</ele>
        <time>2014-08-14T18:09:51Z</time>
        <sat>10</sat>
      </trkpt>
      <trkpt lat="47.098880" lon="-122.028560">
        <ele>241.8</ele>
        <time>2014-08-14T18:09:52Z</time>
        <sat>10</sat>
      </trkpt>
      <trkpt lat="47.098947" lon="-122.028653">
        <ele>240.7</ele>
        <time>2014-08-14T18:09:53Z</time>
        <sat>10</sat>
      </trkpt>
      <trkpt lat="47.099010" lon="-122.028755">
        <ele>240.0</ele>
        <time>2014-08-14T18:09:54Z</time>
        <sat>10</sat>
      </trkpt>
      <trkpt lat="47.099070" lon="-122.028865">
        <ele>238.7</ele>
        <time>2014-08-14T18:09:55Z</time>
        <sat>10</sat>
      </trkpt>
      <trkpt lat="47.099122" lon="-122.028988">
        <ele>237.6</ele>
        <time>2014-08-14T18:09:56Z</time>
        <sat>10</sat>
      </trkpt>
      <trkpt lat="47.099172" lon="-122.029118">
        <ele>236.5</ele>
        <time>2014-08-14T18:09:57Z</time>
        <sat>10</sat>
      </trkpt>
      <trkpt lat="47.099218" lon="-122.029248">
        <ele>235.5</ele>
        <time>2014-08-14T18:09:58Z</time>
        <sat>10</sat>
      </trkpt>
      <trkpt lat="47.099262" lon="-122.029365">
        <ele>234.5</ele>
        <time>2014-08-14T18:09:59Z</time>
        <sat>10</sat>
      </trkpt>
      <trkpt lat="47.099332" lon="-122.029455">
        <ele>233.5</ele>
        <time>2014-08-14T18:10:00Z</time>
        <sat>10</sat>
      </trkpt>
      <trkpt lat="47.099467" lon="-122.029555">
        <ele>231.6</ele>
        <time>2014-08-14T18:10:02Z</time>
        <sat>9</sat>
      </trkpt>
      <trkpt lat="47.099635" lon="-122.029615">
        <ele>229.3</ele>
        <time>2014-08-14T18:10:04Z</time>
        <sat>9</sat>
      </trkpt>
      <trkpt lat="47.099729" lon="-122.029626">
        <ele>228.1</ele>
        <time>2014-08-14T18:10:05Z</time>
        <sat>9</sat>
      </trkpt>
      <trkpt lat="47.099820" lon="-122.029646">
        <ele>226.9</ele>
        <time>2014-08-14T18:10:06Z</time>
        <sat>9</sat>
      </trkpt>
      <trkpt lat="47.099919" lon="-122.029685">
        <ele>225.6</ele>
        <time>2014-08-14T18:10:07Z</time>
        <sat>10</sat>
      </trkpt>
      <trkpt lat="47.100008" lon="-122.029761">
        <ele>224.4</ele>
        <time>2014-08-14T18:10:08Z</time>
        <sat>10</sat>
      </trkpt>
      <trkpt lat="47.100088" lon="-122.029851">
        <ele>222.9</ele>
        <time>2014-08-14T18:10:09Z</time>
        <sat>10</sat>
      </trkpt>
      <trkpt lat="47.100157" lon="-122.029966">
        <ele>221.7</ele>
        <time>2014-08-14T18:10:10Z</time>
        <sat>10</sat>
      </trkpt>
      <trkpt lat="47.100210" lon="-122.030092">
        <ele>220.6</ele>
        <time>2014-08-14T18:10:11Z</time>
        <sat>10</sat>
      </trkpt>
      <trkpt lat="47.100254" lon="-122.030218">
        <ele>219.3</ele>
        <time>2014-08-14T18:10:12Z</time>
        <sat>10</sat>
      </trkpt>
      <trkpt lat="47.100300" lon="-122.030332">
        <ele>218.2</ele>
        <time>2014-08-14T18:10:13Z</time>
        <sat>10</sat>
      </trkpt>
      <trkpt lat="47.100367" lon="-122.030450">
        <ele>217.3</ele>
        <time>2014-08-14T18:10:14Z</time>
        <sat>9</sat>
      </trkpt>
      <trkpt lat="47.100509" lon="-122.030616">
        <ele>215.2</ele>
        <time>2014-08-14T18:10:16Z</time>
        <sat>9</sat>
      </trkpt>
      <trkpt lat="47.100589" lon="-122.030705">
        <ele>214.1</ele>
        <time>2014-08-14T18:10:17Z</time>
        <sat>10</sat>
      </trkpt>
      <trkpt lat="47.100665" lon="-122.030788">
        <ele>213.0</ele>
        <time>2014-08-14T18:10:18Z</time>
        <sat>8</sat>
      </trkpt>
      <trkpt lat="47.100762" lon="-122.030865">
        <ele>211.8</ele>
        <time>2014-08-14T18:10:19Z</time>
        <sat>9</sat>
      </trkpt>
      <trkpt lat="47.100863" lon="-122.030925">
        <ele>210.4</ele>
        <time>2014-08-14T18:10:20Z</time>
        <sat>9</sat>
      </trkpt>
      <trkpt lat="47.100968" lon="-122.030993">
        <ele>209.2</ele>
        <time>2014-08-14T18:10:21Z</time>
        <sat>10</sat>
      </trkpt>
      <trkpt lat="47.101074" lon="-122.031060">
        <ele>208.2</ele>
        <time>2014-08-14T18:10:22Z</time>
        <sat>10</sat>
      </trkpt>
      <trkpt lat="47.101184" lon="-122.031123">
        <ele>206.8</ele>
        <time>2014-08-14T18:10:23Z</time>
        <sat>10</sat>
      </trkpt>
      <trkpt lat="47.101290" lon="-122.031193">
        <ele>205.7</ele>
        <time>2014-08-14T18:10:24Z</time>
        <sat>10</sat>
      </trkpt>
      <trkpt lat="47.101392" lon="-122.031265">
        <ele>204.6</ele>
        <time>2014-08-14T18:10:25Z</time>
        <sat>9</sat>
      </trkpt>
      <trkpt lat="47.101495" lon="-122.031338">
        <ele>203.4</ele>
        <time>2014-08-14T18:10:26Z</time>
        <sat>8</sat>
      </trkpt>
      <trkpt lat="47.101597" lon="-122.031413">
        <ele>202.3</ele>
        <time>2014-08-14T18:10:27Z</time>
        <sat>10</sat>
      </trkpt>
      <trkpt lat="47.101694" lon="-122.031493">
        <ele>201.1</ele>
        <time>2014-08-14T18:10:28Z</time>
        <sat>8</sat>
      </trkpt>
      <trkpt lat="47.101780" lon="-122.031570">
        <ele>199.8</ele>
        <time>2014-08-14T18:10:29Z</time>
        <sat>10</sat>
      </trkpt>
      <trkpt lat="47.101865" lon="-122.031628">
        <ele>198.5</ele>
        <time>2014-08-14T18:10:30Z</time>
        <sat>7</sat>
      </trkpt>
      <trkpt lat="47.102040" lon="-122.031673">
        <ele>196.1</ele>
        <time>2014-08-14T18:10:32Z</time>
        <sat>7</sat>
      </trkpt>
      <trkpt lat="47.102142" lon="-122.031687">
        <ele>195.0</ele>
        <time>2014-08-14T18:10:33Z</time>
        <sat>7</sat>
      </trkpt>
      <trkpt lat="47.102235" lon="-122.031675">
        <ele>193.7</ele>
        <time>2014-08-14T18:10:34Z</time>
        <sat>7</sat>
      </trkpt>
      <trkpt lat="47.102422" lon="-122.031677">
        <ele>191.3</ele>
        <time>2014-08-14T18:10:36Z</time>
        <sat>6</sat>
      </trkpt>
      <trkpt lat="47.102590" lon="-122.031770">
        <ele>189.1</ele>
        <time>2014-08-14T18:10:38Z</time>
        <sat>7</sat>
      </trkpt>
      <trkpt lat="47.102675" lon="-122.031840">
        <ele>187.9</ele>
        <time>2014-08-14T18:10:39Z</time>
        <sat>7</sat>
      </trkpt>
      <trkpt lat="47.102755" lon="-122.031922">
        <ele>186.8</ele>
        <time>2014-08-14T18:10:40Z</time>
        <sat>7</sat>
      </trkpt>
      <trkpt lat="47.102834" lon="-122.031995">
        <ele>185.7</ele>
        <time>2014-08-14T18:10:41Z</time>
        <sat>7</sat>
      </trkpt>
      <trkpt lat="47.102992" lon="-122.032071">
        <ele>183.6</ele>
        <time>2014-08-14T18:10:43Z</time>
        <sat>8</sat>
      </trkpt>
      <trkpt lat="47.103143" lon="-122.032071">
        <ele>181.7</ele>
        <time>2014-08-14T18:10:45Z</time>
        <sat>8</sat>
      </trkpt>
      <trkpt lat="47.103294" lon="-122.031985">
        <ele>179.9</ele>
        <time>2014-08-14T18:10:47Z</time>
        <sat>8</sat>
      </trkpt>
      <trkpt lat="47.103443" lon="-122.031840">
        <ele>178.0</ele>
        <time>2014-08-14T18:10:49Z</time>
        <sat>8</sat>
      </trkpt>
      <trkpt lat="47.103575" lon="-122.031715">
        <ele>176.4</ele>
        <time>2014-08-14T18:10:51Z</time>
        <sat>8</sat>
      </trkpt>
      <trkpt lat="47.103678" lon="-122.031653">
        <ele>175.4</ele>
        <time>2014-08-14T18:10:53Z</time>
        <sat>8</sat>
      </trkpt>
      <trkpt lat="47.103770" lon="-122.031687">
        <ele>174.1</ele>
        <time>2014-08-14T18:10:55Z</time>
        <sat>8</sat>
      </trkpt>
      <trkpt lat="47.103878" lon="-122.031792">
        <ele>173.1</ele>
        <time>2014-08-14T18:10:57Z</time>
        <sat>8</sat>
      </trkpt>
      <trkpt lat="47.103988" lon="-122.031880">
        <ele>172.1</ele>
        <time>2014-08-14T18:10:59Z</time>
        <sat>8</sat>
      </trkpt>
      <trkpt lat="47.104072" lon="-122.031945">
        <ele>170.8</ele>
        <time>2014-08-14T18:11:06Z</time>
        <sat>8</sat>
      </trkpt>
      <trkpt lat="47.104055" lon="-122.032100">
        <ele>170.7</ele>
        <time>2014-08-14T18:11:26Z</time>
        <sat>8</sat>
      </trkpt>
      <trkpt lat="47.104020" lon="-122.032238">
        <ele>170.9</ele>
        <time>2014-08-14T18:11:30Z</time>
        <sat>8</sat>
      </trkpt>
      <trkpt lat="47.104000" lon="-122.032370">
        <ele>170.8</ele>
        <time>2014-08-14T18:11:33Z</time>
        <sat>9</sat>
      </trkpt>
      <trkpt lat="47.103930" lon="-122.032521">
        <ele>170.9</ele>
        <time>2014-08-14T18:11:36Z</time>
        <sat>9</sat>
      </trkpt>
      <trkpt lat="47.103857" lon="-122.032635">
        <ele>170.7</ele>
        <time>2014-08-14T18:11:38Z</time>
        <sat>9</sat>
      </trkpt>
      <trkpt lat="47.103807" lon="-122.032753">
        <ele>170.4</ele>
        <time>2014-08-14T18:11:40Z</time>
        <sat>9</sat>
      </trkpt>
      <trkpt lat="47.103770" lon="-122.032922">
        <ele>170.4</ele>
        <time>2014-08-14T18:11:43Z</time>
        <sat>9</sat>
      </trkpt>
      <trkpt lat="47.103735" lon="-122.033047">
        <ele>170.1</ele>
        <time>2014-08-14T18:11:45Z</time>
        <sat>9</sat>
      </trkpt>
      <trkpt lat="47.103697" lon="-122.033237">
        <ele>170.0</ele>
        <time>2014-08-14T18:11:48Z</time>
        <sat>10</sat>
      </trkpt>
      <trkpt lat="47.103662" lon="-122.033383">
        <ele>169.9</ele>
        <time>2014-08-14T18:11:50Z</time>
        <sat>10</sat>
      </trkpt>
      <trkpt lat="47.103624" lon="-122.033526">
        <ele>169.8</ele>
        <time>2014-08-14T18:11:52Z</time>
        <sat>10</sat>
      </trkpt>
      <trkpt lat="47.103570" lon="-122.033651">
        <ele>169.9</ele>
        <time>2014-08-14T18:11:54Z</time>
        <sat>10</sat>
      </trkpt>
      <trkpt lat="47.103522" lon="-122.033792">
        <ele>169.7</ele>
        <time>2014-08-14T18:11:56Z</time>
        <sat>8</sat>
      </trkpt>
      <trkpt lat="47.103477" lon="-122.033937">
        <ele>169.7</ele>
        <time>2014-08-14T18:11:58Z</time>
        <sat>9</sat>
      </trkpt>
      <trkpt lat="47.103442" lon="-122.034081">
        <ele>169.8</ele>
        <time>2014-08-14T18:12:00Z</time>
        <sat>7</sat>
      </trkpt>
      <trkpt lat="47.103397" lon="-122.034220">
        <ele>169.4</ele>
        <time>2014-08-14T18:12:02Z</time>
        <sat>8</sat>
      </trkpt>
      <trkpt lat="47.103359" lon="-122.034358">
        <ele>169.5</ele>
        <time>2014-08-14T18:12:04Z</time>
        <sat>8</sat>
      </trkpt>
      <trkpt lat="47.103322" lon="-122.034511">
        <ele>169.4</ele>
        <time>2014-08-14T18:12:06Z</time>
        <sat>9</sat>
      </trkpt>
      <trkpt lat="47.103267" lon="-122.034658">
        <ele>169.4</ele>
        <time>2014-08-14T18:12:08Z</time>
        <sat>9</sat>
      </trkpt>
      <trkpt lat="47.103227" lon="-122.034800">
        <ele>169.4</ele>
        <time>2014-08-14T18:12:10Z</time>
        <sat>9</sat>
      </trkpt>
      <trkpt lat="47.103184" lon="-122.034933">
        <ele>169.4</ele>
        <time>2014-08-14T18:12:12Z</time>
        <sat>8</sat>
      </trkpt>
      <trkpt lat="47.103145" lon="-122.035075">
        <ele>169.4</ele>
        <time>2014-08-14T18:12:14Z</time>
        <sat>8</sat>
      </trkpt>
      <trkpt lat="47.103110" lon="-122.035221">
        <ele>169.3</ele>
        <time>2014-08-14T18:12:16Z</time>
        <sat>8</sat>
      </trkpt>
      <trkpt lat="47.103077" lon="-122.035368">
        <ele>169.3</ele>
        <time>2014-08-14T18:12:18Z</time>
        <sat>9</sat>
      </trkpt>
      <trkpt lat="47.103034" lon="-122.035518">
        <ele>169.0</ele>
        <time>2014-08-14T18:12:20Z</time>
        <sat>9</sat>
      </trkpt>
      <trkpt lat="47.102988" lon="-122.035661">
        <ele>169.1</ele>
        <time>2014-08-14T18:12:22Z</time>
        <sat>9</sat>
      </trkpt>
      <trkpt lat="47.102965" lon="-122.035808">
        <ele>168.7</ele>
        <time>2014-08-14T18:12:24Z</time>
        <sat>9</sat>
      </trkpt>
      <trkpt lat="47.102937" lon="-122.035953">
        <ele>168.7</ele>
        <time>2014-08-14T18:12:26Z</time>
        <sat>9</sat>
      </trkpt>
      <trkpt lat="47.102900" lon="-122.036096">
        <ele>168.5</ele>
        <time>2014-08-14T18:12:28Z</time>
        <sat>8</sat>
      </trkpt>
      <trkpt lat="47.102865" lon="-122.036238">
        <ele>168.4</ele>
        <time>2014-08-14T18:12:30Z</time>
        <sat>9</sat>
      </trkpt>
      <trkpt lat="47.102825" lon="-122.036378">
        <ele>168.5</ele>
        <time>2014-08-14T18:12:32Z</time>
        <sat>9</sat>
      </trkpt>
      <trkpt lat="47.102787" lon="-122.036522">
        <ele>168.2</ele>
        <time>2014-08-14T18:12:34Z</time>
        <sat>7</sat>
      </trkpt>
      <trkpt lat="47.102744" lon="-122.036670">
        <ele>167.9</ele>
        <time>2014-08-14T18:12:36Z</time>
        <sat>9</sat>
      </trkpt>
      <trkpt lat="47.102703" lon="-122.036812">
        <ele>168.1</ele>
        <time>2014-08-14T18:12:38Z</time>
        <sat>9</sat>
      </trkpt>
      <trkpt lat="47.102662" lon="-122.036975">
        <ele>168.0</ele>
        <time>2014-08-14T18:12:40Z</time>
        <sat>8</sat>
      </trkpt>
      <trkpt lat="47.102614" lon="-122.037120">
        <ele>167.9</ele>
        <time>2014-08-14T18:12:42Z</time>
        <sat>8</sat>
      </trkpt>
      <trkpt lat="47.102577" lon="-122.037275">
        <ele>167.6</ele>
        <time>2014-08-14T18:12:44Z</time>
        <sat>8</sat>
      </trkpt>
      <trkpt lat="47.102537" lon="-122.037448">
        <ele>167.3</ele>
        <time>2014-08-14T18:12:46Z</time>
        <sat>7</sat>
      </trkpt>
      <trkpt lat="47.102497" lon="-122.037622">
        <ele>167.1</ele>
        <time>2014-08-14T18:12:48Z</time>
        <sat>7</sat>
      </trkpt>
      <trkpt lat="47.102463" lon="-122.037798">
        <ele>166.8</ele>
        <time>2014-08-14T18:12:50Z</time>
        <sat>7</sat>
      </trkpt>
      <trkpt lat="47.102437" lon="-122.037978">
        <ele>166.8</ele>
        <time>2014-08-14T18:12:52Z</time>
        <sat>7</sat>
      </trkpt>
      <trkpt lat="47.102422" lon="-122.038158">
        <ele>166.7</ele>
        <time>2014-08-14T18:12:54Z</time>
        <sat>7</sat>
      </trkpt>
      <trkpt lat="47.102412" lon="-122.038338">
        <ele>166.6</ele>
        <time>2014-08-14T18:12:56Z</time>
        <sat>7</sat>
      </trkpt>
      <trkpt lat="47.102402" lon="-122.038523">
        <ele>166.3</ele>
        <time>2014-08-14T18:12:58Z</time>
        <sat>7</sat>
      </trkpt>
      <trkpt lat="47.102384" lon="-122.038713">
        <ele>165.9</ele>
        <time>2014-08-14T18:13:00Z</time>
        <sat>7</sat>
      </trkpt>
      <trkpt lat="47.102377" lon="-122.038903">
        <ele>165.7</ele>
        <time>2014-08-14T18:13:02Z</time>
        <sat>6</sat>
      </trkpt>
      <trkpt lat="47.102369" lon="-122.039091">
        <ele>165.3</ele>
        <time>2014-08-14T18:13:04Z</time>
        <sat>6</sat>
      </trkpt>
      <trkpt lat="47.102354" lon="-122.039277">
        <ele>165.1</ele>
        <time>2014-08-14T18:13:06Z</time>
        <sat>7</sat>
      </trkpt>
      <trkpt lat="47.102325" lon="-122.039460">
        <ele>165.0</ele>
        <time>2014-08-14T18:13:08Z</time>
        <sat>7</sat>
      </trkpt>
      <trkpt lat="47.102323" lon="-122.039628">
        <ele>165.1</ele>
        <time>2014-08-14T18:13:10Z</time>
        <sat>6</sat>
      </trkpt>
      <trkpt lat="47.102322" lon="-122.039788">
        <ele>164.8</ele>
        <time>2014-08-14T18:13:12Z</time>
        <sat>7</sat>
      </trkpt>
      <trkpt lat="47.102342" lon="-122.039950">
        <ele>164.9</ele>
        <time>2014-08-14T18:13:14Z</time>
        <sat>8</sat>
      </trkpt>
      <trkpt lat="47.102333" lon="-122.040100">
        <ele>164.5</ele>
        <time>2014-08-14T18:13:16Z</time>
        <sat>8</sat>
      </trkpt>
      <trkpt lat="47.102335" lon="-122.040240">
        <ele>164.6</ele>
        <time>2014-08-14T18:13:18Z</time>
        <sat>9</sat>
      </trkpt>
      <trkpt lat="47.102320" lon="-122.040373">
        <ele>164.7</ele>
        <time>2014-08-14T18:13:20Z</time>
        <sat>8</sat>
      </trkpt>
      <trkpt lat="47.102238" lon="-122.040492">
        <ele>164.4</ele>
        <time>2014-08-14T18:13:23Z</time>
        <sat>7</sat>
      </trkpt>
      <trkpt lat="47.102125" lon="-122.040486">
        <ele>164.5</ele>
        <time>2014-08-14T18:13:26Z</time>
        <sat>8</sat>
      </trkpt>
      <trkpt lat="47.102135" lon="-122.040642">
        <ele>164.8</ele>
        <time>2014-08-14T18:14:40Z</time>
        <sat>8</sat>
      </trkpt>
      <trkpt lat="47.102147" lon="-122.040805">
        <ele>164.5</ele>
        <time>2014-08-14T18:14:43Z</time>
        <sat>8</sat>
      </trkpt>
      <trkpt lat="47.102185" lon="-122.040973">
        <ele>163.9</ele>
        <time>2014-08-14T18:14:46Z</time>
        <sat>8</sat>
      </trkpt>
      <trkpt lat="47.102220" lon="-122.041138">
        <ele>163.9</ele>
        <time>2014-08-14T18:14:49Z</time>
        <sat>8</sat>
      </trkpt>
      <trkpt lat="47.102222" lon="-122.041322">
        <ele>164.0</ele>
        <time>2014-08-14T18:14:52Z</time>
        <sat>8</sat>
      </trkpt>
      <trkpt lat="47.102220" lon="-122.041512">
        <ele>163.7</ele>
        <time>2014-08-14T18:14:55Z</time>
        <sat>8</sat>
      </trkpt>
      <trkpt lat="47.102218" lon="-122.041647">
        <ele>163.4</ele>
        <time>2014-08-14T18:14:57Z</time>
        <sat>8</sat>
      </trkpt>
      <trkpt lat="47.102222" lon="-122.041835">
        <ele>163.1</ele>
        <time>2014-08-14T18:15:00Z</time>
        <sat>8</sat>
      </trkpt>
      <trkpt lat="47.102227" lon="-122.041998">
        <ele>163.2</ele>
        <time>2014-08-14T18:15:03Z</time>
        <sat>8</sat>
      </trkpt>
      <trkpt lat="47.102228" lon="-122.042167">
        <ele>163.0</ele>
        <time>2014-08-14T18:15:06Z</time>
        <sat>8</sat>
      </trkpt>
      <trkpt lat="47.102240" lon="-122.042348">
        <ele>162.9</ele>
        <time>2014-08-14T18:15:09Z</time>
        <sat>8</sat>
      </trkpt>
      <trkpt lat="47.102254" lon="-122.042530">
        <ele>162.5</ele>
        <time>2014-08-14T18:15:12Z</time>
        <sat>8</sat>
      </trkpt>
      <trkpt lat="47.102290" lon="-122.042700">
        <ele>162.4</ele>
        <time>2014-08-14T18:15:15Z</time>
        <sat>8</sat>
      </trkpt>
      <trkpt lat="47.102315" lon="-122.042863">
        <ele>162.1</ele>
        <time>2014-08-14T18:15:18Z</time>
        <sat>9</sat>
      </trkpt>
      <trkpt lat="47.102335" lon="-122.043001">
        <ele>161.8</ele>
        <time>2014-08-14T18:15:21Z</time>
        <sat>9</sat>
      </trkpt>
      <trkpt lat="47.102355" lon="-122.043138">
        <ele>161.8</ele>
        <time>2014-08-14T18:15:24Z</time>
        <sat>9</sat>
      </trkpt>
      <trkpt lat="47.102384" lon="-122.043276">
        <ele>161.6</ele>
        <time>2014-08-14T18:15:27Z</time>
        <sat>9</sat>
      </trkpt>
      <trkpt lat="47.102427" lon="-122.043420">
        <ele>161.4</ele>
        <time>2014-08-14T18:15:30Z</time>
        <sat>9</sat>
      </trkpt>
      <trkpt lat="47.102473" lon="-122.043571">
        <ele>161.1</ele>
        <time>2014-08-14T18:15:33Z</time>
        <sat>9</sat>
      </trkpt>
      <trkpt lat="47.102530" lon="-122.043730">
        <ele>161.2</ele>
        <time>2014-08-14T18:15:36Z</time>
        <sat>9</sat>
      </trkpt>
      <trkpt lat="47.102597" lon="-122.043890">
        <ele>160.7</ele>
        <time>2014-08-14T18:15:39Z</time>
        <sat>9</sat>
      </trkpt>
      <trkpt lat="47.102653" lon="-122.043998">
        <ele>160.7</ele>
        <time>2014-08-14T18:15:41Z</time>
        <sat>9</sat>
      </trkpt>
      <trkpt lat="47.102705" lon="-122.044107">
        <ele>160.5</ele>
        <time>2014-08-14T18:15:43Z</time>
        <sat>9</sat>
      </trkpt>
      <trkpt lat="47.102775" lon="-122.044261">
        <ele>160.4</ele>
        <time>2014-08-14T18:15:46Z</time>
        <sat>9</sat>
      </trkpt>
      <trkpt lat="47.102859" lon="-122.044410">
        <ele>160.1</ele>
        <time>2014-08-14T18:15:49Z</time>
        <sat>9</sat>
      </trkpt>
      <trkpt lat="47.102950" lon="-122.044557">
        <ele>159.9</ele>
        <time>2014-08-14T18:15:52Z</time>
        <sat>9</sat>
      </trkpt>
      <trkpt lat="47.103019" lon="-122.044645">
        <ele>159.8</ele>
        <time>2014-08-14T18:15:54Z</time>
        <sat>9</sat>
      </trkpt>
      <trkpt lat="47.103090" lon="-122.044733">
        <ele>159.9</ele>
        <time>2014-08-14T18:15:56Z</time>
        <sat>9</sat>
      </trkpt>
      <trkpt lat="47.103165" lon="-122.044816">
        <ele>159.6</ele>
        <time>2014-08-14T18:15:58Z</time>
        <sat>9</sat>
      </trkpt>
      <trkpt lat="47.103237" lon="-122.044903">
        <ele>159.2</ele>
        <time>2014-08-14T18:16:00Z</time>
        <sat>9</sat>
      </trkpt>
      <trkpt lat="47.103343" lon="-122.045016">
        <ele>158.9</ele>
        <time>2014-08-14T18:16:03Z</time>
        <sat>9</sat>
      </trkpt>
      <trkpt lat="47.103420" lon="-122.045087">
        <ele>158.8</ele>
        <time>2014-08-14T18:16:05Z</time>
        <sat>9</sat>
      </trkpt>
      <trkpt lat="47.103524" lon="-122.045193">
        <ele>158.6</ele>
        <time>2014-08-14T18:16:08Z</time>
        <sat>9</sat>
      </trkpt>
      <trkpt lat="47.103620" lon="-122.045302">
        <ele>158.4</ele>
        <time>2014-08-14T18:16:11Z</time>
        <sat>9</sat>
      </trkpt>
      <trkpt lat="47.103712" lon="-122.045385">
        <ele>158.4</ele>
        <time>2014-08-14T18:16:14Z</time>
        <sat>9</sat>
      </trkpt>
      <trkpt lat="47.103798" lon="-122.045347">
        <ele>158.3</ele>
        <time>2014-08-14T18:16:19Z</time>
        <sat>9</sat>
      </trkpt>
      <trkpt lat="47.103893" lon="-122.045338">
        <ele>158.1</ele>
        <time>2014-08-14T18:16:48Z</time>
        <sat>8</sat>
      </trkpt>
      <trkpt lat="47.103993" lon="-122.045340">
        <ele>158.1</ele>
        <time>2014-08-14T18:16:51Z</time>
        <sat>9</sat>
      </trkpt>
      <trkpt lat="47.104105" lon="-122.045333">
        <ele>157.8</ele>
        <time>2014-08-14T18:16:54Z</time>
        <sat>9</sat>
      </trkpt>
      <trkpt lat="47.104217" lon="-122.045355">
        <ele>157.7</ele>
        <time>2014-08-14T18:16:57Z</time>
        <sat>9</sat>
      </trkpt>
      <trkpt lat="47.104304" lon="-122.045397">
        <ele>157.4</ele>
        <time>2014-08-14T18:17:00Z</time>
        <sat>9</sat>
      </trkpt>
      <trkpt lat="47.104387" lon="-122.045460">
        <ele>157.2</ele>
        <time>2014-08-14T18:17:04Z</time>
        <sat>8</sat>
      </trkpt>
      <trkpt lat="47.104472" lon="-122.045512">
        <ele>157.5</ele>
        <time>2014-08-14T18:17:27Z</time>
        <sat>8</sat>
      </trkpt>
      <trkpt lat="47.104565" lon="-122.045606">
        <ele>157.5</ele>
        <time>2014-08-14T18:17:31Z</time>
        <sat>8</sat>
      </trkpt>
      <trkpt lat="47.104644" lon="-122.045693">
        <ele>157.1</ele>
        <time>2014-08-14T18:17:35Z</time>
        <sat>8</sat>
      </trkpt>
      <trkpt lat="47.104734" lon="-122.045762">
        <ele>157.0</ele>
        <time>2014-08-14T18:17:39Z</time>
        <sat>8</sat>
      </trkpt>
      <trkpt lat="47.104817" lon="-122.045820">
        <ele>156.8</ele>
        <time>2014-08-14T18:17:47Z</time>
        <sat>9</sat>
      </trkpt>
      <trkpt lat="47.104803" lon="-122.045878">
        <ele>156.6</ele>
        <time>2014-08-14T18:18:11Z</time>
        <sat>9</sat>
      </trkpt>
      <trkpt lat="47.105137" lon="-122.046117">
        <ele>245.5</ele>
        <time>2014-08-14T22:11:51Z</time>
        <sat>9</sat>
      </trkpt>
      <trkpt lat="47.105169" lon="-122.046135">
        <ele>245.5</ele>
        <time>2014-08-14T22:11:52Z</time>
        <sat>9</sat>
      </trkpt>
      <trkpt lat="47.105262" lon="-122.046183">
        <ele>245.2</ele>
        <time>2014-08-14T22:11:55Z</time>
        <sat>9</sat>
      </trkpt>
      <trkpt lat="47.105347" lon="-122.046278">
        <ele>244.9</ele>
        <time>2014-08-14T22:11:58Z</time>
        <sat>9</sat>
      </trkpt>
      <trkpt lat="47.105440" lon="-122.046371">
        <ele>244.9</ele>
        <time>2014-08-14T22:12:01Z</time>
        <sat>9</sat>
      </trkpt>
      <trkpt lat="47.105550" lon="-122.046456">
        <ele>244.8</ele>
        <time>2014-08-14T22:12:04Z</time>
        <sat>9</sat>
      </trkpt>
      <trkpt lat="47.105667" lon="-122.046547">
        <ele>245.0</ele>
        <time>2014-08-14T22:12:07Z</time>
        <sat>9</sat>
      </trkpt>
      <trkpt lat="47.105787" lon="-122.046632">
        <ele>244.9</ele>
        <time>2014-08-14T22:12:10Z</time>
        <sat>9</sat>
      </trkpt>
      <trkpt lat="47.105900" lon="-122.046726">
        <ele>244.9</ele>
        <time>2014-08-14T22:12:13Z</time>
        <sat>9</sat>
      </trkpt>
      <trkpt lat="47.106013" lon="-122.046800">
        <ele>244.8</ele>
        <time>2014-08-14T22:12:16Z</time>
        <sat>9</sat>
      </trkpt>
      <trkpt lat="47.106125" lon="-122.046873">
        <ele>244.8</ele>
        <time>2014-08-14T22:12:19Z</time>
        <sat>9</sat>
      </trkpt>
      <trkpt lat="47.106228" lon="-122.046948">
        <ele>244.6</ele>
        <time>2014-08-14T22:12:22Z</time>
        <sat>8</sat>
      </trkpt>
      <trkpt lat="47.106333" lon="-122.047028">
        <ele>244.6</ele>
        <time>2014-08-14T22:12:25Z</time>
        <sat>8</sat>
      </trkpt>
      <trkpt lat="47.106448" lon="-122.047117">
        <ele>244.8</ele>
        <time>2014-08-14T22:12:28Z</time>
        <sat>8</sat>
      </trkpt>
      <trkpt lat="47.106565" lon="-122.047198">
        <ele>244.6</ele>
        <time>2014-08-14T22:12:31Z</time>
        <sat>8</sat>
      </trkpt>
      <trkpt lat="47.106678" lon="-122.047288">
        <ele>244.7</ele>
        <time>2014-08-14T22:12:34Z</time>
        <sat>8</sat>
      </trkpt>
      <trkpt lat="47.106759" lon="-122.047350">
        <ele>244.5</ele>
        <time>2014-08-14T22:12:36Z</time>
        <sat>8</sat>
      </trkpt>
      <trkpt lat="47.106849" lon="-122.047410">
        <ele>244.5</ele>
        <time>2014-08-14T22:12:38Z</time>
        <sat>8</sat>
      </trkpt>
      <trkpt lat="47.106937" lon="-122.047480">
        <ele>244.5</ele>
        <time>2014-08-14T22:12:40Z</time>
        <sat>8</sat>
      </trkpt>
      <trkpt lat="47.107025" lon="-122.047542">
        <ele>244.4</ele>
        <time>2014-08-14T22:12:42Z</time>
        <sat>8</sat>
      </trkpt>
      <trkpt lat="47.107107" lon="-122.047613">
        <ele>244.2</ele>
        <time>2014-08-14T22:12:44Z</time>
        <sat>8</sat>
      </trkpt>
      <trkpt lat="47.107192" lon="-122.047685">
        <ele>244.3</ele>
        <time>2014-08-14T22:12:46Z</time>
        <sat>8</sat>
      </trkpt>
      <trkpt lat="47.107280" lon="-122.047753">
        <ele>244.4</ele>
        <time>2014-08-14T22:12:48Z</time>
        <sat>8</sat>
      </trkpt>
      <trkpt lat="47.107375" lon="-122.047825">
        <ele>244.3</ele>
        <time>2014-08-14T22:12:50Z</time>
        <sat>8</sat>
      </trkpt>
      <trkpt lat="47.107465" lon="-122.047898">
        <ele>244.1</ele>
        <time>2014-08-14T22:12:52Z</time>
        <sat>8</sat>
      </trkpt>
      <trkpt lat="47.107555" lon="-122.047980">
        <ele>244.0</ele>
        <time>2014-08-14T22:12:54Z</time>
        <sat>8</sat>
      </trkpt>
      <trkpt lat="47.107644" lon="-122.048061">
        <ele>243.7</ele>
        <time>2014-08-14T22:12:56Z</time>
        <sat>8</sat>
      </trkpt>
      <trkpt lat="47.107729" lon="-122.048137">
        <ele>243.5</ele>
        <time>2014-08-14T22:12:58Z</time>
        <sat>8</sat>
      </trkpt>
      <trkpt lat="47.107815" lon="-122.048203">
        <ele>243.7</ele>
        <time>2014-08-14T22:13:00Z</time>
        <sat>8</sat>
      </trkpt>
      <trkpt lat="47.107902" lon="-122.048270">
        <ele>243.6</ele>
        <time>2014-08-14T22:13:02Z</time>
        <sat>8</sat>
      </trkpt>
      <trkpt lat="47.107985" lon="-122.048347">
        <ele>243.5</ele>
        <time>2014-08-14T22:13:04Z</time>
        <sat>8</sat>
      </trkpt>
      <trkpt lat="47.108069" lon="-122.048427">
        <ele>243.2</ele>
        <time>2014-08-14T22:13:06Z</time>
        <sat>8</sat>
      </trkpt>
      <trkpt lat="47.108147" lon="-122.048508">
        <ele>243.0</ele>
        <time>2014-08-14T22:13:08Z</time>
        <sat>8</sat>
      </trkpt>
      <trkpt lat="47.108225" lon="-122.048590">
        <ele>242.9</ele>
        <time>2014-08-14T22:13:10Z</time>
        <sat>8</sat>
      </trkpt>
      <trkpt lat="47.108305" lon="-122.048683">
        <ele>242.4</ele>
        <time>2014-08-14T22:13:12Z</time>
        <sat>8</sat>
      </trkpt>
      <trkpt lat="47.108390" lon="-122.048788">
        <ele>242.1</ele>
        <time>2014-08-14T22:13:14Z</time>
        <sat>8</sat>
      </trkpt>
      <trkpt lat="47.108467" lon="-122.048897">
        <ele>241.7</ele>
        <time>2014-08-14T22:13:16Z</time>
        <sat>8</sat>
      </trkpt>
      <trkpt lat="47.108485" lon="-122.049036">
        <ele>241.3</ele>
        <time>2014-08-14T22:13:18Z</time>
        <sat>8</sat>
      </trkpt>
      <trkpt lat="47.108497" lon="-122.049198">
        <ele>241.0</ele>
        <time>2014-08-14T22:13:20Z</time>
        <sat>8</sat>
      </trkpt>
      <trkpt lat="47.108549" lon="-122.049330">
        <ele>240.7</ele>
        <time>2014-08-14T22:13:22Z</time>
        <sat>8</sat>
      </trkpt>
      <trkpt lat="47.108617" lon="-122.049457">
        <ele>240.3</ele>
        <time>2014-08-14T22:13:24Z</time>
        <sat>8</sat>
      </trkpt>
      <trkpt lat="47.108683" lon="-122.049587">
        <ele>240.1</ele>
        <time>2014-08-14T22:13:26Z</time>
        <sat>8</sat>
      </trkpt>
      <trkpt lat="47.108754" lon="-122.049708">
        <ele>239.7</ele>
        <time>2014-08-14T22:13:28Z</time>
        <sat>8</sat>
      </trkpt>
      <trkpt lat="47.108830" lon="-122.049825">
        <ele>239.4</ele>
        <time>2014-08-14T22:13:30Z</time>
        <sat>8</sat>
      </trkpt>
      <trkpt lat="47.108902" lon="-122.049950">
        <ele>239.3</ele>
        <time>2014-08-14T22:13:32Z</time>
        <sat>8</sat>
      </trkpt>
      <trkpt lat="47.108972" lon="-122.050075">
        <ele>239.2</ele>
        <time>2014-08-14T22:13:34Z</time>
        <sat>8</sat>
      </trkpt>
      <trkpt lat="47.109047" lon="-122.050208">
        <ele>239.0</ele>
        <time>2014-08-14T22:13:36Z</time>
        <sat>8</sat>
      </trkpt>
      <trkpt lat="47.109124" lon="-122.050343">
        <ele>238.7</ele>
        <time>2014-08-14T22:13:38Z</time>
        <sat>8</sat>
      </trkpt>
      <trkpt lat="47.109195" lon="-122.050481">
        <ele>238.5</ele>
        <time>2014-08-14T22:13:40Z</time>
        <sat>8</sat>
      </trkpt>
      <trkpt lat="47.109268" lon="-122.050620">
        <ele>238.3</ele>
        <time>2014-08-14T22:13:42Z</time>
        <sat>8</sat>
      </trkpt>
      <trkpt lat="47.109337" lon="-122.050753">
        <ele>238.3</ele>
        <time>2014-08-14T22:13:44Z</time>
        <sat>8</sat>
      </trkpt>
      <trkpt lat="47.109410" lon="-122.050888">
        <ele>237.9</ele>
        <time>2014-08-14T22:13:46Z</time>
        <sat>8</sat>
      </trkpt>
      <trkpt lat="47.109482" lon="-122.051023">
        <ele>237.7</ele>
        <time>2014-08-14T22:13:48Z</time>
        <sat>8</sat>
      </trkpt>
      <trkpt lat="47.109539" lon="-122.051150">
        <ele>238.0</ele>
        <time>2014-08-14T22:13:50Z</time>
        <sat>8</sat>
      </trkpt>
      <trkpt lat="47.109592" lon="-122.051285">
        <ele>237.8</ele>
        <time>2014-08-14T22:13:52Z</time>
        <sat>8</sat>
      </trkpt>
      <trkpt lat="47.109662" lon="-122.051401">
        <ele>237.8</ele>
        <time>2014-08-14T22:13:54Z</time>
        <sat>8</sat>
      </trkpt>
      <trkpt lat="47.109749" lon="-122.051513">
        <ele>237.8</ele>
        <time>2014-08-14T22:13:56Z</time>
        <sat>8</sat>
      </trkpt>
      <trkpt lat="47.109817" lon="-122.051621">
        <ele>237.9</ele>
        <time>2014-08-14T22:13:58Z</time>
        <sat>8</sat>
      </trkpt>
      <trkpt lat="47.109879" lon="-122.051721">
        <ele>237.8</ele>
        <time>2014-08-14T22:14:00Z</time>
        <sat>8</sat>
      </trkpt>
      <trkpt lat="47.109933" lon="-122.051831">
        <ele>237.9</ele>
        <time>2014-08-14T22:14:02Z</time>
        <sat>8</sat>
      </trkpt>
      <trkpt lat="47.109990" lon="-122.051950">
        <ele>237.9</ele>
        <time>2014-08-14T22:14:04Z</time>
        <sat>8</sat>
      </trkpt>
      <trkpt lat="47.110057" lon="-122.052060">
        <ele>237.7</ele>
        <time>2014-08-14T22:14:06Z</time>
        <sat>8</sat>
      </trkpt>
      <trkpt lat="47.110138" lon="-122.052173">
        <ele>237.2</ele>
        <time>2014-08-14T22:14:08Z</time>
        <sat>8</sat>
      </trkpt>
      <trkpt lat="47.110222" lon="-122.052310">
        <ele>236.7</ele>
        <time>2014-08-14T22:14:10Z</time>
        <sat>8</sat>
      </trkpt>
      <trkpt lat="47.110287" lon="-122.052445">
        <ele>236.6</ele>
        <time>2014-08-14T22:14:12Z</time>
        <sat>8</sat>
      </trkpt>
      <trkpt lat="47.110354" lon="-122.052558">
        <ele>236.7</ele>
        <time>2014-08-14T22:14:14Z</time>
        <sat>8</sat>
      </trkpt>
      <trkpt lat="47.110420" lon="-122.052673">
        <ele>236.6</ele>
        <time>2014-08-14T22:14:16Z</time>
        <sat>8</sat>
      </trkpt>
      <trkpt lat="47.110488" lon="-122.052782">
        <ele>236.6</ele>
        <time>2014-08-14T22:14:18Z</time>
        <sat>8</sat>
      </trkpt>
      <trkpt lat="47.110554" lon="-122.052897">
        <ele>236.4</ele>
        <time>2014-08-14T22:14:20Z</time>
        <sat>8</sat>
      </trkpt>
      <trkpt lat="47.110625" lon="-122.053055">
        <ele>236.3</ele>
        <time>2014-08-14T22:14:23Z</time>
        <sat>8</sat>
      </trkpt>
      <trkpt lat="47.110698" lon="-122.053167">
        <ele>236.2</ele>
        <time>2014-08-14T22:14:26Z</time>
        <sat>8</sat>
      </trkpt>
      <trkpt lat="47.110740" lon="-122.053316">
        <ele>235.6</ele>
        <time>2014-08-14T22:14:33Z</time>
        <sat>8</sat>
      </trkpt>
      <trkpt lat="47.110794" lon="-122.053430">
        <ele>236.0</ele>
        <time>2014-08-14T22:14:39Z</time>
        <sat>9</sat>
      </trkpt>
      <trkpt lat="47.110860" lon="-122.053555">
        <ele>236.0</ele>
        <time>2014-08-14T22:14:44Z</time>
        <sat>9</sat>
      </trkpt>
      <trkpt lat="47.110943" lon="-122.053680">
        <ele>236.1</ele>
        <time>2014-08-14T22:14:48Z</time>
        <sat>9</sat>
      </trkpt>
      <trkpt lat="47.111012" lon="-122.053766">
        <ele>236.0</ele>
        <time>2014-08-14T22:14:51Z</time>
        <sat>9</sat>
      </trkpt>
      <trkpt lat="47.111084" lon="-122.053893">
        <ele>235.9</ele>
        <time>2014-08-14T22:14:55Z</time>
        <sat>9</sat>
      </trkpt>
      <trkpt lat="47.111138" lon="-122.054000">
        <ele>235.6</ele>
        <time>2014-08-14T22:14:59Z</time>
        <sat>9</sat>
      </trkpt>
      <trkpt lat="47.111199" lon="-122.054121">
        <ele>235.6</ele>
        <time>2014-08-14T22:15:04Z</time>
        <sat>9</sat>
      </trkpt>
      <trkpt lat="47.111267" lon="-122.054208">
        <ele>235.6</ele>
        <time>2014-08-14T22:15:09Z</time>
        <sat>8</sat>
      </trkpt>
      <trkpt lat="47.111352" lon="-122.054165">
        <ele>236.3</ele>
        <time>2014-08-14T22:15:14Z</time>
        <sat>8</sat>
      </trkpt>
      <trkpt lat="47.111415" lon="-122.054275">
        <ele>236.5</ele>
        <time>2014-08-14T22:15:18Z</time>
        <sat>8</sat>
      </trkpt>
      <trkpt lat="47.111482" lon="-122.054367">
        <ele>236.7</ele>
        <time>2014-08-14T22:15:21Z</time>
        <sat>8</sat>
      </trkpt>
      <trkpt lat="47.111572" lon="-122.054403">
        <ele>236.9</ele>
        <time>2014-08-14T22:15:24Z</time>
        <sat>8</sat>
      </trkpt>
      <trkpt lat="47.111644" lon="-122.054505">
        <ele>237.0</ele>
        <time>2014-08-14T22:15:27Z</time>
        <sat>8</sat>
      </trkpt>
      <trkpt lat="47.111705" lon="-122.054623">
        <ele>237.3</ele>
        <time>2014-08-14T22:15:30Z</time>
        <sat>7</sat>
      </trkpt>
      <trkpt lat="47.111775" lon="-122.054743">
        <ele>237.3</ele>
        <time>2014-08-14T22:15:33Z</time>
        <sat>8</sat>
      </trkpt>
      <trkpt lat="47.111843" lon="-122.054865">
        <ele>237.3</ele>
        <time>2014-08-14T22:15:36Z</time>
        <sat>7</sat>
      </trkpt>
      <trkpt lat="47.111910" lon="-122.055023">
        <ele>237.6</ele>
        <time>2014-08-14T22:15:39Z</time>
        <sat>8</sat>
      </trkpt>
      <trkpt lat="47.111982" lon="-122.055172">
        <ele>237.9</ele>
        <time>2014-08-14T22:15:42Z</time>
        <sat>7</sat>
      </trkpt>
      <trkpt lat="47.112048" lon="-122.055283">
        <ele>238.1</ele>
        <time>2014-08-14T22:15:45Z</time>
        <sat>8</sat>
      </trkpt>
      <trkpt lat="47.112112" lon="-122.055392">
        <ele>238.4</ele>
        <time>2014-08-14T22:15:48Z</time>
        <sat>7</sat>
      </trkpt>
      <trkpt lat="47.112170" lon="-122.055546">
        <ele>238.0</ele>
        <time>2014-08-14T22:15:51Z</time>
        <sat>8</sat>
      </trkpt>
      <trkpt lat="47.112229" lon="-122.055650">
        <ele>238.0</ele>
        <time>2014-08-14T22:15:53Z</time>
        <sat>8</sat>
      </trkpt>
      <trkpt lat="47.112290" lon="-122.055756">
        <ele>238.0</ele>
        <time>2014-08-14T22:15:55Z</time>
        <sat>8</sat>
      </trkpt>
      <trkpt lat="47.112357" lon="-122.055861">
        <ele>237.9</ele>
        <time>2014-08-14T22:15:57Z</time>
        <sat>8</sat>
      </trkpt>
      <trkpt lat="47.112412" lon="-122.055966">
        <ele>237.9</ele>
        <time>2014-08-14T22:15:59Z</time>
        <sat>8</sat>
      </trkpt>
      <trkpt lat="47.112503" lon="-122.056108">
        <ele>238.0</ele>
        <time>2014-08-14T22:16:02Z</time>
        <sat>8</sat>
      </trkpt>
      <trkpt lat="47.112595" lon="-122.056246">
        <ele>237.7</ele>
        <time>2014-08-14T22:16:05Z</time>
        <sat>8</sat>
      </trkpt>
      <trkpt lat="47.112682" lon="-122.056397">
        <ele>237.6</ele>
        <time>2014-08-14T22:16:08Z</time>
        <sat>8</sat>
      </trkpt>
      <trkpt lat="47.112743" lon="-122.056503">
        <ele>237.5</ele>
        <time>2014-08-14T22:16:10Z</time>
        <sat>8</sat>
      </trkpt>
      <trkpt lat="47.112804" lon="-122.056612">
        <ele>237.3</ele>
        <time>2014-08-14T22:16:12Z</time>
        <sat>8</sat>
      </trkpt>
      <trkpt lat="47.112863" lon="-122.056718">
        <ele>237.5</ele>
        <time>2014-08-14T22:16:14Z</time>
        <sat>8</sat>
      </trkpt>
      <trkpt lat="47.112920" lon="-122.056832">
        <ele>237.4</ele>
        <time>2014-08-14T22:16:16Z</time>
        <sat>8</sat>
      </trkpt>
      <trkpt lat="47.112970" lon="-122.056945">
        <ele>237.5</ele>
        <time>2014-08-14T22:16:18Z</time>
        <sat>8</sat>
      </trkpt>
      <trkpt lat="47.113022" lon="-122.057060">
        <ele>237.5</ele>
        <time>2014-08-14T22:16:20Z</time>
        <sat>8</sat>
      </trkpt>
      <trkpt lat="47.113077" lon="-122.057193">
        <ele>237.5</ele>
        <time>2014-08-14T22:16:22Z</time>
        <sat>8</sat>
      </trkpt>
      <trkpt lat="47.113144" lon="-122.057307">
        <ele>237.4</ele>
        <time>2014-08-14T22:16:24Z</time>
        <sat>8</sat>
      </trkpt>
      <trkpt lat="47.113205" lon="-122.057420">
        <ele>237.4</ele>
        <time>2014-08-14T22:16:26Z</time>
        <sat>8</sat>
      </trkpt>
      <trkpt lat="47.113267" lon="-122.057531">
        <ele>237.5</ele>
        <time>2014-08-14T22:16:28Z</time>
        <sat>8</sat>
      </trkpt>
      <trkpt lat="47.113330" lon="-122.057643">
        <ele>237.4</ele>
        <time>2014-08-14T22:16:30Z</time>
        <sat>8</sat>
      </trkpt>
      <trkpt lat="47.113393" lon="-122.057750">
        <ele>237.5</ele>
        <time>2014-08-14T22:16:32Z</time>
        <sat>8</sat>
      </trkpt>
      <trkpt lat="47.113482" lon="-122.057900">
        <ele>237.3</ele>
        <time>2014-08-14T22:16:35Z</time>
        <sat>8</sat>
      </trkpt>
      <trkpt lat="47.113567" lon="-122.058053">
        <ele>237.2</ele>
        <time>2014-08-14T22:16:38Z</time>
        <sat>8</sat>
      </trkpt>
      <trkpt lat="47.113627" lon="-122.058167">
        <ele>237.1</ele>
        <time>2014-08-14T22:16:40Z</time>
        <sat>8</sat>
      </trkpt>
      <trkpt lat="47.113692" lon="-122.058283">
        <ele>237.3</ele>
        <time>2014-08-14T22:16:42Z</time>
        <sat>8</sat>
      </trkpt>
      <trkpt lat="47.113757" lon="-122.058405">
        <ele>237.1</ele>
        <time>2014-08-14T22:16:44Z</time>
        <sat>8</sat>
      </trkpt>
      <trkpt lat="47.113822" lon="-122.058536">
        <ele>236.9</ele>
        <time>2014-08-14T22:16:46Z</time>
        <sat>8</sat>
      </trkpt>
      <trkpt lat="47.113890" lon="-122.058668">
        <ele>236.8</ele>
        <time>2014-08-14T22:16:48Z</time>
        <sat>8</sat>
      </trkpt>
      <trkpt lat="47.113955" lon="-122.058806">
        <ele>236.6</ele>
        <time>2014-08-14T22:16:50Z</time>
        <sat>8</sat>
      </trkpt>
      <trkpt lat="47.114025" lon="-122.058952">
        <ele>236.2</ele>
        <time>2014-08-14T22:16:52Z</time>
        <sat>8</sat>
      </trkpt>
      <trkpt lat="47.114098" lon="-122.059090">
        <ele>235.7</ele>
        <time>2014-08-14T22:16:54Z</time>
        <sat>8</sat>
      </trkpt>
      <trkpt lat="47.114173" lon="-122.059231">
        <ele>235.4</ele>
        <time>2014-08-14T22:16:56Z</time>
        <sat>8</sat>
      </trkpt>
      <trkpt lat="47.114252" lon="-122.059376">
        <ele>234.8</ele>
        <time>2014-08-14T22:16:58Z</time>
        <sat>8</sat>
      </trkpt>
      <trkpt lat="47.114329" lon="-122.059528">
        <ele>234.3</ele>
        <time>2014-08-14T22:17:00Z</time>
        <sat>8</sat>
      </trkpt>
      <trkpt lat="47.114407" lon="-122.059690">
        <ele>233.9</ele>
        <time>2014-08-14T22:17:02Z</time>
        <sat>8</sat>
      </trkpt>
      <trkpt lat="47.114485" lon="-122.059858">
        <ele>233.4</ele>
        <time>2014-08-14T22:17:04Z</time>
        <sat>8</sat>
      </trkpt>
      <trkpt lat="47.114567" lon="-122.060026">
        <ele>233.0</ele>
        <time>2014-08-14T22:17:06Z</time>
        <sat>8</sat>
      </trkpt>
      <trkpt lat="47.114639" lon="-122.060193">
        <ele>232.8</ele>
        <time>2014-08-14T22:17:08Z</time>
        <sat>8</sat>
      </trkpt>
      <trkpt lat="47.114705" lon="-122.060353">
        <ele>232.3</ele>
        <time>2014-08-14T22:17:10Z</time>
        <sat>8</sat>
      </trkpt>
      <trkpt lat="47.114769" lon="-122.060512">
        <ele>232.1</ele>
        <time>2014-08-14T22:17:12Z</time>
        <sat>8</sat>
      </trkpt>
      <trkpt lat="47.114848" lon="-122.060627">
        <ele>231.9</ele>
        <time>2014-08-14T22:17:14Z</time>
        <sat>8</sat>
      </trkpt>
      <trkpt lat="47.114953" lon="-122.060627">
        <ele>232.2</ele>
        <time>2014-08-14T22:17:16Z</time>
        <sat>8</sat>
      </trkpt>
      <trkpt lat="47.115035" lon="-122.060545">
        <ele>232.3</ele>
        <time>2014-08-14T22:17:18Z</time>
        <sat>8</sat>
      </trkpt>
      <trkpt lat="47.115112" lon="-122.060456">
        <ele>232.5</ele>
        <time>2014-08-14T22:17:20Z</time>
        <sat>8</sat>
      </trkpt>
      <trkpt lat="47.115195" lon="-122.060371">
        <ele>232.3</ele>
        <time>2014-08-14T22:17:22Z</time>
        <sat>8</sat>
      </trkpt>
      <trkpt lat="47.115267" lon="-122.060280">
        <ele>232.3</ele>
        <time>2014-08-14T22:17:24Z</time>
        <sat>8</sat>
      </trkpt>
      <trkpt lat="47.115344" lon="-122.060187">
        <ele>232.3</ele>
        <time>2014-08-14T22:17:26Z</time>
        <sat>8</sat>
      </trkpt>
      <trkpt lat="47.115428" lon="-122.060113">
        <ele>232.2</ele>
        <time>2014-08-14T22:17:28Z</time>
        <sat>8</sat>
      </trkpt>
      <trkpt lat="47.115512" lon="-122.060030">
        <ele>232.2</ele>
        <time>2014-08-14T22:17:30Z</time>
        <sat>8</sat>
      </trkpt>
      <trkpt lat="47.115597" lon="-122.059948">
        <ele>232.3</ele>
        <time>2014-08-14T22:17:32Z</time>
        <sat>8</sat>
      </trkpt>
      <trkpt lat="47.115682" lon="-122.059868">
        <ele>232.5</ele>
        <time>2014-08-14T22:17:34Z</time>
        <sat>8</sat>
      </trkpt>
      <trkpt lat="47.115765" lon="-122.059791">
        <ele>232.6</ele>
        <time>2014-08-14T22:17:36Z</time>
        <sat>8</sat>
      </trkpt>
      <trkpt lat="47.115848" lon="-122.059715">
        <ele>232.7</ele>
        <time>2014-08-14T22:17:38Z</time>
        <sat>8</sat>
      </trkpt>
      <trkpt lat="47.115934" lon="-122.059640">
        <ele>232.9</ele>
        <time>2014-08-14T22:17:40Z</time>
        <sat>8</sat>
      </trkpt>
      <trkpt lat="47.116015" lon="-122.059561">
        <ele>232.5</ele>
        <time>2014-08-14T22:17:42Z</time>
        <sat>8</sat>
      </trkpt>
      <trkpt lat="47.116097" lon="-122.059487">
        <ele>232.3</ele>
        <time>2014-08-14T22:17:44Z</time>
        <sat>8</sat>
      </trkpt>
      <trkpt lat="47.116175" lon="-122.059408">
        <ele>232.4</ele>
        <time>2014-08-14T22:17:46Z</time>
        <sat>8</sat>
      </trkpt>
      <trkpt lat="47.116252" lon="-122.059336">
        <ele>232.3</ele>
        <time>2014-08-14T22:17:48Z</time>
        <sat>8</sat>
      </trkpt>
      <trkpt lat="47.116362" lon="-122.059233">
        <ele>232.3</ele>
        <time>2014-08-14T22:17:51Z</time>
        <sat>8</sat>
      </trkpt>
      <trkpt lat="47.116480" lon="-122.059128">
        <ele>232.5</ele>
        <time>2014-08-14T22:17:54Z</time>
        <sat>8</sat>
      </trkpt>
      <trkpt lat="47.116575" lon="-122.059052">
        <ele>232.4</ele>
        <time>2014-08-14T22:17:57Z</time>
        <sat>8</sat>
      </trkpt>
      <trkpt lat="47.116663" lon="-122.058945">
        <ele>232.4</ele>
        <time>2014-08-14T22:18:00Z</time>
        <sat>8</sat>
      </trkpt>
      <trkpt lat="47.116767" lon="-122.058823">
        <ele>232.3</ele>
        <time>2014-08-14T22:18:03Z</time>
        <sat>8</sat>
      </trkpt>
      <trkpt lat="47.116843" lon="-122.058750">
        <ele>232.5</ele>
        <time>2014-08-14T22:18:05Z</time>
        <sat>8</sat>
      </trkpt>
      <trkpt lat="47.116920" lon="-122.058673">
        <ele>232.4</ele>
        <time>2014-08-14T22:18:07Z</time>
        <sat>8</sat>
      </trkpt>
      <trkpt lat="47.117000" lon="-122.058597">
        <ele>232.3</ele>
        <time>2014-08-14T22:18:09Z</time>
        <sat>8</sat>
      </trkpt>
      <trkpt lat="47.117082" lon="-122.058515">
        <ele>232.2</ele>
        <time>2014-08-14T22:18:11Z</time>
        <sat>8</sat>
      </trkpt>
      <trkpt lat="47.117165" lon="-122.058431">
        <ele>232.1</ele>
        <time>2014-08-14T22:18:13Z</time>
        <sat>7</sat>
      </trkpt>
      <trkpt lat="47.117250" lon="-122.058351">
        <ele>232.3</ele>
        <time>2014-08-14T22:18:15Z</time>
        <sat>7</sat>
      </trkpt>
      <trkpt lat="47.117332" lon="-122.058272">
        <ele>232.3</ele>
        <time>2014-08-14T22:18:17Z</time>
        <sat>8</sat>
      </trkpt>
      <trkpt lat="47.117410" lon="-122.058191">
        <ele>232.2</ele>
        <time>2014-08-14T22:18:19Z</time>
        <sat>8</sat>
      </trkpt>
      <trkpt lat="47.117487" lon="-122.058108">
        <ele>232.3</ele>
        <time>2014-08-14T22:18:21Z</time>
        <sat>8</sat>
      </trkpt>
      <trkpt lat="47.117564" lon="-122.058025">
        <ele>232.2</ele>
        <time>2014-08-14T22:18:23Z</time>
        <sat>8</sat>
      </trkpt>
      <trkpt lat="47.117643" lon="-122.057937">
        <ele>232.2</ele>
        <time>2014-08-14T22:18:25Z</time>
        <sat>8</sat>
      </trkpt>
      <trkpt lat="47.117719" lon="-122.057857">
        <ele>232.1</ele>
        <time>2014-08-14T22:18:27Z</time>
        <sat>8</sat>
      </trkpt>
      <trkpt lat="47.117789" lon="-122.057763">
        <ele>231.8</ele>
        <time>2014-08-14T22:18:29Z</time>
        <sat>8</sat>
      </trkpt>
      <trkpt lat="47.117865" lon="-122.057668">
        <ele>231.6</ele>
        <time>2014-08-14T22:18:31Z</time>
        <sat>8</sat>
      </trkpt>
      <trkpt lat="47.117947" lon="-122.057568">
        <ele>231.5</ele>
        <time>2014-08-14T22:18:33Z</time>
        <sat>8</sat>
      </trkpt>
      <trkpt lat="47.118029" lon="-122.057465">
        <ele>231.2</ele>
        <time>2014-08-14T22:18:35Z</time>
        <sat>8</sat>
      </trkpt>
      <trkpt lat="47.118108" lon="-122.057362">
        <ele>231.0</ele>
        <time>2014-08-14T22:18:37Z</time>
        <sat>8</sat>
      </trkpt>
      <trkpt lat="47.118185" lon="-122.057262">
        <ele>231.0</ele>
        <time>2014-08-14T22:18:39Z</time>
        <sat>8</sat>
      </trkpt>
      <trkpt lat="47.118259" lon="-122.057163">
        <ele>230.9</ele>
        <time>2014-08-14T22:18:41Z</time>
        <sat>7</sat>
      </trkpt>
      <trkpt lat="47.118330" lon="-122.057068">
        <ele>230.9</ele>
        <time>2014-08-14T22:18:43Z</time>
        <sat>8</sat>
      </trkpt>
      <trkpt lat="47.118402" lon="-122.056973">
        <ele>231.0</ele>
        <time>2014-08-14T22:18:45Z</time>
        <sat>8</sat>
      </trkpt>
      <trkpt lat="47.118470" lon="-122.056875">
        <ele>230.9</ele>
        <time>2014-08-14T22:18:47Z</time>
        <sat>8</sat>
      </trkpt>
      <trkpt lat="47.118538" lon="-122.056785">
        <ele>230.8</ele>
        <time>2014-08-14T22:18:49Z</time>
        <sat>8</sat>
      </trkpt>
      <trkpt lat="47.118638" lon="-122.056650">
        <ele>231.0</ele>
        <time>2014-08-14T22:18:52Z</time>
        <sat>7</sat>
      </trkpt>
      <trkpt lat="47.118709" lon="-122.056563">
        <ele>231.0</ele>
        <time>2014-08-14T22:18:54Z</time>
        <sat>8</sat>
      </trkpt>
      <trkpt lat="47.118775" lon="-122.056470">
        <ele>230.9</ele>
        <time>2014-08-14T22:18:56Z</time>
        <sat>8</sat>
      </trkpt>
      <trkpt lat="47.118844" lon="-122.056377">
        <ele>230.8</ele>
        <time>2014-08-14T22:18:58Z</time>
        <sat>8</sat>
      </trkpt>
      <trkpt lat="47.118917" lon="-122.056275">
        <ele>230.7</ele>
        <time>2014-08-14T22:19:00Z</time>
        <sat>8</sat>
      </trkpt>
      <trkpt lat="47.118988" lon="-122.056175">
        <ele>230.5</ele>
        <time>2014-08-14T22:19:02Z</time>
        <sat>8</sat>
      </trkpt>
      <trkpt lat="47.119059" lon="-122.056080">
        <ele>230.5</ele>
        <time>2014-08-14T22:19:04Z</time>
        <sat>8</sat>
      </trkpt>
      <trkpt lat="47.119125" lon="-122.055983">
        <ele>230.4</ele>
        <time>2014-08-14T22:19:06Z</time>
        <sat>8</sat>
      </trkpt>
      <trkpt lat="47.119190" lon="-122.055886">
        <ele>230.4</ele>
        <time>2014-08-14T22:19:08Z</time>
        <sat>8</sat>
      </trkpt>
      <trkpt lat="47.119262" lon="-122.055793">
        <ele>230.4</ele>
        <time>2014-08-14T22:19:10Z</time>
        <sat>8</sat>
      </trkpt>
      <trkpt lat="47.119337" lon="-122.055703">
        <ele>230.0</ele>
        <time>2014-08-14T22:19:12Z</time>
        <sat>8</sat>
      </trkpt>
      <trkpt lat="47.119415" lon="-122.055617">
        <ele>229.9</ele>
        <time>2014-08-14T22:19:14Z</time>
        <sat>7</sat>
      </trkpt>
      <trkpt lat="47.119485" lon="-122.055525">
        <ele>229.9</ele>
        <time>2014-08-14T22:19:16Z</time>
        <sat>7</sat>
      </trkpt>
      <trkpt lat="47.119565" lon="-122.055378">
        <ele>230.0</ele>
        <time>2014-08-14T22:19:19Z</time>
        <sat>7</sat>
      </trkpt>
      <trkpt lat="47.119645" lon="-122.055238">
        <ele>229.8</ele>
        <time>2014-08-14T22:19:22Z</time>
        <sat>8</sat>
      </trkpt>
      <trkpt lat="47.119714" lon="-122.055140">
        <ele>229.7</ele>
        <time>2014-08-14T22:19:24Z</time>
        <sat>8</sat>
      </trkpt>
      <trkpt lat="47.119792" lon="-122.055048">
        <ele>229.6</ele>
        <time>2014-08-14T22:19:26Z</time>
        <sat>8</sat>
      </trkpt>
      <trkpt lat="47.119868" lon="-122.054950">
        <ele>229.3</ele>
        <time>2014-08-14T22:19:28Z</time>
        <sat>7</sat>
      </trkpt>
      <trkpt lat="47.119944" lon="-122.054856">
        <ele>229.2</ele>
        <time>2014-08-14T22:19:30Z</time>
        <sat>8</sat>
      </trkpt>
      <trkpt lat="47.120017" lon="-122.054761">
        <ele>229.1</ele>
        <time>2014-08-14T22:19:32Z</time>
        <sat>8</sat>
      </trkpt>
      <trkpt lat="47.120093" lon="-122.054671">
        <ele>229.2</ele>
        <time>2014-08-14T22:19:34Z</time>
        <sat>8</sat>
      </trkpt>
      <trkpt lat="47.120172" lon="-122.054578">
        <ele>229.1</ele>
        <time>2014-08-14T22:19:36Z</time>
        <sat>8</sat>
      </trkpt>
      <trkpt lat="47.120244" lon="-122.054480">
        <ele>228.8</ele>
        <time>2014-08-14T22:19:38Z</time>
        <sat>8</sat>
      </trkpt>
      <trkpt lat="47.120320" lon="-122.054382">
        <ele>228.9</ele>
        <time>2014-08-14T22:19:40Z</time>
        <sat>7</sat>
      </trkpt>
      <trkpt lat="47.120395" lon="-122.054278">
        <ele>228.7</ele>
        <time>2014-08-14T22:19:42Z</time>
        <sat>7</sat>
      </trkpt>
      <trkpt lat="47.120474" lon="-122.054175">
        <ele>229.0</ele>
        <time>2014-08-14T22:19:44Z</time>
        <sat>7</sat>
      </trkpt>
      <trkpt lat="47.120553" lon="-122.054066">
        <ele>228.7</ele>
        <time>2014-08-14T22:19:46Z</time>
        <sat>7</sat>
      </trkpt>
      <trkpt lat="47.120632" lon="-122.053958">
        <ele>228.6</ele>
        <time>2014-08-14T22:19:48Z</time>
        <sat>8</sat>
      </trkpt>
      <trkpt lat="47.120715" lon="-122.053856">
        <ele>228.6</ele>
        <time>2014-08-14T22:19:50Z</time>
        <sat>8</sat>
      </trkpt>
      <trkpt lat="47.120797" lon="-122.053755">
        <ele>228.8</ele>
        <time>2014-08-14T22:19:52Z</time>
        <sat>7</sat>
      </trkpt>
      <trkpt lat="47.120872" lon="-122.053653">
        <ele>228.7</ele>
        <time>2014-08-14T22:19:54Z</time>
        <sat>7</sat>
      </trkpt>
      <trkpt lat="47.120949" lon="-122.053548">
        <ele>228.6</ele>
        <time>2014-08-14T22:19:56Z</time>
        <sat>7</sat>
      </trkpt>
      <trkpt lat="47.121025" lon="-122.053450">
        <ele>228.7</ele>
        <time>2014-08-14T22:19:58Z</time>
        <sat>7</sat>
      </trkpt>
      <trkpt lat="47.121097" lon="-122.053347">
        <ele>228.7</ele>
        <time>2014-08-14T22:20:00Z</time>
        <sat>8</sat>
      </trkpt>
      <trkpt lat="47.121170" lon="-122.053248">
        <ele>228.9</ele>
        <time>2014-08-14T22:20:02Z</time>
        <sat>8</sat>
      </trkpt>
      <trkpt lat="47.121240" lon="-122.053153">
        <ele>229.0</ele>
        <time>2014-08-14T22:20:04Z</time>
        <sat>8</sat>
      </trkpt>
      <trkpt lat="47.121308" lon="-122.053063">
        <ele>229.0</ele>
        <time>2014-08-14T22:20:06Z</time>
        <sat>8</sat>
      </trkpt>
      <trkpt lat="47.121409" lon="-122.052940">
        <ele>229.2</ele>
        <time>2014-08-14T22:20:09Z</time>
        <sat>8</sat>
      </trkpt>
      <trkpt lat="47.121504" lon="-122.052813">
        <ele>229.5</ele>
        <time>2014-08-14T22:20:12Z</time>
        <sat>8</sat>
      </trkpt>
      <trkpt lat="47.121595" lon="-122.052692">
        <ele>229.7</ele>
        <time>2014-08-14T22:20:15Z</time>
        <sat>8</sat>
      </trkpt>
      <trkpt lat="47.121680" lon="-122.052575">
        <ele>230.2</ele>
        <time>2014-08-14T22:20:18Z</time>
        <sat>8</sat>
      </trkpt>
      <trkpt lat="47.121768" lon="-122.052465">
        <ele>230.1</ele>
        <time>2014-08-14T22:20:21Z</time>
        <sat>8</sat>
      </trkpt>
      <trkpt lat="47.121852" lon="-122.052352">
        <ele>230.2</ele>
        <time>2014-08-14T22:20:24Z</time>
        <sat>7</sat>
      </trkpt>
      <trkpt lat="47.121934" lon="-122.052238">
        <ele>230.4</ele>
        <time>2014-08-14T22:20:27Z</time>
        <sat>7</sat>
      </trkpt>
      <trkpt lat="47.122015" lon="-122.052130">
        <ele>230.8</ele>
        <time>2014-08-14T22:20:30Z</time>
        <sat>8</sat>
      </trkpt>
      <trkpt lat="47.122100" lon="-122.052010">
        <ele>230.8</ele>
        <time>2014-08-14T22:20:33Z</time>
        <sat>7</sat>
      </trkpt>
      <trkpt lat="47.122189" lon="-122.051888">
        <ele>231.1</ele>
        <time>2014-08-14T22:20:36Z</time>
        <sat>7</sat>
      </trkpt>
      <trkpt lat="47.122272" lon="-122.051772">
        <ele>231.1</ele>
        <time>2014-08-14T22:20:39Z</time>
        <sat>7</sat>
      </trkpt>
      <trkpt lat="47.122350" lon="-122.051670">
        <ele>231.4</ele>
        <time>2014-08-14T22:20:42Z</time>
        <sat>7</sat>
      </trkpt>
      <trkpt lat="47.122432" lon="-122.051562">
        <ele>231.8</ele>
        <time>2014-08-14T22:20:45Z</time>
        <sat>7</sat>
      </trkpt>
      <trkpt lat="47.122517" lon="-122.051443">
        <ele>231.9</ele>
        <time>2014-08-14T22:20:48Z</time>
        <sat>7</sat>
      </trkpt>
      <trkpt lat="47.122609" lon="-122.051320">
        <ele>231.8</ele>
        <time>2014-08-14T22:20:51Z</time>
        <sat>7</sat>
      </trkpt>
      <trkpt lat="47.122698" lon="-122.051196">
        <ele>232.0</ele>
        <time>2014-08-14T22:20:54Z</time>
        <sat>7</sat>
      </trkpt>
      <trkpt lat="47.122792" lon="-122.051075">
        <ele>232.0</ele>
        <time>2014-08-14T22:20:57Z</time>
        <sat>7</sat>
      </trkpt>
      <trkpt lat="47.122885" lon="-122.050955">
        <ele>232.1</ele>
        <time>2014-08-14T22:21:00Z</time>
        <sat>7</sat>
      </trkpt>
      <trkpt lat="47.122987" lon="-122.050836">
        <ele>232.3</ele>
        <time>2014-08-14T22:21:03Z</time>
        <sat>8</sat>
      </trkpt>
      <trkpt lat="47.123098" lon="-122.050731">
        <ele>232.3</ele>
        <time>2014-08-14T22:21:06Z</time>
        <sat>8</sat>
      </trkpt>
      <trkpt lat="47.123215" lon="-122.050623">
        <ele>232.7</ele>
        <time>2014-08-14T22:21:09Z</time>
        <sat>8</sat>
      </trkpt>
      <trkpt lat="47.123300" lon="-122.050550">
        <ele>232.5</ele>
        <time>2014-08-14T22:21:11Z</time>
        <sat>8</sat>
      </trkpt>
      <trkpt lat="47.123394" lon="-122.050477">
        <ele>232.5</ele>
        <time>2014-08-14T22:21:13Z</time>
        <sat>7</sat>
      </trkpt>
      <trkpt lat="47.123489" lon="-122.050403">
        <ele>232.4</ele>
        <time>2014-08-14T22:21:15Z</time>
        <sat>8</sat>
      </trkpt>
      <trkpt lat="47.123590" lon="-122.050330">
        <ele>232.1</ele>
        <time>2014-08-14T22:21:17Z</time>
        <sat>7</sat>
      </trkpt>
      <trkpt lat="47.123695" lon="-122.050256">
        <ele>232.0</ele>
        <time>2014-08-14T22:21:19Z</time>
        <sat>8</sat>
      </trkpt>
      <trkpt lat="47.123803" lon="-122.050198">
        <ele>231.9</ele>
        <time>2014-08-14T22:21:21Z</time>
        <sat>8</sat>
      </trkpt>
      <trkpt lat="47.123912" lon="-122.050133">
        <ele>231.7</ele>
        <time>2014-08-14T22:21:23Z</time>
        <sat>8</sat>
      </trkpt>
      <trkpt lat="47.124018" lon="-122.050070">
        <ele>231.6</ele>
        <time>2014-08-14T22:21:25Z</time>
        <sat>8</sat>
      </trkpt>
      <trkpt lat="47.124128" lon="-122.050007">
        <ele>231.5</ele>
        <time>2014-08-14T22:21:27Z</time>
        <sat>8</sat>
      </trkpt>
      <trkpt lat="47.124240" lon="-122.049946">
        <ele>231.5</ele>
        <time>2014-08-14T22:21:29Z</time>
        <sat>8</sat>
      </trkpt>
      <trkpt lat="47.124355" lon="-122.049895">
        <ele>231.3</ele>
        <time>2014-08-14T22:21:31Z</time>
        <sat>8</sat>
      </trkpt>
      <trkpt lat="47.124470" lon="-122.049851">
        <ele>231.0</ele>
        <time>2014-08-14T22:21:33Z</time>
        <sat>8</sat>
      </trkpt>
      <trkpt lat="47.124587" lon="-122.049793">
        <ele>231.0</ele>
        <time>2014-08-14T22:21:35Z</time>
        <sat>8</sat>
      </trkpt>
      <trkpt lat="47.124708" lon="-122.049738">
        <ele>230.7</ele>
        <time>2014-08-14T22:21:37Z</time>
        <sat>8</sat>
      </trkpt>
      <trkpt lat="47.124830" lon="-122.049685">
        <ele>230.3</ele>
        <time>2014-08-14T22:21:39Z</time>
        <sat>8</sat>
      </trkpt>
      <trkpt lat="47.124942" lon="-122.049631">
        <ele>230.1</ele>
        <time>2014-08-14T22:21:41Z</time>
        <sat>8</sat>
      </trkpt>
      <trkpt lat="47.125049" lon="-122.049585">
        <ele>229.8</ele>
        <time>2014-08-14T22:21:43Z</time>
        <sat>7</sat>
      </trkpt>
      <trkpt lat="47.125159" lon="-122.049553">
        <ele>229.4</ele>
        <time>2014-08-14T22:21:45Z</time>
        <sat>7</sat>
      </trkpt>
      <trkpt lat="47.125274" lon="-122.049528">
        <ele>229.3</ele>
        <time>2014-08-14T22:21:47Z</time>
        <sat>8</sat>
      </trkpt>
      <trkpt lat="47.125377" lon="-122.049511">
        <ele>229.0</ele>
        <time>2014-08-14T22:21:49Z</time>
        <sat>8</sat>
      </trkpt>
      <trkpt lat="47.125492" lon="-122.049505">
        <ele>228.4</ele>
        <time>2014-08-14T22:21:51Z</time>
        <sat>7</sat>
      </trkpt>
      <trkpt lat="47.125605" lon="-122.049505">
        <ele>227.7</ele>
        <time>2014-08-14T22:21:53Z</time>
        <sat>8</sat>
      </trkpt>
      <trkpt lat="47.125727" lon="-122.049500">
        <ele>227.2</ele>
        <time>2014-08-14T22:21:55Z</time>
        <sat>8</sat>
      </trkpt>
      <trkpt lat="47.125878" lon="-122.049501">
        <ele>226.2</ele>
        <time>2014-08-14T22:21:57Z</time>
        <sat>8</sat>
      </trkpt>
      <trkpt lat="47.126037" lon="-122.049506">
        <ele>225.7</ele>
        <time>2014-08-14T22:21:59Z</time>
        <sat>8</sat>
      </trkpt>
      <trkpt lat="47.126200" lon="-122.049515">
        <ele>224.7</ele>
        <time>2014-08-14T22:22:01Z</time>
        <sat>8</sat>
      </trkpt>
      <trkpt lat="47.126299" lon="-122.049508">
        <ele>224.4</ele>
        <time>2014-08-14T22:22:02Z</time>
        <sat>7</sat>
      </trkpt>
      <trkpt lat="47.126397" lon="-122.049516">
        <ele>223.9</ele>
        <time>2014-08-14T22:22:03Z</time>
        <sat>8</sat>
      </trkpt>
      <trkpt lat="47.126495" lon="-122.049532">
        <ele>223.4</ele>
        <time>2014-08-14T22:22:04Z</time>
        <sat>8</sat>
      </trkpt>
      <trkpt lat="47.126597" lon="-122.049547">
        <ele>222.9</ele>
        <time>2014-08-14T22:22:05Z</time>
        <sat>7</sat>
      </trkpt>
      <trkpt lat="47.126764" lon="-122.049573">
        <ele>222.1</ele>
        <time>2014-08-14T22:22:07Z</time>
        <sat>8</sat>
      </trkpt>
      <trkpt lat="47.126949" lon="-122.049593">
        <ele>221.3</ele>
        <time>2014-08-14T22:22:09Z</time>
        <sat>7</sat>
      </trkpt>
      <trkpt lat="47.127130" lon="-122.049596">
        <ele>220.2</ele>
        <time>2014-08-14T22:22:11Z</time>
        <sat>8</sat>
      </trkpt>
      <trkpt lat="47.127232" lon="-122.049593">
        <ele>219.7</ele>
        <time>2014-08-14T22:22:12Z</time>
        <sat>8</sat>
      </trkpt>
      <trkpt lat="47.127325" lon="-122.049588">
        <ele>219.1</ele>
        <time>2014-08-14T22:22:13Z</time>
        <sat>8</sat>
      </trkpt>
      <trkpt lat="47.127422" lon="-122.049577">
        <ele>218.6</ele>
        <time>2014-08-14T22:22:14Z</time>
        <sat>8</sat>
      </trkpt>
      <trkpt lat="47.127525" lon="-122.049568">
        <ele>217.9</ele>
        <time>2014-08-14T22:22:15Z</time>
        <sat>7</sat>
      </trkpt>
      <trkpt lat="47.127637" lon="-122.049553">
        <ele>217.3</ele>
        <time>2014-08-14T22:22:16Z</time>
        <sat>8</sat>
      </trkpt>
      <trkpt lat="47.127744" lon="-122.049533">
        <ele>216.8</ele>
        <time>2014-08-14T22:22:17Z</time>
        <sat>8</sat>
      </trkpt>
      <trkpt lat="47.127847" lon="-122.049510">
        <ele>216.2</ele>
        <time>2014-08-14T22:22:18Z</time>
        <sat>8</sat>
      </trkpt>
      <trkpt lat="47.127950" lon="-122.049483">
        <ele>215.7</ele>
        <time>2014-08-14T22:22:19Z</time>
        <sat>8</sat>
      </trkpt>
      <trkpt lat="47.128052" lon="-122.049457">
        <ele>215.1</ele>
        <time>2014-08-14T22:22:20Z</time>
        <sat>8</sat>
      </trkpt>
      <trkpt lat="47.128157" lon="-122.049431">
        <ele>214.7</ele>
        <time>2014-08-14T22:22:21Z</time>
        <sat>8</sat>
      </trkpt>
      <trkpt lat="47.128252" lon="-122.049405">
        <ele>214.4</ele>
        <time>2014-08-14T22:22:22Z</time>
        <sat>8</sat>
      </trkpt>
      <trkpt lat="47.128350" lon="-122.049378">
        <ele>214.0</ele>
        <time>2014-08-14T22:22:23Z</time>
        <sat>8</sat>
      </trkpt>
      <trkpt lat="47.128443" lon="-122.049352">
        <ele>213.8</ele>
        <time>2014-08-14T22:22:24Z</time>
        <sat>8</sat>
      </trkpt>
      <trkpt lat="47.128618" lon="-122.049303">
        <ele>213.3</ele>
        <time>2014-08-14T22:22:26Z</time>
        <sat>7</sat>
      </trkpt>
      <trkpt lat="47.128782" lon="-122.049255">
        <ele>212.9</ele>
        <time>2014-08-14T22:22:28Z</time>
        <sat>8</sat>
      </trkpt>
      <trkpt lat="47.128937" lon="-122.049212">
        <ele>212.9</ele>
        <time>2014-08-14T22:22:30Z</time>
        <sat>8</sat>
      </trkpt>
      <trkpt lat="47.129085" lon="-122.049168">
        <ele>212.5</ele>
        <time>2014-08-14T22:22:32Z</time>
        <sat>8</sat>
      </trkpt>
      <trkpt lat="47.129217" lon="-122.049136">
        <ele>212.3</ele>
        <time>2014-08-14T22:22:34Z</time>
        <sat>8</sat>
      </trkpt>
      <trkpt lat="47.129347" lon="-122.049103">
        <ele>212.2</ele>
        <time>2014-08-14T22:22:36Z</time>
        <sat>8</sat>
      </trkpt>
      <trkpt lat="47.129475" lon="-122.049070">
        <ele>212.1</ele>
        <time>2014-08-14T22:22:38Z</time>
        <sat>8</sat>
      </trkpt>
      <trkpt lat="47.129597" lon="-122.049041">
        <ele>211.7</ele>
        <time>2014-08-14T22:22:40Z</time>
        <sat>8</sat>
      </trkpt>
      <trkpt lat="47.129712" lon="-122.049015">
        <ele>211.7</ele>
        <time>2014-08-14T22:22:42Z</time>
        <sat>8</sat>
      </trkpt>
      <trkpt lat="47.129827" lon="-122.048992">
        <ele>211.6</ele>
        <time>2014-08-14T22:22:44Z</time>
        <sat>8</sat>
      </trkpt>
      <trkpt lat="47.129933" lon="-122.048965">
        <ele>211.0</ele>
        <time>2014-08-14T22:22:46Z</time>
        <sat>8</sat>
      </trkpt>
      <trkpt lat="47.130042" lon="-122.048946">
        <ele>210.7</ele>
        <time>2014-08-14T22:22:48Z</time>
        <sat>8</sat>
      </trkpt>
      <trkpt lat="47.130133" lon="-122.048926">
        <ele>210.6</ele>
        <time>2014-08-14T22:22:50Z</time>
        <sat>8</sat>
      </trkpt>
      <trkpt lat="47.130234" lon="-122.048918">
        <ele>210.2</ele>
        <time>2014-08-14T22:22:53Z</time>
        <sat>8</sat>
      </trkpt>
      <trkpt lat="47.130329" lon="-122.048895">
        <ele>209.9</ele>
        <time>2014-08-14T22:22:58Z</time>
        <sat>8</sat>
      </trkpt>
      <trkpt lat="47.130355" lon="-122.049041">
        <ele>209.9</ele>
        <time>2014-08-14T22:23:45Z</time>
        <sat>8</sat>
      </trkpt>
      <trkpt lat="47.130335" lon="-122.049230">
        <ele>209.1</ele>
        <time>2014-08-14T22:23:48Z</time>
        <sat>7</sat>
      </trkpt>
      <trkpt lat="47.130334" lon="-122.049376">
        <ele>208.7</ele>
        <time>2014-08-14T22:23:50Z</time>
        <sat>8</sat>
      </trkpt>
      <trkpt lat="47.130347" lon="-122.049555">
        <ele>207.9</ele>
        <time>2014-08-14T22:23:52Z</time>
        <sat>8</sat>
      </trkpt>
      <trkpt lat="47.130352" lon="-122.049780">
        <ele>207.0</ele>
        <time>2014-08-14T22:23:54Z</time>
        <sat>8</sat>
      </trkpt>
      <trkpt lat="47.130353" lon="-122.050040">
        <ele>205.3</ele>
        <time>2014-08-14T22:23:56Z</time>
        <sat>8</sat>
      </trkpt>
      <trkpt lat="47.130347" lon="-122.050186">
        <ele>204.4</ele>
        <time>2014-08-14T22:23:57Z</time>
        <sat>8</sat>
      </trkpt>
      <trkpt lat="47.130340" lon="-122.050330">
        <ele>203.6</ele>
        <time>2014-08-14T22:23:58Z</time>
        <sat>8</sat>
      </trkpt>
      <trkpt lat="47.130332" lon="-122.050472">
        <ele>202.7</ele>
        <time>2014-08-14T22:23:59Z</time>
        <sat>8</sat>
      </trkpt>
      <trkpt lat="47.130319" lon="-122.050621">
        <ele>201.9</ele>
        <time>2014-08-14T22:24:00Z</time>
        <sat>8</sat>
      </trkpt>
      <trkpt lat="47.130305" lon="-122.050772">
        <ele>201.1</ele>
        <time>2014-08-14T22:24:01Z</time>
        <sat>8</sat>
      </trkpt>
      <trkpt lat="47.130293" lon="-122.050917">
        <ele>200.1</ele>
        <time>2014-08-14T22:24:02Z</time>
        <sat>8</sat>
      </trkpt>
      <trkpt lat="47.130310" lon="-122.051166">
        <ele>198.5</ele>
        <time>2014-08-14T22:24:04Z</time>
        <sat>8</sat>
      </trkpt>
      <trkpt lat="47.130405" lon="-122.051360">
        <ele>197.5</ele>
        <time>2014-08-14T22:24:06Z</time>
        <sat>8</sat>
      </trkpt>
      <trkpt lat="47.130530" lon="-122.051520">
        <ele>196.5</ele>
        <time>2014-08-14T22:24:08Z</time>
        <sat>8</sat>
      </trkpt>
      <trkpt lat="47.130669" lon="-122.051705">
        <ele>194.9</ele>
        <time>2014-08-14T22:24:10Z</time>
        <sat>8</sat>
      </trkpt>
      <trkpt lat="47.130754" lon="-122.051792">
        <ele>194.0</ele>
        <time>2014-08-14T22:24:11Z</time>
        <sat>7</sat>
      </trkpt>
      <trkpt lat="47.130840" lon="-122.051873">
        <ele>193.4</ele>
        <time>2014-08-14T22:24:12Z</time>
        <sat>8</sat>
      </trkpt>
      <trkpt lat="47.130919" lon="-122.051976">
        <ele>192.7</ele>
        <time>2014-08-14T22:24:13Z</time>
        <sat>8</sat>
      </trkpt>
      <trkpt lat="47.130982" lon="-122.052096">
        <ele>192.0</ele>
        <time>2014-08-14T22:24:14Z</time>
        <sat>8</sat>
      </trkpt>
      <trkpt lat="47.131022" lon="-122.052237">
        <ele>190.9</ele>
        <time>2014-08-14T22:24:15Z</time>
        <sat>8</sat>
      </trkpt>
      <trkpt lat="47.131043" lon="-122.052393">
        <ele>189.9</ele>
        <time>2014-08-14T22:24:16Z</time>
        <sat>8</sat>
      </trkpt>
      <trkpt lat="47.131053" lon="-122.052563">
        <ele>188.5</ele>
        <time>2014-08-14T22:24:17Z</time>
        <sat>8</sat>
      </trkpt>
      <trkpt lat="47.131063" lon="-122.052736">
        <ele>187.4</ele>
        <time>2014-08-14T22:24:18Z</time>
        <sat>8</sat>
      </trkpt>
      <trkpt lat="47.131077" lon="-122.052913">
        <ele>186.4</ele>
        <time>2014-08-14T22:24:19Z</time>
        <sat>8</sat>
      </trkpt>
      <trkpt lat="47.131094" lon="-122.053090">
        <ele>185.2</ele>
        <time>2014-08-14T22:24:20Z</time>
        <sat>7</sat>
      </trkpt>
      <trkpt lat="47.131122" lon="-122.053267">
        <ele>184.1</ele>
        <time>2014-08-14T22:24:21Z</time>
        <sat>8</sat>
      </trkpt>
      <trkpt lat="47.131155" lon="-122.053445">
        <ele>183.2</ele>
        <time>2014-08-14T22:24:22Z</time>
        <sat>8</sat>
      </trkpt>
      <trkpt lat="47.131192" lon="-122.053620">
        <ele>182.1</ele>
        <time>2014-08-14T22:24:23Z</time>
        <sat>7</sat>
      </trkpt>
      <trkpt lat="47.131235" lon="-122.053790">
        <ele>181.2</ele>
        <time>2014-08-14T22:24:24Z</time>
        <sat>8</sat>
      </trkpt>
      <trkpt lat="47.131285" lon="-122.053952">
        <ele>180.4</ele>
        <time>2014-08-14T22:24:25Z</time>
        <sat>8</sat>
      </trkpt>
      <trkpt lat="47.131339" lon="-122.054106">
        <ele>179.5</ele>
        <time>2014-08-14T22:24:26Z</time>
        <sat>7</sat>
      </trkpt>
      <trkpt lat="47.131397" lon="-122.054252">
        <ele>178.5</ele>
        <time>2014-08-14T22:24:27Z</time>
        <sat>7</sat>
      </trkpt>
      <trkpt lat="47.131462" lon="-122.054390">
        <ele>177.4</ele>
        <time>2014-08-14T22:24:28Z</time>
        <sat>7</sat>
      </trkpt>
      <trkpt lat="47.131537" lon="-122.054523">
        <ele>176.2</ele>
        <time>2014-08-14T22:24:29Z</time>
        <sat>7</sat>
      </trkpt>
      <trkpt lat="47.131608" lon="-122.054661">
        <ele>175.2</ele>
        <time>2014-08-14T22:24:30Z</time>
        <sat>7</sat>
      </trkpt>
      <trkpt lat="47.131679" lon="-122.054807">
        <ele>174.0</ele>
        <time>2014-08-14T22:24:31Z</time>
        <sat>7</sat>
      </trkpt>
      <trkpt lat="47.131750" lon="-122.054952">
        <ele>172.6</ele>
        <time>2014-08-14T22:24:32Z</time>
        <sat>7</sat>
      </trkpt>
      <trkpt lat="47.131828" lon="-122.055088">
        <ele>171.9</ele>
        <time>2014-08-14T22:24:33Z</time>
        <sat>7</sat>
      </trkpt>
      <trkpt lat="47.131912" lon="-122.055218">
        <ele>171.1</ele>
        <time>2014-08-14T22:24:34Z</time>
        <sat>8</sat>
      </trkpt>
      <trkpt lat="47.131984" lon="-122.055348">
        <ele>170.2</ele>
        <time>2014-08-14T22:24:35Z</time>
        <sat>7</sat>
      </trkpt>
      <trkpt lat="47.132045" lon="-122.055485">
        <ele>169.3</ele>
        <time>2014-08-14T22:24:36Z</time>
        <sat>7</sat>
      </trkpt>
      <trkpt lat="47.132104" lon="-122.055613">
        <ele>168.3</ele>
        <time>2014-08-14T22:24:37Z</time>
        <sat>7</sat>
      </trkpt>
      <trkpt lat="47.132153" lon="-122.055725">
        <ele>167.3</ele>
        <time>2014-08-14T22:24:38Z</time>
        <sat>7</sat>
      </trkpt>
      <trkpt lat="47.132247" lon="-122.055888">
        <ele>165.8</ele>
        <time>2014-08-14T22:24:40Z</time>
        <sat>8</sat>
      </trkpt>
      <trkpt lat="47.132355" lon="-122.055930">
        <ele>164.9</ele>
        <time>2014-08-14T22:24:42Z</time>
        <sat>7</sat>
      </trkpt>
      <trkpt lat="47.132462" lon="-122.055866">
        <ele>164.2</ele>
        <time>2014-08-14T22:24:44Z</time>
        <sat>7</sat>
      </trkpt>
      <trkpt lat="47.132569" lon="-122.055803">
        <ele>163.8</ele>
        <time>2014-08-14T22:24:46Z</time>
        <sat>7</sat>
      </trkpt>
      <trkpt lat="47.132675" lon="-122.055753">
        <ele>163.4</ele>
        <time>2014-08-14T22:24:48Z</time>
        <sat>7</sat>
      </trkpt>
      <trkpt lat="47.132787" lon="-122.055743">
        <ele>163.3</ele>
        <time>2014-08-14T22:24:50Z</time>
        <sat>7</sat>
      </trkpt>
      <trkpt lat="47.132897" lon="-122.055770">
        <ele>163.6</ele>
        <time>2014-08-14T22:24:52Z</time>
        <sat>7</sat>
      </trkpt>
      <trkpt lat="47.133009" lon="-122.055851">
        <ele>164.1</ele>
        <time>2014-08-14T22:24:55Z</time>
        <sat>6</sat>
      </trkpt>
      <trkpt lat="47.133100" lon="-122.055917">
        <ele>165.1</ele>
        <time>2014-08-14T22:24:59Z</time>
        <sat>8</sat>
      </trkpt>
      <trkpt lat="47.133185" lon="-122.055981">
        <ele>166.5</ele>
        <time>2014-08-14T22:25:06Z</time>
        <sat>8</sat>
      </trkpt>
      <trkpt lat="47.133249" lon="-122.056096">
        <ele>167.4</ele>
        <time>2014-08-14T22:25:12Z</time>
        <sat>8</sat>
      </trkpt>
      <trkpt lat="47.133342" lon="-122.056157">
        <ele>167.5</ele>
        <time>2014-08-14T22:25:17Z</time>
        <sat>7</sat>
      </trkpt>
      <trkpt lat="47.133425" lon="-122.056228">
        <ele>168.2</ele>
        <time>2014-08-14T22:25:22Z</time>
        <sat>7</sat>
      </trkpt>
      <trkpt lat="47.133502" lon="-122.056321">
        <ele>169.3</ele>
        <time>2014-08-14T22:25:29Z</time>
        <sat>7</sat>
      </trkpt>
      <trkpt lat="47.133574" lon="-122.056411">
        <ele>170.3</ele>
        <time>2014-08-14T22:25:36Z</time>
        <sat>7</sat>
      </trkpt>
      <trkpt lat="47.133640" lon="-122.056526">
        <ele>171.2</ele>
        <time>2014-08-14T22:25:43Z</time>
        <sat>7</sat>
      </trkpt>
      <trkpt lat="47.133722" lon="-122.056623">
        <ele>171.7</ele>
        <time>2014-08-14T22:25:50Z</time>
        <sat>7</sat>
      </trkpt>
      <trkpt lat="47.133775" lon="-122.056738">
        <ele>172.8</ele>
        <time>2014-08-14T22:25:56Z</time>
        <sat>7</sat>
      </trkpt>
      <trkpt lat="47.133840" lon="-122.056848">
        <ele>173.5</ele>
        <time>2014-08-14T22:26:03Z</time>
        <sat>7</sat>
      </trkpt>
      <trkpt lat="47.133917" lon="-122.056933">
        <ele>174.3</ele>
        <time>2014-08-14T22:26:10Z</time>
        <sat>7</sat>
      </trkpt>
      <trkpt lat="47.134004" lon="-122.057011">
        <ele>175.4</ele>
        <time>2014-08-14T22:26:16Z</time>
        <sat>7</sat>
      </trkpt>
      <trkpt lat="47.134092" lon="-122.057043">
        <ele>176.3</ele>
        <time>2014-08-14T22:26:23Z</time>
        <sat>7</sat>
      </trkpt>
      <trkpt lat="47.134185" lon="-122.057083">
        <ele>177.1</ele>
        <time>2014-08-14T22:26:29Z</time>
        <sat>7</sat>
      </trkpt>
      <trkpt lat="47.134285" lon="-122.057103">
        <ele>178.0</ele>
        <time>2014-08-14T22:26:35Z</time>
        <sat>6</sat>
      </trkpt>
      <trkpt lat="47.134377" lon="-122.057150">
        <ele>178.7</ele>
        <time>2014-08-14T22:26:41Z</time>
        <sat>6</sat>
      </trkpt>
      <trkpt lat="47.134459" lon="-122.057220">
        <ele>179.6</ele>
        <time>2014-08-14T22:26:48Z</time>
        <sat>8</sat>
      </trkpt>
      <trkpt lat="47.134525" lon="-122.057338">
        <ele>180.6</ele>
        <time>2014-08-14T22:26:55Z</time>
        <sat>6</sat>
      </trkpt>
      <trkpt lat="47.134598" lon="-122.057420">
        <ele>181.5</ele>
        <time>2014-08-14T22:27:00Z</time>
        <sat>7</sat>
      </trkpt>
      <trkpt lat="47.134690" lon="-122.057450">
        <ele>182.5</ele>
        <time>2014-08-14T22:27:06Z</time>
        <sat>8</sat>
      </trkpt>
      <trkpt lat="47.134792" lon="-122.057453">
        <ele>183.5</ele>
        <time>2014-08-14T22:27:14Z</time>
        <sat>8</sat>
      </trkpt>
      <trkpt lat="47.134894" lon="-122.057383">
        <ele>185.4</ele>
        <time>2014-08-14T22:27:23Z</time>
        <sat>8</sat>
      </trkpt>
      <trkpt lat="47.134977" lon="-122.057313">
        <ele>186.1</ele>
        <time>2014-08-14T22:27:28Z</time>
        <sat>7</sat>
      </trkpt>
      <trkpt lat="47.135058" lon="-122.057233">
        <ele>186.7</ele>
        <time>2014-08-14T22:27:33Z</time>
        <sat>7</sat>
      </trkpt>
      <trkpt lat="47.135157" lon="-122.057178">
        <ele>187.2</ele>
        <time>2014-08-14T22:27:38Z</time>
        <sat>7</sat>
      </trkpt>
      <trkpt lat="47.135257" lon="-122.057173">
        <ele>188.3</ele>
        <time>2014-08-14T22:27:44Z</time>
        <sat>7</sat>
      </trkpt>
      <trkpt lat="47.135300" lon="-122.057293">
        <ele>189.3</ele>
        <time>2014-08-14T22:27:51Z</time>
        <sat>7</sat>
      </trkpt>
      <trkpt lat="47.135310" lon="-122.057425">
        <ele>190.1</ele>
        <time>2014-08-14T22:27:56Z</time>
        <sat>8</sat>
      </trkpt>
      <trkpt lat="47.135320" lon="-122.057561">
        <ele>190.9</ele>
        <time>2014-08-14T22:28:02Z</time>
        <sat>8</sat>
      </trkpt>
      <trkpt lat="47.135355" lon="-122.057688">
        <ele>192.1</ele>
        <time>2014-08-14T22:28:09Z</time>
        <sat>7</sat>
      </trkpt>
      <trkpt lat="47.135423" lon="-122.057788">
        <ele>192.8</ele>
        <time>2014-08-14T22:28:15Z</time>
        <sat>7</sat>
      </trkpt>
      <trkpt lat="47.135532" lon="-122.057785">
        <ele>193.3</ele>
        <time>2014-08-14T22:28:20Z</time>
        <sat>7</sat>
      </trkpt>
      <trkpt lat="47.135625" lon="-122.057773">
        <ele>193.8</ele>
        <time>2014-08-14T22:28:25Z</time>
        <sat>7</sat>
      </trkpt>
      <trkpt lat="47.135715" lon="-122.057745">
        <ele>194.2</ele>
        <time>2014-08-14T22:29:57Z</time>
        <sat>8</sat>
      </trkpt>
      <trkpt lat="47.135827" lon="-122.057747">
        <ele>195.0</ele>
        <time>2014-08-14T22:30:03Z</time>
        <sat>8</sat>
      </trkpt>
      <trkpt lat="47.135915" lon="-122.057785">
        <ele>195.4</ele>
        <time>2014-08-14T22:30:08Z</time>
        <sat>8</sat>
      </trkpt>
      <trkpt lat="47.136012" lon="-122.057788">
        <ele>196.2</ele>
        <time>2014-08-14T22:30:14Z</time>
        <sat>8</sat>
      </trkpt>
      <trkpt lat="47.136103" lon="-122.057837">
        <ele>197.3</ele>
        <time>2014-08-14T22:30:21Z</time>
        <sat>8</sat>
      </trkpt>
      <trkpt lat="47.136193" lon="-122.057851">
        <ele>198.0</ele>
        <time>2014-08-14T22:30:27Z</time>
        <sat>8</sat>
      </trkpt>
      <trkpt lat="47.136295" lon="-122.057851">
        <ele>199.4</ele>
        <time>2014-08-14T22:30:34Z</time>
        <sat>8</sat>
      </trkpt>
      <trkpt lat="47.136402" lon="-122.057865">
        <ele>200.4</ele>
        <time>2014-08-14T22:30:39Z</time>
        <sat>8</sat>
      </trkpt>
      <trkpt lat="47.136500" lon="-122.057855">
        <ele>201.4</ele>
        <time>2014-08-14T22:30:44Z</time>
        <sat>8</sat>
      </trkpt>
      <trkpt lat="47.136595" lon="-122.057850">
        <ele>202.1</ele>
        <time>2014-08-14T22:30:50Z</time>
        <sat>8</sat>
      </trkpt>
      <trkpt lat="47.136690" lon="-122.057830">
        <ele>203.0</ele>
        <time>2014-08-14T22:30:55Z</time>
        <sat>8</sat>
      </trkpt>
      <trkpt lat="47.136780" lon="-122.057827">
        <ele>203.5</ele>
        <time>2014-08-14T22:31:00Z</time>
        <sat>8</sat>
      </trkpt>
      <trkpt lat="47.136885" lon="-122.057820">
        <ele>204.4</ele>
        <time>2014-08-14T22:31:05Z</time>
        <sat>8</sat>
      </trkpt>
      <trkpt lat="47.136980" lon="-122.057818">
        <ele>205.2</ele>
        <time>2014-08-14T22:31:11Z</time>
        <sat>8</sat>
      </trkpt>
      <trkpt lat="47.137073" lon="-122.057810">
        <ele>206.2</ele>
        <time>2014-08-14T22:31:17Z</time>
        <sat>8</sat>
      </trkpt>
      <trkpt lat="47.137173" lon="-122.057785">
        <ele>207.3</ele>
        <time>2014-08-14T22:31:22Z</time>
        <sat>8</sat>
      </trkpt>
      <trkpt lat="47.137277" lon="-122.057742">
        <ele>208.5</ele>
        <time>2014-08-14T22:31:28Z</time>
        <sat>8</sat>
      </trkpt>
      <trkpt lat="47.137367" lon="-122.057707">
        <ele>209.4</ele>
        <time>2014-08-14T22:31:33Z</time>
        <sat>8</sat>
      </trkpt>
      <trkpt lat="47.137462" lon="-122.057640">
        <ele>209.8</ele>
        <time>2014-08-14T22:31:37Z</time>
        <sat>8</sat>
      </trkpt>
      <trkpt lat="47.137567" lon="-122.057570">
        <ele>210.4</ele>
        <time>2014-08-14T22:31:41Z</time>
        <sat>8</sat>
      </trkpt>
      <trkpt lat="47.137647" lon="-122.057485">
        <ele>210.9</ele>
        <time>2014-08-14T22:31:45Z</time>
        <sat>8</sat>
      </trkpt>
      <trkpt lat="47.137720" lon="-122.057390">
        <ele>211.2</ele>
        <time>2014-08-14T22:31:49Z</time>
        <sat>8</sat>
      </trkpt>
      <trkpt lat="47.137802" lon="-122.057272">
        <ele>211.6</ele>
        <time>2014-08-14T22:31:53Z</time>
        <sat>8</sat>
      </trkpt>
      <trkpt lat="47.137873" lon="-122.057173">
        <ele>211.9</ele>
        <time>2014-08-14T22:31:56Z</time>
        <sat>8</sat>
      </trkpt>
      <trkpt lat="47.137945" lon="-122.057070">
        <ele>211.9</ele>
        <time>2014-08-14T22:31:59Z</time>
        <sat>8</sat>
      </trkpt>
      <trkpt lat="47.138020" lon="-122.056962">
        <ele>212.1</ele>
        <time>2014-08-14T22:32:02Z</time>
        <sat>8</sat>
      </trkpt>
      <trkpt lat="47.138105" lon="-122.056857">
        <ele>212.1</ele>
        <time>2014-08-14T22:32:05Z</time>
        <sat>8</sat>
      </trkpt>
      <trkpt lat="47.138180" lon="-122.056748">
        <ele>212.3</ele>
        <time>2014-08-14T22:32:08Z</time>
        <sat>8</sat>
      </trkpt>
      <trkpt lat="47.138250" lon="-122.056656">
        <ele>212.6</ele>
        <time>2014-08-14T22:32:11Z</time>
        <sat>8</sat>
      </trkpt>
      <trkpt lat="47.138323" lon="-122.056568">
        <ele>213.1</ele>
        <time>2014-08-14T22:32:14Z</time>
        <sat>8</sat>
      </trkpt>
      <trkpt lat="47.138407" lon="-122.056453">
        <ele>213.6</ele>
        <time>2014-08-14T22:32:18Z</time>
        <sat>8</sat>
      </trkpt>
      <trkpt lat="47.138479" lon="-122.056356">
        <ele>214.0</ele>
        <time>2014-08-14T22:32:22Z</time>
        <sat>8</sat>
      </trkpt>
      <trkpt lat="47.138552" lon="-122.056273">
        <ele>214.5</ele>
        <time>2014-08-14T22:32:26Z</time>
        <sat>8</sat>
      </trkpt>
      <trkpt lat="47.138628" lon="-122.056165">
        <ele>215.4</ele>
        <time>2014-08-14T22:32:31Z</time>
        <sat>8</sat>
      </trkpt>
      <trkpt lat="47.138697" lon="-122.056068">
        <ele>216.2</ele>
        <time>2014-08-14T22:32:36Z</time>
        <sat>8</sat>
      </trkpt>
      <trkpt lat="47.138783" lon="-122.055962">
        <ele>216.5</ele>
        <time>2014-08-14T22:32:41Z</time>
        <sat>8</sat>
      </trkpt>
      <trkpt lat="47.138857" lon="-122.055863">
        <ele>216.9</ele>
        <time>2014-08-14T22:32:46Z</time>
        <sat>8</sat>
      </trkpt>
      <trkpt lat="47.138950" lon="-122.055785">
        <ele>217.0</ele>
        <time>2014-08-14T22:32:51Z</time>
        <sat>8</sat>
      </trkpt>
      <trkpt lat="47.139049" lon="-122.055773">
        <ele>217.2</ele>
        <time>2014-08-14T22:32:54Z</time>
        <sat>8</sat>
      </trkpt>
      <trkpt lat="47.139154" lon="-122.055793">
        <ele>216.5</ele>
        <time>2014-08-14T22:32:57Z</time>
        <sat>8</sat>
      </trkpt>
      <trkpt lat="47.139265" lon="-122.055823">
        <ele>216.1</ele>
        <time>2014-08-14T22:33:00Z</time>
        <sat>8</sat>
      </trkpt>
      <trkpt lat="47.139385" lon="-122.055878">
        <ele>215.1</ele>
        <time>2014-08-14T22:33:03Z</time>
        <sat>8</sat>
      </trkpt>
      <trkpt lat="47.139477" lon="-122.055925">
        <ele>214.5</ele>
        <time>2014-08-14T22:33:05Z</time>
        <sat>8</sat>
      </trkpt>
      <trkpt lat="47.139584" lon="-122.055973">
        <ele>213.5</ele>
        <time>2014-08-14T22:33:07Z</time>
        <sat>8</sat>
      </trkpt>
      <trkpt lat="47.139705" lon="-122.056000">
        <ele>213.0</ele>
        <time>2014-08-14T22:33:09Z</time>
        <sat>8</sat>
      </trkpt>
      <trkpt lat="47.139862" lon="-122.056022">
        <ele>212.5</ele>
        <time>2014-08-14T22:33:11Z</time>
        <sat>7</sat>
      </trkpt>
      <trkpt lat="47.140015" lon="-122.056101">
        <ele>212.1</ele>
        <time>2014-08-14T22:33:13Z</time>
        <sat>8</sat>
      </trkpt>
      <trkpt lat="47.140152" lon="-122.056168">
        <ele>211.6</ele>
        <time>2014-08-14T22:33:15Z</time>
        <sat>8</sat>
      </trkpt>
      <trkpt lat="47.140274" lon="-122.056193">
        <ele>211.8</ele>
        <time>2014-08-14T22:33:17Z</time>
        <sat>8</sat>
      </trkpt>
      <trkpt lat="47.140387" lon="-122.056270">
        <ele>211.8</ele>
        <time>2014-08-14T22:33:19Z</time>
        <sat>8</sat>
      </trkpt>
      <trkpt lat="47.140495" lon="-122.056338">
        <ele>211.6</ele>
        <time>2014-08-14T22:33:21Z</time>
        <sat>8</sat>
      </trkpt>
      <trkpt lat="47.140600" lon="-122.056415">
        <ele>211.7</ele>
        <time>2014-08-14T22:33:23Z</time>
        <sat>8</sat>
      </trkpt>
      <trkpt lat="47.140683" lon="-122.056505">
        <ele>210.8</ele>
        <time>2014-08-14T22:33:25Z</time>
        <sat>8</sat>
      </trkpt>
      <trkpt lat="47.140760" lon="-122.056610">
        <ele>210.9</ele>
        <time>2014-08-14T22:33:27Z</time>
        <sat>7</sat>
      </trkpt>
      <trkpt lat="47.140837" lon="-122.056717">
        <ele>212.5</ele>
        <time>2014-08-14T22:33:29Z</time>
        <sat>8</sat>
      </trkpt>
      <trkpt lat="47.140914" lon="-122.056830">
        <ele>211.7</ele>
        <time>2014-08-14T22:33:31Z</time>
        <sat>8</sat>
      </trkpt>
      <trkpt lat="47.140983" lon="-122.056952">
        <ele>211.0</ele>
        <time>2014-08-14T22:33:33Z</time>
        <sat>8</sat>
      </trkpt>
      <trkpt lat="47.141055" lon="-122.057070">
        <ele>210.6</ele>
        <time>2014-08-14T22:33:35Z</time>
        <sat>8</sat>
      </trkpt>
      <trkpt lat="47.141132" lon="-122.057188">
        <ele>209.9</ele>
        <time>2014-08-14T22:33:37Z</time>
        <sat>8</sat>
      </trkpt>
      <trkpt lat="47.141212" lon="-122.057293">
        <ele>209.6</ele>
        <time>2014-08-14T22:33:39Z</time>
        <sat>8</sat>
      </trkpt>
      <trkpt lat="47.141290" lon="-122.057393">
        <ele>209.5</ele>
        <time>2014-08-14T22:33:41Z</time>
        <sat>8</sat>
      </trkpt>
      <trkpt lat="47.141370" lon="-122.057493">
        <ele>209.4</ele>
        <time>2014-08-14T22:33:43Z</time>
        <sat>8</sat>
      </trkpt>
      <trkpt lat="47.141458" lon="-122.057600">
        <ele>209.3</ele>
        <time>2014-08-14T22:33:45Z</time>
        <sat>8</sat>
      </trkpt>
      <trkpt lat="47.141535" lon="-122.057707">
        <ele>208.9</ele>
        <time>2014-08-14T22:33:47Z</time>
        <sat>8</sat>
      </trkpt>
      <trkpt lat="47.141609" lon="-122.057822">
        <ele>208.9</ele>
        <time>2014-08-14T22:33:49Z</time>
        <sat>8</sat>
      </trkpt>
      <trkpt lat="47.141678" lon="-122.057942">
        <ele>209.1</ele>
        <time>2014-08-14T22:33:51Z</time>
        <sat>8</sat>
      </trkpt>
      <trkpt lat="47.141750" lon="-122.058057">
        <ele>209.2</ele>
        <time>2014-08-14T22:33:53Z</time>
        <sat>8</sat>
      </trkpt>
      <trkpt lat="47.141814" lon="-122.058165">
        <ele>209.2</ele>
        <time>2014-08-14T22:33:55Z</time>
        <sat>8</sat>
      </trkpt>
      <trkpt lat="47.141905" lon="-122.058298">
        <ele>209.1</ele>
        <time>2014-08-14T22:33:58Z</time>
        <sat>8</sat>
      </trkpt>
      <trkpt lat="47.141985" lon="-122.058451">
        <ele>209.0</ele>
        <time>2014-08-14T22:34:01Z</time>
        <sat>8</sat>
      </trkpt>
      <trkpt lat="47.142047" lon="-122.058558">
        <ele>209.1</ele>
        <time>2014-08-14T22:34:03Z</time>
        <sat>8</sat>
      </trkpt>
      <trkpt lat="47.142113" lon="-122.058653">
        <ele>209.0</ele>
        <time>2014-08-14T22:34:05Z</time>
        <sat>8</sat>
      </trkpt>
      <trkpt lat="47.142199" lon="-122.058786">
        <ele>209.5</ele>
        <time>2014-08-14T22:34:08Z</time>
        <sat>8</sat>
      </trkpt>
      <trkpt lat="47.142267" lon="-122.058893">
        <ele>209.9</ele>
        <time>2014-08-14T22:34:11Z</time>
        <sat>8</sat>
      </trkpt>
      <trkpt lat="47.142357" lon="-122.058938">
        <ele>210.3</ele>
        <time>2014-08-14T22:34:15Z</time>
        <sat>8</sat>
      </trkpt>
      <trkpt lat="47.142285" lon="-122.058850">
        <ele>210.2</ele>
        <time>2014-08-14T22:34:54Z</time>
        <sat>8</sat>
      </trkpt>
      <trkpt lat="47.142194" lon="-122.058916">
        <ele>209.9</ele>
        <time>2014-08-14T22:35:10Z</time>
        <sat>8</sat>
      </trkpt>
      <trkpt lat="47.142093" lon="-122.058908">
        <ele>209.8</ele>
        <time>2014-08-14T22:35:13Z</time>
        <sat>8</sat>
      </trkpt>
      <trkpt lat="47.142017" lon="-122.058838">
        <ele>209.5</ele>
        <time>2014-08-14T22:35:16Z</time>
        <sat>8</sat>
      </trkpt>
      <trkpt lat="47.141940" lon="-122.058732">
        <ele>209.4</ele>
        <time>2014-08-14T22:35:19Z</time>
        <sat>8</sat>
      </trkpt>
      <trkpt lat="47.142032" lon="-122.058766">
        <ele>210.1</ele>
        <time>2014-08-14T22:37:21Z</time>
        <sat>8</sat>
      </trkpt>
      <trkpt lat="47.141690" lon="-122.058311">
        <ele>201.0</ele>
        <time>2014-08-14T22:42:09Z</time>
        <sat>8</sat>
      </trkpt>
      <trkpt lat="47.141709" lon="-122.058152">
        <ele>201.2</ele>
        <time>2014-08-14T22:42:17Z</time>
        <sat>8</sat>
      </trkpt>
      <trkpt lat="47.141735" lon="-122.058011">
        <ele>201.4</ele>
        <time>2014-08-14T22:42:24Z</time>
        <sat>8</sat>
      </trkpt>
      <trkpt lat="47.141740" lon="-122.057866">
        <ele>201.6</ele>
        <time>2014-08-14T22:42:32Z</time>
        <sat>8</sat>
      </trkpt>
      <trkpt lat="47.141752" lon="-122.057722">
        <ele>201.9</ele>
        <time>2014-08-14T22:42:37Z</time>
        <sat>8</sat>
      </trkpt>
      <trkpt lat="47.141765" lon="-122.057587">
        <ele>201.9</ele>
        <time>2014-08-14T22:42:41Z</time>
        <sat>8</sat>
      </trkpt>
      <trkpt lat="47.141767" lon="-122.057443">
        <ele>202.2</ele>
        <time>2014-08-14T22:42:46Z</time>
        <sat>8</sat>
      </trkpt>
      <trkpt lat="47.141782" lon="-122.057308">
        <ele>202.2</ele>
        <time>2014-08-14T22:42:51Z</time>
        <sat>8</sat>
      </trkpt>
      <trkpt lat="47.141788" lon="-122.057163">
        <ele>202.4</ele>
        <time>2014-08-14T22:42:57Z</time>
        <sat>8</sat>
      </trkpt>
      <trkpt lat="47.141792" lon="-122.057018">
        <ele>202.5</ele>
        <time>2014-08-14T22:43:03Z</time>
        <sat>8</sat>
      </trkpt>
      <trkpt lat="47.141787" lon="-122.056885">
        <ele>202.9</ele>
        <time>2014-08-14T22:43:09Z</time>
        <sat>8</sat>
      </trkpt>
      <trkpt lat="47.141800" lon="-122.056733">
        <ele>203.2</ele>
        <time>2014-08-14T22:43:15Z</time>
        <sat>8</sat>
      </trkpt>
      <trkpt lat="47.141809" lon="-122.056585">
        <ele>203.3</ele>
        <time>2014-08-14T22:43:21Z</time>
        <sat>8</sat>
      </trkpt>
      <trkpt lat="47.141809" lon="-122.056423">
        <ele>203.7</ele>
        <time>2014-08-14T22:43:25Z</time>
        <sat>8</sat>
      </trkpt>
      <trkpt lat="47.141849" lon="-122.056293">
        <ele>203.7</ele>
        <time>2014-08-14T22:43:31Z</time>
        <sat>8</sat>
      </trkpt>
      <trkpt lat="47.141849" lon="-122.056152">
        <ele>203.9</ele>
        <time>2014-08-14T22:43:34Z</time>
        <sat>8</sat>
      </trkpt>
      <trkpt lat="47.141844" lon="-122.056001">
        <ele>204.1</ele>
        <time>2014-08-14T22:43:39Z</time>
        <sat>8</sat>
      </trkpt>
      <trkpt lat="47.141845" lon="-122.055850">
        <ele>204.3</ele>
        <time>2014-08-14T22:43:44Z</time>
        <sat>8</sat>
      </trkpt>
      <trkpt lat="47.141850" lon="-122.055700">
        <ele>204.5</ele>
        <time>2014-08-14T22:43:50Z</time>
        <sat>8</sat>
      </trkpt>
      <trkpt lat="47.141835" lon="-122.055545">
        <ele>204.8</ele>
        <time>2014-08-14T22:43:54Z</time>
        <sat>8</sat>
      </trkpt>
      <trkpt lat="47.141819" lon="-122.055405">
        <ele>204.9</ele>
        <time>2014-08-14T22:43:57Z</time>
        <sat>8</sat>
      </trkpt>
      <trkpt lat="47.141825" lon="-122.055257">
        <ele>205.0</ele>
        <time>2014-08-14T22:44:02Z</time>
        <sat>8</sat>
      </trkpt>
      <trkpt lat="47.141850" lon="-122.055117">
        <ele>205.5</ele>
        <time>2014-08-14T22:44:08Z</time>
        <sat>8</sat>
      </trkpt>
      <trkpt lat="47.141863" lon="-122.054946">
        <ele>205.3</ele>
        <time>2014-08-14T22:44:12Z</time>
        <sat>8</sat>
      </trkpt>
      <trkpt lat="47.141877" lon="-122.054793">
        <ele>205.4</ele>
        <time>2014-08-14T22:44:17Z</time>
        <sat>8</sat>
      </trkpt>
      <trkpt lat="47.141913" lon="-122.054620">
        <ele>205.7</ele>
        <time>2014-08-14T22:44:22Z</time>
        <sat>8</sat>
      </trkpt>
      <trkpt lat="47.141913" lon="-122.054463">
        <ele>205.9</ele>
        <time>2014-08-14T22:44:26Z</time>
        <sat>8</sat>
      </trkpt>
      <trkpt lat="47.141907" lon="-122.054328">
        <ele>206.1</ele>
        <time>2014-08-14T22:44:30Z</time>
        <sat>8</sat>
      </trkpt>
      <trkpt lat="47.141898" lon="-122.054162">
        <ele>206.7</ele>
        <time>2014-08-14T22:44:34Z</time>
        <sat>8</sat>
      </trkpt>
      <trkpt lat="47.141900" lon="-122.053997">
        <ele>206.9</ele>
        <time>2014-08-14T22:44:38Z</time>
        <sat>8</sat>
      </trkpt>
      <trkpt lat="47.141892" lon="-122.053861">
        <ele>207.1</ele>
        <time>2014-08-14T22:44:42Z</time>
        <sat>8</sat>
      </trkpt>
      <trkpt lat="47.141915" lon="-122.053731">
        <ele>207.0</ele>
        <time>2014-08-14T22:44:46Z</time>
        <sat>8</sat>
      </trkpt>
      <trkpt lat="47.141962" lon="-122.053593">
        <ele>207.1</ele>
        <time>2014-08-14T22:44:51Z</time>
        <sat>8</sat>
      </trkpt>
      <trkpt lat="47.141998" lon="-122.053455">
        <ele>207.0</ele>
        <time>2014-08-14T22:44:57Z</time>
        <sat>8</sat>
      </trkpt>
      <trkpt lat="47.142060" lon="-122.053333">
        <ele>207.6</ele>
        <time>2014-08-14T22:45:03Z</time>
        <sat>8</sat>
      </trkpt>
      <trkpt lat="47.142105" lon="-122.053218">
        <ele>207.8</ele>
        <time>2014-08-14T22:45:09Z</time>
        <sat>8</sat>
      </trkpt>
      <trkpt lat="47.142157" lon="-122.053106">
        <ele>207.8</ele>
        <time>2014-08-14T22:45:15Z</time>
        <sat>8</sat>
      </trkpt>
      <trkpt lat="47.142228" lon="-122.053012">
        <ele>208.0</ele>
        <time>2014-08-14T22:45:21Z</time>
        <sat>8</sat>
      </trkpt>
      <trkpt lat="47.142299" lon="-122.052903">
        <ele>208.3</ele>
        <time>2014-08-14T22:45:26Z</time>
        <sat>8</sat>
      </trkpt>
      <trkpt lat="47.142374" lon="-122.052827">
        <ele>208.6</ele>
        <time>2014-08-14T22:45:30Z</time>
        <sat>8</sat>
      </trkpt>
      <trkpt lat="47.142448" lon="-122.052740">
        <ele>208.8</ele>
        <time>2014-08-14T22:45:35Z</time>
        <sat>8</sat>
      </trkpt>
      <trkpt lat="47.142539" lon="-122.052635">
        <ele>208.9</ele>
        <time>2014-08-14T22:45:42Z</time>
        <sat>8</sat>
      </trkpt>
      <trkpt lat="47.142619" lon="-122.052555">
        <ele>209.2</ele>
        <time>2014-08-14T22:45:48Z</time>
        <sat>8</sat>
      </trkpt>
      <trkpt lat="47.142690" lon="-122.052472">
        <ele>209.6</ele>
        <time>2014-08-14T22:45:55Z</time>
        <sat>8</sat>
      </trkpt>
      <trkpt lat="47.142773" lon="-122.052421">
        <ele>209.8</ele>
        <time>2014-08-14T22:46:02Z</time>
        <sat>8</sat>
      </trkpt>
      <trkpt lat="47.142850" lon="-122.052350">
        <ele>209.8</ele>
        <time>2014-08-14T22:46:06Z</time>
        <sat>8</sat>
      </trkpt>
      <trkpt lat="47.142934" lon="-122.052247">
        <ele>210.3</ele>
        <time>2014-08-14T22:46:17Z</time>
        <sat>8</sat>
      </trkpt>
      <trkpt lat="47.143020" lon="-122.052183">
        <ele>210.4</ele>
        <time>2014-08-14T22:46:21Z</time>
        <sat>8</sat>
      </trkpt>
      <trkpt lat="47.143112" lon="-122.052123">
        <ele>210.4</ele>
        <time>2014-08-14T22:46:26Z</time>
        <sat>8</sat>
      </trkpt>
      <trkpt lat="47.143192" lon="-122.052058">
        <ele>210.3</ele>
        <time>2014-08-14T22:46:30Z</time>
        <sat>8</sat>
      </trkpt>
      <trkpt lat="47.143269" lon="-122.051968">
        <ele>210.2</ele>
        <time>2014-08-14T22:46:34Z</time>
        <sat>8</sat>
      </trkpt>
      <trkpt lat="47.143332" lon="-122.051845">
        <ele>210.6</ele>
        <time>2014-08-14T22:46:39Z</time>
        <sat>8</sat>
      </trkpt>
      <trkpt lat="47.143427" lon="-122.051768">
        <ele>210.6</ele>
        <time>2014-08-14T22:46:44Z</time>
        <sat>8</sat>
      </trkpt>
      <trkpt lat="47.143517" lon="-122.051662">
        <ele>210.5</ele>
        <time>2014-08-14T22:46:48Z</time>
        <sat>8</sat>
      </trkpt>
      <trkpt lat="47.143583" lon="-122.051570">
        <ele>211.0</ele>
        <time>2014-08-14T22:46:52Z</time>
        <sat>8</sat>
      </trkpt>
      <trkpt lat="47.143675" lon="-122.051467">
        <ele>211.0</ele>
        <time>2014-08-14T22:46:57Z</time>
        <sat>8</sat>
      </trkpt>
      <trkpt lat="47.143754" lon="-122.051382">
        <ele>211.3</ele>
        <time>2014-08-14T22:47:02Z</time>
        <sat>8</sat>
      </trkpt>
      <trkpt lat="47.143835" lon="-122.051300">
        <ele>211.7</ele>
        <time>2014-08-14T22:47:06Z</time>
        <sat>8</sat>
      </trkpt>
      <trkpt lat="47.143929" lon="-122.051220">
        <ele>211.9</ele>
        <time>2014-08-14T22:47:11Z</time>
        <sat>8</sat>
      </trkpt>
      <trkpt lat="47.144005" lon="-122.051137">
        <ele>212.0</ele>
        <time>2014-08-14T22:47:15Z</time>
        <sat>8</sat>
      </trkpt>
      <trkpt lat="47.144094" lon="-122.051071">
        <ele>212.4</ele>
        <time>2014-08-14T22:47:19Z</time>
        <sat>8</sat>
      </trkpt>
      <trkpt lat="47.144187" lon="-122.050970">
        <ele>212.6</ele>
        <time>2014-08-14T22:47:24Z</time>
        <sat>8</sat>
      </trkpt>
      <trkpt lat="47.144259" lon="-122.050871">
        <ele>212.8</ele>
        <time>2014-08-14T22:47:27Z</time>
        <sat>8</sat>
      </trkpt>
      <trkpt lat="47.144340" lon="-122.050780">
        <ele>212.8</ele>
        <time>2014-08-14T22:47:31Z</time>
        <sat>8</sat>
      </trkpt>
      <trkpt lat="47.144428" lon="-122.050735">
        <ele>212.9</ele>
        <time>2014-08-14T22:47:34Z</time>
        <sat>8</sat>
      </trkpt>
      <trkpt lat="47.144517" lon="-122.050660">
        <ele>213.2</ele>
        <time>2014-08-14T22:47:38Z</time>
        <sat>8</sat>
      </trkpt>
      <trkpt lat="47.144614" lon="-122.050601">
        <ele>213.5</ele>
        <time>2014-08-14T22:47:42Z</time>
        <sat>8</sat>
      </trkpt>
      <trkpt lat="47.144720" lon="-122.050531">
        <ele>213.8</ele>
        <time>2014-08-14T22:47:47Z</time>
        <sat>8</sat>
      </trkpt>
      <trkpt lat="47.144813" lon="-122.050436">
        <ele>213.8</ele>
        <time>2014-08-14T22:47:51Z</time>
        <sat>8</sat>
      </trkpt>
      <trkpt lat="47.144907" lon="-122.050342">
        <ele>213.7</ele>
        <time>2014-08-14T22:47:55Z</time>
        <sat>8</sat>
      </trkpt>
      <trkpt lat="47.144987" lon="-122.050238">
        <ele>213.9</ele>
        <time>2014-08-14T22:47:59Z</time>
        <sat>8</sat>
      </trkpt>
      <trkpt lat="47.145077" lon="-122.050158">
        <ele>214.4</ele>
        <time>2014-08-14T22:48:03Z</time>
        <sat>8</sat>
      </trkpt>
      <trkpt lat="47.145154" lon="-122.050085">
        <ele>214.7</ele>
        <time>2014-08-14T22:48:06Z</time>
        <sat>8</sat>
      </trkpt>
      <trkpt lat="47.145225" lon="-122.049988">
        <ele>215.0</ele>
        <time>2014-08-14T22:48:09Z</time>
        <sat>8</sat>
      </trkpt>
      <trkpt lat="47.145300" lon="-122.049905">
        <ele>215.1</ele>
        <time>2014-08-14T22:48:12Z</time>
        <sat>8</sat>
      </trkpt>
      <trkpt lat="47.145417" lon="-122.049851">
        <ele>215.0</ele>
        <time>2014-08-14T22:48:16Z</time>
        <sat>8</sat>
      </trkpt>
      <trkpt lat="47.145517" lon="-122.049793">
        <ele>215.2</ele>
        <time>2014-08-14T22:48:19Z</time>
        <sat>8</sat>
      </trkpt>
      <trkpt lat="47.145625" lon="-122.049726">
        <ele>215.6</ele>
        <time>2014-08-14T22:48:22Z</time>
        <sat>8</sat>
      </trkpt>
      <trkpt lat="47.145720" lon="-122.049678">
        <ele>215.8</ele>
        <time>2014-08-14T22:48:25Z</time>
        <sat>8</sat>
      </trkpt>
      <trkpt lat="47.145798" lon="-122.049562">
        <ele>215.8</ele>
        <time>2014-08-14T22:48:29Z</time>
        <sat>8</sat>
      </trkpt>
      <trkpt lat="47.145864" lon="-122.049468">
        <ele>215.8</ele>
        <time>2014-08-14T22:48:33Z</time>
        <sat>8</sat>
      </trkpt>
      <trkpt lat="47.145937" lon="-122.049380">
        <ele>216.1</ele>
        <time>2014-08-14T22:48:37Z</time>
        <sat>8</sat>
      </trkpt>
      <trkpt lat="47.145998" lon="-122.049283">
        <ele>216.4</ele>
        <time>2014-08-14T22:48:40Z</time>
        <sat>8</sat>
      </trkpt>
      <trkpt lat="47.146060" lon="-122.049128">
        <ele>216.8</ele>
        <time>2014-08-14T22:48:44Z</time>
        <sat>8</sat>
      </trkpt>
      <trkpt lat="47.146148" lon="-122.049038">
        <ele>217.0</ele>
        <time>2014-08-14T22:48:46Z</time>
        <sat>8</sat>
      </trkpt>
      <trkpt lat="47.146212" lon="-122.048943">
        <ele>217.5</ele>
        <time>2014-08-14T22:48:49Z</time>
        <sat>8</sat>
      </trkpt>
      <trkpt lat="47.146290" lon="-122.048815">
        <ele>217.6</ele>
        <time>2014-08-14T22:48:54Z</time>
        <sat>8</sat>
      </trkpt>
      <trkpt lat="47.146373" lon="-122.048736">
        <ele>217.7</ele>
        <time>2014-08-14T22:48:59Z</time>
        <sat>8</sat>
      </trkpt>
      <trkpt lat="47.146467" lon="-122.048713">
        <ele>217.7</ele>
        <time>2014-08-14T22:49:03Z</time>
        <sat>8</sat>
      </trkpt>
      <trkpt lat="47.146550" lon="-122.048662">
        <ele>217.9</ele>
        <time>2014-08-14T22:49:09Z</time>
        <sat>8</sat>
      </trkpt>
      <trkpt lat="47.146819" lon="-122.048244">
        <ele>217.0</ele>
        <time>2014-08-14T22:49:32Z</time>
        <sat>8</sat>
      </trkpt>
      <trkpt lat="47.146999" lon="-122.048025">
        <ele>218.0</ele>
        <time>2014-08-14T22:49:37Z</time>
        <sat>8</sat>
      </trkpt>
      <trkpt lat="47.147084" lon="-122.047913">
        <ele>218.1</ele>
        <time>2014-08-14T22:49:40Z</time>
        <sat>8</sat>
      </trkpt>
      <trkpt lat="47.147155" lon="-122.047790">
        <ele>218.2</ele>
        <time>2014-08-14T22:49:43Z</time>
        <sat>8</sat>
      </trkpt>
      <trkpt lat="47.147235" lon="-122.047683">
        <ele>218.2</ele>
        <time>2014-08-14T22:49:46Z</time>
        <sat>8</sat>
      </trkpt>
      <trkpt lat="47.147319" lon="-122.047537">
        <ele>218.6</ele>
        <time>2014-08-14T22:49:49Z</time>
        <sat>8</sat>
      </trkpt>
      <trkpt lat="47.147385" lon="-122.046889">
        <ele>218.0</ele>
        <time>2014-08-14T22:49:55Z</time>
        <sat>8</sat>
      </trkpt>
      <trkpt lat="47.147504" lon="-122.046600">
        <ele>218.9</ele>
        <time>2014-08-14T22:50:00Z</time>
        <sat>8</sat>
      </trkpt>
      <trkpt lat="47.147600" lon="-122.046493">
        <ele>218.8</ele>
        <time>2014-08-14T22:50:03Z</time>
        <sat>8</sat>
      </trkpt>
      <trkpt lat="47.147700" lon="-122.046375">
        <ele>218.9</ele>
        <time>2014-08-14T22:50:06Z</time>
        <sat>8</sat>
      </trkpt>
      <trkpt lat="47.147774" lon="-122.046295">
        <ele>219.0</ele>
        <time>2014-08-14T22:50:08Z</time>
        <sat>8</sat>
      </trkpt>
      <trkpt lat="47.147849" lon="-122.046215">
        <ele>219.1</ele>
        <time>2014-08-14T22:50:10Z</time>
        <sat>8</sat>
      </trkpt>
      <trkpt lat="47.147954" lon="-122.046092">
        <ele>219.3</ele>
        <time>2014-08-14T22:50:13Z</time>
        <sat>8</sat>
      </trkpt>
      <trkpt lat="47.148030" lon="-122.046012">
        <ele>219.3</ele>
        <time>2014-08-14T22:50:15Z</time>
        <sat>8</sat>
      </trkpt>
      <trkpt lat="47.148105" lon="-122.045931">
        <ele>219.2</ele>
        <time>2014-08-14T22:50:17Z</time>
        <sat>8</sat>
      </trkpt>
      <trkpt lat="47.148182" lon="-122.045853">
        <ele>219.1</ele>
        <time>2014-08-14T22:50:19Z</time>
        <sat>8</sat>
      </trkpt>
      <trkpt lat="47.148289" lon="-122.045742">
        <ele>219.2</ele>
        <time>2014-08-14T22:50:22Z</time>
        <sat>8</sat>
      </trkpt>
      <trkpt lat="47.148367" lon="-122.045667">
        <ele>219.3</ele>
        <time>2014-08-14T22:50:24Z</time>
        <sat>8</sat>
      </trkpt>
      <trkpt lat="47.148478" lon="-122.045557">
        <ele>219.1</ele>
        <time>2014-08-14T22:50:27Z</time>
        <sat>8</sat>
      </trkpt>
      <trkpt lat="47.148582" lon="-122.045437">
        <ele>219.2</ele>
        <time>2014-08-14T22:50:30Z</time>
        <sat>8</sat>
      </trkpt>
      <trkpt lat="47.148657" lon="-122.045356">
        <ele>219.4</ele>
        <time>2014-08-14T22:50:32Z</time>
        <sat>8</sat>
      </trkpt>
      <trkpt lat="47.148762" lon="-122.045243">
        <ele>219.3</ele>
        <time>2014-08-14T22:50:35Z</time>
        <sat>8</sat>
      </trkpt>
      <trkpt lat="47.148847" lon="-122.045161">
        <ele>219.3</ele>
        <time>2014-08-14T22:50:37Z</time>
        <sat>8</sat>
      </trkpt>
      <trkpt lat="47.148920" lon="-122.045070">
        <ele>219.3</ele>
        <time>2014-08-14T22:50:39Z</time>
        <sat>8</sat>
      </trkpt>
      <trkpt lat="47.148997" lon="-122.044982">
        <ele>219.3</ele>
        <time>2014-08-14T22:50:41Z</time>
        <sat>8</sat>
      </trkpt>
      <trkpt lat="47.149075" lon="-122.044892">
        <ele>219.5</ele>
        <time>2014-08-14T22:50:43Z</time>
        <sat>8</sat>
      </trkpt>
      <trkpt lat="47.149155" lon="-122.044800">
        <ele>219.5</ele>
        <time>2014-08-14T22:50:45Z</time>
        <sat>8</sat>
      </trkpt>
      <trkpt lat="47.149229" lon="-122.044708">
        <ele>219.4</ele>
        <time>2014-08-14T22:50:47Z</time>
        <sat>8</sat>
      </trkpt>
      <trkpt lat="47.149300" lon="-122.044620">
        <ele>219.1</ele>
        <time>2014-08-14T22:50:49Z</time>
        <sat>8</sat>
      </trkpt>
      <trkpt lat="47.149407" lon="-122.044500">
        <ele>219.4</ele>
        <time>2014-08-14T22:50:52Z</time>
        <sat>8</sat>
      </trkpt>
      <trkpt lat="47.149515" lon="-122.044385">
        <ele>219.8</ele>
        <time>2014-08-14T22:50:55Z</time>
        <sat>8</sat>
      </trkpt>
      <trkpt lat="47.149595" lon="-122.044307">
        <ele>219.6</ele>
        <time>2014-08-14T22:50:57Z</time>
        <sat>8</sat>
      </trkpt>
      <trkpt lat="47.149702" lon="-122.044205">
        <ele>219.8</ele>
        <time>2014-08-14T22:51:00Z</time>
        <sat>8</sat>
      </trkpt>
      <trkpt lat="47.149772" lon="-122.044121">
        <ele>219.8</ele>
        <time>2014-08-14T22:51:02Z</time>
        <sat>8</sat>
      </trkpt>
      <trkpt lat="47.149877" lon="-122.044016">
        <ele>220.0</ele>
        <time>2014-08-14T22:51:05Z</time>
        <sat>8</sat>
      </trkpt>
      <trkpt lat="47.149950" lon="-122.043936">
        <ele>219.9</ele>
        <time>2014-08-14T22:51:07Z</time>
        <sat>8</sat>
      </trkpt>
      <trkpt lat="47.150038" lon="-122.043843">
        <ele>219.9</ele>
        <time>2014-08-14T22:51:09Z</time>
        <sat>8</sat>
      </trkpt>
      <trkpt lat="47.150117" lon="-122.043760">
        <ele>219.9</ele>
        <time>2014-08-14T22:51:11Z</time>
        <sat>8</sat>
      </trkpt>
      <trkpt lat="47.150212" lon="-122.043660">
        <ele>220.0</ele>
        <time>2014-08-14T22:51:14Z</time>
        <sat>8</sat>
      </trkpt>
      <trkpt lat="47.150304" lon="-122.043555">
        <ele>219.7</ele>
        <time>2014-08-14T22:51:17Z</time>
        <sat>8</sat>
      </trkpt>
      <trkpt lat="47.150390" lon="-122.043448">
        <ele>219.9</ele>
        <time>2014-08-14T22:51:20Z</time>
        <sat>8</sat>
      </trkpt>
      <trkpt lat="47.150485" lon="-122.043345">
        <ele>220.0</ele>
        <time>2014-08-14T22:51:23Z</time>
        <sat>8</sat>
      </trkpt>
      <trkpt lat="47.150597" lon="-122.043233">
        <ele>220.0</ele>
        <time>2014-08-14T22:51:26Z</time>
        <sat>8</sat>
      </trkpt>
      <trkpt lat="47.150682" lon="-122.043156">
        <ele>220.2</ele>
        <time>2014-08-14T22:51:28Z</time>
        <sat>8</sat>
      </trkpt>
      <trkpt lat="47.150780" lon="-122.043045">
        <ele>220.5</ele>
        <time>2014-08-14T22:51:31Z</time>
        <sat>8</sat>
      </trkpt>
      <trkpt lat="47.150870" lon="-122.042947">
        <ele>220.4</ele>
        <time>2014-08-14T22:51:34Z</time>
        <sat>8</sat>
      </trkpt>
      <trkpt lat="47.150970" lon="-122.042837">
        <ele>220.4</ele>
        <time>2014-08-14T22:51:37Z</time>
        <sat>8</sat>
      </trkpt>
      <trkpt lat="47.151043" lon="-122.042753">
        <ele>220.6</ele>
        <time>2014-08-14T22:51:39Z</time>
        <sat>8</sat>
      </trkpt>
      <trkpt lat="47.151152" lon="-122.042640">
        <ele>220.7</ele>
        <time>2014-08-14T22:51:42Z</time>
        <sat>8</sat>
      </trkpt>
      <trkpt lat="47.151245" lon="-122.042538">
        <ele>220.6</ele>
        <time>2014-08-14T22:51:45Z</time>
        <sat>8</sat>
      </trkpt>
      <trkpt lat="47.151350" lon="-122.042420">
        <ele>220.7</ele>
        <time>2014-08-14T22:51:48Z</time>
        <sat>8</sat>
      </trkpt>
      <trkpt lat="47.151449" lon="-122.042307">
        <ele>220.7</ele>
        <time>2014-08-14T22:51:51Z</time>
        <sat>8</sat>
      </trkpt>
      <trkpt lat="47.151552" lon="-122.042197">
        <ele>220.8</ele>
        <time>2014-08-14T22:51:54Z</time>
        <sat>8</sat>
      </trkpt>
      <trkpt lat="47.151645" lon="-122.042092">
        <ele>220.8</ele>
        <time>2014-08-14T22:51:57Z</time>
        <sat>8</sat>
      </trkpt>
      <trkpt lat="47.151747" lon="-122.041990">
        <ele>220.8</ele>
        <time>2014-08-14T22:52:00Z</time>
        <sat>8</sat>
      </trkpt>
      <trkpt lat="47.151820" lon="-122.041911">
        <ele>220.9</ele>
        <time>2014-08-14T22:52:02Z</time>
        <sat>8</sat>
      </trkpt>
      <trkpt lat="47.151923" lon="-122.041791">
        <ele>220.9</ele>
        <time>2014-08-14T22:52:05Z</time>
        <sat>8</sat>
      </trkpt>
      <trkpt lat="47.152019" lon="-122.041681">
        <ele>220.6</ele>
        <time>2014-08-14T22:52:08Z</time>
        <sat>8</sat>
      </trkpt>
      <trkpt lat="47.152112" lon="-122.041583">
        <ele>221.1</ele>
        <time>2014-08-14T22:52:11Z</time>
        <sat>8</sat>
      </trkpt>
      <trkpt lat="47.152207" lon="-122.041490">
        <ele>221.2</ele>
        <time>2014-08-14T22:52:14Z</time>
        <sat>8</sat>
      </trkpt>
      <trkpt lat="47.152309" lon="-122.041380">
        <ele>220.8</ele>
        <time>2014-08-14T22:52:17Z</time>
        <sat>8</sat>
      </trkpt>
      <trkpt lat="47.152400" lon="-122.041273">
        <ele>221.0</ele>
        <time>2014-08-14T22:52:20Z</time>
        <sat>8</sat>
      </trkpt>
      <trkpt lat="47.152498" lon="-122.041151">
        <ele>221.0</ele>
        <time>2014-08-14T22:52:23Z</time>
        <sat>8</sat>
      </trkpt>
      <trkpt lat="47.152602" lon="-122.041035">
        <ele>221.1</ele>
        <time>2014-08-14T22:52:26Z</time>
        <sat>8</sat>
      </trkpt>
      <trkpt lat="47.152710" lon="-122.040926">
        <ele>221.0</ele>
        <time>2014-08-14T22:52:29Z</time>
        <sat>8</sat>
      </trkpt>
      <trkpt lat="47.152813" lon="-122.040808">
        <ele>221.3</ele>
        <time>2014-08-14T22:52:32Z</time>
        <sat>8</sat>
      </trkpt>
      <trkpt lat="47.152890" lon="-122.040732">
        <ele>221.3</ele>
        <time>2014-08-14T22:52:34Z</time>
        <sat>8</sat>
      </trkpt>
      <trkpt lat="47.152962" lon="-122.040646">
        <ele>221.5</ele>
        <time>2014-08-14T22:52:36Z</time>
        <sat>8</sat>
      </trkpt>
      <trkpt lat="47.153032" lon="-122.040563">
        <ele>221.3</ele>
        <time>2014-08-14T22:52:38Z</time>
        <sat>8</sat>
      </trkpt>
      <trkpt lat="47.153134" lon="-122.040440">
        <ele>221.5</ele>
        <time>2014-08-14T22:52:41Z</time>
        <sat>8</sat>
      </trkpt>
      <trkpt lat="47.153214" lon="-122.040361">
        <ele>221.8</ele>
        <time>2014-08-14T22:52:43Z</time>
        <sat>8</sat>
      </trkpt>
      <trkpt lat="47.153288" lon="-122.040283">
        <ele>221.4</ele>
        <time>2014-08-14T22:52:45Z</time>
        <sat>8</sat>
      </trkpt>
      <trkpt lat="47.153367" lon="-122.040210">
        <ele>221.4</ele>
        <time>2014-08-14T22:52:47Z</time>
        <sat>8</sat>
      </trkpt>
      <trkpt lat="47.153472" lon="-122.040087">
        <ele>221.7</ele>
        <time>2014-08-14T22:52:50Z</time>
        <sat>8</sat>
      </trkpt>
      <trkpt lat="47.153545" lon="-122.040005">
        <ele>221.5</ele>
        <time>2014-08-14T22:52:52Z</time>
        <sat>8</sat>
      </trkpt>
      <trkpt lat="47.153618" lon="-122.039916">
        <ele>221.4</ele>
        <time>2014-08-14T22:52:54Z</time>
        <sat>8</sat>
      </trkpt>
      <trkpt lat="47.153693" lon="-122.039835">
        <ele>221.6</ele>
        <time>2014-08-14T22:52:56Z</time>
        <sat>8</sat>
      </trkpt>
      <trkpt lat="47.153767" lon="-122.039755">
        <ele>221.7</ele>
        <time>2014-08-14T22:52:58Z</time>
        <sat>8</sat>
      </trkpt>
      <trkpt lat="47.153840" lon="-122.039678">
        <ele>221.8</ele>
        <time>2014-08-14T22:53:00Z</time>
        <sat>8</sat>
      </trkpt>
      <trkpt lat="47.153943" lon="-122.039561">
        <ele>221.8</ele>
        <time>2014-08-14T22:53:03Z</time>
        <sat>8</sat>
      </trkpt>
      <trkpt lat="47.154048" lon="-122.039453">
        <ele>221.7</ele>
        <time>2014-08-14T22:53:06Z</time>
        <sat>8</sat>
      </trkpt>
      <trkpt lat="47.154159" lon="-122.039338">
        <ele>221.5</ele>
        <time>2014-08-14T22:53:09Z</time>
        <sat>8</sat>
      </trkpt>
      <trkpt lat="47.154235" lon="-122.039258">
        <ele>221.7</ele>
        <time>2014-08-14T22:53:11Z</time>
        <sat>8</sat>
      </trkpt>
      <trkpt lat="47.154344" lon="-122.039143">
        <ele>222.1</ele>
        <time>2014-08-14T22:53:14Z</time>
        <sat>8</sat>
      </trkpt>
      <trkpt lat="47.154418" lon="-122.039063">
        <ele>222.0</ele>
        <time>2014-08-14T22:53:16Z</time>
        <sat>8</sat>
      </trkpt>
      <trkpt lat="47.154495" lon="-122.038978">
        <ele>222.0</ele>
        <time>2014-08-14T22:53:18Z</time>
        <sat>8</sat>
      </trkpt>
      <trkpt lat="47.154572" lon="-122.038896">
        <ele>222.2</ele>
        <time>2014-08-14T22:53:20Z</time>
        <sat>8</sat>
      </trkpt>
      <trkpt lat="47.154652" lon="-122.038811">
        <ele>222.3</ele>
        <time>2014-08-14T22:53:22Z</time>
        <sat>8</sat>
      </trkpt>
      <trkpt lat="47.154728" lon="-122.038733">
        <ele>222.3</ele>
        <time>2014-08-14T22:53:24Z</time>
        <sat>8</sat>
      </trkpt>
      <trkpt lat="47.154838" lon="-122.038617">
        <ele>222.4</ele>
        <time>2014-08-14T22:53:27Z</time>
        <sat>8</sat>
      </trkpt>
      <trkpt lat="47.154914" lon="-122.038535">
        <ele>222.2</ele>
        <time>2014-08-14T22:53:29Z</time>
        <sat>8</sat>
      </trkpt>
      <trkpt lat="47.155017" lon="-122.038417">
        <ele>222.2</ele>
        <time>2014-08-14T22:53:32Z</time>
        <sat>8</sat>
      </trkpt>
      <trkpt lat="47.155088" lon="-122.038330">
        <ele>222.3</ele>
        <time>2014-08-14T22:53:34Z</time>
        <sat>8</sat>
      </trkpt>
      <trkpt lat="47.155160" lon="-122.038248">
        <ele>222.1</ele>
        <time>2014-08-14T22:53:36Z</time>
        <sat>8</sat>
      </trkpt>
      <trkpt lat="47.155240" lon="-122.038162">
        <ele>222.2</ele>
        <time>2014-08-14T22:53:38Z</time>
        <sat>8</sat>
      </trkpt>
      <trkpt lat="47.155325" lon="-122.038072">
        <ele>222.1</ele>
        <time>2014-08-14T22:53:40Z</time>
        <sat>8</sat>
      </trkpt>
      <trkpt lat="47.155405" lon="-122.037988">
        <ele>221.9</ele>
        <time>2014-08-14T22:53:42Z</time>
        <sat>8</sat>
      </trkpt>
      <trkpt lat="47.155492" lon="-122.037920">
        <ele>222.1</ele>
        <time>2014-08-14T22:53:44Z</time>
        <sat>8</sat>
      </trkpt>
      <trkpt lat="47.155592" lon="-122.037810">
        <ele>221.9</ele>
        <time>2014-08-14T22:53:47Z</time>
        <sat>8</sat>
      </trkpt>
      <trkpt lat="47.155700" lon="-122.037707">
        <ele>222.0</ele>
        <time>2014-08-14T22:53:50Z</time>
        <sat>8</sat>
      </trkpt>
      <trkpt lat="47.155785" lon="-122.037615">
        <ele>222.1</ele>
        <time>2014-08-14T22:53:52Z</time>
        <sat>8</sat>
      </trkpt>
      <trkpt lat="47.155858" lon="-122.037535">
        <ele>221.8</ele>
        <time>2014-08-14T22:53:54Z</time>
        <sat>8</sat>
      </trkpt>
      <trkpt lat="47.155967" lon="-122.037413">
        <ele>222.0</ele>
        <time>2014-08-14T22:53:57Z</time>
        <sat>8</sat>
      </trkpt>
      <trkpt lat="47.156037" lon="-122.037330">
        <ele>221.9</ele>
        <time>2014-08-14T22:53:59Z</time>
        <sat>8</sat>
      </trkpt>
      <trkpt lat="47.156139" lon="-122.037210">
        <ele>222.2</ele>
        <time>2014-08-14T22:54:02Z</time>
        <sat>8</sat>
      </trkpt>
      <trkpt lat="47.156227" lon="-122.037101">
        <ele>222.2</ele>
        <time>2014-08-14T22:54:05Z</time>
        <sat>8</sat>
      </trkpt>
      <trkpt lat="47.156308" lon="-122.036986">
        <ele>222.2</ele>
        <time>2014-08-14T22:54:08Z</time>
        <sat>8</sat>
      </trkpt>
      <trkpt lat="47.156345" lon="-122.036813">
        <ele>221.9</ele>
        <time>2014-08-14T22:54:11Z</time>
        <sat>8</sat>
      </trkpt>
      <trkpt lat="47.156349" lon="-122.036627">
        <ele>222.0</ele>
        <time>2014-08-14T22:54:14Z</time>
        <sat>8</sat>
      </trkpt>
      <trkpt lat="47.156312" lon="-122.036460">
        <ele>222.2</ele>
        <time>2014-08-14T22:54:17Z</time>
        <sat>8</sat>
      </trkpt>
      <trkpt lat="47.156295" lon="-122.036318">
        <ele>222.1</ele>
        <time>2014-08-14T22:54:20Z</time>
        <sat>8</sat>
      </trkpt>
      <trkpt lat="47.156382" lon="-122.036253">
        <ele>221.9</ele>
        <time>2014-08-14T22:54:23Z</time>
        <sat>8</sat>
      </trkpt>
      <trkpt lat="47.156489" lon="-122.036162">
        <ele>221.9</ele>
        <time>2014-08-14T22:54:26Z</time>
        <sat>8</sat>
      </trkpt>
      <trkpt lat="47.156535" lon="-122.036321">
        <ele>222.0</ele>
        <time>2014-08-14T22:54:31Z</time>
        <sat>8</sat>
      </trkpt>
      <trkpt lat="47.156580" lon="-122.036468">
        <ele>221.8</ele>
        <time>2014-08-14T22:54:34Z</time>
        <sat>8</sat>
      </trkpt>
      <trkpt lat="47.156695" lon="-122.036518">
        <ele>222.2</ele>
        <time>2014-08-14T22:54:37Z</time>
        <sat>8</sat>
      </trkpt>
      <trkpt lat="47.156809" lon="-122.036430">
        <ele>222.2</ele>
        <time>2014-08-14T22:54:40Z</time>
        <sat>8</sat>
      </trkpt>
      <trkpt lat="47.156885" lon="-122.036338">
        <ele>222.9</ele>
        <time>2014-08-14T22:54:42Z</time>
        <sat>8</sat>
      </trkpt>
      <trkpt lat="47.156995" lon="-122.036226">
        <ele>222.4</ele>
        <time>2014-08-14T22:54:45Z</time>
        <sat>8</sat>
      </trkpt>
      <trkpt lat="47.157077" lon="-122.036140">
        <ele>222.3</ele>
        <time>2014-08-14T22:54:47Z</time>
        <sat>8</sat>
      </trkpt>
      <trkpt lat="47.157160" lon="-122.036048">
        <ele>222.2</ele>
        <time>2014-08-14T22:54:49Z</time>
        <sat>8</sat>
      </trkpt>
      <trkpt lat="47.157235" lon="-122.035965">
        <ele>222.0</ele>
        <time>2014-08-14T22:54:51Z</time>
        <sat>8</sat>
      </trkpt>
      <trkpt lat="47.157313" lon="-122.035880">
        <ele>222.1</ele>
        <time>2014-08-14T22:54:53Z</time>
        <sat>8</sat>
      </trkpt>
      <trkpt lat="47.157395" lon="-122.035793">
        <ele>222.2</ele>
        <time>2014-08-14T22:54:55Z</time>
        <sat>8</sat>
      </trkpt>
      <trkpt lat="47.157482" lon="-122.035702">
        <ele>222.1</ele>
        <time>2014-08-14T22:54:57Z</time>
        <sat>8</sat>
      </trkpt>
      <trkpt lat="47.157585" lon="-122.035616">
        <ele>222.1</ele>
        <time>2014-08-14T22:54:59Z</time>
        <sat>8</sat>
      </trkpt>
      <trkpt lat="47.157682" lon="-122.035520">
        <ele>222.1</ele>
        <time>2014-08-14T22:55:02Z</time>
        <sat>8</sat>
      </trkpt>
      <trkpt lat="47.157777" lon="-122.035421">
        <ele>222.1</ele>
        <time>2014-08-14T22:55:06Z</time>
        <sat>8</sat>
      </trkpt>
      <trkpt lat="47.157860" lon="-122.035326">
        <ele>222.3</ele>
        <time>2014-08-14T22:55:09Z</time>
        <sat>8</sat>
      </trkpt>
      <trkpt lat="47.157940" lon="-122.035221">
        <ele>222.3</ele>
        <time>2014-08-14T22:55:12Z</time>
        <sat>8</sat>
      </trkpt>
      <trkpt lat="47.158022" lon="-122.035137">
        <ele>222.3</ele>
        <time>2014-08-14T22:55:15Z</time>
        <sat>8</sat>
      </trkpt>
      <trkpt lat="47.158097" lon="-122.035055">
        <ele>222.3</ele>
        <time>2014-08-14T22:55:18Z</time>
        <sat>8</sat>
      </trkpt>
      <trkpt lat="47.158169" lon="-122.034971">
        <ele>222.3</ele>
        <time>2014-08-14T22:55:21Z</time>
        <sat>8</sat>
      </trkpt>
      <trkpt lat="47.158260" lon="-122.034873">
        <ele>221.9</ele>
        <time>2014-08-14T22:55:25Z</time>
        <sat>8</sat>
      </trkpt>
      <trkpt lat="47.158349" lon="-122.034786">
        <ele>222.2</ele>
        <time>2014-08-14T22:55:29Z</time>
        <sat>8</sat>
      </trkpt>
      <trkpt lat="47.158422" lon="-122.034708">
        <ele>222.1</ele>
        <time>2014-08-14T22:55:33Z</time>
        <sat>8</sat>
      </trkpt>
      <trkpt lat="47.158509" lon="-122.034617">
        <ele>222.1</ele>
        <time>2014-08-14T22:55:37Z</time>
        <sat>8</sat>
      </trkpt>
      <trkpt lat="47.158600" lon="-122.034507">
        <ele>222.3</ele>
        <time>2014-08-14T22:55:41Z</time>
        <sat>8</sat>
      </trkpt>
      <trkpt lat="47.158677" lon="-122.034428">
        <ele>222.2</ele>
        <time>2014-08-14T22:55:44Z</time>
        <sat>8</sat>
      </trkpt>
      <trkpt lat="47.158762" lon="-122.034342">
        <ele>222.3</ele>
        <time>2014-08-14T22:55:47Z</time>
        <sat>8</sat>
      </trkpt>
      <trkpt lat="47.158843" lon="-122.034253">
        <ele>222.2</ele>
        <time>2014-08-14T22:55:50Z</time>
        <sat>8</sat>
      </trkpt>
      <trkpt lat="47.158924" lon="-122.034176">
        <ele>222.2</ele>
        <time>2014-08-14T22:55:53Z</time>
        <sat>8</sat>
      </trkpt>
      <trkpt lat="47.159012" lon="-122.034083">
        <ele>222.1</ele>
        <time>2014-08-14T22:55:57Z</time>
        <sat>8</sat>
      </trkpt>
      <trkpt lat="47.158920" lon="-122.034190">
        <ele>222.1</ele>
        <time>2014-08-14T22:56:05Z</time>
        <sat>8</sat>
      </trkpt>
      <trkpt lat="47.158834" lon="-122.034275">
        <ele>222.3</ele>
        <time>2014-08-14T22:56:08Z</time>
        <sat>7</sat>
      </trkpt>
      <trkpt lat="47.158738" lon="-122.034378">
        <ele>222.2</ele>
        <time>2014-08-14T22:56:11Z</time>
        <sat>8</sat>
      </trkpt>
      <trkpt lat="47.158633" lon="-122.034490">
        <ele>222.3</ele>
        <time>2014-08-14T22:56:14Z</time>
        <sat>8</sat>
      </trkpt>
      <trkpt lat="47.158562" lon="-122.034570">
        <ele>222.3</ele>
        <time>2014-08-14T22:56:16Z</time>
        <sat>8</sat>
      </trkpt>
      <trkpt lat="47.158487" lon="-122.034646">
        <ele>222.3</ele>
        <time>2014-08-14T22:56:18Z</time>
        <sat>8</sat>
      </trkpt>
      <trkpt lat="47.158410" lon="-122.034726">
        <ele>222.1</ele>
        <time>2014-08-14T22:56:20Z</time>
        <sat>8</sat>
      </trkpt>
      <trkpt lat="47.158335" lon="-122.034810">
        <ele>222.1</ele>
        <time>2014-08-14T22:56:22Z</time>
        <sat>8</sat>
      </trkpt>
      <trkpt lat="47.158259" lon="-122.034897">
        <ele>222.2</ele>
        <time>2014-08-14T22:56:24Z</time>
        <sat>8</sat>
      </trkpt>
      <trkpt lat="47.158183" lon="-122.034981">
        <ele>222.2</ele>
        <time>2014-08-14T22:56:26Z</time>
        <sat>8</sat>
      </trkpt>
      <trkpt lat="47.158108" lon="-122.035062">
        <ele>222.2</ele>
        <time>2014-08-14T22:56:28Z</time>
        <sat>8</sat>
      </trkpt>
      <trkpt lat="47.158034" lon="-122.035140">
        <ele>222.1</ele>
        <time>2014-08-14T22:56:30Z</time>
        <sat>8</sat>
      </trkpt>
      <trkpt lat="47.157962" lon="-122.035221">
        <ele>222.1</ele>
        <time>2014-08-14T22:56:32Z</time>
        <sat>8</sat>
      </trkpt>
      <trkpt lat="47.157867" lon="-122.035328">
        <ele>222.1</ele>
        <time>2014-08-14T22:56:35Z</time>
        <sat>7</sat>
      </trkpt>
      <trkpt lat="47.157815" lon="-122.035473">
        <ele>222.2</ele>
        <time>2014-08-14T22:56:38Z</time>
        <sat>8</sat>
      </trkpt>
      <trkpt lat="47.157799" lon="-122.035656">
        <ele>222.3</ele>
        <time>2014-08-14T22:56:41Z</time>
        <sat>8</sat>
      </trkpt>
      <trkpt lat="47.157789" lon="-122.035845">
        <ele>222.4</ele>
        <time>2014-08-14T22:56:44Z</time>
        <sat>8</sat>
      </trkpt>
      <trkpt lat="47.157802" lon="-122.036040">
        <ele>222.2</ele>
        <time>2014-08-14T22:56:47Z</time>
        <sat>8</sat>
      </trkpt>
      <trkpt lat="47.157814" lon="-122.036172">
        <ele>222.4</ele>
        <time>2014-08-14T22:56:49Z</time>
        <sat>8</sat>
      </trkpt>
      <trkpt lat="47.157825" lon="-122.036303">
        <ele>222.3</ele>
        <time>2014-08-14T22:56:51Z</time>
        <sat>8</sat>
      </trkpt>
      <trkpt lat="47.157847" lon="-122.036483">
        <ele>222.2</ele>
        <time>2014-08-14T22:56:54Z</time>
        <sat>8</sat>
      </trkpt>
      <trkpt lat="47.157873" lon="-122.036612">
        <ele>222.4</ele>
        <time>2014-08-14T22:56:58Z</time>
        <sat>8</sat>
      </trkpt>
      <trkpt lat="47.157965" lon="-122.036693">
        <ele>222.4</ele>
        <time>2014-08-14T22:57:21Z</time>
        <sat>8</sat>
      </trkpt>
      <trkpt lat="47.158037" lon="-122.036862">
        <ele>221.8</ele>
        <time>2014-08-14T22:57:24Z</time>
        <sat>8</sat>
      </trkpt>
      <trkpt lat="47.158113" lon="-122.037003">
        <ele>221.8</ele>
        <time>2014-08-14T22:57:27Z</time>
        <sat>8</sat>
      </trkpt>
      <trkpt lat="47.158214" lon="-122.037120">
        <ele>221.8</ele>
        <time>2014-08-14T22:57:30Z</time>
        <sat>8</sat>
      </trkpt>
      <trkpt lat="47.158315" lon="-122.037211">
        <ele>221.6</ele>
        <time>2014-08-14T22:57:33Z</time>
        <sat>8</sat>
      </trkpt>
      <trkpt lat="47.158428" lon="-122.037262">
        <ele>221.5</ele>
        <time>2014-08-14T22:57:36Z</time>
        <sat>8</sat>
      </trkpt>
      <trkpt lat="47.158538" lon="-122.037283">
        <ele>221.5</ele>
        <time>2014-08-14T22:57:39Z</time>
        <sat>8</sat>
      </trkpt>
      <trkpt lat="47.158633" lon="-122.037305">
        <ele>221.2</ele>
        <time>2014-08-14T22:57:42Z</time>
        <sat>8</sat>
      </trkpt>
      <trkpt lat="47.158752" lon="-122.037311">
        <ele>221.2</ele>
        <time>2014-08-14T22:57:46Z</time>
        <sat>8</sat>
      </trkpt>
      <trkpt lat="47.158849" lon="-122.037335">
        <ele>221.4</ele>
        <time>2014-08-14T22:57:49Z</time>
        <sat>8</sat>
      </trkpt>
      <trkpt lat="47.158940" lon="-122.037360">
        <ele>221.3</ele>
        <time>2014-08-14T22:57:52Z</time>
        <sat>8</sat>
      </trkpt>
      <trkpt lat="47.159017" lon="-122.037450">
        <ele>221.4</ele>
        <time>2014-08-14T22:57:56Z</time>
        <sat>8</sat>
      </trkpt>
      <trkpt lat="47.159050" lon="-122.037470">
        <ele>221.5</ele>
        <time>2014-08-14T22:58:12Z</time>
        <sat>8</sat>
      </trkpt>
      <trkpt lat="47.158465" lon="-122.037395">
        <ele>221.0</ele>
        <time>2014-08-14T23:35:17Z</time>
        <sat>8</sat>
      </trkpt>
      <trkpt lat="47.158367" lon="-122.037358">
        <ele>220.9</ele>
        <time>2014-08-14T23:35:21Z</time>
        <sat>8</sat>
      </trkpt>
      <trkpt lat="47.158272" lon="-122.037292">
        <ele>221.1</ele>
        <time>2014-08-14T23:35:25Z</time>
        <sat>8</sat>
      </trkpt>
      <trkpt lat="47.158203" lon="-122.037167">
        <ele>221.1</ele>
        <time>2014-08-14T23:35:30Z</time>
        <sat>8</sat>
      </trkpt>
      <trkpt lat="47.158155" lon="-122.037018">
        <ele>221.1</ele>
        <time>2014-08-14T23:35:34Z</time>
        <sat>8</sat>
      </trkpt>
      <trkpt lat="47.158065" lon="-122.036942">
        <ele>221.2</ele>
        <time>2014-08-14T23:35:38Z</time>
        <sat>8</sat>
      </trkpt>
      <trkpt lat="47.158052" lon="-122.036800">
        <ele>221.4</ele>
        <time>2014-08-14T23:35:47Z</time>
        <sat>8</sat>
      </trkpt>
      <trkpt lat="47.158073" lon="-122.036643">
        <ele>221.4</ele>
        <time>2014-08-14T23:35:53Z</time>
        <sat>8</sat>
      </trkpt>
      <trkpt lat="47.158083" lon="-122.036510">
        <ele>221.2</ele>
        <time>2014-08-14T23:35:58Z</time>
        <sat>8</sat>
      </trkpt>
      <trkpt lat="47.158117" lon="-122.036368">
        <ele>221.3</ele>
        <time>2014-08-14T23:36:03Z</time>
        <sat>8</sat>
      </trkpt>
      <trkpt lat="47.158175" lon="-122.036247">
        <ele>221.5</ele>
        <time>2014-08-14T23:36:09Z</time>
        <sat>8</sat>
      </trkpt>
      <trkpt lat="47.158218" lon="-122.036111">
        <ele>221.8</ele>
        <time>2014-08-14T23:36:17Z</time>
        <sat>8</sat>
      </trkpt>
      <trkpt lat="47.158240" lon="-122.035973">
        <ele>221.5</ele>
        <time>2014-08-14T23:36:22Z</time>
        <sat>8</sat>
      </trkpt>
      <trkpt lat="47.158290" lon="-122.035842">
        <ele>221.6</ele>
        <time>2014-08-14T23:36:26Z</time>
        <sat>8</sat>
      </trkpt>
      <trkpt lat="47.158344" lon="-122.035723">
        <ele>221.9</ele>
        <time>2014-08-14T23:36:29Z</time>
        <sat>8</sat>
      </trkpt>
      <trkpt lat="47.158425" lon="-122.035613">
        <ele>222.0</ele>
        <time>2014-08-14T23:36:32Z</time>
        <sat>8</sat>
      </trkpt>
      <trkpt lat="47.158507" lon="-122.035513">
        <ele>221.9</ele>
        <time>2014-08-14T23:36:35Z</time>
        <sat>8</sat>
      </trkpt>
      <trkpt lat="47.158542" lon="-122.035387">
        <ele>222.2</ele>
        <time>2014-08-14T23:36:38Z</time>
        <sat>8</sat>
      </trkpt>
      <trkpt lat="47.158560" lon="-122.035237">
        <ele>222.3</ele>
        <time>2014-08-14T23:36:41Z</time>
        <sat>8</sat>
      </trkpt>
      <trkpt lat="47.158599" lon="-122.035053">
        <ele>222.1</ele>
        <time>2014-08-14T23:36:44Z</time>
        <sat>8</sat>
      </trkpt>
      <trkpt lat="47.158627" lon="-122.034875">
        <ele>221.7</ele>
        <time>2014-08-14T23:36:47Z</time>
        <sat>8</sat>
      </trkpt>
      <trkpt lat="47.158635" lon="-122.034730">
        <ele>221.9</ele>
        <time>2014-08-14T23:36:50Z</time>
        <sat>8</sat>
      </trkpt>
      <trkpt lat="47.158660" lon="-122.034573">
        <ele>221.5</ele>
        <time>2014-08-14T23:36:54Z</time>
        <sat>8</sat>
      </trkpt>
      <trkpt lat="47.158710" lon="-122.034421">
        <ele>221.7</ele>
        <time>2014-08-14T23:36:58Z</time>
        <sat>8</sat>
      </trkpt>
      <trkpt lat="47.158780" lon="-122.034328">
        <ele>221.5</ele>
        <time>2014-08-14T23:37:01Z</time>
        <sat>8</sat>
      </trkpt>
      <trkpt lat="47.158877" lon="-122.034245">
        <ele>221.4</ele>
        <time>2014-08-14T23:37:04Z</time>
        <sat>8</sat>
      </trkpt>
      <trkpt lat="47.158973" lon="-122.034158">
        <ele>221.5</ele>
        <time>2014-08-14T23:37:07Z</time>
        <sat>8</sat>
      </trkpt>
      <trkpt lat="47.159059" lon="-122.034088">
        <ele>221.7</ele>
        <time>2014-08-14T23:37:10Z</time>
        <sat>8</sat>
      </trkpt>
      <trkpt lat="47.159154" lon="-122.034000">
        <ele>221.6</ele>
        <time>2014-08-14T23:37:14Z</time>
        <sat>7</sat>
      </trkpt>
      <trkpt lat="47.159242" lon="-122.033922">
        <ele>221.9</ele>
        <time>2014-08-14T23:37:18Z</time>
        <sat>8</sat>
      </trkpt>
      <trkpt lat="47.159328" lon="-122.033822">
        <ele>221.7</ele>
        <time>2014-08-14T23:37:23Z</time>
        <sat>8</sat>
      </trkpt>
      <trkpt lat="47.159403" lon="-122.033715">
        <ele>221.8</ele>
        <time>2014-08-14T23:37:29Z</time>
        <sat>8</sat>
      </trkpt>
      <trkpt lat="47.159474" lon="-122.033617">
        <ele>221.8</ele>
        <time>2014-08-14T23:37:34Z</time>
        <sat>7</sat>
      </trkpt>
      <trkpt lat="47.159558" lon="-122.033541">
        <ele>222.0</ele>
        <time>2014-08-14T23:37:38Z</time>
        <sat>8</sat>
      </trkpt>
      <trkpt lat="47.159650" lon="-122.033435">
        <ele>222.1</ele>
        <time>2014-08-14T23:37:42Z</time>
        <sat>8</sat>
      </trkpt>
      <trkpt lat="47.159727" lon="-122.033352">
        <ele>222.2</ele>
        <time>2014-08-14T23:37:45Z</time>
        <sat>8</sat>
      </trkpt>
      <trkpt lat="47.159804" lon="-122.033268">
        <ele>222.0</ele>
        <time>2014-08-14T23:37:48Z</time>
        <sat>8</sat>
      </trkpt>
      <trkpt lat="47.159882" lon="-122.033178">
        <ele>222.0</ele>
        <time>2014-08-14T23:37:51Z</time>
        <sat>8</sat>
      </trkpt>
      <trkpt lat="47.159960" lon="-122.033101">
        <ele>221.8</ele>
        <time>2014-08-14T23:37:54Z</time>
        <sat>8</sat>
      </trkpt>
      <trkpt lat="47.160042" lon="-122.033010">
        <ele>222.0</ele>
        <time>2014-08-14T23:37:58Z</time>
        <sat>8</sat>
      </trkpt>
      <trkpt lat="47.160137" lon="-122.032902">
        <ele>222.0</ele>
        <time>2014-08-14T23:38:02Z</time>
        <sat>8</sat>
      </trkpt>
      <trkpt lat="47.160218" lon="-122.032813">
        <ele>221.7</ele>
        <time>2014-08-14T23:38:05Z</time>
        <sat>8</sat>
      </trkpt>
      <trkpt lat="47.160294" lon="-122.032718">
        <ele>221.8</ele>
        <time>2014-08-14T23:38:08Z</time>
        <sat>8</sat>
      </trkpt>
      <trkpt lat="47.160380" lon="-122.032625">
        <ele>221.8</ele>
        <time>2014-08-14T23:38:11Z</time>
        <sat>8</sat>
      </trkpt>
      <trkpt lat="47.160472" lon="-122.032528">
        <ele>221.9</ele>
        <time>2014-08-14T23:38:14Z</time>
        <sat>8</sat>
      </trkpt>
      <trkpt lat="47.160560" lon="-122.032436">
        <ele>221.8</ele>
        <time>2014-08-14T23:38:17Z</time>
        <sat>8</sat>
      </trkpt>
      <trkpt lat="47.160653" lon="-122.032335">
        <ele>221.8</ele>
        <time>2014-08-14T23:38:20Z</time>
        <sat>8</sat>
      </trkpt>
      <trkpt lat="47.160752" lon="-122.032226">
        <ele>221.7</ele>
        <time>2014-08-14T23:38:23Z</time>
        <sat>8</sat>
      </trkpt>
      <trkpt lat="47.160844" lon="-122.032125">
        <ele>221.5</ele>
        <time>2014-08-14T23:38:26Z</time>
        <sat>8</sat>
      </trkpt>
      <trkpt lat="47.160920" lon="-122.032030">
        <ele>221.7</ele>
        <time>2014-08-14T23:38:29Z</time>
        <sat>8</sat>
      </trkpt>
      <trkpt lat="47.161002" lon="-122.031936">
        <ele>221.9</ele>
        <time>2014-08-14T23:38:33Z</time>
        <sat>8</sat>
      </trkpt>
      <trkpt lat="47.161093" lon="-122.031858">
        <ele>221.7</ele>
        <time>2014-08-14T23:39:00Z</time>
        <sat>8</sat>
      </trkpt>
      <trkpt lat="47.161179" lon="-122.031803">
        <ele>221.8</ele>
        <time>2014-08-14T23:39:04Z</time>
        <sat>8</sat>
      </trkpt>
      <trkpt lat="47.161259" lon="-122.031877">
        <ele>221.7</ele>
        <time>2014-08-14T23:39:07Z</time>
        <sat>8</sat>
      </trkpt>
      <trkpt lat="47.161375" lon="-122.031918">
        <ele>221.4</ele>
        <time>2014-08-14T23:39:10Z</time>
        <sat>8</sat>
      </trkpt>
      <trkpt lat="47.161457" lon="-122.031860">
        <ele>221.2</ele>
        <time>2014-08-14T23:39:12Z</time>
        <sat>8</sat>
      </trkpt>
      <trkpt lat="47.161532" lon="-122.031783">
        <ele>221.1</ele>
        <time>2014-08-14T23:39:14Z</time>
        <sat>8</sat>
      </trkpt>
      <trkpt lat="47.161605" lon="-122.031703">
        <ele>221.1</ele>
        <time>2014-08-14T23:39:16Z</time>
        <sat>8</sat>
      </trkpt>
      <trkpt lat="47.161707" lon="-122.031583">
        <ele>221.0</ele>
        <time>2014-08-14T23:39:19Z</time>
        <sat>8</sat>
      </trkpt>
      <trkpt lat="47.161782" lon="-122.031503">
        <ele>220.9</ele>
        <time>2014-08-14T23:39:21Z</time>
        <sat>8</sat>
      </trkpt>
      <trkpt lat="47.161855" lon="-122.031421">
        <ele>221.1</ele>
        <time>2014-08-14T23:39:23Z</time>
        <sat>8</sat>
      </trkpt>
      <trkpt lat="47.161927" lon="-122.031340">
        <ele>221.1</ele>
        <time>2014-08-14T23:39:25Z</time>
        <sat>8</sat>
      </trkpt>
      <trkpt lat="47.162025" lon="-122.031228">
        <ele>221.0</ele>
        <time>2014-08-14T23:39:28Z</time>
        <sat>8</sat>
      </trkpt>
      <trkpt lat="47.162117" lon="-122.031113">
        <ele>221.2</ele>
        <time>2014-08-14T23:39:31Z</time>
        <sat>8</sat>
      </trkpt>
      <trkpt lat="47.162159" lon="-122.030950">
        <ele>221.2</ele>
        <time>2014-08-14T23:39:34Z</time>
        <sat>8</sat>
      </trkpt>
      <trkpt lat="47.162125" lon="-122.030788">
        <ele>221.6</ele>
        <time>2014-08-14T23:39:37Z</time>
        <sat>8</sat>
      </trkpt>
      <trkpt lat="47.162180" lon="-122.030665">
        <ele>222.0</ele>
        <time>2014-08-14T23:39:40Z</time>
        <sat>8</sat>
      </trkpt>
      <trkpt lat="47.162272" lon="-122.030570">
        <ele>221.8</ele>
        <time>2014-08-14T23:39:43Z</time>
        <sat>8</sat>
      </trkpt>
      <trkpt lat="47.162350" lon="-122.030470">
        <ele>221.7</ele>
        <time>2014-08-14T23:39:46Z</time>
        <sat>8</sat>
      </trkpt>
      <trkpt lat="47.162432" lon="-122.030396">
        <ele>221.8</ele>
        <time>2014-08-14T23:39:49Z</time>
        <sat>8</sat>
      </trkpt>
      <trkpt lat="47.162529" lon="-122.030286">
        <ele>221.6</ele>
        <time>2014-08-14T23:39:53Z</time>
        <sat>8</sat>
      </trkpt>
      <trkpt lat="47.162615" lon="-122.030195">
        <ele>221.8</ele>
        <time>2014-08-14T23:39:56Z</time>
        <sat>8</sat>
      </trkpt>
      <trkpt lat="47.162707" lon="-122.030096">
        <ele>221.7</ele>
        <time>2014-08-14T23:39:59Z</time>
        <sat>8</sat>
      </trkpt>
      <trkpt lat="47.162803" lon="-122.029983">
        <ele>221.8</ele>
        <time>2014-08-14T23:40:02Z</time>
        <sat>8</sat>
      </trkpt>
      <trkpt lat="47.162902" lon="-122.029853">
        <ele>221.5</ele>
        <time>2014-08-14T23:40:05Z</time>
        <sat>8</sat>
      </trkpt>
      <trkpt lat="47.163003" lon="-122.029731">
        <ele>221.1</ele>
        <time>2014-08-14T23:40:08Z</time>
        <sat>8</sat>
      </trkpt>
      <trkpt lat="47.163095" lon="-122.029628">
        <ele>221.3</ele>
        <time>2014-08-14T23:40:11Z</time>
        <sat>8</sat>
      </trkpt>
      <trkpt lat="47.163182" lon="-122.029535">
        <ele>221.6</ele>
        <time>2014-08-14T23:40:15Z</time>
        <sat>8</sat>
      </trkpt>
      <trkpt lat="47.163264" lon="-122.029440">
        <ele>221.9</ele>
        <time>2014-08-14T23:40:19Z</time>
        <sat>8</sat>
      </trkpt>
      <trkpt lat="47.163342" lon="-122.029362">
        <ele>221.8</ele>
        <time>2014-08-14T23:40:22Z</time>
        <sat>8</sat>
      </trkpt>
      <trkpt lat="47.163432" lon="-122.029276">
        <ele>221.8</ele>
        <time>2014-08-14T23:40:25Z</time>
        <sat>8</sat>
      </trkpt>
      <trkpt lat="47.163517" lon="-122.029178">
        <ele>221.7</ele>
        <time>2014-08-14T23:40:28Z</time>
        <sat>8</sat>
      </trkpt>
      <trkpt lat="47.163605" lon="-122.029087">
        <ele>221.6</ele>
        <time>2014-08-14T23:40:31Z</time>
        <sat>8</sat>
      </trkpt>
      <trkpt lat="47.163702" lon="-122.028997">
        <ele>221.5</ele>
        <time>2014-08-14T23:40:34Z</time>
        <sat>8</sat>
      </trkpt>
      <trkpt lat="47.163794" lon="-122.028890">
        <ele>221.5</ele>
        <time>2014-08-14T23:40:37Z</time>
        <sat>8</sat>
      </trkpt>
      <trkpt lat="47.163888" lon="-122.028785">
        <ele>221.8</ele>
        <time>2014-08-14T23:40:40Z</time>
        <sat>8</sat>
      </trkpt>
      <trkpt lat="47.163980" lon="-122.028678">
        <ele>221.5</ele>
        <time>2014-08-14T23:40:43Z</time>
        <sat>8</sat>
      </trkpt>
      <trkpt lat="47.164075" lon="-122.028583">
        <ele>221.4</ele>
        <time>2014-08-14T23:40:46Z</time>
        <sat>8</sat>
      </trkpt>
      <trkpt lat="47.164170" lon="-122.028483">
        <ele>221.4</ele>
        <time>2014-08-14T23:40:49Z</time>
        <sat>8</sat>
      </trkpt>
      <trkpt lat="47.164263" lon="-122.028378">
        <ele>221.5</ele>
        <time>2014-08-14T23:40:52Z</time>
        <sat>8</sat>
      </trkpt>
      <trkpt lat="47.164358" lon="-122.028275">
        <ele>221.7</ele>
        <time>2014-08-14T23:40:55Z</time>
        <sat>8</sat>
      </trkpt>
      <trkpt lat="47.164455" lon="-122.028165">
        <ele>221.6</ele>
        <time>2014-08-14T23:40:58Z</time>
        <sat>8</sat>
      </trkpt>
      <trkpt lat="47.164558" lon="-122.028060">
        <ele>221.9</ele>
        <time>2014-08-14T23:41:01Z</time>
        <sat>8</sat>
      </trkpt>
      <trkpt lat="47.164659" lon="-122.027953">
        <ele>221.6</ele>
        <time>2014-08-14T23:41:04Z</time>
        <sat>8</sat>
      </trkpt>
      <trkpt lat="47.164759" lon="-122.027850">
        <ele>221.7</ele>
        <time>2014-08-14T23:41:07Z</time>
        <sat>8</sat>
      </trkpt>
      <trkpt lat="47.164860" lon="-122.027745">
        <ele>221.6</ele>
        <time>2014-08-14T23:41:10Z</time>
        <sat>7</sat>
      </trkpt>
      <trkpt lat="47.164955" lon="-122.027636">
        <ele>221.5</ele>
        <time>2014-08-14T23:41:13Z</time>
        <sat>8</sat>
      </trkpt>
      <trkpt lat="47.165023" lon="-122.027543">
        <ele>221.5</ele>
        <time>2014-08-14T23:41:16Z</time>
        <sat>8</sat>
      </trkpt>
      <trkpt lat="47.165000" lon="-122.027415">
        <ele>221.5</ele>
        <time>2014-08-14T23:41:21Z</time>
        <sat>8</sat>
      </trkpt>
      <trkpt lat="47.164898" lon="-122.027435">
        <ele>221.4</ele>
        <time>2014-08-14T23:41:27Z</time>
        <sat>8</sat>
      </trkpt>
      <trkpt lat="47.164808" lon="-122.027511">
        <ele>221.8</ele>
        <time>2014-08-14T23:41:34Z</time>
        <sat>8</sat>
      </trkpt>
      <trkpt lat="47.164710" lon="-122.027535">
        <ele>221.2</ele>
        <time>2014-08-14T23:41:41Z</time>
        <sat>8</sat>
      </trkpt>
      <trkpt lat="47.164810" lon="-122.027505">
        <ele>221.2</ele>
        <time>2014-08-14T23:41:50Z</time>
        <sat>8</sat>
      </trkpt>
      <trkpt lat="47.164888" lon="-122.027433">
        <ele>221.4</ele>
        <time>2014-08-14T23:41:56Z</time>
        <sat>8</sat>
      </trkpt>
      <trkpt lat="47.164990" lon="-122.027423">
        <ele>221.4</ele>
        <time>2014-08-14T23:42:02Z</time>
        <sat>7</sat>
      </trkpt>
      <trkpt lat="47.165105" lon="-122.027432">
        <ele>221.5</ele>
        <time>2014-08-14T23:42:07Z</time>
        <sat>8</sat>
      </trkpt>
      <trkpt lat="47.165185" lon="-122.027367">
        <ele>221.5</ele>
        <time>2014-08-14T23:42:10Z</time>
        <sat>8</sat>
      </trkpt>
      <trkpt lat="47.165263" lon="-122.027283">
        <ele>221.4</ele>
        <time>2014-08-14T23:42:13Z</time>
        <sat>8</sat>
      </trkpt>
      <trkpt lat="47.165338" lon="-122.027196">
        <ele>221.2</ele>
        <time>2014-08-14T23:42:16Z</time>
        <sat>8</sat>
      </trkpt>
      <trkpt lat="47.165422" lon="-122.027103">
        <ele>221.0</ele>
        <time>2014-08-14T23:42:19Z</time>
        <sat>7</sat>
      </trkpt>
      <trkpt lat="47.165509" lon="-122.027018">
        <ele>221.2</ele>
        <time>2014-08-14T23:42:22Z</time>
        <sat>8</sat>
      </trkpt>
      <trkpt lat="47.165597" lon="-122.026925">
        <ele>221.2</ele>
        <time>2014-08-14T23:42:25Z</time>
        <sat>8</sat>
      </trkpt>
      <trkpt lat="47.165683" lon="-122.026836">
        <ele>220.9</ele>
        <time>2014-08-14T23:42:28Z</time>
        <sat>8</sat>
      </trkpt>
      <trkpt lat="47.165759" lon="-122.026757">
        <ele>220.9</ele>
        <time>2014-08-14T23:42:31Z</time>
        <sat>8</sat>
      </trkpt>
      <trkpt lat="47.165854" lon="-122.026762">
        <ele>220.9</ele>
        <time>2014-08-14T23:42:34Z</time>
        <sat>8</sat>
      </trkpt>
      <trkpt lat="47.165952" lon="-122.026846">
        <ele>220.6</ele>
        <time>2014-08-14T23:42:37Z</time>
        <sat>8</sat>
      </trkpt>
      <trkpt lat="47.166067" lon="-122.026903">
        <ele>220.6</ele>
        <time>2014-08-14T23:42:40Z</time>
        <sat>8</sat>
      </trkpt>
      <trkpt lat="47.166184" lon="-122.026840">
        <ele>220.7</ele>
        <time>2014-08-14T23:42:43Z</time>
        <sat>8</sat>
      </trkpt>
      <trkpt lat="47.166267" lon="-122.026788">
        <ele>220.6</ele>
        <time>2014-08-14T23:42:45Z</time>
        <sat>8</sat>
      </trkpt>
      <trkpt lat="47.166388" lon="-122.026701">
        <ele>220.2</ele>
        <time>2014-08-14T23:42:48Z</time>
        <sat>8</sat>
      </trkpt>
      <trkpt lat="47.166470" lon="-122.026642">
        <ele>220.2</ele>
        <time>2014-08-14T23:42:50Z</time>
        <sat>8</sat>
      </trkpt>
      <trkpt lat="47.166557" lon="-122.026581">
        <ele>220.0</ele>
        <time>2014-08-14T23:42:52Z</time>
        <sat>8</sat>
      </trkpt>
      <trkpt lat="47.166642" lon="-122.026513">
        <ele>219.8</ele>
        <time>2014-08-14T23:42:54Z</time>
        <sat>8</sat>
      </trkpt>
      <trkpt lat="47.166717" lon="-122.026430">
        <ele>219.6</ele>
        <time>2014-08-14T23:42:56Z</time>
        <sat>8</sat>
      </trkpt>
      <trkpt lat="47.166798" lon="-122.026363">
        <ele>219.6</ele>
        <time>2014-08-14T23:42:58Z</time>
        <sat>7</sat>
      </trkpt>
      <trkpt lat="47.166927" lon="-122.026312">
        <ele>219.4</ele>
        <time>2014-08-14T23:43:01Z</time>
        <sat>8</sat>
      </trkpt>
      <trkpt lat="47.167047" lon="-122.026235">
        <ele>219.3</ele>
        <time>2014-08-14T23:43:04Z</time>
        <sat>8</sat>
      </trkpt>
      <trkpt lat="47.167162" lon="-122.026148">
        <ele>219.4</ele>
        <time>2014-08-14T23:43:07Z</time>
        <sat>8</sat>
      </trkpt>
      <trkpt lat="47.167200" lon="-122.026000">
        <ele>219.3</ele>
        <time>2014-08-14T23:43:10Z</time>
        <sat>8</sat>
      </trkpt>
      <trkpt lat="47.167153" lon="-122.025850">
        <ele>219.2</ele>
        <time>2014-08-14T23:43:13Z</time>
        <sat>8</sat>
      </trkpt>
      <trkpt lat="47.167115" lon="-122.025720">
        <ele>219.2</ele>
        <time>2014-08-14T23:43:16Z</time>
        <sat>8</sat>
      </trkpt>
      <trkpt lat="47.167162" lon="-122.025603">
        <ele>219.1</ele>
        <time>2014-08-14T23:43:20Z</time>
        <sat>8</sat>
      </trkpt>
      <trkpt lat="47.167242" lon="-122.025520">
        <ele>219.3</ele>
        <time>2014-08-14T23:43:25Z</time>
        <sat>8</sat>
      </trkpt>
      <trkpt lat="47.167330" lon="-122.025423">
        <ele>219.2</ele>
        <time>2014-08-14T23:43:30Z</time>
        <sat>8</sat>
      </trkpt>
      <trkpt lat="47.167415" lon="-122.025333">
        <ele>219.4</ele>
        <time>2014-08-14T23:43:36Z</time>
        <sat>8</sat>
      </trkpt>
      <trkpt lat="47.167490" lon="-122.025233">
        <ele>220.1</ele>
        <time>2014-08-14T23:43:41Z</time>
        <sat>8</sat>
      </trkpt>
      <trkpt lat="47.167573" lon="-122.025148">
        <ele>219.7</ele>
        <time>2014-08-14T23:43:45Z</time>
        <sat>8</sat>
      </trkpt>
      <trkpt lat="47.167659" lon="-122.025055">
        <ele>219.6</ele>
        <time>2014-08-14T23:43:48Z</time>
        <sat>8</sat>
      </trkpt>
      <trkpt lat="47.167749" lon="-122.024951">
        <ele>219.7</ele>
        <time>2014-08-14T23:43:51Z</time>
        <sat>8</sat>
      </trkpt>
      <trkpt lat="47.167842" lon="-122.024850">
        <ele>219.7</ele>
        <time>2014-08-14T23:43:54Z</time>
        <sat>8</sat>
      </trkpt>
      <trkpt lat="47.167932" lon="-122.024750">
        <ele>219.9</ele>
        <time>2014-08-14T23:43:57Z</time>
        <sat>8</sat>
      </trkpt>
      <trkpt lat="47.168013" lon="-122.024660">
        <ele>219.4</ele>
        <time>2014-08-14T23:44:00Z</time>
        <sat>8</sat>
      </trkpt>
      <trkpt lat="47.168085" lon="-122.024578">
        <ele>219.6</ele>
        <time>2014-08-14T23:44:03Z</time>
        <sat>8</sat>
      </trkpt>
      <trkpt lat="47.168173" lon="-122.024485">
        <ele>219.8</ele>
        <time>2014-08-14T23:44:06Z</time>
        <sat>8</sat>
      </trkpt>
      <trkpt lat="47.168258" lon="-122.024381">
        <ele>219.7</ele>
        <time>2014-08-14T23:44:09Z</time>
        <sat>8</sat>
      </trkpt>
      <trkpt lat="47.168347" lon="-122.024283">
        <ele>219.7</ele>
        <time>2014-08-14T23:44:12Z</time>
        <sat>8</sat>
      </trkpt>
      <trkpt lat="47.168439" lon="-122.024183">
        <ele>219.8</ele>
        <time>2014-08-14T23:44:15Z</time>
        <sat>8</sat>
      </trkpt>
      <trkpt lat="47.168550" lon="-122.024078">
        <ele>220.0</ele>
        <time>2014-08-14T23:44:18Z</time>
        <sat>8</sat>
      </trkpt>
      <trkpt lat="47.168627" lon="-122.024000">
        <ele>219.9</ele>
        <time>2014-08-14T23:44:20Z</time>
        <sat>8</sat>
      </trkpt>
      <trkpt lat="47.168705" lon="-122.023918">
        <ele>219.6</ele>
        <time>2014-08-14T23:44:22Z</time>
        <sat>8</sat>
      </trkpt>
      <trkpt lat="47.168797" lon="-122.023848">
        <ele>219.7</ele>
        <time>2014-08-14T23:44:24Z</time>
        <sat>8</sat>
      </trkpt>
      <trkpt lat="47.168889" lon="-122.023786">
        <ele>219.8</ele>
        <time>2014-08-14T23:44:26Z</time>
        <sat>8</sat>
      </trkpt>
      <trkpt lat="47.168992" lon="-122.023681">
        <ele>219.9</ele>
        <time>2014-08-14T23:44:29Z</time>
        <sat>8</sat>
      </trkpt>
      <trkpt lat="47.169089" lon="-122.023553">
        <ele>219.6</ele>
        <time>2014-08-14T23:44:32Z</time>
        <sat>7</sat>
      </trkpt>
      <trkpt lat="47.169160" lon="-122.023468">
        <ele>219.7</ele>
        <time>2014-08-14T23:44:34Z</time>
        <sat>8</sat>
      </trkpt>
      <trkpt lat="47.169240" lon="-122.023388">
        <ele>219.6</ele>
        <time>2014-08-14T23:44:36Z</time>
        <sat>8</sat>
      </trkpt>
      <trkpt lat="47.169337" lon="-122.023273">
        <ele>220.0</ele>
        <time>2014-08-14T23:44:39Z</time>
        <sat>7</sat>
      </trkpt>
      <trkpt lat="47.169417" lon="-122.023212">
        <ele>220.0</ele>
        <time>2014-08-14T23:44:41Z</time>
        <sat>8</sat>
      </trkpt>
      <trkpt lat="47.169503" lon="-122.023156">
        <ele>220.2</ele>
        <time>2014-08-14T23:44:43Z</time>
        <sat>7</sat>
      </trkpt>
      <trkpt lat="47.169593" lon="-122.023056">
        <ele>220.0</ele>
        <time>2014-08-14T23:44:46Z</time>
        <sat>8</sat>
      </trkpt>
      <trkpt lat="47.169695" lon="-122.022970">
        <ele>220.1</ele>
        <time>2014-08-14T23:44:49Z</time>
        <sat>8</sat>
      </trkpt>
      <trkpt lat="47.169779" lon="-122.022906">
        <ele>220.2</ele>
        <time>2014-08-14T23:44:51Z</time>
        <sat>8</sat>
      </trkpt>
      <trkpt lat="47.169870" lon="-122.022820">
        <ele>220.0</ele>
        <time>2014-08-14T23:44:54Z</time>
        <sat>8</sat>
      </trkpt>
      <trkpt lat="47.169945" lon="-122.022735">
        <ele>220.4</ele>
        <time>2014-08-14T23:44:56Z</time>
        <sat>7</sat>
      </trkpt>
      <trkpt lat="47.170027" lon="-122.022660">
        <ele>220.2</ele>
        <time>2014-08-14T23:44:58Z</time>
        <sat>7</sat>
      </trkpt>
      <trkpt lat="47.170115" lon="-122.022590">
        <ele>220.1</ele>
        <time>2014-08-14T23:45:00Z</time>
        <sat>7</sat>
      </trkpt>
      <trkpt lat="47.170195" lon="-122.022522">
        <ele>220.1</ele>
        <time>2014-08-14T23:45:02Z</time>
        <sat>7</sat>
      </trkpt>
      <trkpt lat="47.170275" lon="-122.022453">
        <ele>219.9</ele>
        <time>2014-08-14T23:45:04Z</time>
        <sat>8</sat>
      </trkpt>
      <trkpt lat="47.170357" lon="-122.022390">
        <ele>219.6</ele>
        <time>2014-08-14T23:45:06Z</time>
        <sat>8</sat>
      </trkpt>
      <trkpt lat="47.170467" lon="-122.022300">
        <ele>219.2</ele>
        <time>2014-08-14T23:45:09Z</time>
        <sat>8</sat>
      </trkpt>
      <trkpt lat="47.170578" lon="-122.022225">
        <ele>219.0</ele>
        <time>2014-08-14T23:45:12Z</time>
        <sat>8</sat>
      </trkpt>
      <trkpt lat="47.170682" lon="-122.022180">
        <ele>218.5</ele>
        <time>2014-08-14T23:45:14Z</time>
        <sat>7</sat>
      </trkpt>
      <trkpt lat="47.170800" lon="-122.022141">
        <ele>217.8</ele>
        <time>2014-08-14T23:45:16Z</time>
        <sat>7</sat>
      </trkpt>
      <trkpt lat="47.170937" lon="-122.022083">
        <ele>216.9</ele>
        <time>2014-08-14T23:45:18Z</time>
        <sat>8</sat>
      </trkpt>
      <trkpt lat="47.171073" lon="-122.021956">
        <ele>215.9</ele>
        <time>2014-08-14T23:45:20Z</time>
        <sat>7</sat>
      </trkpt>
      <trkpt lat="47.171182" lon="-122.021773">
        <ele>215.2</ele>
        <time>2014-08-14T23:45:22Z</time>
        <sat>8</sat>
      </trkpt>
      <trkpt lat="47.171253" lon="-122.021553">
        <ele>214.1</ele>
        <time>2014-08-14T23:45:24Z</time>
        <sat>8</sat>
      </trkpt>
      <trkpt lat="47.171297" lon="-122.021325">
        <ele>213.4</ele>
        <time>2014-08-14T23:45:26Z</time>
        <sat>8</sat>
      </trkpt>
      <trkpt lat="47.171357" lon="-122.021100">
        <ele>212.5</ele>
        <time>2014-08-14T23:45:28Z</time>
        <sat>7</sat>
      </trkpt>
      <trkpt lat="47.171424" lon="-122.020877">
        <ele>211.4</ele>
        <time>2014-08-14T23:45:30Z</time>
        <sat>7</sat>
      </trkpt>
      <trkpt lat="47.171502" lon="-122.020680">
        <ele>210.3</ele>
        <time>2014-08-14T23:45:32Z</time>
        <sat>8</sat>
      </trkpt>
      <trkpt lat="47.171593" lon="-122.020552">
        <ele>209.4</ele>
        <time>2014-08-14T23:45:34Z</time>
        <sat>7</sat>
      </trkpt>
      <trkpt lat="47.171675" lon="-122.020487">
        <ele>208.6</ele>
        <time>2014-08-14T23:45:36Z</time>
        <sat>8</sat>
      </trkpt>
      <trkpt lat="47.171765" lon="-122.020445">
        <ele>207.3</ele>
        <time>2014-08-14T23:46:05Z</time>
        <sat>8</sat>
      </trkpt>
      <trkpt lat="47.171858" lon="-122.020428">
        <ele>206.8</ele>
        <time>2014-08-14T23:46:09Z</time>
        <sat>7</sat>
      </trkpt>
      <trkpt lat="47.171950" lon="-122.020395">
        <ele>206.3</ele>
        <time>2014-08-14T23:46:12Z</time>
        <sat>8</sat>
      </trkpt>
      <trkpt lat="47.171864" lon="-122.020448">
        <ele>206.0</ele>
        <time>2014-08-14T23:46:47Z</time>
        <sat>8</sat>
      </trkpt>
      <trkpt lat="47.171865" lon="-122.020623">
        <ele>206.1</ele>
        <time>2014-08-14T23:46:53Z</time>
        <sat>8</sat>
      </trkpt>
      <trkpt lat="47.171900" lon="-122.020771">
        <ele>205.9</ele>
        <time>2014-08-14T23:46:56Z</time>
        <sat>8</sat>
      </trkpt>
      <trkpt lat="47.171942" lon="-122.020918">
        <ele>205.4</ele>
        <time>2014-08-14T23:46:59Z</time>
        <sat>8</sat>
      </trkpt>
      <trkpt lat="47.171979" lon="-122.021097">
        <ele>205.1</ele>
        <time>2014-08-14T23:47:02Z</time>
        <sat>7</sat>
      </trkpt>
      <trkpt lat="47.172002" lon="-122.021236">
        <ele>204.8</ele>
        <time>2014-08-14T23:47:04Z</time>
        <sat>8</sat>
      </trkpt>
      <trkpt lat="47.172017" lon="-122.021368">
        <ele>204.7</ele>
        <time>2014-08-14T23:47:06Z</time>
        <sat>8</sat>
      </trkpt>
      <trkpt lat="47.172033" lon="-122.021500">
        <ele>204.3</ele>
        <time>2014-08-14T23:47:08Z</time>
        <sat>7</sat>
      </trkpt>
      <trkpt lat="47.172043" lon="-122.021666">
        <ele>203.5</ele>
        <time>2014-08-14T23:47:10Z</time>
        <sat>8</sat>
      </trkpt>
      <trkpt lat="47.172055" lon="-122.021835">
        <ele>202.9</ele>
        <time>2014-08-14T23:47:12Z</time>
        <sat>8</sat>
      </trkpt>
      <trkpt lat="47.172068" lon="-122.022020">
        <ele>202.3</ele>
        <time>2014-08-14T23:47:14Z</time>
        <sat>8</sat>
      </trkpt>
      <trkpt lat="47.172100" lon="-122.022182">
        <ele>202.1</ele>
        <time>2014-08-14T23:47:16Z</time>
        <sat>8</sat>
      </trkpt>
      <trkpt lat="47.172115" lon="-122.022338">
        <ele>201.8</ele>
        <time>2014-08-14T23:47:18Z</time>
        <sat>8</sat>
      </trkpt>
      <trkpt lat="47.172127" lon="-122.022491">
        <ele>201.7</ele>
        <time>2014-08-14T23:47:20Z</time>
        <sat>8</sat>
      </trkpt>
      <trkpt lat="47.172130" lon="-122.022645">
        <ele>201.5</ele>
        <time>2014-08-14T23:47:22Z</time>
        <sat>7</sat>
      </trkpt>
      <trkpt lat="47.172120" lon="-122.022820">
        <ele>201.2</ele>
        <time>2014-08-14T23:47:24Z</time>
        <sat>7</sat>
      </trkpt>
      <trkpt lat="47.172089" lon="-122.022997">
        <ele>201.1</ele>
        <time>2014-08-14T23:47:26Z</time>
        <sat>8</sat>
      </trkpt>
      <trkpt lat="47.172063" lon="-122.023138">
        <ele>201.1</ele>
        <time>2014-08-14T23:47:28Z</time>
        <sat>8</sat>
      </trkpt>
      <trkpt lat="47.172027" lon="-122.023266">
        <ele>201.3</ele>
        <time>2014-08-14T23:47:30Z</time>
        <sat>8</sat>
      </trkpt>
      <trkpt lat="47.171990" lon="-122.023437">
        <ele>201.9</ele>
        <time>2014-08-14T23:47:33Z</time>
        <sat>8</sat>
      </trkpt>
      <trkpt lat="47.171970" lon="-122.023618">
        <ele>202.0</ele>
        <time>2014-08-14T23:47:36Z</time>
        <sat>8</sat>
      </trkpt>
      <trkpt lat="47.171960" lon="-122.023793">
        <ele>202.5</ele>
        <time>2014-08-14T23:47:39Z</time>
        <sat>8</sat>
      </trkpt>
      <trkpt lat="47.171960" lon="-122.023968">
        <ele>203.0</ele>
        <time>2014-08-14T23:47:42Z</time>
        <sat>8</sat>
      </trkpt>
      <trkpt lat="47.171960" lon="-122.024131">
        <ele>203.2</ele>
        <time>2014-08-14T23:47:45Z</time>
        <sat>8</sat>
      </trkpt>
      <trkpt lat="47.171970" lon="-122.024263">
        <ele>203.2</ele>
        <time>2014-08-14T23:47:51Z</time>
        <sat>8</sat>
      </trkpt>
      <trkpt lat="47.171982" lon="-122.024415">
        <ele>204.1</ele>
        <time>2014-08-14T23:47:57Z</time>
        <sat>8</sat>
      </trkpt>
      <trkpt lat="47.172075" lon="-122.024423">
        <ele>204.0</ele>
        <time>2014-08-14T23:48:02Z</time>
        <sat>8</sat>
      </trkpt>
      <trkpt lat="47.172185" lon="-122.024388">
        <ele>203.1</ele>
        <time>2014-08-14T23:48:05Z</time>
        <sat>8</sat>
      </trkpt>
      <trkpt lat="47.172308" lon="-122.024345">
        <ele>202.4</ele>
        <time>2014-08-14T23:48:07Z</time>
        <sat>8</sat>
      </trkpt>
      <trkpt lat="47.172435" lon="-122.024280">
        <ele>201.9</ele>
        <time>2014-08-14T23:48:09Z</time>
        <sat>8</sat>
      </trkpt>
      <trkpt lat="47.172579" lon="-122.024200">
        <ele>201.3</ele>
        <time>2014-08-14T23:48:11Z</time>
        <sat>7</sat>
      </trkpt>
      <trkpt lat="47.172727" lon="-122.024133">
        <ele>200.5</ele>
        <time>2014-08-14T23:48:13Z</time>
        <sat>7</sat>
      </trkpt>
      <trkpt lat="47.172870" lon="-122.024048">
        <ele>199.8</ele>
        <time>2014-08-14T23:48:15Z</time>
        <sat>8</sat>
      </trkpt>
      <trkpt lat="47.173022" lon="-122.023953">
        <ele>199.0</ele>
        <time>2014-08-14T23:48:17Z</time>
        <sat>8</sat>
      </trkpt>
      <trkpt lat="47.173173" lon="-122.023853">
        <ele>198.2</ele>
        <time>2014-08-14T23:48:19Z</time>
        <sat>8</sat>
      </trkpt>
      <trkpt lat="47.173318" lon="-122.023753">
        <ele>197.5</ele>
        <time>2014-08-14T23:48:21Z</time>
        <sat>8</sat>
      </trkpt>
      <trkpt lat="47.173472" lon="-122.023670">
        <ele>197.0</ele>
        <time>2014-08-14T23:48:23Z</time>
        <sat>8</sat>
      </trkpt>
      <trkpt lat="47.173613" lon="-122.023578">
        <ele>196.6</ele>
        <time>2014-08-14T23:48:25Z</time>
        <sat>8</sat>
      </trkpt>
      <trkpt lat="47.173762" lon="-122.023466">
        <ele>196.5</ele>
        <time>2014-08-14T23:48:27Z</time>
        <sat>7</sat>
      </trkpt>
      <trkpt lat="47.173914" lon="-122.023348">
        <ele>196.4</ele>
        <time>2014-08-14T23:48:29Z</time>
        <sat>7</sat>
      </trkpt>
      <trkpt lat="47.174053" lon="-122.023238">
        <ele>195.9</ele>
        <time>2014-08-14T23:48:31Z</time>
        <sat>8</sat>
      </trkpt>
      <trkpt lat="47.174170" lon="-122.023141">
        <ele>195.9</ele>
        <time>2014-08-14T23:48:33Z</time>
        <sat>8</sat>
      </trkpt>
      <trkpt lat="47.174285" lon="-122.023060">
        <ele>195.7</ele>
        <time>2014-08-14T23:48:35Z</time>
        <sat>8</sat>
      </trkpt>
      <trkpt lat="47.174408" lon="-122.022978">
        <ele>195.8</ele>
        <time>2014-08-14T23:48:37Z</time>
        <sat>8</sat>
      </trkpt>
      <trkpt lat="47.174518" lon="-122.022898">
        <ele>195.7</ele>
        <time>2014-08-14T23:48:39Z</time>
        <sat>7</sat>
      </trkpt>
      <trkpt lat="47.174622" lon="-122.022806">
        <ele>195.6</ele>
        <time>2014-08-14T23:48:41Z</time>
        <sat>8</sat>
      </trkpt>
      <trkpt lat="47.174748" lon="-122.022711">
        <ele>195.6</ele>
        <time>2014-08-14T23:48:43Z</time>
        <sat>8</sat>
      </trkpt>
      <trkpt lat="47.174875" lon="-122.022606">
        <ele>195.7</ele>
        <time>2014-08-14T23:48:45Z</time>
        <sat>8</sat>
      </trkpt>
      <trkpt lat="47.174994" lon="-122.022505">
        <ele>195.5</ele>
        <time>2014-08-14T23:48:47Z</time>
        <sat>8</sat>
      </trkpt>
      <trkpt lat="47.175087" lon="-122.022410">
        <ele>195.5</ele>
        <time>2014-08-14T23:48:49Z</time>
        <sat>8</sat>
      </trkpt>
      <trkpt lat="47.175187" lon="-122.022305">
        <ele>195.4</ele>
        <time>2014-08-14T23:48:51Z</time>
        <sat>8</sat>
      </trkpt>
      <trkpt lat="47.175277" lon="-122.022213">
        <ele>195.5</ele>
        <time>2014-08-14T23:48:53Z</time>
        <sat>8</sat>
      </trkpt>
      <trkpt lat="47.175369" lon="-122.022125">
        <ele>195.3</ele>
        <time>2014-08-14T23:48:55Z</time>
        <sat>8</sat>
      </trkpt>
      <trkpt lat="47.175455" lon="-122.022045">
        <ele>195.6</ele>
        <time>2014-08-14T23:48:57Z</time>
        <sat>8</sat>
      </trkpt>
      <trkpt lat="47.175532" lon="-122.021955">
        <ele>196.1</ele>
        <time>2014-08-14T23:48:59Z</time>
        <sat>8</sat>
      </trkpt>
      <trkpt lat="47.175622" lon="-122.021825">
        <ele>196.6</ele>
        <time>2014-08-14T23:49:02Z</time>
        <sat>8</sat>
      </trkpt>
      <trkpt lat="47.175707" lon="-122.021706">
        <ele>197.2</ele>
        <time>2014-08-14T23:49:05Z</time>
        <sat>8</sat>
      </trkpt>
      <trkpt lat="47.175787" lon="-122.021608">
        <ele>197.6</ele>
        <time>2014-08-14T23:49:08Z</time>
        <sat>8</sat>
      </trkpt>
      <trkpt lat="47.175870" lon="-122.021517">
        <ele>198.1</ele>
        <time>2014-08-14T23:49:11Z</time>
        <sat>8</sat>
      </trkpt>
      <trkpt lat="47.175945" lon="-122.021390">
        <ele>198.6</ele>
        <time>2014-08-14T23:49:15Z</time>
        <sat>8</sat>
      </trkpt>
      <trkpt lat="47.176005" lon="-122.021275">
        <ele>199.5</ele>
        <time>2014-08-14T23:49:19Z</time>
        <sat>8</sat>
      </trkpt>
      <trkpt lat="47.176077" lon="-122.021140">
        <ele>200.1</ele>
        <time>2014-08-14T23:49:24Z</time>
        <sat>8</sat>
      </trkpt>
      <trkpt lat="47.176139" lon="-122.021031">
        <ele>200.8</ele>
        <time>2014-08-14T23:49:28Z</time>
        <sat>8</sat>
      </trkpt>
      <trkpt lat="47.176203" lon="-122.020916">
        <ele>201.5</ele>
        <time>2014-08-14T23:49:32Z</time>
        <sat>8</sat>
      </trkpt>
      <trkpt lat="47.176259" lon="-122.020791">
        <ele>202.1</ele>
        <time>2014-08-14T23:49:36Z</time>
        <sat>8</sat>
      </trkpt>
      <trkpt lat="47.176320" lon="-122.020675">
        <ele>202.3</ele>
        <time>2014-08-14T23:49:40Z</time>
        <sat>8</sat>
      </trkpt>
      <trkpt lat="47.176369" lon="-122.020546">
        <ele>203.0</ele>
        <time>2014-08-14T23:49:44Z</time>
        <sat>8</sat>
      </trkpt>
      <trkpt lat="47.176407" lon="-122.020423">
        <ele>203.6</ele>
        <time>2014-08-14T23:49:48Z</time>
        <sat>8</sat>
      </trkpt>
      <trkpt lat="47.176450" lon="-122.020285">
        <ele>204.5</ele>
        <time>2014-08-14T23:49:53Z</time>
        <sat>8</sat>
      </trkpt>
      <trkpt lat="47.176472" lon="-122.020150">
        <ele>205.3</ele>
        <time>2014-08-14T23:49:57Z</time>
        <sat>8</sat>
      </trkpt>
      <trkpt lat="47.176487" lon="-122.020006">
        <ele>205.6</ele>
        <time>2014-08-14T23:50:01Z</time>
        <sat>8</sat>
      </trkpt>
      <trkpt lat="47.176489" lon="-122.019850">
        <ele>205.5</ele>
        <time>2014-08-14T23:50:05Z</time>
        <sat>8</sat>
      </trkpt>
      <trkpt lat="47.176413" lon="-122.019752">
        <ele>203.7</ele>
        <time>2014-08-14T23:50:34Z</time>
        <sat>8</sat>
      </trkpt>
      <trkpt lat="47.176400" lon="-122.019610">
        <ele>202.3</ele>
        <time>2014-08-14T23:50:37Z</time>
        <sat>7</sat>
      </trkpt>
      <trkpt lat="47.176330" lon="-122.019423">
        <ele>201.3</ele>
        <time>2014-08-14T23:50:39Z</time>
        <sat>7</sat>
      </trkpt>
      <trkpt lat="47.176297" lon="-122.019218">
        <ele>200.6</ele>
        <time>2014-08-14T23:50:41Z</time>
        <sat>7</sat>
      </trkpt>
      <trkpt lat="47.176260" lon="-122.018955">
        <ele>199.9</ele>
        <time>2014-08-14T23:50:43Z</time>
        <sat>8</sat>
      </trkpt>
      <trkpt lat="47.176239" lon="-122.018818">
        <ele>199.7</ele>
        <time>2014-08-14T23:50:44Z</time>
        <sat>8</sat>
      </trkpt>
      <trkpt lat="47.176190" lon="-122.018610">
        <ele>199.3</ele>
        <time>2014-08-14T23:50:46Z</time>
        <sat>8</sat>
      </trkpt>
      <trkpt lat="47.176149" lon="-122.018413">
        <ele>199.1</ele>
        <time>2014-08-14T23:50:48Z</time>
        <sat>8</sat>
      </trkpt>
      <trkpt lat="47.176130" lon="-122.018243">
        <ele>199.2</ele>
        <time>2014-08-14T23:50:50Z</time>
        <sat>8</sat>
      </trkpt>
      <trkpt lat="47.176152" lon="-122.018068">
        <ele>199.8</ele>
        <time>2014-08-14T23:50:53Z</time>
        <sat>8</sat>
      </trkpt>
      <trkpt lat="47.176178" lon="-122.017922">
        <ele>200.9</ele>
        <time>2014-08-14T23:50:57Z</time>
        <sat>8</sat>
      </trkpt>
      <trkpt lat="47.176217" lon="-122.017785">
        <ele>201.7</ele>
        <time>2014-08-14T23:51:01Z</time>
        <sat>8</sat>
      </trkpt>
      <trkpt lat="47.176237" lon="-122.017640">
        <ele>202.6</ele>
        <time>2014-08-14T23:51:08Z</time>
        <sat>8</sat>
      </trkpt>
      <trkpt lat="47.176207" lon="-122.017505">
        <ele>204.0</ele>
        <time>2014-08-14T23:51:15Z</time>
        <sat>8</sat>
      </trkpt>
      <trkpt lat="47.176235" lon="-122.017355">
        <ele>204.7</ele>
        <time>2014-08-14T23:51:21Z</time>
        <sat>8</sat>
      </trkpt>
      <trkpt lat="47.176268" lon="-122.017218">
        <ele>205.5</ele>
        <time>2014-08-14T23:51:27Z</time>
        <sat>8</sat>
      </trkpt>
      <trkpt lat="47.176279" lon="-122.017078">
        <ele>206.4</ele>
        <time>2014-08-14T23:51:33Z</time>
        <sat>7</sat>
      </trkpt>
      <trkpt lat="47.176303" lon="-122.016942">
        <ele>207.1</ele>
        <time>2014-08-14T23:51:39Z</time>
        <sat>8</sat>
      </trkpt>
      <trkpt lat="47.176342" lon="-122.016810">
        <ele>208.0</ele>
        <time>2014-08-14T23:51:45Z</time>
        <sat>8</sat>
      </trkpt>
      <trkpt lat="47.176407" lon="-122.016700">
        <ele>208.7</ele>
        <time>2014-08-14T23:51:52Z</time>
        <sat>8</sat>
      </trkpt>
      <trkpt lat="47.176459" lon="-122.016585">
        <ele>209.6</ele>
        <time>2014-08-14T23:51:58Z</time>
        <sat>8</sat>
      </trkpt>
      <trkpt lat="47.176525" lon="-122.016472">
        <ele>210.3</ele>
        <time>2014-08-14T23:52:04Z</time>
        <sat>8</sat>
      </trkpt>
      <trkpt lat="47.176638" lon="-122.016413">
        <ele>210.7</ele>
        <time>2014-08-14T23:52:10Z</time>
        <sat>8</sat>
      </trkpt>
      <trkpt lat="47.176730" lon="-122.016401">
        <ele>210.5</ele>
        <time>2014-08-14T23:52:13Z</time>
        <sat>7</sat>
      </trkpt>
      <trkpt lat="47.176835" lon="-122.016401">
        <ele>210.5</ele>
        <time>2014-08-14T23:52:17Z</time>
        <sat>8</sat>
      </trkpt>
      <trkpt lat="47.176937" lon="-122.016382">
        <ele>210.5</ele>
        <time>2014-08-14T23:52:20Z</time>
        <sat>7</sat>
      </trkpt>
      <trkpt lat="47.177042" lon="-122.016363">
        <ele>210.6</ele>
        <time>2014-08-14T23:52:23Z</time>
        <sat>8</sat>
      </trkpt>
      <trkpt lat="47.177150" lon="-122.016383">
        <ele>210.5</ele>
        <time>2014-08-14T23:52:27Z</time>
        <sat>8</sat>
      </trkpt>
      <trkpt lat="47.177265" lon="-122.016331">
        <ele>210.9</ele>
        <time>2014-08-14T23:52:31Z</time>
        <sat>8</sat>
      </trkpt>
      <trkpt lat="47.177335" lon="-122.016193">
        <ele>211.0</ele>
        <time>2014-08-14T23:52:35Z</time>
        <sat>8</sat>
      </trkpt>
      <trkpt lat="47.177347" lon="-122.016048">
        <ele>211.2</ele>
        <time>2014-08-14T23:52:38Z</time>
        <sat>8</sat>
      </trkpt>
      <trkpt lat="47.177359" lon="-122.015900">
        <ele>211.6</ele>
        <time>2014-08-14T23:52:41Z</time>
        <sat>8</sat>
      </trkpt>
      <trkpt lat="47.177357" lon="-122.015760">
        <ele>211.7</ele>
        <time>2014-08-14T23:52:44Z</time>
        <sat>7</sat>
      </trkpt>
      <trkpt lat="47.177357" lon="-122.015615">
        <ele>212.1</ele>
        <time>2014-08-14T23:52:47Z</time>
        <sat>8</sat>
      </trkpt>
      <trkpt lat="47.177352" lon="-122.015467">
        <ele>212.1</ele>
        <time>2014-08-14T23:52:50Z</time>
        <sat>7</sat>
      </trkpt>
      <trkpt lat="47.177364" lon="-122.015326">
        <ele>212.2</ele>
        <time>2014-08-14T23:52:53Z</time>
        <sat>7</sat>
      </trkpt>
      <trkpt lat="47.177380" lon="-122.015180">
        <ele>212.3</ele>
        <time>2014-08-14T23:52:56Z</time>
        <sat>8</sat>
      </trkpt>
      <trkpt lat="47.177410" lon="-122.015045">
        <ele>212.3</ele>
        <time>2014-08-14T23:52:59Z</time>
        <sat>7</sat>
      </trkpt>
      <trkpt lat="47.177447" lon="-122.014913">
        <ele>212.5</ele>
        <time>2014-08-14T23:53:02Z</time>
        <sat>8</sat>
      </trkpt>
      <trkpt lat="47.177492" lon="-122.014756">
        <ele>212.7</ele>
        <time>2014-08-14T23:53:06Z</time>
        <sat>8</sat>
      </trkpt>
      <trkpt lat="47.177538" lon="-122.014633">
        <ele>212.7</ele>
        <time>2014-08-14T23:53:09Z</time>
        <sat>8</sat>
      </trkpt>
      <trkpt lat="47.177564" lon="-122.014490">
        <ele>212.7</ele>
        <time>2014-08-14T23:53:13Z</time>
        <sat>8</sat>
      </trkpt>
      <trkpt lat="47.177605" lon="-122.014370">
        <ele>213.2</ele>
        <time>2014-08-14T23:54:44Z</time>
        <sat>8</sat>
      </trkpt>
      <trkpt lat="47.177648" lon="-122.014206">
        <ele>213.3</ele>
        <time>2014-08-14T23:54:48Z</time>
        <sat>8</sat>
      </trkpt>
      <trkpt lat="47.177685" lon="-122.014066">
        <ele>213.4</ele>
        <time>2014-08-14T23:54:51Z</time>
        <sat>8</sat>
      </trkpt>
      <trkpt lat="47.177715" lon="-122.013927">
        <ele>213.7</ele>
        <time>2014-08-14T23:54:54Z</time>
        <sat>8</sat>
      </trkpt>
      <trkpt lat="47.177747" lon="-122.013793">
        <ele>214.0</ele>
        <time>2014-08-14T23:54:57Z</time>
        <sat>8</sat>
      </trkpt>
      <trkpt lat="47.177752" lon="-122.013651">
        <ele>213.8</ele>
        <time>2014-08-14T23:55:00Z</time>
        <sat>8</sat>
      </trkpt>
      <trkpt lat="47.177777" lon="-122.013480">
        <ele>214.0</ele>
        <time>2014-08-14T23:55:04Z</time>
        <sat>8</sat>
      </trkpt>
      <trkpt lat="47.177792" lon="-122.013342">
        <ele>214.0</ele>
        <time>2014-08-14T23:55:07Z</time>
        <sat>8</sat>
      </trkpt>
      <trkpt lat="47.177799" lon="-122.013195">
        <ele>214.0</ele>
        <time>2014-08-14T23:55:10Z</time>
        <sat>7</sat>
      </trkpt>
      <trkpt lat="47.177807" lon="-122.013045">
        <ele>214.1</ele>
        <time>2014-08-14T23:55:13Z</time>
        <sat>8</sat>
      </trkpt>
      <trkpt lat="47.177812" lon="-122.012890">
        <ele>214.4</ele>
        <time>2014-08-14T23:55:16Z</time>
        <sat>8</sat>
      </trkpt>
      <trkpt lat="47.177810" lon="-122.012738">
        <ele>214.7</ele>
        <time>2014-08-14T23:55:19Z</time>
        <sat>8</sat>
      </trkpt>
      <trkpt lat="47.177812" lon="-122.012587">
        <ele>214.8</ele>
        <time>2014-08-14T23:55:22Z</time>
        <sat>8</sat>
      </trkpt>
      <trkpt lat="47.177812" lon="-122.012441">
        <ele>215.1</ele>
        <time>2014-08-14T23:55:25Z</time>
        <sat>8</sat>
      </trkpt>
      <trkpt lat="47.177815" lon="-122.012296">
        <ele>215.2</ele>
        <time>2014-08-14T23:55:28Z</time>
        <sat>8</sat>
      </trkpt>
      <trkpt lat="47.177817" lon="-122.012155">
        <ele>215.5</ele>
        <time>2014-08-14T23:55:31Z</time>
        <sat>8</sat>
      </trkpt>
      <trkpt lat="47.177817" lon="-122.011978">
        <ele>216.1</ele>
        <time>2014-08-14T23:55:35Z</time>
        <sat>8</sat>
      </trkpt>
      <trkpt lat="47.177810" lon="-122.011812">
        <ele>216.4</ele>
        <time>2014-08-14T23:55:39Z</time>
        <sat>8</sat>
      </trkpt>
      <trkpt lat="47.177804" lon="-122.011660">
        <ele>217.2</ele>
        <time>2014-08-14T23:55:43Z</time>
        <sat>8</sat>
      </trkpt>
      <trkpt lat="47.177809" lon="-122.011520">
        <ele>217.9</ele>
        <time>2014-08-14T23:55:47Z</time>
        <sat>8</sat>
      </trkpt>
      <trkpt lat="47.177809" lon="-122.011355">
        <ele>218.8</ele>
        <time>2014-08-14T23:55:52Z</time>
        <sat>8</sat>
      </trkpt>
      <trkpt lat="47.177809" lon="-122.011190">
        <ele>219.4</ele>
        <time>2014-08-14T23:55:57Z</time>
        <sat>8</sat>
      </trkpt>
      <trkpt lat="47.177810" lon="-122.011048">
        <ele>219.7</ele>
        <time>2014-08-14T23:56:01Z</time>
        <sat>8</sat>
      </trkpt>
      <trkpt lat="47.177809" lon="-122.010908">
        <ele>220.3</ele>
        <time>2014-08-14T23:56:05Z</time>
        <sat>8</sat>
      </trkpt>
      <trkpt lat="47.177804" lon="-122.010762">
        <ele>220.4</ele>
        <time>2014-08-14T23:56:09Z</time>
        <sat>8</sat>
      </trkpt>
      <trkpt lat="47.177799" lon="-122.010600">
        <ele>220.9</ele>
        <time>2014-08-14T23:56:13Z</time>
        <sat>8</sat>
      </trkpt>
      <trkpt lat="47.177775" lon="-122.010431">
        <ele>221.2</ele>
        <time>2014-08-14T23:56:17Z</time>
        <sat>8</sat>
      </trkpt>
      <trkpt lat="47.177755" lon="-122.010286">
        <ele>221.4</ele>
        <time>2014-08-14T23:56:20Z</time>
        <sat>8</sat>
      </trkpt>
      <trkpt lat="47.177735" lon="-122.010133">
        <ele>221.5</ele>
        <time>2014-08-14T23:56:23Z</time>
        <sat>8</sat>
      </trkpt>
      <trkpt lat="47.177712" lon="-122.009983">
        <ele>221.5</ele>
        <time>2014-08-14T23:56:26Z</time>
        <sat>8</sat>
      </trkpt>
      <trkpt lat="47.177690" lon="-122.009826">
        <ele>221.5</ele>
        <time>2014-08-14T23:56:29Z</time>
        <sat>8</sat>
      </trkpt>
      <trkpt lat="47.177667" lon="-122.009663">
        <ele>221.6</ele>
        <time>2014-08-14T23:56:32Z</time>
        <sat>8</sat>
      </trkpt>
      <trkpt lat="47.177643" lon="-122.009501">
        <ele>221.8</ele>
        <time>2014-08-14T23:56:35Z</time>
        <sat>8</sat>
      </trkpt>
      <trkpt lat="47.177620" lon="-122.009337">
        <ele>221.5</ele>
        <time>2014-08-14T23:56:38Z</time>
        <sat>8</sat>
      </trkpt>
      <trkpt lat="47.177599" lon="-122.009161">
        <ele>221.9</ele>
        <time>2014-08-14T23:56:41Z</time>
        <sat>8</sat>
      </trkpt>
      <trkpt lat="47.177575" lon="-122.008990">
        <ele>221.9</ele>
        <time>2014-08-14T23:56:44Z</time>
        <sat>8</sat>
      </trkpt>
      <trkpt lat="47.177545" lon="-122.008803">
        <ele>221.9</ele>
        <time>2014-08-14T23:56:47Z</time>
        <sat>8</sat>
      </trkpt>
      <trkpt lat="47.177515" lon="-122.008621">
        <ele>222.1</ele>
        <time>2014-08-14T23:56:50Z</time>
        <sat>8</sat>
      </trkpt>
      <trkpt lat="47.177480" lon="-122.008462">
        <ele>222.1</ele>
        <time>2014-08-14T23:56:53Z</time>
        <sat>8</sat>
      </trkpt>
      <trkpt lat="47.177437" lon="-122.008313">
        <ele>222.1</ele>
        <time>2014-08-14T23:56:56Z</time>
        <sat>8</sat>
      </trkpt>
      <trkpt lat="47.177390" lon="-122.008148">
        <ele>222.2</ele>
        <time>2014-08-14T23:56:59Z</time>
        <sat>8</sat>
      </trkpt>
      <trkpt lat="47.177330" lon="-122.007983">
        <ele>222.5</ele>
        <time>2014-08-14T23:57:02Z</time>
        <sat>8</sat>
      </trkpt>
      <trkpt lat="47.177262" lon="-122.007818">
        <ele>222.5</ele>
        <time>2014-08-14T23:57:05Z</time>
        <sat>8</sat>
      </trkpt>
      <trkpt lat="47.177182" lon="-122.007657">
        <ele>222.5</ele>
        <time>2014-08-14T23:57:08Z</time>
        <sat>8</sat>
      </trkpt>
      <trkpt lat="47.177122" lon="-122.007552">
        <ele>222.5</ele>
        <time>2014-08-14T23:57:10Z</time>
        <sat>8</sat>
      </trkpt>
      <trkpt lat="47.177059" lon="-122.007450">
        <ele>222.3</ele>
        <time>2014-08-14T23:57:12Z</time>
        <sat>8</sat>
      </trkpt>
      <trkpt lat="47.176997" lon="-122.007343">
        <ele>222.2</ele>
        <time>2014-08-14T23:57:14Z</time>
        <sat>8</sat>
      </trkpt>
      <trkpt lat="47.176937" lon="-122.007232">
        <ele>222.2</ele>
        <time>2014-08-14T23:57:16Z</time>
        <sat>8</sat>
      </trkpt>
      <trkpt lat="47.176873" lon="-122.007120">
        <ele>222.3</ele>
        <time>2014-08-14T23:57:18Z</time>
        <sat>8</sat>
      </trkpt>
      <trkpt lat="47.176812" lon="-122.007010">
        <ele>222.3</ele>
        <time>2014-08-14T23:57:20Z</time>
        <sat>8</sat>
      </trkpt>
      <trkpt lat="47.176758" lon="-122.006897">
        <ele>222.1</ele>
        <time>2014-08-14T23:57:22Z</time>
        <sat>8</sat>
      </trkpt>
      <trkpt lat="47.176695" lon="-122.006792">
        <ele>222.1</ele>
        <time>2014-08-14T23:57:24Z</time>
        <sat>8</sat>
      </trkpt>
      <trkpt lat="47.176633" lon="-122.006678">
        <ele>222.0</ele>
        <time>2014-08-14T23:57:26Z</time>
        <sat>8</sat>
      </trkpt>
      <trkpt lat="47.176570" lon="-122.006560">
        <ele>221.9</ele>
        <time>2014-08-14T23:57:28Z</time>
        <sat>8</sat>
      </trkpt>
      <trkpt lat="47.176502" lon="-122.006438">
        <ele>221.9</ele>
        <time>2014-08-14T23:57:30Z</time>
        <sat>8</sat>
      </trkpt>
      <trkpt lat="47.176433" lon="-122.006312">
        <ele>221.9</ele>
        <time>2014-08-14T23:57:32Z</time>
        <sat>8</sat>
      </trkpt>
      <trkpt lat="47.176365" lon="-122.006187">
        <ele>221.7</ele>
        <time>2014-08-14T23:57:34Z</time>
        <sat>8</sat>
      </trkpt>
      <trkpt lat="47.176298" lon="-122.006058">
        <ele>221.7</ele>
        <time>2014-08-14T23:57:36Z</time>
        <sat>8</sat>
      </trkpt>
      <trkpt lat="47.176232" lon="-122.005925">
        <ele>221.6</ele>
        <time>2014-08-14T23:57:38Z</time>
        <sat>8</sat>
      </trkpt>
      <trkpt lat="47.176162" lon="-122.005793">
        <ele>221.4</ele>
        <time>2014-08-14T23:57:40Z</time>
        <sat>8</sat>
      </trkpt>
      <trkpt lat="47.176087" lon="-122.005660">
        <ele>221.3</ele>
        <time>2014-08-14T23:57:42Z</time>
        <sat>8</sat>
      </trkpt>
      <trkpt lat="47.176015" lon="-122.005525">
        <ele>221.4</ele>
        <time>2014-08-14T23:57:44Z</time>
        <sat>8</sat>
      </trkpt>
      <trkpt lat="47.175943" lon="-122.005391">
        <ele>221.3</ele>
        <time>2014-08-14T23:57:46Z</time>
        <sat>8</sat>
      </trkpt>
      <trkpt lat="47.175874" lon="-122.005261">
        <ele>221.4</ele>
        <time>2014-08-14T23:57:48Z</time>
        <sat>8</sat>
      </trkpt>
      <trkpt lat="47.175807" lon="-122.005135">
        <ele>221.6</ele>
        <time>2014-08-14T23:57:50Z</time>
        <sat>8</sat>
      </trkpt>
      <trkpt lat="47.175745" lon="-122.005010">
        <ele>221.7</ele>
        <time>2014-08-14T23:57:52Z</time>
        <sat>8</sat>
      </trkpt>
      <trkpt lat="47.175684" lon="-122.004888">
        <ele>221.6</ele>
        <time>2014-08-14T23:57:54Z</time>
        <sat>8</sat>
      </trkpt>
      <trkpt lat="47.175617" lon="-122.004778">
        <ele>221.9</ele>
        <time>2014-08-14T23:57:56Z</time>
        <sat>8</sat>
      </trkpt>
      <trkpt lat="47.175555" lon="-122.004672">
        <ele>222.0</ele>
        <time>2014-08-14T23:57:58Z</time>
        <sat>8</sat>
      </trkpt>
      <trkpt lat="47.175495" lon="-122.004571">
        <ele>222.2</ele>
        <time>2014-08-14T23:58:00Z</time>
        <sat>8</sat>
      </trkpt>
      <trkpt lat="47.175422" lon="-122.004423">
        <ele>222.6</ele>
        <time>2014-08-14T23:58:03Z</time>
        <sat>8</sat>
      </trkpt>
      <trkpt lat="47.175350" lon="-122.004275">
        <ele>223.0</ele>
        <time>2014-08-14T23:58:06Z</time>
        <sat>8</sat>
      </trkpt>
      <trkpt lat="47.175282" lon="-122.004130">
        <ele>223.5</ele>
        <time>2014-08-14T23:58:09Z</time>
        <sat>8</sat>
      </trkpt>
      <trkpt lat="47.175215" lon="-122.003982">
        <ele>223.9</ele>
        <time>2014-08-14T23:58:12Z</time>
        <sat>8</sat>
      </trkpt>
      <trkpt lat="47.175152" lon="-122.003835">
        <ele>224.0</ele>
        <time>2014-08-14T23:58:15Z</time>
        <sat>8</sat>
      </trkpt>
      <trkpt lat="47.175094" lon="-122.003683">
        <ele>224.3</ele>
        <time>2014-08-14T23:58:18Z</time>
        <sat>8</sat>
      </trkpt>
      <trkpt lat="47.175035" lon="-122.003530">
        <ele>224.7</ele>
        <time>2014-08-14T23:58:21Z</time>
        <sat>8</sat>
      </trkpt>
      <trkpt lat="47.174983" lon="-122.003375">
        <ele>224.9</ele>
        <time>2014-08-14T23:58:24Z</time>
        <sat>8</sat>
      </trkpt>
      <trkpt lat="47.174935" lon="-122.003218">
        <ele>225.5</ele>
        <time>2014-08-14T23:58:27Z</time>
        <sat>8</sat>
      </trkpt>
      <trkpt lat="47.174884" lon="-122.003067">
        <ele>226.0</ele>
        <time>2014-08-14T23:58:30Z</time>
        <sat>8</sat>
      </trkpt>
      <trkpt lat="47.174832" lon="-122.002905">
        <ele>226.3</ele>
        <time>2014-08-14T23:58:33Z</time>
        <sat>8</sat>
      </trkpt>
      <trkpt lat="47.174785" lon="-122.002735">
        <ele>226.6</ele>
        <time>2014-08-14T23:58:36Z</time>
        <sat>8</sat>
      </trkpt>
      <trkpt lat="47.174740" lon="-122.002571">
        <ele>226.7</ele>
        <time>2014-08-14T23:58:39Z</time>
        <sat>8</sat>
      </trkpt>
      <trkpt lat="47.174699" lon="-122.002403">
        <ele>226.8</ele>
        <time>2014-08-14T23:58:42Z</time>
        <sat>8</sat>
      </trkpt>
      <trkpt lat="47.174657" lon="-122.002235">
        <ele>226.9</ele>
        <time>2014-08-14T23:58:45Z</time>
        <sat>8</sat>
      </trkpt>
      <trkpt lat="47.174627" lon="-122.002055">
        <ele>226.9</ele>
        <time>2014-08-14T23:58:48Z</time>
        <sat>8</sat>
      </trkpt>
      <trkpt lat="47.174584" lon="-122.001875">
        <ele>227.1</ele>
        <time>2014-08-14T23:58:51Z</time>
        <sat>8</sat>
      </trkpt>
      <trkpt lat="47.174547" lon="-122.001700">
        <ele>227.1</ele>
        <time>2014-08-14T23:58:54Z</time>
        <sat>8</sat>
      </trkpt>
      <trkpt lat="47.174518" lon="-122.001525">
        <ele>227.2</ele>
        <time>2014-08-14T23:58:57Z</time>
        <sat>8</sat>
      </trkpt>
      <trkpt lat="47.174495" lon="-122.001340">
        <ele>227.3</ele>
        <time>2014-08-14T23:59:00Z</time>
        <sat>8</sat>
      </trkpt>
      <trkpt lat="47.174464" lon="-122.001153">
        <ele>227.1</ele>
        <time>2014-08-14T23:59:03Z</time>
        <sat>8</sat>
      </trkpt>
      <trkpt lat="47.174445" lon="-122.001015">
        <ele>227.0</ele>
        <time>2014-08-14T23:59:05Z</time>
        <sat>8</sat>
      </trkpt>
      <trkpt lat="47.174430" lon="-122.000878">
        <ele>227.0</ele>
        <time>2014-08-14T23:59:07Z</time>
        <sat>8</sat>
      </trkpt>
      <trkpt lat="47.174415" lon="-122.000747">
        <ele>227.2</ele>
        <time>2014-08-14T23:59:09Z</time>
        <sat>8</sat>
      </trkpt>
      <trkpt lat="47.174405" lon="-122.000613">
        <ele>226.9</ele>
        <time>2014-08-14T23:59:11Z</time>
        <sat>8</sat>
      </trkpt>
      <trkpt lat="47.174388" lon="-122.000478">
        <ele>227.1</ele>
        <time>2014-08-14T23:59:13Z</time>
        <sat>8</sat>
      </trkpt>
      <trkpt lat="47.174365" lon="-122.000343">
        <ele>227.3</ele>
        <time>2014-08-14T23:59:15Z</time>
        <sat>8</sat>
      </trkpt>
      <trkpt lat="47.174339" lon="-122.000200">
        <ele>227.2</ele>
        <time>2014-08-14T23:59:17Z</time>
        <sat>8</sat>
      </trkpt>
      <trkpt lat="47.174320" lon="-122.000063">
        <ele>227.4</ele>
        <time>2014-08-14T23:59:19Z</time>
        <sat>8</sat>
      </trkpt>
      <trkpt lat="47.174300" lon="-121.999925">
        <ele>227.4</ele>
        <time>2014-08-14T23:59:21Z</time>
        <sat>8</sat>
      </trkpt>
      <trkpt lat="47.174283" lon="-121.999791">
        <ele>227.6</ele>
        <time>2014-08-14T23:59:23Z</time>
        <sat>8</sat>
      </trkpt>
      <trkpt lat="47.174268" lon="-121.999653">
        <ele>227.6</ele>
        <time>2014-08-14T23:59:25Z</time>
        <sat>7</sat>
      </trkpt>
      <trkpt lat="47.174249" lon="-121.999518">
        <ele>227.7</ele>
        <time>2014-08-14T23:59:27Z</time>
        <sat>8</sat>
      </trkpt>
      <trkpt lat="47.174239" lon="-121.999382">
        <ele>227.8</ele>
        <time>2014-08-14T23:59:29Z</time>
        <sat>8</sat>
      </trkpt>
      <trkpt lat="47.174224" lon="-121.999246">
        <ele>227.9</ele>
        <time>2014-08-14T23:59:31Z</time>
        <sat>8</sat>
      </trkpt>
      <trkpt lat="47.174205" lon="-121.999110">
        <ele>227.8</ele>
        <time>2014-08-14T23:59:33Z</time>
        <sat>8</sat>
      </trkpt>
      <trkpt lat="47.174199" lon="-121.998970">
        <ele>228.0</ele>
        <time>2014-08-14T23:59:35Z</time>
        <sat>8</sat>
      </trkpt>
      <trkpt lat="47.174180" lon="-121.998837">
        <ele>228.2</ele>
        <time>2014-08-14T23:59:37Z</time>
        <sat>7</sat>
      </trkpt>
      <trkpt lat="47.174163" lon="-121.998705">
        <ele>228.4</ele>
        <time>2014-08-14T23:59:39Z</time>
        <sat>8</sat>
      </trkpt>
      <trkpt lat="47.174147" lon="-121.998571">
        <ele>228.4</ele>
        <time>2014-08-14T23:59:41Z</time>
        <sat>8</sat>
      </trkpt>
      <trkpt lat="47.174130" lon="-121.998435">
        <ele>228.3</ele>
        <time>2014-08-14T23:59:43Z</time>
        <sat>8</sat>
      </trkpt>
      <trkpt lat="47.174115" lon="-121.998298">
        <ele>228.5</ele>
        <time>2014-08-14T23:59:45Z</time>
        <sat>8</sat>
      </trkpt>
      <trkpt lat="47.174097" lon="-121.998163">
        <ele>228.6</ele>
        <time>2014-08-14T23:59:47Z</time>
        <sat>7</sat>
      </trkpt>
      <trkpt lat="47.174068" lon="-121.997972">
        <ele>229.0</ele>
        <time>2014-08-14T23:59:50Z</time>
        <sat>8</sat>
      </trkpt>
      <trkpt lat="47.174039" lon="-121.997843">
        <ele>228.6</ele>
        <time>2014-08-14T23:59:52Z</time>
        <sat>7</sat>
      </trkpt>
      <trkpt lat="47.174009" lon="-121.997717">
        <ele>228.6</ele>
        <time>2014-08-14T23:59:54Z</time>
        <sat>7</sat>
      </trkpt>
      <trkpt lat="47.173975" lon="-121.997593">
        <ele>228.6</ele>
        <time>2014-08-14T23:59:56Z</time>
        <sat>8</sat>
      </trkpt>
      <trkpt lat="47.173919" lon="-121.997415">
        <ele>228.8</ele>
        <time>2014-08-14T23:59:59Z</time>
        <sat>8</sat>
      </trkpt>
      <trkpt lat="47.173875" lon="-121.997295">
        <ele>228.9</ele>
        <time>2014-08-15T00:00:01Z</time>
        <sat>8</sat>
      </trkpt>
      <trkpt lat="47.173835" lon="-121.997175">
        <ele>229.0</ele>
        <time>2014-08-15T00:00:03Z</time>
        <sat>7</sat>
      </trkpt>
      <trkpt lat="47.173795" lon="-121.997052">
        <ele>229.2</ele>
        <time>2014-08-15T00:00:05Z</time>
        <sat>7</sat>
      </trkpt>
      <trkpt lat="47.173753" lon="-121.996930">
        <ele>229.3</ele>
        <time>2014-08-15T00:00:07Z</time>
        <sat>8</sat>
      </trkpt>
      <trkpt lat="47.173715" lon="-121.996810">
        <ele>229.4</ele>
        <time>2014-08-15T00:00:09Z</time>
        <sat>8</sat>
      </trkpt>
      <trkpt lat="47.173679" lon="-121.996686">
        <ele>229.4</ele>
        <time>2014-08-15T00:00:11Z</time>
        <sat>8</sat>
      </trkpt>
      <trkpt lat="47.173642" lon="-121.996565">
        <ele>229.5</ele>
        <time>2014-08-15T00:00:13Z</time>
        <sat>7</sat>
      </trkpt>
      <trkpt lat="47.173605" lon="-121.996443">
        <ele>229.4</ele>
        <time>2014-08-15T00:00:15Z</time>
        <sat>7</sat>
      </trkpt>
      <trkpt lat="47.173550" lon="-121.996265">
        <ele>229.6</ele>
        <time>2014-08-15T00:00:18Z</time>
        <sat>7</sat>
      </trkpt>
      <trkpt lat="47.173510" lon="-121.996145">
        <ele>229.9</ele>
        <time>2014-08-15T00:00:20Z</time>
        <sat>7</sat>
      </trkpt>
      <trkpt lat="47.173459" lon="-121.995960">
        <ele>230.2</ele>
        <time>2014-08-15T00:00:23Z</time>
        <sat>7</sat>
      </trkpt>
      <trkpt lat="47.173425" lon="-121.995835">
        <ele>230.4</ele>
        <time>2014-08-15T00:00:25Z</time>
        <sat>8</sat>
      </trkpt>
      <trkpt lat="47.173382" lon="-121.995648">
        <ele>230.2</ele>
        <time>2014-08-15T00:00:28Z</time>
        <sat>7</sat>
      </trkpt>
      <trkpt lat="47.173367" lon="-121.995516">
        <ele>230.2</ele>
        <time>2014-08-15T00:00:30Z</time>
        <sat>7</sat>
      </trkpt>
      <trkpt lat="47.173350" lon="-121.995385">
        <ele>230.2</ele>
        <time>2014-08-15T00:00:32Z</time>
        <sat>8</sat>
      </trkpt>
      <trkpt lat="47.173330" lon="-121.995250">
        <ele>230.2</ele>
        <time>2014-08-15T00:00:34Z</time>
        <sat>8</sat>
      </trkpt>
      <trkpt lat="47.173318" lon="-121.995108">
        <ele>230.2</ele>
        <time>2014-08-15T00:00:36Z</time>
        <sat>8</sat>
      </trkpt>
      <trkpt lat="47.173303" lon="-121.994963">
        <ele>229.9</ele>
        <time>2014-08-15T00:00:38Z</time>
        <sat>7</sat>
      </trkpt>
      <trkpt lat="47.173287" lon="-121.994817">
        <ele>229.9</ele>
        <time>2014-08-15T00:00:40Z</time>
        <sat>7</sat>
      </trkpt>
      <trkpt lat="47.173263" lon="-121.994675">
        <ele>229.7</ele>
        <time>2014-08-15T00:00:42Z</time>
        <sat>7</sat>
      </trkpt>
      <trkpt lat="47.173244" lon="-121.994540">
        <ele>229.7</ele>
        <time>2014-08-15T00:00:44Z</time>
        <sat>7</sat>
      </trkpt>
      <trkpt lat="47.173230" lon="-121.994407">
        <ele>229.7</ele>
        <time>2014-08-15T00:00:46Z</time>
        <sat>7</sat>
      </trkpt>
      <trkpt lat="47.173220" lon="-121.994273">
        <ele>229.6</ele>
        <time>2014-08-15T00:00:48Z</time>
        <sat>7</sat>
      </trkpt>
      <trkpt lat="47.173209" lon="-121.994085">
        <ele>229.4</ele>
        <time>2014-08-15T00:00:51Z</time>
        <sat>8</sat>
      </trkpt>
      <trkpt lat="47.173183" lon="-121.993910">
        <ele>229.3</ele>
        <time>2014-08-15T00:00:54Z</time>
        <sat>8</sat>
      </trkpt>
      <trkpt lat="47.173178" lon="-121.993745">
        <ele>228.9</ele>
        <time>2014-08-15T00:00:58Z</time>
        <sat>8</sat>
      </trkpt>
      <trkpt lat="47.173207" lon="-121.993612">
        <ele>228.9</ele>
        <time>2014-08-15T00:01:02Z</time>
        <sat>8</sat>
      </trkpt>
      <trkpt lat="47.173230" lon="-121.993447">
        <ele>228.9</ele>
        <time>2014-08-15T00:01:06Z</time>
        <sat>7</sat>
      </trkpt>
      <trkpt lat="47.173234" lon="-121.993305">
        <ele>228.7</ele>
        <time>2014-08-15T00:01:09Z</time>
        <sat>7</sat>
      </trkpt>
      <trkpt lat="47.173235" lon="-121.993158">
        <ele>229.0</ele>
        <time>2014-08-15T00:01:12Z</time>
        <sat>8</sat>
      </trkpt>
      <trkpt lat="47.173209" lon="-121.993013">
        <ele>228.7</ele>
        <time>2014-08-15T00:01:15Z</time>
        <sat>7</sat>
      </trkpt>
      <trkpt lat="47.173163" lon="-121.992870">
        <ele>228.7</ele>
        <time>2014-08-15T00:01:18Z</time>
        <sat>8</sat>
      </trkpt>
      <trkpt lat="47.173107" lon="-121.992723">
        <ele>229.2</ele>
        <time>2014-08-15T00:01:21Z</time>
        <sat>8</sat>
      </trkpt>
      <trkpt lat="47.173048" lon="-121.992613">
        <ele>229.0</ele>
        <time>2014-08-15T00:01:24Z</time>
        <sat>8</sat>
      </trkpt>
      <trkpt lat="47.172985" lon="-121.992463">
        <ele>229.0</ele>
        <time>2014-08-15T00:01:28Z</time>
        <sat>8</sat>
      </trkpt>
      <trkpt lat="47.172937" lon="-121.992348">
        <ele>229.0</ele>
        <time>2014-08-15T00:01:31Z</time>
        <sat>8</sat>
      </trkpt>
      <trkpt lat="47.172899" lon="-121.992223">
        <ele>228.8</ele>
        <time>2014-08-15T00:01:34Z</time>
        <sat>7</sat>
      </trkpt>
      <trkpt lat="47.172843" lon="-121.992081">
        <ele>229.0</ele>
        <time>2014-08-15T00:01:37Z</time>
        <sat>8</sat>
      </trkpt>
      <trkpt lat="47.172805" lon="-121.991918">
        <ele>229.2</ele>
        <time>2014-08-15T00:01:40Z</time>
        <sat>8</sat>
      </trkpt>
      <trkpt lat="47.172760" lon="-121.991758">
        <ele>229.2</ele>
        <time>2014-08-15T00:01:43Z</time>
        <sat>8</sat>
      </trkpt>
      <trkpt lat="47.172698" lon="-121.991610">
        <ele>229.5</ele>
        <time>2014-08-15T00:01:46Z</time>
        <sat>8</sat>
      </trkpt>
      <trkpt lat="47.172630" lon="-121.991473">
        <ele>229.6</ele>
        <time>2014-08-15T00:01:49Z</time>
        <sat>8</sat>
      </trkpt>
      <trkpt lat="47.172550" lon="-121.991352">
        <ele>229.4</ele>
        <time>2014-08-15T00:01:52Z</time>
        <sat>8</sat>
      </trkpt>
      <trkpt lat="47.172465" lon="-121.991233">
        <ele>229.5</ele>
        <time>2014-08-15T00:01:55Z</time>
        <sat>8</sat>
      </trkpt>
      <trkpt lat="47.172390" lon="-121.991148">
        <ele>229.4</ele>
        <time>2014-08-15T00:01:57Z</time>
        <sat>8</sat>
      </trkpt>
      <trkpt lat="47.172320" lon="-121.991063">
        <ele>229.6</ele>
        <time>2014-08-15T00:01:59Z</time>
        <sat>8</sat>
      </trkpt>
      <trkpt lat="47.172219" lon="-121.990953">
        <ele>229.6</ele>
        <time>2014-08-15T00:02:02Z</time>
        <sat>8</sat>
      </trkpt>
      <trkpt lat="47.172120" lon="-121.990846">
        <ele>229.5</ele>
        <time>2014-08-15T00:02:05Z</time>
        <sat>8</sat>
      </trkpt>
      <trkpt lat="47.172017" lon="-121.990740">
        <ele>229.6</ele>
        <time>2014-08-15T00:02:08Z</time>
        <sat>8</sat>
      </trkpt>
      <trkpt lat="47.171925" lon="-121.990635">
        <ele>229.1</ele>
        <time>2014-08-15T00:02:11Z</time>
        <sat>8</sat>
      </trkpt>
      <trkpt lat="47.171823" lon="-121.990523">
        <ele>229.1</ele>
        <time>2014-08-15T00:02:14Z</time>
        <sat>8</sat>
      </trkpt>
      <trkpt lat="47.171715" lon="-121.990413">
        <ele>229.6</ele>
        <time>2014-08-15T00:02:17Z</time>
        <sat>8</sat>
      </trkpt>
      <trkpt lat="47.171612" lon="-121.990305">
        <ele>229.5</ele>
        <time>2014-08-15T00:02:20Z</time>
        <sat>8</sat>
      </trkpt>
      <trkpt lat="47.171503" lon="-121.990222">
        <ele>229.4</ele>
        <time>2014-08-15T00:02:23Z</time>
        <sat>8</sat>
      </trkpt>
      <trkpt lat="47.171382" lon="-121.990138">
        <ele>229.2</ele>
        <time>2014-08-15T00:02:26Z</time>
        <sat>8</sat>
      </trkpt>
      <trkpt lat="47.171252" lon="-121.990081">
        <ele>229.5</ele>
        <time>2014-08-15T00:02:29Z</time>
        <sat>8</sat>
      </trkpt>
      <trkpt lat="47.171162" lon="-121.990050">
        <ele>229.5</ele>
        <time>2014-08-15T00:02:31Z</time>
        <sat>8</sat>
      </trkpt>
      <trkpt lat="47.171067" lon="-121.990032">
        <ele>229.1</ele>
        <time>2014-08-15T00:02:33Z</time>
        <sat>8</sat>
      </trkpt>
      <trkpt lat="47.170963" lon="-121.990008">
        <ele>228.5</ele>
        <time>2014-08-15T00:02:35Z</time>
        <sat>8</sat>
      </trkpt>
      <trkpt lat="47.170847" lon="-121.989985">
        <ele>227.5</ele>
        <time>2014-08-15T00:02:37Z</time>
        <sat>8</sat>
      </trkpt>
      <trkpt lat="47.170718" lon="-121.989931">
        <ele>226.8</ele>
        <time>2014-08-15T00:02:39Z</time>
        <sat>8</sat>
      </trkpt>
      <trkpt lat="47.170580" lon="-121.989856">
        <ele>225.8</ele>
        <time>2014-08-15T00:02:41Z</time>
        <sat>8</sat>
      </trkpt>
      <trkpt lat="47.170432" lon="-121.989753">
        <ele>224.7</ele>
        <time>2014-08-15T00:02:43Z</time>
        <sat>8</sat>
      </trkpt>
      <trkpt lat="47.170283" lon="-121.989633">
        <ele>223.6</ele>
        <time>2014-08-15T00:02:45Z</time>
        <sat>8</sat>
      </trkpt>
      <trkpt lat="47.170138" lon="-121.989511">
        <ele>222.8</ele>
        <time>2014-08-15T00:02:47Z</time>
        <sat>8</sat>
      </trkpt>
      <trkpt lat="47.169999" lon="-121.989411">
        <ele>222.4</ele>
        <time>2014-08-15T00:02:49Z</time>
        <sat>8</sat>
      </trkpt>
      <trkpt lat="47.169860" lon="-121.989333">
        <ele>222.1</ele>
        <time>2014-08-15T00:02:51Z</time>
        <sat>8</sat>
      </trkpt>
      <trkpt lat="47.169735" lon="-121.989273">
        <ele>222.1</ele>
        <time>2014-08-15T00:02:53Z</time>
        <sat>8</sat>
      </trkpt>
      <trkpt lat="47.169618" lon="-121.989225">
        <ele>222.2</ele>
        <time>2014-08-15T00:02:55Z</time>
        <sat>8</sat>
      </trkpt>
      <trkpt lat="47.169509" lon="-121.989168">
        <ele>222.3</ele>
        <time>2014-08-15T00:02:57Z</time>
        <sat>8</sat>
      </trkpt>
      <trkpt lat="47.169419" lon="-121.989112">
        <ele>222.1</ele>
        <time>2014-08-15T00:02:59Z</time>
        <sat>8</sat>
      </trkpt>
      <trkpt lat="47.169312" lon="-121.989027">
        <ele>222.5</ele>
        <time>2014-08-15T00:03:02Z</time>
        <sat>8</sat>
      </trkpt>
      <trkpt lat="47.169214" lon="-121.988946">
        <ele>222.8</ele>
        <time>2014-08-15T00:03:05Z</time>
        <sat>7</sat>
      </trkpt>
      <trkpt lat="47.169120" lon="-121.988856">
        <ele>223.0</ele>
        <time>2014-08-15T00:03:08Z</time>
        <sat>7</sat>
      </trkpt>
      <trkpt lat="47.169025" lon="-121.988751">
        <ele>223.0</ele>
        <time>2014-08-15T00:03:11Z</time>
        <sat>7</sat>
      </trkpt>
      <trkpt lat="47.168957" lon="-121.988663">
        <ele>223.2</ele>
        <time>2014-08-15T00:03:13Z</time>
        <sat>7</sat>
      </trkpt>
      <trkpt lat="47.168882" lon="-121.988583">
        <ele>223.2</ele>
        <time>2014-08-15T00:03:15Z</time>
        <sat>7</sat>
      </trkpt>
      <trkpt lat="47.168807" lon="-121.988501">
        <ele>223.1</ele>
        <time>2014-08-15T00:03:17Z</time>
        <sat>7</sat>
      </trkpt>
      <trkpt lat="47.168732" lon="-121.988420">
        <ele>223.1</ele>
        <time>2014-08-15T00:03:19Z</time>
        <sat>7</sat>
      </trkpt>
      <trkpt lat="47.168635" lon="-121.988295">
        <ele>223.2</ele>
        <time>2014-08-15T00:03:22Z</time>
        <sat>7</sat>
      </trkpt>
      <trkpt lat="47.168529" lon="-121.988183">
        <ele>223.2</ele>
        <time>2014-08-15T00:03:25Z</time>
        <sat>7</sat>
      </trkpt>
      <trkpt lat="47.168448" lon="-121.988097">
        <ele>223.3</ele>
        <time>2014-08-15T00:03:27Z</time>
        <sat>7</sat>
      </trkpt>
      <trkpt lat="47.168378" lon="-121.988012">
        <ele>223.1</ele>
        <time>2014-08-15T00:03:29Z</time>
        <sat>7</sat>
      </trkpt>
      <trkpt lat="47.168277" lon="-121.987892">
        <ele>223.1</ele>
        <time>2014-08-15T00:03:32Z</time>
        <sat>7</sat>
      </trkpt>
      <trkpt lat="47.168177" lon="-121.987772">
        <ele>223.2</ele>
        <time>2014-08-15T00:03:35Z</time>
        <sat>7</sat>
      </trkpt>
      <trkpt lat="47.168085" lon="-121.987648">
        <ele>223.2</ele>
        <time>2014-08-15T00:03:38Z</time>
        <sat>7</sat>
      </trkpt>
      <trkpt lat="47.168004" lon="-121.987522">
        <ele>223.4</ele>
        <time>2014-08-15T00:03:41Z</time>
        <sat>7</sat>
      </trkpt>
      <trkpt lat="47.167912" lon="-121.987398">
        <ele>223.5</ele>
        <time>2014-08-15T00:03:44Z</time>
        <sat>7</sat>
      </trkpt>
      <trkpt lat="47.167820" lon="-121.987278">
        <ele>223.7</ele>
        <time>2014-08-15T00:03:47Z</time>
        <sat>7</sat>
      </trkpt>
      <trkpt lat="47.167740" lon="-121.987158">
        <ele>223.9</ele>
        <time>2014-08-15T00:03:50Z</time>
        <sat>7</sat>
      </trkpt>
      <trkpt lat="47.167660" lon="-121.987030">
        <ele>224.1</ele>
        <time>2014-08-15T00:03:53Z</time>
        <sat>7</sat>
      </trkpt>
      <trkpt lat="47.167575" lon="-121.986893">
        <ele>224.2</ele>
        <time>2014-08-15T00:03:56Z</time>
        <sat>7</sat>
      </trkpt>
      <trkpt lat="47.167492" lon="-121.986748">
        <ele>224.4</ele>
        <time>2014-08-15T00:03:59Z</time>
        <sat>7</sat>
      </trkpt>
      <trkpt lat="47.167415" lon="-121.986603">
        <ele>224.5</ele>
        <time>2014-08-15T00:04:02Z</time>
        <sat>7</sat>
      </trkpt>
      <trkpt lat="47.167345" lon="-121.986453">
        <ele>224.6</ele>
        <time>2014-08-15T00:04:05Z</time>
        <sat>7</sat>
      </trkpt>
      <trkpt lat="47.167262" lon="-121.986303">
        <ele>225.0</ele>
        <time>2014-08-15T00:04:08Z</time>
        <sat>7</sat>
      </trkpt>
      <trkpt lat="47.167189" lon="-121.986156">
        <ele>225.1</ele>
        <time>2014-08-15T00:04:11Z</time>
        <sat>7</sat>
      </trkpt>
      <trkpt lat="47.167113" lon="-121.986010">
        <ele>225.4</ele>
        <time>2014-08-15T00:04:14Z</time>
        <sat>7</sat>
      </trkpt>
      <trkpt lat="47.167038" lon="-121.985867">
        <ele>225.5</ele>
        <time>2014-08-15T00:04:17Z</time>
        <sat>7</sat>
      </trkpt>
      <trkpt lat="47.166959" lon="-121.985716">
        <ele>225.7</ele>
        <time>2014-08-15T00:04:20Z</time>
        <sat>7</sat>
      </trkpt>
      <trkpt lat="47.166879" lon="-121.985573">
        <ele>225.8</ele>
        <time>2014-08-15T00:04:23Z</time>
        <sat>7</sat>
      </trkpt>
      <trkpt lat="47.166798" lon="-121.985453">
        <ele>225.8</ele>
        <time>2014-08-15T00:04:26Z</time>
        <sat>7</sat>
      </trkpt>
      <trkpt lat="47.166732" lon="-121.985313">
        <ele>225.8</ele>
        <time>2014-08-15T00:04:29Z</time>
        <sat>7</sat>
      </trkpt>
      <trkpt lat="47.166662" lon="-121.985158">
        <ele>226.0</ele>
        <time>2014-08-15T00:04:32Z</time>
        <sat>7</sat>
      </trkpt>
      <trkpt lat="47.166609" lon="-121.984988">
        <ele>226.3</ele>
        <time>2014-08-15T00:04:35Z</time>
        <sat>7</sat>
      </trkpt>
      <trkpt lat="47.166563" lon="-121.984805">
        <ele>226.0</ele>
        <time>2014-08-15T00:04:38Z</time>
        <sat>7</sat>
      </trkpt>
      <trkpt lat="47.166537" lon="-121.984675">
        <ele>226.2</ele>
        <time>2014-08-15T00:04:40Z</time>
        <sat>7</sat>
      </trkpt>
      <trkpt lat="47.166515" lon="-121.984540">
        <ele>226.5</ele>
        <time>2014-08-15T00:04:42Z</time>
        <sat>7</sat>
      </trkpt>
      <trkpt lat="47.166490" lon="-121.984400">
        <ele>226.5</ele>
        <time>2014-08-15T00:04:44Z</time>
        <sat>7</sat>
      </trkpt>
      <trkpt lat="47.166463" lon="-121.984258">
        <ele>226.5</ele>
        <time>2014-08-15T00:04:46Z</time>
        <sat>7</sat>
      </trkpt>
      <trkpt lat="47.166444" lon="-121.984120">
        <ele>226.6</ele>
        <time>2014-08-15T00:04:48Z</time>
        <sat>7</sat>
      </trkpt>
      <trkpt lat="47.166422" lon="-121.983987">
        <ele>226.7</ele>
        <time>2014-08-15T00:04:50Z</time>
        <sat>7</sat>
      </trkpt>
      <trkpt lat="47.166399" lon="-121.983855">
        <ele>226.9</ele>
        <time>2014-08-15T00:04:52Z</time>
        <sat>7</sat>
      </trkpt>
      <trkpt lat="47.166367" lon="-121.983668">
        <ele>227.0</ele>
        <time>2014-08-15T00:04:55Z</time>
        <sat>7</sat>
      </trkpt>
      <trkpt lat="47.166337" lon="-121.983485">
        <ele>227.3</ele>
        <time>2014-08-15T00:04:58Z</time>
        <sat>7</sat>
      </trkpt>
      <trkpt lat="47.166294" lon="-121.983303">
        <ele>227.3</ele>
        <time>2014-08-15T00:05:01Z</time>
        <sat>7</sat>
      </trkpt>
      <trkpt lat="47.166270" lon="-121.983112">
        <ele>227.0</ele>
        <time>2014-08-15T00:05:04Z</time>
        <sat>7</sat>
      </trkpt>
      <trkpt lat="47.166247" lon="-121.982977">
        <ele>227.4</ele>
        <time>2014-08-15T00:05:06Z</time>
        <sat>7</sat>
      </trkpt>
      <trkpt lat="47.166217" lon="-121.982848">
        <ele>227.3</ele>
        <time>2014-08-15T00:05:08Z</time>
        <sat>7</sat>
      </trkpt>
      <trkpt lat="47.166187" lon="-121.982655">
        <ele>227.4</ele>
        <time>2014-08-15T00:05:11Z</time>
        <sat>7</sat>
      </trkpt>
      <trkpt lat="47.166160" lon="-121.982466">
        <ele>227.7</ele>
        <time>2014-08-15T00:05:14Z</time>
        <sat>7</sat>
      </trkpt>
      <trkpt lat="47.166143" lon="-121.982287">
        <ele>227.8</ele>
        <time>2014-08-15T00:05:17Z</time>
        <sat>7</sat>
      </trkpt>
      <trkpt lat="47.166110" lon="-121.982111">
        <ele>227.9</ele>
        <time>2014-08-15T00:05:20Z</time>
        <sat>7</sat>
      </trkpt>
      <trkpt lat="47.166077" lon="-121.981935">
        <ele>227.7</ele>
        <time>2014-08-15T00:05:23Z</time>
        <sat>7</sat>
      </trkpt>
      <trkpt lat="47.166037" lon="-121.981752">
        <ele>227.6</ele>
        <time>2014-08-15T00:05:26Z</time>
        <sat>7</sat>
      </trkpt>
      <trkpt lat="47.166002" lon="-121.981623">
        <ele>227.8</ele>
        <time>2014-08-15T00:05:28Z</time>
        <sat>7</sat>
      </trkpt>
      <trkpt lat="47.165977" lon="-121.981490">
        <ele>228.0</ele>
        <time>2014-08-15T00:05:30Z</time>
        <sat>7</sat>
      </trkpt>
      <trkpt lat="47.165954" lon="-121.981361">
        <ele>228.1</ele>
        <time>2014-08-15T00:05:32Z</time>
        <sat>7</sat>
      </trkpt>
      <trkpt lat="47.165912" lon="-121.981171">
        <ele>228.0</ele>
        <time>2014-08-15T00:05:35Z</time>
        <sat>7</sat>
      </trkpt>
      <trkpt lat="47.165859" lon="-121.980995">
        <ele>228.4</ele>
        <time>2014-08-15T00:05:38Z</time>
        <sat>7</sat>
      </trkpt>
      <trkpt lat="47.165795" lon="-121.980822">
        <ele>228.4</ele>
        <time>2014-08-15T00:05:41Z</time>
        <sat>7</sat>
      </trkpt>
      <trkpt lat="47.165735" lon="-121.980651">
        <ele>228.7</ele>
        <time>2014-08-15T00:05:44Z</time>
        <sat>7</sat>
      </trkpt>
      <trkpt lat="47.165670" lon="-121.980498">
        <ele>228.9</ele>
        <time>2014-08-15T00:05:47Z</time>
        <sat>7</sat>
      </trkpt>
      <trkpt lat="47.165607" lon="-121.980340">
        <ele>229.2</ele>
        <time>2014-08-15T00:05:50Z</time>
        <sat>7</sat>
      </trkpt>
      <trkpt lat="47.165557" lon="-121.980167">
        <ele>229.5</ele>
        <time>2014-08-15T00:05:53Z</time>
        <sat>7</sat>
      </trkpt>
      <trkpt lat="47.165509" lon="-121.980008">
        <ele>229.9</ele>
        <time>2014-08-15T00:05:56Z</time>
        <sat>7</sat>
      </trkpt>
      <trkpt lat="47.165467" lon="-121.979818">
        <ele>229.8</ele>
        <time>2014-08-15T00:05:59Z</time>
        <sat>7</sat>
      </trkpt>
      <trkpt lat="47.165407" lon="-121.979638">
        <ele>230.0</ele>
        <time>2014-08-15T00:06:02Z</time>
        <sat>7</sat>
      </trkpt>
      <trkpt lat="47.165363" lon="-121.979465">
        <ele>229.9</ele>
        <time>2014-08-15T00:06:05Z</time>
        <sat>7</sat>
      </trkpt>
      <trkpt lat="47.165328" lon="-121.979301">
        <ele>230.2</ele>
        <time>2014-08-15T00:06:08Z</time>
        <sat>7</sat>
      </trkpt>
      <trkpt lat="47.165227" lon="-121.979143">
        <ele>230.5</ele>
        <time>2014-08-15T00:06:11Z</time>
        <sat>7</sat>
      </trkpt>
      <trkpt lat="47.165147" lon="-121.979003">
        <ele>230.5</ele>
        <time>2014-08-15T00:06:14Z</time>
        <sat>7</sat>
      </trkpt>
      <trkpt lat="47.165089" lon="-121.978848">
        <ele>230.8</ele>
        <time>2014-08-15T00:06:17Z</time>
        <sat>7</sat>
      </trkpt>
      <trkpt lat="47.165055" lon="-121.978718">
        <ele>231.0</ele>
        <time>2014-08-15T00:06:20Z</time>
        <sat>7</sat>
      </trkpt>
      <trkpt lat="47.164995" lon="-121.978563">
        <ele>231.2</ele>
        <time>2014-08-15T00:06:24Z</time>
        <sat>7</sat>
      </trkpt>
      <trkpt lat="47.164940" lon="-121.978441">
        <ele>231.5</ele>
        <time>2014-08-15T00:06:27Z</time>
        <sat>7</sat>
      </trkpt>
      <trkpt lat="47.164869" lon="-121.978290">
        <ele>231.4</ele>
        <time>2014-08-15T00:06:30Z</time>
        <sat>7</sat>
      </trkpt>
      <trkpt lat="47.164817" lon="-121.978145">
        <ele>231.5</ele>
        <time>2014-08-15T00:06:33Z</time>
        <sat>7</sat>
      </trkpt>
      <trkpt lat="47.164765" lon="-121.978001">
        <ele>231.6</ele>
        <time>2014-08-15T00:06:36Z</time>
        <sat>7</sat>
      </trkpt>
      <trkpt lat="47.164719" lon="-121.977858">
        <ele>231.8</ele>
        <time>2014-08-15T00:06:39Z</time>
        <sat>7</sat>
      </trkpt>
      <trkpt lat="47.164660" lon="-121.977713">
        <ele>231.7</ele>
        <time>2014-08-15T00:06:42Z</time>
        <sat>7</sat>
      </trkpt>
      <trkpt lat="47.164602" lon="-121.977575">
        <ele>231.9</ele>
        <time>2014-08-15T00:06:45Z</time>
        <sat>7</sat>
      </trkpt>
      <trkpt lat="47.164548" lon="-121.977445">
        <ele>232.6</ele>
        <time>2014-08-15T00:06:48Z</time>
        <sat>7</sat>
      </trkpt>
      <trkpt lat="47.164504" lon="-121.977311">
        <ele>232.8</ele>
        <time>2014-08-15T00:06:51Z</time>
        <sat>7</sat>
      </trkpt>
      <trkpt lat="47.164429" lon="-121.977177">
        <ele>233.1</ele>
        <time>2014-08-15T00:06:54Z</time>
        <sat>7</sat>
      </trkpt>
      <trkpt lat="47.164348" lon="-121.977086">
        <ele>233.2</ele>
        <time>2014-08-15T00:06:56Z</time>
        <sat>7</sat>
      </trkpt>
      <trkpt lat="47.164260" lon="-121.976943">
        <ele>233.2</ele>
        <time>2014-08-15T00:06:59Z</time>
        <sat>7</sat>
      </trkpt>
      <trkpt lat="47.164180" lon="-121.976847">
        <ele>233.3</ele>
        <time>2014-08-15T00:07:01Z</time>
        <sat>7</sat>
      </trkpt>
      <trkpt lat="47.164108" lon="-121.976751">
        <ele>233.2</ele>
        <time>2014-08-15T00:07:03Z</time>
        <sat>7</sat>
      </trkpt>
      <trkpt lat="47.164037" lon="-121.976608">
        <ele>233.4</ele>
        <time>2014-08-15T00:07:06Z</time>
        <sat>7</sat>
      </trkpt>
      <trkpt lat="47.163993" lon="-121.976448">
        <ele>233.6</ele>
        <time>2014-08-15T00:07:09Z</time>
        <sat>7</sat>
      </trkpt>
      <trkpt lat="47.163970" lon="-121.976280">
        <ele>233.8</ele>
        <time>2014-08-15T00:07:12Z</time>
        <sat>7</sat>
      </trkpt>
      <trkpt lat="47.163939" lon="-121.976106">
        <ele>234.0</ele>
        <time>2014-08-15T00:07:15Z</time>
        <sat>7</sat>
      </trkpt>
      <trkpt lat="47.163915" lon="-121.975928">
        <ele>234.0</ele>
        <time>2014-08-15T00:07:18Z</time>
        <sat>7</sat>
      </trkpt>
      <trkpt lat="47.163920" lon="-121.975746">
        <ele>234.2</ele>
        <time>2014-08-15T00:07:21Z</time>
        <sat>7</sat>
      </trkpt>
      <trkpt lat="47.163960" lon="-121.975566">
        <ele>234.4</ele>
        <time>2014-08-15T00:07:24Z</time>
        <sat>7</sat>
      </trkpt>
      <trkpt lat="47.163993" lon="-121.975441">
        <ele>234.3</ele>
        <time>2014-08-15T00:07:26Z</time>
        <sat>7</sat>
      </trkpt>
      <trkpt lat="47.164007" lon="-121.975255">
        <ele>234.6</ele>
        <time>2014-08-15T00:07:29Z</time>
        <sat>7</sat>
      </trkpt>
      <trkpt lat="47.164024" lon="-121.975086">
        <ele>234.9</ele>
        <time>2014-08-15T00:07:32Z</time>
        <sat>7</sat>
      </trkpt>
      <trkpt lat="47.164049" lon="-121.974928">
        <ele>235.2</ele>
        <time>2014-08-15T00:07:35Z</time>
        <sat>7</sat>
      </trkpt>
      <trkpt lat="47.164059" lon="-121.974765">
        <ele>235.2</ele>
        <time>2014-08-15T00:07:38Z</time>
        <sat>7</sat>
      </trkpt>
      <trkpt lat="47.164049" lon="-121.974607">
        <ele>235.4</ele>
        <time>2014-08-15T00:07:41Z</time>
        <sat>7</sat>
      </trkpt>
      <trkpt lat="47.164035" lon="-121.974460">
        <ele>235.7</ele>
        <time>2014-08-15T00:07:44Z</time>
        <sat>7</sat>
      </trkpt>
      <trkpt lat="47.164003" lon="-121.974286">
        <ele>236.0</ele>
        <time>2014-08-15T00:07:47Z</time>
        <sat>7</sat>
      </trkpt>
      <trkpt lat="47.163967" lon="-121.974123">
        <ele>236.0</ele>
        <time>2014-08-15T00:07:50Z</time>
        <sat>7</sat>
      </trkpt>
      <trkpt lat="47.163920" lon="-121.973968">
        <ele>236.3</ele>
        <time>2014-08-15T00:07:53Z</time>
        <sat>7</sat>
      </trkpt>
      <trkpt lat="47.163870" lon="-121.973831">
        <ele>236.6</ele>
        <time>2014-08-15T00:07:56Z</time>
        <sat>7</sat>
      </trkpt>
      <trkpt lat="47.163829" lon="-121.973660">
        <ele>236.7</ele>
        <time>2014-08-15T00:07:59Z</time>
        <sat>7</sat>
      </trkpt>
      <trkpt lat="47.163810" lon="-121.973525">
        <ele>236.6</ele>
        <time>2014-08-15T00:08:01Z</time>
        <sat>7</sat>
      </trkpt>
      <trkpt lat="47.163783" lon="-121.973337">
        <ele>236.6</ele>
        <time>2014-08-15T00:08:04Z</time>
        <sat>7</sat>
      </trkpt>
      <trkpt lat="47.163780" lon="-121.973138">
        <ele>236.7</ele>
        <time>2014-08-15T00:08:07Z</time>
        <sat>7</sat>
      </trkpt>
      <trkpt lat="47.163788" lon="-121.972966">
        <ele>237.3</ele>
        <time>2014-08-15T00:08:10Z</time>
        <sat>7</sat>
      </trkpt>
      <trkpt lat="47.163802" lon="-121.972808">
        <ele>237.4</ele>
        <time>2014-08-15T00:08:13Z</time>
        <sat>7</sat>
      </trkpt>
      <trkpt lat="47.163808" lon="-121.972635">
        <ele>237.9</ele>
        <time>2014-08-15T00:08:16Z</time>
        <sat>7</sat>
      </trkpt>
      <trkpt lat="47.163790" lon="-121.972440">
        <ele>237.9</ele>
        <time>2014-08-15T00:08:19Z</time>
        <sat>7</sat>
      </trkpt>
      <trkpt lat="47.163768" lon="-121.972301">
        <ele>237.8</ele>
        <time>2014-08-15T00:08:21Z</time>
        <sat>7</sat>
      </trkpt>
      <trkpt lat="47.163739" lon="-121.972166">
        <ele>237.9</ele>
        <time>2014-08-15T00:08:23Z</time>
        <sat>7</sat>
      </trkpt>
      <trkpt lat="47.163707" lon="-121.972032">
        <ele>238.0</ele>
        <time>2014-08-15T00:08:25Z</time>
        <sat>7</sat>
      </trkpt>
      <trkpt lat="47.163692" lon="-121.971897">
        <ele>237.8</ele>
        <time>2014-08-15T00:08:27Z</time>
        <sat>7</sat>
      </trkpt>
      <trkpt lat="47.163727" lon="-121.971713">
        <ele>237.9</ele>
        <time>2014-08-15T00:08:30Z</time>
        <sat>7</sat>
      </trkpt>
      <trkpt lat="47.163772" lon="-121.971595">
        <ele>238.0</ele>
        <time>2014-08-15T00:08:32Z</time>
        <sat>7</sat>
      </trkpt>
      <trkpt lat="47.163800" lon="-121.971452">
        <ele>237.9</ele>
        <time>2014-08-15T00:08:34Z</time>
        <sat>7</sat>
      </trkpt>
      <trkpt lat="47.163832" lon="-121.971258">
        <ele>237.7</ele>
        <time>2014-08-15T00:08:37Z</time>
        <sat>7</sat>
      </trkpt>
      <trkpt lat="47.163855" lon="-121.971081">
        <ele>237.9</ele>
        <time>2014-08-15T00:08:40Z</time>
        <sat>6</sat>
      </trkpt>
      <trkpt lat="47.163864" lon="-121.970918">
        <ele>238.4</ele>
        <time>2014-08-15T00:08:43Z</time>
        <sat>6</sat>
      </trkpt>
      <trkpt lat="47.163864" lon="-121.970750">
        <ele>238.8</ele>
        <time>2014-08-15T00:08:46Z</time>
        <sat>6</sat>
      </trkpt>
      <trkpt lat="47.163830" lon="-121.970573">
        <ele>239.0</ele>
        <time>2014-08-15T00:08:49Z</time>
        <sat>6</sat>
      </trkpt>
      <trkpt lat="47.163788" lon="-121.970411">
        <ele>239.2</ele>
        <time>2014-08-15T00:08:52Z</time>
        <sat>7</sat>
      </trkpt>
      <trkpt lat="47.163732" lon="-121.970257">
        <ele>239.4</ele>
        <time>2014-08-15T00:08:55Z</time>
        <sat>6</sat>
      </trkpt>
      <trkpt lat="47.163663" lon="-121.970081">
        <ele>239.5</ele>
        <time>2014-08-15T00:08:58Z</time>
        <sat>7</sat>
      </trkpt>
      <trkpt lat="47.163604" lon="-121.969912">
        <ele>239.8</ele>
        <time>2014-08-15T00:09:01Z</time>
        <sat>7</sat>
      </trkpt>
      <trkpt lat="47.163543" lon="-121.969753">
        <ele>240.1</ele>
        <time>2014-08-15T00:09:04Z</time>
        <sat>6</sat>
      </trkpt>
      <trkpt lat="47.163483" lon="-121.969611">
        <ele>240.2</ele>
        <time>2014-08-15T00:09:07Z</time>
        <sat>8</sat>
      </trkpt>
      <trkpt lat="47.163430" lon="-121.969505">
        <ele>240.2</ele>
        <time>2014-08-15T00:09:09Z</time>
        <sat>7</sat>
      </trkpt>
      <trkpt lat="47.163377" lon="-121.969393">
        <ele>240.2</ele>
        <time>2014-08-15T00:09:11Z</time>
        <sat>7</sat>
      </trkpt>
      <trkpt lat="47.163325" lon="-121.969281">
        <ele>240.2</ele>
        <time>2014-08-15T00:09:13Z</time>
        <sat>8</sat>
      </trkpt>
      <trkpt lat="47.163275" lon="-121.969168">
        <ele>240.2</ele>
        <time>2014-08-15T00:09:15Z</time>
        <sat>8</sat>
      </trkpt>
      <trkpt lat="47.163230" lon="-121.969046">
        <ele>240.3</ele>
        <time>2014-08-15T00:09:17Z</time>
        <sat>8</sat>
      </trkpt>
      <trkpt lat="47.163180" lon="-121.968865">
        <ele>240.4</ele>
        <time>2014-08-15T00:09:20Z</time>
        <sat>8</sat>
      </trkpt>
      <trkpt lat="47.163154" lon="-121.968738">
        <ele>240.6</ele>
        <time>2014-08-15T00:09:22Z</time>
        <sat>8</sat>
      </trkpt>
      <trkpt lat="47.163132" lon="-121.968606">
        <ele>240.5</ele>
        <time>2014-08-15T00:09:24Z</time>
        <sat>8</sat>
      </trkpt>
      <trkpt lat="47.163102" lon="-121.968468">
        <ele>240.5</ele>
        <time>2014-08-15T00:09:26Z</time>
        <sat>8</sat>
      </trkpt>
      <trkpt lat="47.163082" lon="-121.968338">
        <ele>240.9</ele>
        <time>2014-08-15T00:09:28Z</time>
        <sat>8</sat>
      </trkpt>
      <trkpt lat="47.163060" lon="-121.968161">
        <ele>241.3</ele>
        <time>2014-08-15T00:09:31Z</time>
        <sat>8</sat>
      </trkpt>
      <trkpt lat="47.163030" lon="-121.967993">
        <ele>241.6</ele>
        <time>2014-08-15T00:09:34Z</time>
        <sat>7</sat>
      </trkpt>
      <trkpt lat="47.162990" lon="-121.967836">
        <ele>242.2</ele>
        <time>2014-08-15T00:09:37Z</time>
        <sat>8</sat>
      </trkpt>
      <trkpt lat="47.162972" lon="-121.967678">
        <ele>242.6</ele>
        <time>2014-08-15T00:09:40Z</time>
        <sat>8</sat>
      </trkpt>
      <trkpt lat="47.162959" lon="-121.967532">
        <ele>243.1</ele>
        <time>2014-08-15T00:09:43Z</time>
        <sat>8</sat>
      </trkpt>
      <trkpt lat="47.162935" lon="-121.967386">
        <ele>243.3</ele>
        <time>2014-08-15T00:09:46Z</time>
        <sat>8</sat>
      </trkpt>
      <trkpt lat="47.162917" lon="-121.967242">
        <ele>243.8</ele>
        <time>2014-08-15T00:09:49Z</time>
        <sat>8</sat>
      </trkpt>
      <trkpt lat="47.162898" lon="-121.967092">
        <ele>244.2</ele>
        <time>2014-08-15T00:09:52Z</time>
        <sat>8</sat>
      </trkpt>
      <trkpt lat="47.162870" lon="-121.966946">
        <ele>244.2</ele>
        <time>2014-08-15T00:09:55Z</time>
        <sat>8</sat>
      </trkpt>
      <trkpt lat="47.162849" lon="-121.966787">
        <ele>244.6</ele>
        <time>2014-08-15T00:09:58Z</time>
        <sat>8</sat>
      </trkpt>
      <trkpt lat="47.162829" lon="-121.966637">
        <ele>244.7</ele>
        <time>2014-08-15T00:10:01Z</time>
        <sat>8</sat>
      </trkpt>
      <trkpt lat="47.162800" lon="-121.966468">
        <ele>244.8</ele>
        <time>2014-08-15T00:10:04Z</time>
        <sat>8</sat>
      </trkpt>
      <trkpt lat="47.162755" lon="-121.966297">
        <ele>245.0</ele>
        <time>2014-08-15T00:10:07Z</time>
        <sat>8</sat>
      </trkpt>
      <trkpt lat="47.162717" lon="-121.966120">
        <ele>245.1</ele>
        <time>2014-08-15T00:10:10Z</time>
        <sat>8</sat>
      </trkpt>
      <trkpt lat="47.162687" lon="-121.965940">
        <ele>245.3</ele>
        <time>2014-08-15T00:10:13Z</time>
        <sat>8</sat>
      </trkpt>
      <trkpt lat="47.162660" lon="-121.965765">
        <ele>245.5</ele>
        <time>2014-08-15T00:10:16Z</time>
        <sat>8</sat>
      </trkpt>
      <trkpt lat="47.162645" lon="-121.965590">
        <ele>245.9</ele>
        <time>2014-08-15T00:10:19Z</time>
        <sat>8</sat>
      </trkpt>
      <trkpt lat="47.162630" lon="-121.965427">
        <ele>246.0</ele>
        <time>2014-08-15T00:10:22Z</time>
        <sat>8</sat>
      </trkpt>
      <trkpt lat="47.162614" lon="-121.965256">
        <ele>246.1</ele>
        <time>2014-08-15T00:10:25Z</time>
        <sat>8</sat>
      </trkpt>
      <trkpt lat="47.162594" lon="-121.965083">
        <ele>246.1</ele>
        <time>2014-08-15T00:10:28Z</time>
        <sat>7</sat>
      </trkpt>
      <trkpt lat="47.162579" lon="-121.964921">
        <ele>246.5</ele>
        <time>2014-08-15T00:10:31Z</time>
        <sat>8</sat>
      </trkpt>
      <trkpt lat="47.162562" lon="-121.964760">
        <ele>246.1</ele>
        <time>2014-08-15T00:10:34Z</time>
        <sat>8</sat>
      </trkpt>
      <trkpt lat="47.162542" lon="-121.964610">
        <ele>246.0</ele>
        <time>2014-08-15T00:10:37Z</time>
        <sat>8</sat>
      </trkpt>
      <trkpt lat="47.162525" lon="-121.964425">
        <ele>246.0</ele>
        <time>2014-08-15T00:10:40Z</time>
        <sat>8</sat>
      </trkpt>
      <trkpt lat="47.162514" lon="-121.964290">
        <ele>246.2</ele>
        <time>2014-08-15T00:10:42Z</time>
        <sat>8</sat>
      </trkpt>
      <trkpt lat="47.162495" lon="-121.964158">
        <ele>246.1</ele>
        <time>2014-08-15T00:10:44Z</time>
        <sat>8</sat>
      </trkpt>
      <trkpt lat="47.162477" lon="-121.964026">
        <ele>246.3</ele>
        <time>2014-08-15T00:10:46Z</time>
        <sat>8</sat>
      </trkpt>
      <trkpt lat="47.162455" lon="-121.963856">
        <ele>246.6</ele>
        <time>2014-08-15T00:10:49Z</time>
        <sat>8</sat>
      </trkpt>
      <trkpt lat="47.162437" lon="-121.963683">
        <ele>246.4</ele>
        <time>2014-08-15T00:10:52Z</time>
        <sat>8</sat>
      </trkpt>
      <trkpt lat="47.162417" lon="-121.963538">
        <ele>246.7</ele>
        <time>2014-08-15T00:10:56Z</time>
        <sat>8</sat>
      </trkpt>
      <trkpt lat="47.162430" lon="-121.963402">
        <ele>246.5</ele>
        <time>2014-08-15T00:11:16Z</time>
        <sat>7</sat>
      </trkpt>
      <trkpt lat="47.162335" lon="-121.963385">
        <ele>246.9</ele>
        <time>2014-08-15T00:12:24Z</time>
        <sat>7</sat>
      </trkpt>
      <trkpt lat="47.162227" lon="-121.963390">
        <ele>247.1</ele>
        <time>2014-08-15T00:12:28Z</time>
        <sat>7</sat>
      </trkpt>
      <trkpt lat="47.162120" lon="-121.963430">
        <ele>246.8</ele>
        <time>2014-08-15T00:12:31Z</time>
        <sat>7</sat>
      </trkpt>
      <trkpt lat="47.162010" lon="-121.963435">
        <ele>246.5</ele>
        <time>2014-08-15T00:12:34Z</time>
        <sat>7</sat>
      </trkpt>
      <trkpt lat="47.161914" lon="-121.963458">
        <ele>246.7</ele>
        <time>2014-08-15T00:12:37Z</time>
        <sat>7</sat>
      </trkpt>
      <trkpt lat="47.161815" lon="-121.963481">
        <ele>246.5</ele>
        <time>2014-08-15T00:12:40Z</time>
        <sat>7</sat>
      </trkpt>
      <trkpt lat="47.161704" lon="-121.963486">
        <ele>246.3</ele>
        <time>2014-08-15T00:12:43Z</time>
        <sat>8</sat>
      </trkpt>
      <trkpt lat="47.161599" lon="-121.963496">
        <ele>246.2</ele>
        <time>2014-08-15T00:12:46Z</time>
        <sat>7</sat>
      </trkpt>
      <trkpt lat="47.161490" lon="-121.963502">
        <ele>246.2</ele>
        <time>2014-08-15T00:12:49Z</time>
        <sat>8</sat>
      </trkpt>
      <trkpt lat="47.161375" lon="-121.963505">
        <ele>246.2</ele>
        <time>2014-08-15T00:12:52Z</time>
        <sat>8</sat>
      </trkpt>
      <trkpt lat="47.161252" lon="-121.963508">
        <ele>246.1</ele>
        <time>2014-08-15T00:12:55Z</time>
        <sat>8</sat>
      </trkpt>
      <trkpt lat="47.161134" lon="-121.963522">
        <ele>245.5</ele>
        <time>2014-08-15T00:12:58Z</time>
        <sat>8</sat>
      </trkpt>
      <trkpt lat="47.161040" lon="-121.963533">
        <ele>245.4</ele>
        <time>2014-08-15T00:13:00Z</time>
        <sat>8</sat>
      </trkpt>
      <trkpt lat="47.160929" lon="-121.963535">
        <ele>245.5</ele>
        <time>2014-08-15T00:13:03Z</time>
        <sat>8</sat>
      </trkpt>
      <trkpt lat="47.160817" lon="-121.963486">
        <ele>245.8</ele>
        <time>2014-08-15T00:13:06Z</time>
        <sat>8</sat>
      </trkpt>
      <trkpt lat="47.160720" lon="-121.963398">
        <ele>246.2</ele>
        <time>2014-08-15T00:13:09Z</time>
        <sat>8</sat>
      </trkpt>
      <trkpt lat="47.160643" lon="-121.963275">
        <ele>246.2</ele>
        <time>2014-08-15T00:13:12Z</time>
        <sat>8</sat>
      </trkpt>
      <trkpt lat="47.160575" lon="-121.963130">
        <ele>246.1</ele>
        <time>2014-08-15T00:13:15Z</time>
        <sat>8</sat>
      </trkpt>
      <trkpt lat="47.160517" lon="-121.963010">
        <ele>246.3</ele>
        <time>2014-08-15T00:13:18Z</time>
        <sat>8</sat>
      </trkpt>
      <trkpt lat="47.160462" lon="-121.962867">
        <ele>246.5</ele>
        <time>2014-08-15T00:13:21Z</time>
        <sat>8</sat>
      </trkpt>
      <trkpt lat="47.160405" lon="-121.962723">
        <ele>246.4</ele>
        <time>2014-08-15T00:13:24Z</time>
        <sat>8</sat>
      </trkpt>
      <trkpt lat="47.160333" lon="-121.962583">
        <ele>246.4</ele>
        <time>2014-08-15T00:13:27Z</time>
        <sat>8</sat>
      </trkpt>
      <trkpt lat="47.160277" lon="-121.962423">
        <ele>246.3</ele>
        <time>2014-08-15T00:13:30Z</time>
        <sat>8</sat>
      </trkpt>
      <trkpt lat="47.160218" lon="-121.962280">
        <ele>246.0</ele>
        <time>2014-08-15T00:13:33Z</time>
        <sat>8</sat>
      </trkpt>
      <trkpt lat="47.160165" lon="-121.962118">
        <ele>246.2</ele>
        <time>2014-08-15T00:13:36Z</time>
        <sat>8</sat>
      </trkpt>
      <trkpt lat="47.160112" lon="-121.961985">
        <ele>246.1</ele>
        <time>2014-08-15T00:13:39Z</time>
        <sat>8</sat>
      </trkpt>
      <trkpt lat="47.160039" lon="-121.961855">
        <ele>246.4</ele>
        <time>2014-08-15T00:13:42Z</time>
        <sat>8</sat>
      </trkpt>
      <trkpt lat="47.159969" lon="-121.961703">
        <ele>246.3</ele>
        <time>2014-08-15T00:13:45Z</time>
        <sat>8</sat>
      </trkpt>
      <trkpt lat="47.159917" lon="-121.961575">
        <ele>246.5</ele>
        <time>2014-08-15T00:13:47Z</time>
        <sat>8</sat>
      </trkpt>
      <trkpt lat="47.159863" lon="-121.961425">
        <ele>246.6</ele>
        <time>2014-08-15T00:13:50Z</time>
        <sat>8</sat>
      </trkpt>
      <trkpt lat="47.159825" lon="-121.961302">
        <ele>246.4</ele>
        <time>2014-08-15T00:13:52Z</time>
        <sat>7</sat>
      </trkpt>
      <trkpt lat="47.159777" lon="-121.961187">
        <ele>246.3</ele>
        <time>2014-08-15T00:13:54Z</time>
        <sat>7</sat>
      </trkpt>
      <trkpt lat="47.159704" lon="-121.961037">
        <ele>246.4</ele>
        <time>2014-08-15T00:13:57Z</time>
        <sat>7</sat>
      </trkpt>
      <trkpt lat="47.159667" lon="-121.960890">
        <ele>246.2</ele>
        <time>2014-08-15T00:13:59Z</time>
        <sat>7</sat>
      </trkpt>
      <trkpt lat="47.159604" lon="-121.960737">
        <ele>246.2</ele>
        <time>2014-08-15T00:14:02Z</time>
        <sat>7</sat>
      </trkpt>
      <trkpt lat="47.159562" lon="-121.960610">
        <ele>245.9</ele>
        <time>2014-08-15T00:14:04Z</time>
        <sat>7</sat>
      </trkpt>
      <trkpt lat="47.159497" lon="-121.960437">
        <ele>245.9</ele>
        <time>2014-08-15T00:14:07Z</time>
        <sat>7</sat>
      </trkpt>
      <trkpt lat="47.159442" lon="-121.960266">
        <ele>245.8</ele>
        <time>2014-08-15T00:14:09Z</time>
        <sat>7</sat>
      </trkpt>
      <trkpt lat="47.159387" lon="-121.960160">
        <ele>245.8</ele>
        <time>2014-08-15T00:14:11Z</time>
        <sat>7</sat>
      </trkpt>
      <trkpt lat="47.159318" lon="-121.960023">
        <ele>245.8</ele>
        <time>2014-08-15T00:14:14Z</time>
        <sat>7</sat>
      </trkpt>
      <trkpt lat="47.159245" lon="-121.959881">
        <ele>245.7</ele>
        <time>2014-08-15T00:14:17Z</time>
        <sat>7</sat>
      </trkpt>
      <trkpt lat="47.159177" lon="-121.959737">
        <ele>246.0</ele>
        <time>2014-08-15T00:14:20Z</time>
        <sat>7</sat>
      </trkpt>
      <trkpt lat="47.159110" lon="-121.959576">
        <ele>246.1</ele>
        <time>2014-08-15T00:14:23Z</time>
        <sat>7</sat>
      </trkpt>
      <trkpt lat="47.159055" lon="-121.959440">
        <ele>246.1</ele>
        <time>2014-08-15T00:14:26Z</time>
        <sat>7</sat>
      </trkpt>
      <trkpt lat="47.158983" lon="-121.959261">
        <ele>246.2</ele>
        <time>2014-08-15T00:14:29Z</time>
        <sat>7</sat>
      </trkpt>
      <trkpt lat="47.158983" lon="-121.959090">
        <ele>246.3</ele>
        <time>2014-08-15T00:14:31Z</time>
        <sat>7</sat>
      </trkpt>
      <trkpt lat="47.158917" lon="-121.958960">
        <ele>246.2</ele>
        <time>2014-08-15T00:14:33Z</time>
        <sat>7</sat>
      </trkpt>
      <trkpt lat="47.158860" lon="-121.958810">
        <ele>246.1</ele>
        <time>2014-08-15T00:14:35Z</time>
        <sat>7</sat>
      </trkpt>
      <trkpt lat="47.158810" lon="-121.958666">
        <ele>245.7</ele>
        <time>2014-08-15T00:14:37Z</time>
        <sat>7</sat>
      </trkpt>
      <trkpt lat="47.158778" lon="-121.958540">
        <ele>245.5</ele>
        <time>2014-08-15T00:14:39Z</time>
        <sat>7</sat>
      </trkpt>
      <trkpt lat="47.158717" lon="-121.958407">
        <ele>245.4</ele>
        <time>2014-08-15T00:14:41Z</time>
        <sat>7</sat>
      </trkpt>
      <trkpt lat="47.158667" lon="-121.958275">
        <ele>245.4</ele>
        <time>2014-08-15T00:14:43Z</time>
        <sat>7</sat>
      </trkpt>
      <trkpt lat="47.158617" lon="-121.958158">
        <ele>245.4</ele>
        <time>2014-08-15T00:14:45Z</time>
        <sat>7</sat>
      </trkpt>
      <trkpt lat="47.158548" lon="-121.958001">
        <ele>245.7</ele>
        <time>2014-08-15T00:14:48Z</time>
        <sat>7</sat>
      </trkpt>
      <trkpt lat="47.158472" lon="-121.957861">
        <ele>245.8</ele>
        <time>2014-08-15T00:14:51Z</time>
        <sat>7</sat>
      </trkpt>
      <trkpt lat="47.158410" lon="-121.957740">
        <ele>246.1</ele>
        <time>2014-08-15T00:14:54Z</time>
        <sat>7</sat>
      </trkpt>
      <trkpt lat="47.158374" lon="-121.957610">
        <ele>247.0</ele>
        <time>2014-08-15T00:14:57Z</time>
        <sat>7</sat>
      </trkpt>
      <trkpt lat="47.158347" lon="-121.957482">
        <ele>248.0</ele>
        <time>2014-08-15T00:15:02Z</time>
        <sat>7</sat>
      </trkpt>
      <trkpt lat="47.158085" lon="-121.956283">
        <ele>260.0</ele>
        <time>2014-08-15T00:16:09Z</time>
        <sat>7</sat>
      </trkpt>
      <trkpt lat="47.158045" lon="-121.956103">
        <ele>261.5</ele>
        <time>2014-08-15T00:16:14Z</time>
        <sat>7</sat>
      </trkpt>
      <trkpt lat="47.157995" lon="-121.955968">
        <ele>262.9</ele>
        <time>2014-08-15T00:16:20Z</time>
        <sat>7</sat>
      </trkpt>
      <trkpt lat="47.157970" lon="-121.955812">
        <ele>263.7</ele>
        <time>2014-08-15T00:16:24Z</time>
        <sat>7</sat>
      </trkpt>
      <trkpt lat="47.157940" lon="-121.955687">
        <ele>264.0</ele>
        <time>2014-08-15T00:16:27Z</time>
        <sat>7</sat>
      </trkpt>
      <trkpt lat="47.157947" lon="-121.955528">
        <ele>264.2</ele>
        <time>2014-08-15T00:16:31Z</time>
        <sat>7</sat>
      </trkpt>
      <trkpt lat="47.157968" lon="-121.955388">
        <ele>264.3</ele>
        <time>2014-08-15T00:16:35Z</time>
        <sat>7</sat>
      </trkpt>
      <trkpt lat="47.158022" lon="-121.955278">
        <ele>264.2</ele>
        <time>2014-08-15T00:16:38Z</time>
        <sat>7</sat>
      </trkpt>
      <trkpt lat="47.158075" lon="-121.955170">
        <ele>263.9</ele>
        <time>2014-08-15T00:16:41Z</time>
        <sat>7</sat>
      </trkpt>
      <trkpt lat="47.158177" lon="-121.955050">
        <ele>264.1</ele>
        <time>2014-08-15T00:16:45Z</time>
        <sat>7</sat>
      </trkpt>
      <trkpt lat="47.158237" lon="-121.954940">
        <ele>264.2</ele>
        <time>2014-08-15T00:16:48Z</time>
        <sat>7</sat>
      </trkpt>
      <trkpt lat="47.158305" lon="-121.954837">
        <ele>264.5</ele>
        <time>2014-08-15T00:16:51Z</time>
        <sat>7</sat>
      </trkpt>
      <trkpt lat="47.158362" lon="-121.954715">
        <ele>264.8</ele>
        <time>2014-08-15T00:16:54Z</time>
        <sat>7</sat>
      </trkpt>
      <trkpt lat="47.158427" lon="-121.954597">
        <ele>265.1</ele>
        <time>2014-08-15T00:16:57Z</time>
        <sat>7</sat>
      </trkpt>
      <trkpt lat="47.158475" lon="-121.954482">
        <ele>265.7</ele>
        <time>2014-08-15T00:17:00Z</time>
        <sat>7</sat>
      </trkpt>
      <trkpt lat="47.158522" lon="-121.954363">
        <ele>266.0</ele>
        <time>2014-08-15T00:17:03Z</time>
        <sat>7</sat>
      </trkpt>
      <trkpt lat="47.158607" lon="-121.954262">
        <ele>266.4</ele>
        <time>2014-08-15T00:17:06Z</time>
        <sat>7</sat>
      </trkpt>
      <trkpt lat="47.158660" lon="-121.954143">
        <ele>266.7</ele>
        <time>2014-08-15T00:17:09Z</time>
        <sat>7</sat>
      </trkpt>
      <trkpt lat="47.158725" lon="-121.954032">
        <ele>266.6</ele>
        <time>2014-08-15T00:17:12Z</time>
        <sat>7</sat>
      </trkpt>
      <trkpt lat="47.158780" lon="-121.953920">
        <ele>266.8</ele>
        <time>2014-08-15T00:17:15Z</time>
        <sat>7</sat>
      </trkpt>
      <trkpt lat="47.158824" lon="-121.953803">
        <ele>267.1</ele>
        <time>2014-08-15T00:17:18Z</time>
        <sat>7</sat>
      </trkpt>
      <trkpt lat="47.158853" lon="-121.953646">
        <ele>267.3</ele>
        <time>2014-08-15T00:17:22Z</time>
        <sat>7</sat>
      </trkpt>
      <trkpt lat="47.158857" lon="-121.953505">
        <ele>268.2</ele>
        <time>2014-08-15T00:17:26Z</time>
        <sat>7</sat>
      </trkpt>
      <trkpt lat="47.158843" lon="-121.953340">
        <ele>269.6</ele>
        <time>2014-08-15T00:17:31Z</time>
        <sat>7</sat>
      </trkpt>
      <trkpt lat="47.158825" lon="-121.953193">
        <ele>269.8</ele>
        <time>2014-08-15T00:17:35Z</time>
        <sat>7</sat>
      </trkpt>
      <trkpt lat="47.158865" lon="-121.953053">
        <ele>270.4</ele>
        <time>2014-08-15T00:17:40Z</time>
        <sat>7</sat>
      </trkpt>
      <trkpt lat="47.158900" lon="-121.952908">
        <ele>271.7</ele>
        <time>2014-08-15T00:17:46Z</time>
        <sat>7</sat>
      </trkpt>
      <trkpt lat="47.158822" lon="-121.952783">
        <ele>272.4</ele>
        <time>2014-08-15T00:17:50Z</time>
        <sat>7</sat>
      </trkpt>
      <trkpt lat="47.158728" lon="-121.952667">
        <ele>273.1</ele>
        <time>2014-08-15T00:17:53Z</time>
        <sat>7</sat>
      </trkpt>
      <trkpt lat="47.158652" lon="-121.952548">
        <ele>273.7</ele>
        <time>2014-08-15T00:17:56Z</time>
        <sat>7</sat>
      </trkpt>
      <trkpt lat="47.158584" lon="-121.952441">
        <ele>274.5</ele>
        <time>2014-08-15T00:18:00Z</time>
        <sat>7</sat>
      </trkpt>
      <trkpt lat="47.158545" lon="-121.952315">
        <ele>275.3</ele>
        <time>2014-08-15T00:18:05Z</time>
        <sat>7</sat>
      </trkpt>
      <trkpt lat="47.158510" lon="-121.952181">
        <ele>276.0</ele>
        <time>2014-08-15T00:18:09Z</time>
        <sat>7</sat>
      </trkpt>
      <trkpt lat="47.158480" lon="-121.952048">
        <ele>277.3</ele>
        <time>2014-08-15T00:18:14Z</time>
        <sat>7</sat>
      </trkpt>
      <trkpt lat="47.158407" lon="-121.951913">
        <ele>277.9</ele>
        <time>2014-08-15T00:18:18Z</time>
        <sat>7</sat>
      </trkpt>
      <trkpt lat="47.158367" lon="-121.951793">
        <ele>278.7</ele>
        <time>2014-08-15T00:18:22Z</time>
        <sat>7</sat>
      </trkpt>
      <trkpt lat="47.158318" lon="-121.951677">
        <ele>279.4</ele>
        <time>2014-08-15T00:18:26Z</time>
        <sat>7</sat>
      </trkpt>
      <trkpt lat="47.158267" lon="-121.951548">
        <ele>279.8</ele>
        <time>2014-08-15T00:18:30Z</time>
        <sat>7</sat>
      </trkpt>
      <trkpt lat="47.158235" lon="-121.951415">
        <ele>280.6</ele>
        <time>2014-08-15T00:18:35Z</time>
        <sat>7</sat>
      </trkpt>
      <trkpt lat="47.158192" lon="-121.951288">
        <ele>281.9</ele>
        <time>2014-08-15T00:18:40Z</time>
        <sat>7</sat>
      </trkpt>
      <trkpt lat="47.158198" lon="-121.951135">
        <ele>283.0</ele>
        <time>2014-08-15T00:18:46Z</time>
        <sat>7</sat>
      </trkpt>
      <trkpt lat="47.158202" lon="-121.950990">
        <ele>283.9</ele>
        <time>2014-08-15T00:18:53Z</time>
        <sat>6</sat>
      </trkpt>
      <trkpt lat="47.158202" lon="-121.950840">
        <ele>285.2</ele>
        <time>2014-08-15T00:18:59Z</time>
        <sat>6</sat>
      </trkpt>
      <trkpt lat="47.158232" lon="-121.950710">
        <ele>285.7</ele>
        <time>2014-08-15T00:19:07Z</time>
        <sat>6</sat>
      </trkpt>
      <trkpt lat="47.158140" lon="-121.950638">
        <ele>286.2</ele>
        <time>2014-08-15T00:19:36Z</time>
        <sat>6</sat>
      </trkpt>
      <trkpt lat="47.158080" lon="-121.950495">
        <ele>286.2</ele>
        <time>2014-08-15T00:19:42Z</time>
        <sat>6</sat>
      </trkpt>
      <trkpt lat="47.158045" lon="-121.950360">
        <ele>286.3</ele>
        <time>2014-08-15T00:19:47Z</time>
        <sat>6</sat>
      </trkpt>
      <trkpt lat="47.158127" lon="-121.950262">
        <ele>286.7</ele>
        <time>2014-08-15T00:19:53Z</time>
        <sat>6</sat>
      </trkpt>
      <trkpt lat="47.158232" lon="-121.950286">
        <ele>287.2</ele>
        <time>2014-08-15T00:19:57Z</time>
        <sat>6</sat>
      </trkpt>
      <trkpt lat="47.158332" lon="-121.950342">
        <ele>287.7</ele>
        <time>2014-08-15T00:20:01Z</time>
        <sat>6</sat>
      </trkpt>
      <trkpt lat="47.158437" lon="-121.950391">
        <ele>287.7</ele>
        <time>2014-08-15T00:20:04Z</time>
        <sat>6</sat>
      </trkpt>
      <trkpt lat="47.158520" lon="-121.950468">
        <ele>288.2</ele>
        <time>2014-08-15T00:20:08Z</time>
        <sat>6</sat>
      </trkpt>
      <trkpt lat="47.158902" lon="-121.950589">
        <ele>288.0</ele>
        <time>2014-08-15T00:20:13Z</time>
        <sat>6</sat>
      </trkpt>
      <trkpt lat="47.158807" lon="-121.950611">
        <ele>289.2</ele>
        <time>2014-08-15T00:20:18Z</time>
        <sat>6</sat>
      </trkpt>
      <trkpt lat="47.158700" lon="-121.950618">
        <ele>289.8</ele>
        <time>2014-08-15T00:20:23Z</time>
        <sat>6</sat>
      </trkpt>
      <trkpt lat="47.158609" lon="-121.950618">
        <ele>290.3</ele>
        <time>2014-08-15T00:20:27Z</time>
        <sat>6</sat>
      </trkpt>
      <trkpt lat="47.158492" lon="-121.950630">
        <ele>290.9</ele>
        <time>2014-08-15T00:20:32Z</time>
        <sat>6</sat>
      </trkpt>
      <trkpt lat="47.158382" lon="-121.950583">
        <ele>291.7</ele>
        <time>2014-08-15T00:20:36Z</time>
        <sat>6</sat>
      </trkpt>
      <trkpt lat="47.158282" lon="-121.950567">
        <ele>292.1</ele>
        <time>2014-08-15T00:20:40Z</time>
        <sat>6</sat>
      </trkpt>
      <trkpt lat="47.158183" lon="-121.950552">
        <ele>292.6</ele>
        <time>2014-08-15T00:20:44Z</time>
        <sat>6</sat>
      </trkpt>
      <trkpt lat="47.158090" lon="-121.950573">
        <ele>292.8</ele>
        <time>2014-08-15T00:20:48Z</time>
        <sat>6</sat>
      </trkpt>
      <trkpt lat="47.157998" lon="-121.950511">
        <ele>293.3</ele>
        <time>2014-08-15T00:20:52Z</time>
        <sat>6</sat>
      </trkpt>
      <trkpt lat="47.157929" lon="-121.950600">
        <ele>293.8</ele>
        <time>2014-08-15T00:22:09Z</time>
        <sat>6</sat>
      </trkpt>
      <trkpt lat="47.157860" lon="-121.950506">
        <ele>293.5</ele>
        <time>2014-08-15T00:23:07Z</time>
        <sat>6</sat>
      </trkpt>
      <trkpt lat="47.157757" lon="-121.950467">
        <ele>294.2</ele>
        <time>2014-08-15T00:23:15Z</time>
        <sat>6</sat>
      </trkpt>
      <trkpt lat="47.157665" lon="-121.950460">
        <ele>294.6</ele>
        <time>2014-08-15T00:23:20Z</time>
        <sat>6</sat>
      </trkpt>
      <trkpt lat="47.157575" lon="-121.950455">
        <ele>295.3</ele>
        <time>2014-08-15T00:23:26Z</time>
        <sat>6</sat>
      </trkpt>
      <trkpt lat="47.157487" lon="-121.950510">
        <ele>295.5</ele>
        <time>2014-08-15T00:24:36Z</time>
        <sat>5</sat>
      </trkpt>
      <trkpt lat="47.157389" lon="-121.950501">
        <ele>295.5</ele>
        <time>2014-08-15T00:24:43Z</time>
        <sat>5</sat>
      </trkpt>
      <trkpt lat="47.157297" lon="-121.950493">
        <ele>295.5</ele>
        <time>2014-08-15T00:24:49Z</time>
        <sat>5</sat>
      </trkpt>
      <trkpt lat="47.157203" lon="-121.950543">
        <ele>295.8</ele>
        <time>2014-08-15T00:24:58Z</time>
        <sat>5</sat>
      </trkpt>
      <trkpt lat="47.157110" lon="-121.950568">
        <ele>295.8</ele>
        <time>2014-08-15T00:25:05Z</time>
        <sat>5</sat>
      </trkpt>
      <trkpt lat="47.157014" lon="-121.950585">
        <ele>295.6</ele>
        <time>2014-08-15T00:25:09Z</time>
        <sat>5</sat>
      </trkpt>
      <trkpt lat="47.156927" lon="-121.950631">
        <ele>295.4</ele>
        <time>2014-08-15T00:25:13Z</time>
        <sat>5</sat>
      </trkpt>
      <trkpt lat="47.156830" lon="-121.950640">
        <ele>295.1</ele>
        <time>2014-08-15T00:25:18Z</time>
        <sat>5</sat>
      </trkpt>
      <trkpt lat="47.156742" lon="-121.950667">
        <ele>294.9</ele>
        <time>2014-08-15T00:25:23Z</time>
        <sat>5</sat>
      </trkpt>
      <trkpt lat="47.156815" lon="-121.950585">
        <ele>295.2</ele>
        <time>2014-08-15T00:25:33Z</time>
        <sat>5</sat>
      </trkpt>
      <trkpt lat="47.156892" lon="-121.950677">
        <ele>295.3</ele>
        <time>2014-08-15T00:25:37Z</time>
        <sat>5</sat>
      </trkpt>
      <trkpt lat="47.156975" lon="-121.950755">
        <ele>295.5</ele>
        <time>2014-08-15T00:25:41Z</time>
        <sat>5</sat>
      </trkpt>
      <trkpt lat="47.156872" lon="-121.950730">
        <ele>295.5</ele>
        <time>2014-08-15T00:25:58Z</time>
        <sat>5</sat>
      </trkpt>
      <trkpt lat="47.156750" lon="-121.950678">
        <ele>295.5</ele>
        <time>2014-08-15T00:26:01Z</time>
        <sat>5</sat>
      </trkpt>
      <trkpt lat="47.156617" lon="-121.950588">
        <ele>295.4</ele>
        <time>2014-08-15T00:26:05Z</time>
        <sat>5</sat>
      </trkpt>
      <trkpt lat="47.156527" lon="-121.950525">
        <ele>295.5</ele>
        <time>2014-08-15T00:26:07Z</time>
        <sat>5</sat>
      </trkpt>
      <trkpt lat="47.156940" lon="-121.950753">
        <ele>295.0</ele>
        <time>2014-08-15T00:26:16Z</time>
        <sat>5</sat>
      </trkpt>
      <trkpt lat="47.157047" lon="-121.950851">
        <ele>295.0</ele>
        <time>2014-08-15T00:26:43Z</time>
        <sat>5</sat>
      </trkpt>
      <trkpt lat="47.157142" lon="-121.950886">
        <ele>295.5</ele>
        <time>2014-08-15T00:26:52Z</time>
        <sat>5</sat>
      </trkpt>
      <trkpt lat="47.157218" lon="-121.951005">
        <ele>295.5</ele>
        <time>2014-08-15T00:26:58Z</time>
        <sat>5</sat>
      </trkpt>
      <trkpt lat="47.157124" lon="-121.950968">
        <ele>295.2</ele>
        <time>2014-08-15T00:28:05Z</time>
        <sat>5</sat>
      </trkpt>
      <trkpt lat="47.157019" lon="-121.950997">
        <ele>295.1</ele>
        <time>2014-08-15T00:28:09Z</time>
        <sat>5</sat>
      </trkpt>
      <trkpt lat="47.156920" lon="-121.951025">
        <ele>294.7</ele>
        <time>2014-08-15T00:28:12Z</time>
        <sat>5</sat>
      </trkpt>
      <trkpt lat="47.156797" lon="-121.951081">
        <ele>294.3</ele>
        <time>2014-08-15T00:28:15Z</time>
        <sat>5</sat>
      </trkpt>
      <trkpt lat="47.156672" lon="-121.951120">
        <ele>294.2</ele>
        <time>2014-08-15T00:28:18Z</time>
        <sat>5</sat>
      </trkpt>
      <trkpt lat="47.156570" lon="-121.951157">
        <ele>294.0</ele>
        <time>2014-08-15T00:28:21Z</time>
        <sat>5</sat>
      </trkpt>
      <trkpt lat="47.156462" lon="-121.951176">
        <ele>294.6</ele>
        <time>2014-08-15T00:28:25Z</time>
        <sat>5</sat>
      </trkpt>
      <trkpt lat="47.156359" lon="-121.951132">
        <ele>295.2</ele>
        <time>2014-08-15T00:28:29Z</time>
        <sat>5</sat>
      </trkpt>
      <trkpt lat="47.156269" lon="-121.951120">
        <ele>295.9</ele>
        <time>2014-08-15T00:28:33Z</time>
        <sat>5</sat>
      </trkpt>
      <trkpt lat="47.156162" lon="-121.951070">
        <ele>296.1</ele>
        <time>2014-08-15T00:28:38Z</time>
        <sat>5</sat>
      </trkpt>
      <trkpt lat="47.156060" lon="-121.950988">
        <ele>296.7</ele>
        <time>2014-08-15T00:28:43Z</time>
        <sat>5</sat>
      </trkpt>
      <trkpt lat="47.155972" lon="-121.950933">
        <ele>297.4</ele>
        <time>2014-08-15T00:28:47Z</time>
        <sat>5</sat>
      </trkpt>
      <trkpt lat="47.155904" lon="-121.950840">
        <ele>297.9</ele>
        <time>2014-08-15T00:28:51Z</time>
        <sat>5</sat>
      </trkpt>
      <trkpt lat="47.155840" lon="-121.950706">
        <ele>298.4</ele>
        <time>2014-08-15T00:28:55Z</time>
        <sat>5</sat>
      </trkpt>
      <trkpt lat="47.155780" lon="-121.950577">
        <ele>299.1</ele>
        <time>2014-08-15T00:28:59Z</time>
        <sat>5</sat>
      </trkpt>
      <trkpt lat="47.155730" lon="-121.950463">
        <ele>299.7</ele>
        <time>2014-08-15T00:29:04Z</time>
        <sat>5</sat>
      </trkpt>
      <trkpt lat="47.155665" lon="-121.950360">
        <ele>300.5</ele>
        <time>2014-08-15T00:29:09Z</time>
        <sat>5</sat>
      </trkpt>
      <trkpt lat="47.155587" lon="-121.950288">
        <ele>300.9</ele>
        <time>2014-08-15T00:29:13Z</time>
        <sat>5</sat>
      </trkpt>
      <trkpt lat="47.155487" lon="-121.950210">
        <ele>301.2</ele>
        <time>2014-08-15T00:29:18Z</time>
        <sat>5</sat>
      </trkpt>
      <trkpt lat="47.155390" lon="-121.950148">
        <ele>301.3</ele>
        <time>2014-08-15T00:29:22Z</time>
        <sat>5</sat>
      </trkpt>
      <trkpt lat="47.155300" lon="-121.950142">
        <ele>301.5</ele>
        <time>2014-08-15T00:29:25Z</time>
        <sat>5</sat>
      </trkpt>
      <trkpt lat="47.155178" lon="-121.950142">
        <ele>301.9</ele>
        <time>2014-08-15T00:29:29Z</time>
        <sat>5</sat>
      </trkpt>
      <trkpt lat="47.155085" lon="-121.950137">
        <ele>302.3</ele>
        <time>2014-08-15T00:29:32Z</time>
        <sat>5</sat>
      </trkpt>
      <trkpt lat="47.154995" lon="-121.950128">
        <ele>302.5</ele>
        <time>2014-08-15T00:29:35Z</time>
        <sat>5</sat>
      </trkpt>
      <trkpt lat="47.154872" lon="-121.950098">
        <ele>302.9</ele>
        <time>2014-08-15T00:29:39Z</time>
        <sat>5</sat>
      </trkpt>
      <trkpt lat="47.154750" lon="-121.950065">
        <ele>303.0</ele>
        <time>2014-08-15T00:29:42Z</time>
        <sat>5</sat>
      </trkpt>
      <trkpt lat="47.154650" lon="-121.950033">
        <ele>303.4</ele>
        <time>2014-08-15T00:29:46Z</time>
        <sat>5</sat>
      </trkpt>
      <trkpt lat="47.154540" lon="-121.949990">
        <ele>303.5</ele>
        <time>2014-08-15T00:29:50Z</time>
        <sat>5</sat>
      </trkpt>
      <trkpt lat="47.154457" lon="-121.949915">
        <ele>303.7</ele>
        <time>2014-08-15T00:29:53Z</time>
        <sat>5</sat>
      </trkpt>
      <trkpt lat="47.154372" lon="-121.949838">
        <ele>303.9</ele>
        <time>2014-08-15T00:29:57Z</time>
        <sat>5</sat>
      </trkpt>
      <trkpt lat="47.154305" lon="-121.949740">
        <ele>304.0</ele>
        <time>2014-08-15T00:30:00Z</time>
        <sat>4</sat>
      </trkpt>
      <trkpt lat="47.154234" lon="-121.949606">
        <ele>304.3</ele>
        <time>2014-08-15T00:30:04Z</time>
        <sat>5</sat>
      </trkpt>
      <trkpt lat="47.154165" lon="-121.949515">
        <ele>304.3</ele>
        <time>2014-08-15T00:30:06Z</time>
        <sat>5</sat>
      </trkpt>
      <trkpt lat="47.154087" lon="-121.949396">
        <ele>304.0</ele>
        <time>2014-08-15T00:30:08Z</time>
        <sat>4</sat>
      </trkpt>
      <trkpt lat="47.154015" lon="-121.949286">
        <ele>304.9</ele>
        <time>2014-08-15T00:30:11Z</time>
        <sat>5</sat>
      </trkpt>
      <trkpt lat="47.153927" lon="-121.949158">
        <ele>305.1</ele>
        <time>2014-08-15T00:30:14Z</time>
        <sat>5</sat>
      </trkpt>
      <trkpt lat="47.153830" lon="-121.949040">
        <ele>305.1</ele>
        <time>2014-08-15T00:30:17Z</time>
        <sat>5</sat>
      </trkpt>
      <trkpt lat="47.153740" lon="-121.948932">
        <ele>305.2</ele>
        <time>2014-08-15T00:30:20Z</time>
        <sat>5</sat>
      </trkpt>
      <trkpt lat="47.153665" lon="-121.948843">
        <ele>305.2</ele>
        <time>2014-08-15T00:30:24Z</time>
        <sat>5</sat>
      </trkpt>
      <trkpt lat="47.153544" lon="-121.948820">
        <ele>305.4</ele>
        <time>2014-08-15T00:30:28Z</time>
        <sat>5</sat>
      </trkpt>
      <trkpt lat="47.153365" lon="-121.948779">
        <ele>305.0</ele>
        <time>2014-08-15T00:30:31Z</time>
        <sat>4</sat>
      </trkpt>
      <trkpt lat="47.153265" lon="-121.948783">
        <ele>306.0</ele>
        <time>2014-08-15T00:30:35Z</time>
        <sat>5</sat>
      </trkpt>
      <trkpt lat="47.153168" lon="-121.948782">
        <ele>306.9</ele>
        <time>2014-08-15T00:30:41Z</time>
        <sat>5</sat>
      </trkpt>
      <trkpt lat="47.153078" lon="-121.948770">
        <ele>307.6</ele>
        <time>2014-08-15T00:30:46Z</time>
        <sat>5</sat>
      </trkpt>
      <trkpt lat="47.152960" lon="-121.948689">
        <ele>308.0</ele>
        <time>2014-08-15T00:30:51Z</time>
        <sat>4</sat>
      </trkpt>
      <trkpt lat="47.152860" lon="-121.948637">
        <ele>309.3</ele>
        <time>2014-08-15T00:30:55Z</time>
        <sat>5</sat>
      </trkpt>
      <trkpt lat="47.152724" lon="-121.948567">
        <ele>309.0</ele>
        <time>2014-08-15T00:30:59Z</time>
        <sat>4</sat>
      </trkpt>
      <trkpt lat="47.152637" lon="-121.948528">
        <ele>310.3</ele>
        <time>2014-08-15T00:31:03Z</time>
        <sat>5</sat>
      </trkpt>
      <trkpt lat="47.152549" lon="-121.948475">
        <ele>311.1</ele>
        <time>2014-08-15T00:31:08Z</time>
        <sat>5</sat>
      </trkpt>
      <trkpt lat="47.152444" lon="-121.948401">
        <ele>311.7</ele>
        <time>2014-08-15T00:31:12Z</time>
        <sat>5</sat>
      </trkpt>
      <trkpt lat="47.152354" lon="-121.948350">
        <ele>311.7</ele>
        <time>2014-08-15T00:31:15Z</time>
        <sat>5</sat>
      </trkpt>
      <trkpt lat="47.152190" lon="-121.948241">
        <ele>312.0</ele>
        <time>2014-08-15T00:31:19Z</time>
        <sat>4</sat>
      </trkpt>
      <trkpt lat="47.152105" lon="-121.948180">
        <ele>312.3</ele>
        <time>2014-08-15T00:31:22Z</time>
        <sat>5</sat>
      </trkpt>
      <trkpt lat="47.151962" lon="-121.948017">
        <ele>312.7</ele>
        <time>2014-08-15T00:31:25Z</time>
        <sat>5</sat>
      </trkpt>
      <trkpt lat="47.151872" lon="-121.947913">
        <ele>312.7</ele>
        <time>2014-08-15T00:31:27Z</time>
        <sat>5</sat>
      </trkpt>
      <trkpt lat="47.151770" lon="-121.947835">
        <ele>313.1</ele>
        <time>2014-08-15T00:31:31Z</time>
        <sat>6</sat>
      </trkpt>
      <trkpt lat="47.151692" lon="-121.947748">
        <ele>313.3</ele>
        <time>2014-08-15T00:31:33Z</time>
        <sat>6</sat>
      </trkpt>
      <trkpt lat="47.151645" lon="-121.947615">
        <ele>313.4</ele>
        <time>2014-08-15T00:31:37Z</time>
        <sat>6</sat>
      </trkpt>
      <trkpt lat="47.151733" lon="-121.947588">
        <ele>313.0</ele>
        <time>2014-08-15T00:31:42Z</time>
        <sat>6</sat>
      </trkpt>
      <trkpt lat="47.151827" lon="-121.947643">
        <ele>312.8</ele>
        <time>2014-08-15T00:31:46Z</time>
        <sat>6</sat>
      </trkpt>
      <trkpt lat="47.151935" lon="-121.947698">
        <ele>312.5</ele>
        <time>2014-08-15T00:31:50Z</time>
        <sat>6</sat>
      </trkpt>
      <trkpt lat="47.152015" lon="-121.947621">
        <ele>311.8</ele>
        <time>2014-08-15T00:31:55Z</time>
        <sat>5</sat>
      </trkpt>
      <trkpt lat="47.152105" lon="-121.947582">
        <ele>311.6</ele>
        <time>2014-08-15T00:32:00Z</time>
        <sat>6</sat>
      </trkpt>
      <trkpt lat="47.152177" lon="-121.947491">
        <ele>311.4</ele>
        <time>2014-08-15T00:32:04Z</time>
        <sat>6</sat>
      </trkpt>
      <trkpt lat="47.152267" lon="-121.947385">
        <ele>311.0</ele>
        <time>2014-08-15T00:32:08Z</time>
        <sat>6</sat>
      </trkpt>
      <trkpt lat="47.152350" lon="-121.947307">
        <ele>310.5</ele>
        <time>2014-08-15T00:32:11Z</time>
        <sat>6</sat>
      </trkpt>
      <trkpt lat="47.152449" lon="-121.947195">
        <ele>310.0</ele>
        <time>2014-08-15T00:32:15Z</time>
        <sat>6</sat>
      </trkpt>
      <trkpt lat="47.152545" lon="-121.947136">
        <ele>309.9</ele>
        <time>2014-08-15T00:32:18Z</time>
        <sat>6</sat>
      </trkpt>
      <trkpt lat="47.152632" lon="-121.947051">
        <ele>309.7</ele>
        <time>2014-08-15T00:32:21Z</time>
        <sat>6</sat>
      </trkpt>
      <trkpt lat="47.152720" lon="-121.946967">
        <ele>309.6</ele>
        <time>2014-08-15T00:32:24Z</time>
        <sat>6</sat>
      </trkpt>
      <trkpt lat="47.152799" lon="-121.946873">
        <ele>309.4</ele>
        <time>2014-08-15T00:32:27Z</time>
        <sat>6</sat>
      </trkpt>
      <trkpt lat="47.152868" lon="-121.946777">
        <ele>308.9</ele>
        <time>2014-08-15T00:32:30Z</time>
        <sat>6</sat>
      </trkpt>
      <trkpt lat="47.152947" lon="-121.946703">
        <ele>308.9</ele>
        <time>2014-08-15T00:32:33Z</time>
        <sat>6</sat>
      </trkpt>
      <trkpt lat="47.153043" lon="-121.946600">
        <ele>308.6</ele>
        <time>2014-08-15T00:32:37Z</time>
        <sat>6</sat>
      </trkpt>
      <trkpt lat="47.153137" lon="-121.946505">
        <ele>308.3</ele>
        <time>2014-08-15T00:32:40Z</time>
        <sat>6</sat>
      </trkpt>
      <trkpt lat="47.153222" lon="-121.946396">
        <ele>308.2</ele>
        <time>2014-08-15T00:32:43Z</time>
        <sat>6</sat>
      </trkpt>
      <trkpt lat="47.153310" lon="-121.946285">
        <ele>308.1</ele>
        <time>2014-08-15T00:32:46Z</time>
        <sat>6</sat>
      </trkpt>
      <trkpt lat="47.153393" lon="-121.946166">
        <ele>308.0</ele>
        <time>2014-08-15T00:32:49Z</time>
        <sat>6</sat>
      </trkpt>
      <trkpt lat="47.153462" lon="-121.946027">
        <ele>308.0</ele>
        <time>2014-08-15T00:32:52Z</time>
        <sat>6</sat>
      </trkpt>
      <trkpt lat="47.153550" lon="-121.945893">
        <ele>308.0</ele>
        <time>2014-08-15T00:32:55Z</time>
        <sat>6</sat>
      </trkpt>
      <trkpt lat="47.153640" lon="-121.945823">
        <ele>308.1</ele>
        <time>2014-08-15T00:32:57Z</time>
        <sat>6</sat>
      </trkpt>
      <trkpt lat="47.153720" lon="-121.945762">
        <ele>308.0</ele>
        <time>2014-08-15T00:32:59Z</time>
        <sat>6</sat>
      </trkpt>
      <trkpt lat="47.153827" lon="-121.945655">
        <ele>307.8</ele>
        <time>2014-08-15T00:33:02Z</time>
        <sat>6</sat>
      </trkpt>
      <trkpt lat="47.153909" lon="-121.945532">
        <ele>307.6</ele>
        <time>2014-08-15T00:33:05Z</time>
        <sat>6</sat>
      </trkpt>
      <trkpt lat="47.153995" lon="-121.945465">
        <ele>307.5</ele>
        <time>2014-08-15T00:33:07Z</time>
        <sat>6</sat>
      </trkpt>
      <trkpt lat="47.154095" lon="-121.945345">
        <ele>307.4</ele>
        <time>2014-08-15T00:33:10Z</time>
        <sat>6</sat>
      </trkpt>
      <trkpt lat="47.154173" lon="-121.945248">
        <ele>307.3</ele>
        <time>2014-08-15T00:33:12Z</time>
        <sat>6</sat>
      </trkpt>
      <trkpt lat="47.154255" lon="-121.945108">
        <ele>307.4</ele>
        <time>2014-08-15T00:33:15Z</time>
        <sat>6</sat>
      </trkpt>
      <trkpt lat="47.154355" lon="-121.945002">
        <ele>307.6</ele>
        <time>2014-08-15T00:33:18Z</time>
        <sat>6</sat>
      </trkpt>
      <trkpt lat="47.154449" lon="-121.944885">
        <ele>307.6</ele>
        <time>2014-08-15T00:33:21Z</time>
        <sat>6</sat>
      </trkpt>
      <trkpt lat="47.154537" lon="-121.944818">
        <ele>307.3</ele>
        <time>2014-08-15T00:33:23Z</time>
        <sat>6</sat>
      </trkpt>
      <trkpt lat="47.154625" lon="-121.944683">
        <ele>307.3</ele>
        <time>2014-08-15T00:33:26Z</time>
        <sat>6</sat>
      </trkpt>
      <trkpt lat="47.154707" lon="-121.944620">
        <ele>307.4</ele>
        <time>2014-08-15T00:33:28Z</time>
        <sat>6</sat>
      </trkpt>
      <trkpt lat="47.154807" lon="-121.944505">
        <ele>307.3</ele>
        <time>2014-08-15T00:33:31Z</time>
        <sat>6</sat>
      </trkpt>
      <trkpt lat="47.154899" lon="-121.944435">
        <ele>307.2</ele>
        <time>2014-08-15T00:33:33Z</time>
        <sat>6</sat>
      </trkpt>
      <trkpt lat="47.154985" lon="-121.944303">
        <ele>307.0</ele>
        <time>2014-08-15T00:33:36Z</time>
        <sat>6</sat>
      </trkpt>
      <trkpt lat="47.155068" lon="-121.944170">
        <ele>306.9</ele>
        <time>2014-08-15T00:33:39Z</time>
        <sat>6</sat>
      </trkpt>
      <trkpt lat="47.155222" lon="-121.944050">
        <ele>306.7</ele>
        <time>2014-08-15T00:33:42Z</time>
        <sat>6</sat>
      </trkpt>
      <trkpt lat="47.155324" lon="-121.943998">
        <ele>306.8</ele>
        <time>2014-08-15T00:33:44Z</time>
        <sat>6</sat>
      </trkpt>
      <trkpt lat="47.155417" lon="-121.943936">
        <ele>306.8</ele>
        <time>2014-08-15T00:33:46Z</time>
        <sat>6</sat>
      </trkpt>
      <trkpt lat="47.155502" lon="-121.943868">
        <ele>306.6</ele>
        <time>2014-08-15T00:33:48Z</time>
        <sat>6</sat>
      </trkpt>
      <trkpt lat="47.155592" lon="-121.943795">
        <ele>306.3</ele>
        <time>2014-08-15T00:33:50Z</time>
        <sat>6</sat>
      </trkpt>
      <trkpt lat="47.155669" lon="-121.943722">
        <ele>306.3</ele>
        <time>2014-08-15T00:33:52Z</time>
        <sat>6</sat>
      </trkpt>
      <trkpt lat="47.155743" lon="-121.943643">
        <ele>306.2</ele>
        <time>2014-08-15T00:33:54Z</time>
        <sat>6</sat>
      </trkpt>
      <trkpt lat="47.155853" lon="-121.943521">
        <ele>306.0</ele>
        <time>2014-08-15T00:33:57Z</time>
        <sat>6</sat>
      </trkpt>
      <trkpt lat="47.155932" lon="-121.943435">
        <ele>306.0</ele>
        <time>2014-08-15T00:33:59Z</time>
        <sat>6</sat>
      </trkpt>
      <trkpt lat="47.156020" lon="-121.943360">
        <ele>306.1</ele>
        <time>2014-08-15T00:34:01Z</time>
        <sat>6</sat>
      </trkpt>
      <trkpt lat="47.156120" lon="-121.943287">
        <ele>305.7</ele>
        <time>2014-08-15T00:34:03Z</time>
        <sat>6</sat>
      </trkpt>
      <trkpt lat="47.156198" lon="-121.943205">
        <ele>306.0</ele>
        <time>2014-08-15T00:34:05Z</time>
        <sat>6</sat>
      </trkpt>
      <trkpt lat="47.156303" lon="-121.943092">
        <ele>306.0</ele>
        <time>2014-08-15T00:34:08Z</time>
        <sat>6</sat>
      </trkpt>
      <trkpt lat="47.156375" lon="-121.943000">
        <ele>306.1</ele>
        <time>2014-08-15T00:34:10Z</time>
        <sat>6</sat>
      </trkpt>
      <trkpt lat="47.156494" lon="-121.942855">
        <ele>305.8</ele>
        <time>2014-08-15T00:34:13Z</time>
        <sat>6</sat>
      </trkpt>
      <trkpt lat="47.156560" lon="-121.942753">
        <ele>305.6</ele>
        <time>2014-08-15T00:34:15Z</time>
        <sat>6</sat>
      </trkpt>
      <trkpt lat="47.156615" lon="-121.942643">
        <ele>305.7</ele>
        <time>2014-08-15T00:34:17Z</time>
        <sat>6</sat>
      </trkpt>
      <trkpt lat="47.156713" lon="-121.942512">
        <ele>305.5</ele>
        <time>2014-08-15T00:34:20Z</time>
        <sat>6</sat>
      </trkpt>
      <trkpt lat="47.156810" lon="-121.942448">
        <ele>305.4</ele>
        <time>2014-08-15T00:34:22Z</time>
        <sat>6</sat>
      </trkpt>
      <trkpt lat="47.156893" lon="-121.942368">
        <ele>305.3</ele>
        <time>2014-08-15T00:34:24Z</time>
        <sat>6</sat>
      </trkpt>
      <trkpt lat="47.156987" lon="-121.942298">
        <ele>305.3</ele>
        <time>2014-08-15T00:34:26Z</time>
        <sat>6</sat>
      </trkpt>
      <trkpt lat="47.157075" lon="-121.942226">
        <ele>305.1</ele>
        <time>2014-08-15T00:34:28Z</time>
        <sat>6</sat>
      </trkpt>
      <trkpt lat="47.157160" lon="-121.942153">
        <ele>305.1</ele>
        <time>2014-08-15T00:34:30Z</time>
        <sat>6</sat>
      </trkpt>
      <trkpt lat="47.157244" lon="-121.942078">
        <ele>305.1</ele>
        <time>2014-08-15T00:34:32Z</time>
        <sat>6</sat>
      </trkpt>
      <trkpt lat="47.157328" lon="-121.942023">
        <ele>305.1</ele>
        <time>2014-08-15T00:34:34Z</time>
        <sat>6</sat>
      </trkpt>
      <trkpt lat="47.157407" lon="-121.941953">
        <ele>305.0</ele>
        <time>2014-08-15T00:34:36Z</time>
        <sat>6</sat>
      </trkpt>
      <trkpt lat="47.157515" lon="-121.941843">
        <ele>304.7</ele>
        <time>2014-08-15T00:34:39Z</time>
        <sat>6</sat>
      </trkpt>
      <trkpt lat="47.157592" lon="-121.941762">
        <ele>304.6</ele>
        <time>2014-08-15T00:34:41Z</time>
        <sat>6</sat>
      </trkpt>
      <trkpt lat="47.157672" lon="-121.941673">
        <ele>304.3</ele>
        <time>2014-08-15T00:34:43Z</time>
        <sat>6</sat>
      </trkpt>
      <trkpt lat="47.157767" lon="-121.941595">
        <ele>304.1</ele>
        <time>2014-08-15T00:34:45Z</time>
        <sat>6</sat>
      </trkpt>
      <trkpt lat="47.157863" lon="-121.941518">
        <ele>304.0</ele>
        <time>2014-08-15T00:34:47Z</time>
        <sat>6</sat>
      </trkpt>
      <trkpt lat="47.157958" lon="-121.941438">
        <ele>303.7</ele>
        <time>2014-08-15T00:34:49Z</time>
        <sat>6</sat>
      </trkpt>
      <trkpt lat="47.158049" lon="-121.941348">
        <ele>303.4</ele>
        <time>2014-08-15T00:34:51Z</time>
        <sat>6</sat>
      </trkpt>
      <trkpt lat="47.158135" lon="-121.941266">
        <ele>303.0</ele>
        <time>2014-08-15T00:34:53Z</time>
        <sat>6</sat>
      </trkpt>
      <trkpt lat="47.158222" lon="-121.941182">
        <ele>302.5</ele>
        <time>2014-08-15T00:34:55Z</time>
        <sat>6</sat>
      </trkpt>
      <trkpt lat="47.158310" lon="-121.941095">
        <ele>302.1</ele>
        <time>2014-08-15T00:34:57Z</time>
        <sat>6</sat>
      </trkpt>
      <trkpt lat="47.158405" lon="-121.941013">
        <ele>301.7</ele>
        <time>2014-08-15T00:34:59Z</time>
        <sat>6</sat>
      </trkpt>
      <trkpt lat="47.158498" lon="-121.940932">
        <ele>301.4</ele>
        <time>2014-08-15T00:35:01Z</time>
        <sat>6</sat>
      </trkpt>
      <trkpt lat="47.158580" lon="-121.940838">
        <ele>301.2</ele>
        <time>2014-08-15T00:35:03Z</time>
        <sat>6</sat>
      </trkpt>
      <trkpt lat="47.158670" lon="-121.940750">
        <ele>300.8</ele>
        <time>2014-08-15T00:35:05Z</time>
        <sat>6</sat>
      </trkpt>
      <trkpt lat="47.158752" lon="-121.940665">
        <ele>300.5</ele>
        <time>2014-08-15T00:35:07Z</time>
        <sat>6</sat>
      </trkpt>
      <trkpt lat="47.158835" lon="-121.940585">
        <ele>300.3</ele>
        <time>2014-08-15T00:35:09Z</time>
        <sat>6</sat>
      </trkpt>
      <trkpt lat="47.158919" lon="-121.940507">
        <ele>300.1</ele>
        <time>2014-08-15T00:35:11Z</time>
        <sat>6</sat>
      </trkpt>
      <trkpt lat="47.158998" lon="-121.940438">
        <ele>299.8</ele>
        <time>2014-08-15T00:35:13Z</time>
        <sat>6</sat>
      </trkpt>
      <trkpt lat="47.159105" lon="-121.940312">
        <ele>299.6</ele>
        <time>2014-08-15T00:35:16Z</time>
        <sat>6</sat>
      </trkpt>
      <trkpt lat="47.159185" lon="-121.940238">
        <ele>299.4</ele>
        <time>2014-08-15T00:35:18Z</time>
        <sat>6</sat>
      </trkpt>
      <trkpt lat="47.159295" lon="-121.940123">
        <ele>299.6</ele>
        <time>2014-08-15T00:35:21Z</time>
        <sat>6</sat>
      </trkpt>
      <trkpt lat="47.159369" lon="-121.940046">
        <ele>299.2</ele>
        <time>2014-08-15T00:35:23Z</time>
        <sat>6</sat>
      </trkpt>
      <trkpt lat="47.159447" lon="-121.939968">
        <ele>299.2</ele>
        <time>2014-08-15T00:35:25Z</time>
        <sat>5</sat>
      </trkpt>
      <trkpt lat="47.159557" lon="-121.939853">
        <ele>299.0</ele>
        <time>2014-08-15T00:35:28Z</time>
        <sat>6</sat>
      </trkpt>
      <trkpt lat="47.159630" lon="-121.939775">
        <ele>298.9</ele>
        <time>2014-08-15T00:35:30Z</time>
        <sat>5</sat>
      </trkpt>
      <trkpt lat="47.159707" lon="-121.939698">
        <ele>298.7</ele>
        <time>2014-08-15T00:35:32Z</time>
        <sat>6</sat>
      </trkpt>
      <trkpt lat="47.159805" lon="-121.939580">
        <ele>298.3</ele>
        <time>2014-08-15T00:35:35Z</time>
        <sat>6</sat>
      </trkpt>
      <trkpt lat="47.159865" lon="-121.939443">
        <ele>298.3</ele>
        <time>2014-08-15T00:35:38Z</time>
        <sat>6</sat>
      </trkpt>
      <trkpt lat="47.159977" lon="-121.939350">
        <ele>298.2</ele>
        <time>2014-08-15T00:35:41Z</time>
        <sat>5</sat>
      </trkpt>
      <trkpt lat="47.160059" lon="-121.939246">
        <ele>298.3</ele>
        <time>2014-08-15T00:35:44Z</time>
        <sat>5</sat>
      </trkpt>
      <trkpt lat="47.160134" lon="-121.939120">
        <ele>298.6</ele>
        <time>2014-08-15T00:35:47Z</time>
        <sat>6</sat>
      </trkpt>
      <trkpt lat="47.160225" lon="-121.939055">
        <ele>298.7</ele>
        <time>2014-08-15T00:35:49Z</time>
        <sat>6</sat>
      </trkpt>
      <trkpt lat="47.160322" lon="-121.939023">
        <ele>298.6</ele>
        <time>2014-08-15T00:35:51Z</time>
        <sat>6</sat>
      </trkpt>
      <trkpt lat="47.160402" lon="-121.938953">
        <ele>298.7</ele>
        <time>2014-08-15T00:35:54Z</time>
        <sat>6</sat>
      </trkpt>
      <trkpt lat="47.160484" lon="-121.938865">
        <ele>298.5</ele>
        <time>2014-08-15T00:35:58Z</time>
        <sat>6</sat>
      </trkpt>
      <trkpt lat="47.160562" lon="-121.938753">
        <ele>298.8</ele>
        <time>2014-08-15T00:36:03Z</time>
        <sat>6</sat>
      </trkpt>
      <trkpt lat="47.160635" lon="-121.938668">
        <ele>299.1</ele>
        <time>2014-08-15T00:36:16Z</time>
        <sat>6</sat>
      </trkpt>
      <trkpt lat="47.160710" lon="-121.938592">
        <ele>300.0</ele>
        <time>2014-08-15T00:36:31Z</time>
        <sat>7</sat>
      </trkpt>
      <trkpt lat="47.160800" lon="-121.938553">
        <ele>298.4</ele>
        <time>2014-08-15T00:36:44Z</time>
        <sat>7</sat>
      </trkpt>
      <trkpt lat="47.160887" lon="-121.938590">
        <ele>298.0</ele>
        <time>2014-08-15T00:37:18Z</time>
        <sat>7</sat>
      </trkpt>
      <trkpt lat="47.160932" lon="-121.938475">
        <ele>300.8</ele>
        <time>2014-08-15T00:37:45Z</time>
        <sat>7</sat>
      </trkpt>
      <trkpt lat="47.161008" lon="-121.938402">
        <ele>299.9</ele>
        <time>2014-08-15T00:38:04Z</time>
        <sat>7</sat>
      </trkpt>
      <trkpt lat="47.161067" lon="-121.938277">
        <ele>300.0</ele>
        <time>2014-08-15T00:38:12Z</time>
        <sat>7</sat>
      </trkpt>
      <trkpt lat="47.161139" lon="-121.938190">
        <ele>300.1</ele>
        <time>2014-08-15T00:38:16Z</time>
        <sat>7</sat>
      </trkpt>
      <trkpt lat="47.161212" lon="-121.938083">
        <ele>300.2</ele>
        <time>2014-08-15T00:38:20Z</time>
        <sat>7</sat>
      </trkpt>
      <trkpt lat="47.161302" lon="-121.937995">
        <ele>300.3</ele>
        <time>2014-08-15T00:38:24Z</time>
        <sat>7</sat>
      </trkpt>
      <trkpt lat="47.161402" lon="-121.937933">
        <ele>300.6</ele>
        <time>2014-08-15T00:38:28Z</time>
        <sat>7</sat>
      </trkpt>
      <trkpt lat="47.161499" lon="-121.937848">
        <ele>300.8</ele>
        <time>2014-08-15T00:38:32Z</time>
        <sat>7</sat>
      </trkpt>
      <trkpt lat="47.161594" lon="-121.937788">
        <ele>301.1</ele>
        <time>2014-08-15T00:38:35Z</time>
        <sat>7</sat>
      </trkpt>
      <trkpt lat="47.161694" lon="-121.937695">
        <ele>301.0</ele>
        <time>2014-08-15T00:38:39Z</time>
        <sat>7</sat>
      </trkpt>
      <trkpt lat="47.161777" lon="-121.937640">
        <ele>301.1</ele>
        <time>2014-08-15T00:38:42Z</time>
        <sat>7</sat>
      </trkpt>
      <trkpt lat="47.161870" lon="-121.937546">
        <ele>301.6</ele>
        <time>2014-08-15T00:38:46Z</time>
        <sat>7</sat>
      </trkpt>
      <trkpt lat="47.161967" lon="-121.937458">
        <ele>301.8</ele>
        <time>2014-08-15T00:38:50Z</time>
        <sat>7</sat>
      </trkpt>
      <trkpt lat="47.162052" lon="-121.937365">
        <ele>301.9</ele>
        <time>2014-08-15T00:38:54Z</time>
        <sat>7</sat>
      </trkpt>
      <trkpt lat="47.162133" lon="-121.937275">
        <ele>302.4</ele>
        <time>2014-08-15T00:38:58Z</time>
        <sat>7</sat>
      </trkpt>
      <trkpt lat="47.162207" lon="-121.937193">
        <ele>302.7</ele>
        <time>2014-08-15T00:39:02Z</time>
        <sat>7</sat>
      </trkpt>
      <trkpt lat="47.162282" lon="-121.937110">
        <ele>302.9</ele>
        <time>2014-08-15T00:39:05Z</time>
        <sat>7</sat>
      </trkpt>
      <trkpt lat="47.162380" lon="-121.937010">
        <ele>303.2</ele>
        <time>2014-08-15T00:39:09Z</time>
        <sat>7</sat>
      </trkpt>
      <trkpt lat="47.162458" lon="-121.936932">
        <ele>303.3</ele>
        <time>2014-08-15T00:39:12Z</time>
        <sat>7</sat>
      </trkpt>
      <trkpt lat="47.162538" lon="-121.936858">
        <ele>303.5</ele>
        <time>2014-08-15T00:39:15Z</time>
        <sat>7</sat>
      </trkpt>
      <trkpt lat="47.162629" lon="-121.936750">
        <ele>304.0</ele>
        <time>2014-08-15T00:39:19Z</time>
        <sat>7</sat>
      </trkpt>
      <trkpt lat="47.162703" lon="-121.936676">
        <ele>304.4</ele>
        <time>2014-08-15T00:39:22Z</time>
        <sat>6</sat>
      </trkpt>
      <trkpt lat="47.162798" lon="-121.936568">
        <ele>305.0</ele>
        <time>2014-08-15T00:39:26Z</time>
        <sat>6</sat>
      </trkpt>
      <trkpt lat="47.162902" lon="-121.936478">
        <ele>305.3</ele>
        <time>2014-08-15T00:39:30Z</time>
        <sat>7</sat>
      </trkpt>
      <trkpt lat="47.163000" lon="-121.936370">
        <ele>305.7</ele>
        <time>2014-08-15T00:39:34Z</time>
        <sat>6</sat>
      </trkpt>
      <trkpt lat="47.163080" lon="-121.936303">
        <ele>305.8</ele>
        <time>2014-08-15T00:39:37Z</time>
        <sat>7</sat>
      </trkpt>
      <trkpt lat="47.163179" lon="-121.936231">
        <ele>306.2</ele>
        <time>2014-08-15T00:39:41Z</time>
        <sat>7</sat>
      </trkpt>
      <trkpt lat="47.163270" lon="-121.936120">
        <ele>306.6</ele>
        <time>2014-08-15T00:39:45Z</time>
        <sat>7</sat>
      </trkpt>
      <trkpt lat="47.163322" lon="-121.935965">
        <ele>306.7</ele>
        <time>2014-08-15T00:39:49Z</time>
        <sat>6</sat>
      </trkpt>
      <trkpt lat="47.163399" lon="-121.935841">
        <ele>307.2</ele>
        <time>2014-08-15T00:39:53Z</time>
        <sat>6</sat>
      </trkpt>
      <trkpt lat="47.163478" lon="-121.935771">
        <ele>307.5</ele>
        <time>2014-08-15T00:39:56Z</time>
        <sat>6</sat>
      </trkpt>
      <trkpt lat="47.163580" lon="-121.935702">
        <ele>307.7</ele>
        <time>2014-08-15T00:39:59Z</time>
        <sat>6</sat>
      </trkpt>
      <trkpt lat="47.163668" lon="-121.935641">
        <ele>308.2</ele>
        <time>2014-08-15T00:40:02Z</time>
        <sat>6</sat>
      </trkpt>
      <trkpt lat="47.163765" lon="-121.935600">
        <ele>308.4</ele>
        <time>2014-08-15T00:40:05Z</time>
        <sat>6</sat>
      </trkpt>
      <trkpt lat="47.163862" lon="-121.935513">
        <ele>308.7</ele>
        <time>2014-08-15T00:40:09Z</time>
        <sat>7</sat>
      </trkpt>
      <trkpt lat="47.163930" lon="-121.935398">
        <ele>309.1</ele>
        <time>2014-08-15T00:40:13Z</time>
        <sat>6</sat>
      </trkpt>
      <trkpt lat="47.163985" lon="-121.935278">
        <ele>309.6</ele>
        <time>2014-08-15T00:40:17Z</time>
        <sat>6</sat>
      </trkpt>
      <trkpt lat="47.164033" lon="-121.935148">
        <ele>310.1</ele>
        <time>2014-08-15T00:40:21Z</time>
        <sat>7</sat>
      </trkpt>
      <trkpt lat="47.164080" lon="-121.935008">
        <ele>310.4</ele>
        <time>2014-08-15T00:40:25Z</time>
        <sat>6</sat>
      </trkpt>
      <trkpt lat="47.164189" lon="-121.934952">
        <ele>310.9</ele>
        <time>2014-08-15T00:40:28Z</time>
        <sat>7</sat>
      </trkpt>
      <trkpt lat="47.164285" lon="-121.934847">
        <ele>311.1</ele>
        <time>2014-08-15T00:40:32Z</time>
        <sat>6</sat>
      </trkpt>
      <trkpt lat="47.164353" lon="-121.934760">
        <ele>311.5</ele>
        <time>2014-08-15T00:40:35Z</time>
        <sat>6</sat>
      </trkpt>
      <trkpt lat="47.164427" lon="-121.934651">
        <ele>311.8</ele>
        <time>2014-08-15T00:40:38Z</time>
        <sat>6</sat>
      </trkpt>
      <trkpt lat="47.164473" lon="-121.934538">
        <ele>312.0</ele>
        <time>2014-08-15T00:40:41Z</time>
        <sat>6</sat>
      </trkpt>
      <trkpt lat="47.164585" lon="-121.934490">
        <ele>312.5</ele>
        <time>2014-08-15T00:40:44Z</time>
        <sat>6</sat>
      </trkpt>
      <trkpt lat="47.164690" lon="-121.934433">
        <ele>312.7</ele>
        <time>2014-08-15T00:40:47Z</time>
        <sat>6</sat>
      </trkpt>
      <trkpt lat="47.164780" lon="-121.934408">
        <ele>312.9</ele>
        <time>2014-08-15T00:40:49Z</time>
        <sat>6</sat>
      </trkpt>
      <trkpt lat="47.164864" lon="-121.934321">
        <ele>313.1</ele>
        <time>2014-08-15T00:40:52Z</time>
        <sat>6</sat>
      </trkpt>
      <trkpt lat="47.164920" lon="-121.934216">
        <ele>313.4</ele>
        <time>2014-08-15T00:40:55Z</time>
        <sat>6</sat>
      </trkpt>
      <trkpt lat="47.164969" lon="-121.934076">
        <ele>314.1</ele>
        <time>2014-08-15T00:40:59Z</time>
        <sat>6</sat>
      </trkpt>
      <trkpt lat="47.165082" lon="-121.934045">
        <ele>314.4</ele>
        <time>2014-08-15T00:41:02Z</time>
        <sat>6</sat>
      </trkpt>
      <trkpt lat="47.165172" lon="-121.933980">
        <ele>314.6</ele>
        <time>2014-08-15T00:41:05Z</time>
        <sat>6</sat>
      </trkpt>
      <trkpt lat="47.165250" lon="-121.933910">
        <ele>314.9</ele>
        <time>2014-08-15T00:41:08Z</time>
        <sat>6</sat>
      </trkpt>
      <trkpt lat="47.165367" lon="-121.933822">
        <ele>315.1</ele>
        <time>2014-08-15T00:41:12Z</time>
        <sat>6</sat>
      </trkpt>
      <trkpt lat="47.165465" lon="-121.933760">
        <ele>315.3</ele>
        <time>2014-08-15T00:41:15Z</time>
        <sat>6</sat>
      </trkpt>
      <trkpt lat="47.165545" lon="-121.933635">
        <ele>315.9</ele>
        <time>2014-08-15T00:41:19Z</time>
        <sat>6</sat>
      </trkpt>
      <trkpt lat="47.165615" lon="-121.933500">
        <ele>315.9</ele>
        <time>2014-08-15T00:41:23Z</time>
        <sat>6</sat>
      </trkpt>
      <trkpt lat="47.165687" lon="-121.933410">
        <ele>316.2</ele>
        <time>2014-08-15T00:41:26Z</time>
        <sat>6</sat>
      </trkpt>
      <trkpt lat="47.165775" lon="-121.933340">
        <ele>316.5</ele>
        <time>2014-08-15T00:41:29Z</time>
        <sat>6</sat>
      </trkpt>
      <trkpt lat="47.165852" lon="-121.933270">
        <ele>316.8</ele>
        <time>2014-08-15T00:41:32Z</time>
        <sat>7</sat>
      </trkpt>
      <trkpt lat="47.165937" lon="-121.933208">
        <ele>316.8</ele>
        <time>2014-08-15T00:41:35Z</time>
        <sat>6</sat>
      </trkpt>
      <trkpt lat="47.166025" lon="-121.933157">
        <ele>317.0</ele>
        <time>2014-08-15T00:41:38Z</time>
        <sat>6</sat>
      </trkpt>
      <trkpt lat="47.166105" lon="-121.933051">
        <ele>317.5</ele>
        <time>2014-08-15T00:41:42Z</time>
        <sat>7</sat>
      </trkpt>
      <trkpt lat="47.166170" lon="-121.932947">
        <ele>317.8</ele>
        <time>2014-08-15T00:41:45Z</time>
        <sat>7</sat>
      </trkpt>
      <trkpt lat="47.166248" lon="-121.932871">
        <ele>318.0</ele>
        <time>2014-08-15T00:41:48Z</time>
        <sat>7</sat>
      </trkpt>
      <trkpt lat="47.166343" lon="-121.932783">
        <ele>318.0</ele>
        <time>2014-08-15T00:41:52Z</time>
        <sat>7</sat>
      </trkpt>
      <trkpt lat="47.166394" lon="-121.932668">
        <ele>318.6</ele>
        <time>2014-08-15T00:41:56Z</time>
        <sat>7</sat>
      </trkpt>
      <trkpt lat="47.166482" lon="-121.932555">
        <ele>318.5</ele>
        <time>2014-08-15T00:42:00Z</time>
        <sat>7</sat>
      </trkpt>
      <trkpt lat="47.166562" lon="-121.932485">
        <ele>318.6</ele>
        <time>2014-08-15T00:42:03Z</time>
        <sat>8</sat>
      </trkpt>
      <trkpt lat="47.166642" lon="-121.932370">
        <ele>318.8</ele>
        <time>2014-08-15T00:42:07Z</time>
        <sat>7</sat>
      </trkpt>
      <trkpt lat="47.166719" lon="-121.932286">
        <ele>318.9</ele>
        <time>2014-08-15T00:42:10Z</time>
        <sat>8</sat>
      </trkpt>
      <trkpt lat="47.166797" lon="-121.932208">
        <ele>319.1</ele>
        <time>2014-08-15T00:42:13Z</time>
        <sat>8</sat>
      </trkpt>
      <trkpt lat="47.166877" lon="-121.932135">
        <ele>319.1</ele>
        <time>2014-08-15T00:42:15Z</time>
        <sat>8</sat>
      </trkpt>
      <trkpt lat="47.166955" lon="-121.932058">
        <ele>319.2</ele>
        <time>2014-08-15T00:42:18Z</time>
        <sat>8</sat>
      </trkpt>
      <trkpt lat="47.167022" lon="-121.931968">
        <ele>319.1</ele>
        <time>2014-08-15T00:42:21Z</time>
        <sat>8</sat>
      </trkpt>
      <trkpt lat="47.167084" lon="-121.931865">
        <ele>319.3</ele>
        <time>2014-08-15T00:42:24Z</time>
        <sat>8</sat>
      </trkpt>
      <trkpt lat="47.167152" lon="-121.931733">
        <ele>319.3</ele>
        <time>2014-08-15T00:42:28Z</time>
        <sat>7</sat>
      </trkpt>
      <trkpt lat="47.167210" lon="-121.931625">
        <ele>319.6</ele>
        <time>2014-08-15T00:42:31Z</time>
        <sat>7</sat>
      </trkpt>
      <trkpt lat="47.167309" lon="-121.931543">
        <ele>319.9</ele>
        <time>2014-08-15T00:42:34Z</time>
        <sat>7</sat>
      </trkpt>
      <trkpt lat="47.167380" lon="-121.931457">
        <ele>320.0</ele>
        <time>2014-08-15T00:42:37Z</time>
        <sat>7</sat>
      </trkpt>
      <trkpt lat="47.167457" lon="-121.931367">
        <ele>320.3</ele>
        <time>2014-08-15T00:42:40Z</time>
        <sat>7</sat>
      </trkpt>
      <trkpt lat="47.167534" lon="-121.931270">
        <ele>320.7</ele>
        <time>2014-08-15T00:42:43Z</time>
        <sat>7</sat>
      </trkpt>
      <trkpt lat="47.167630" lon="-121.931175">
        <ele>320.9</ele>
        <time>2014-08-15T00:42:46Z</time>
        <sat>7</sat>
      </trkpt>
      <trkpt lat="47.167730" lon="-121.931085">
        <ele>320.8</ele>
        <time>2014-08-15T00:42:49Z</time>
        <sat>8</sat>
      </trkpt>
      <trkpt lat="47.167823" lon="-121.931053">
        <ele>320.7</ele>
        <time>2014-08-15T00:42:51Z</time>
        <sat>8</sat>
      </trkpt>
      <trkpt lat="47.167938" lon="-121.930991">
        <ele>320.6</ele>
        <time>2014-08-15T00:42:54Z</time>
        <sat>8</sat>
      </trkpt>
      <trkpt lat="47.168055" lon="-121.930940">
        <ele>320.7</ele>
        <time>2014-08-15T00:42:56Z</time>
        <sat>8</sat>
      </trkpt>
      <trkpt lat="47.168165" lon="-121.930893">
        <ele>320.8</ele>
        <time>2014-08-15T00:42:58Z</time>
        <sat>8</sat>
      </trkpt>
      <trkpt lat="47.168247" lon="-121.930826">
        <ele>320.9</ele>
        <time>2014-08-15T00:43:00Z</time>
        <sat>8</sat>
      </trkpt>
      <trkpt lat="47.168347" lon="-121.930731">
        <ele>321.0</ele>
        <time>2014-08-15T00:43:03Z</time>
        <sat>7</sat>
      </trkpt>
      <trkpt lat="47.168452" lon="-121.930658">
        <ele>321.2</ele>
        <time>2014-08-15T00:43:06Z</time>
        <sat>7</sat>
      </trkpt>
      <trkpt lat="47.168557" lon="-121.930587">
        <ele>321.1</ele>
        <time>2014-08-15T00:43:09Z</time>
        <sat>7</sat>
      </trkpt>
      <trkpt lat="47.168635" lon="-121.930505">
        <ele>321.5</ele>
        <time>2014-08-15T00:43:12Z</time>
        <sat>7</sat>
      </trkpt>
      <trkpt lat="47.168727" lon="-121.930428">
        <ele>321.3</ele>
        <time>2014-08-15T00:43:16Z</time>
        <sat>7</sat>
      </trkpt>
      <trkpt lat="47.168803" lon="-121.930330">
        <ele>321.7</ele>
        <time>2014-08-15T00:43:20Z</time>
        <sat>8</sat>
      </trkpt>
      <trkpt lat="47.168898" lon="-121.930230">
        <ele>321.8</ele>
        <time>2014-08-15T00:43:24Z</time>
        <sat>8</sat>
      </trkpt>
      <trkpt lat="47.168974" lon="-121.930140">
        <ele>322.0</ele>
        <time>2014-08-15T00:43:27Z</time>
        <sat>7</sat>
      </trkpt>
      <trkpt lat="47.169060" lon="-121.930045">
        <ele>322.0</ele>
        <time>2014-08-15T00:43:30Z</time>
        <sat>7</sat>
      </trkpt>
      <trkpt lat="47.169145" lon="-121.929955">
        <ele>322.0</ele>
        <time>2014-08-15T00:43:33Z</time>
        <sat>7</sat>
      </trkpt>
      <trkpt lat="47.169228" lon="-121.929860">
        <ele>321.9</ele>
        <time>2014-08-15T00:43:36Z</time>
        <sat>7</sat>
      </trkpt>
      <trkpt lat="47.169314" lon="-121.929762">
        <ele>322.2</ele>
        <time>2014-08-15T00:43:39Z</time>
        <sat>7</sat>
      </trkpt>
      <trkpt lat="47.169400" lon="-121.929673">
        <ele>322.3</ele>
        <time>2014-08-15T00:43:42Z</time>
        <sat>7</sat>
      </trkpt>
      <trkpt lat="47.169487" lon="-121.929582">
        <ele>322.5</ele>
        <time>2014-08-15T00:43:45Z</time>
        <sat>7</sat>
      </trkpt>
      <trkpt lat="47.169572" lon="-121.929490">
        <ele>322.8</ele>
        <time>2014-08-15T00:43:48Z</time>
        <sat>7</sat>
      </trkpt>
      <trkpt lat="47.169640" lon="-121.929401">
        <ele>323.0</ele>
        <time>2014-08-15T00:43:51Z</time>
        <sat>7</sat>
      </trkpt>
      <trkpt lat="47.169715" lon="-121.929313">
        <ele>322.9</ele>
        <time>2014-08-15T00:43:54Z</time>
        <sat>7</sat>
      </trkpt>
      <trkpt lat="47.169792" lon="-121.929213">
        <ele>323.0</ele>
        <time>2014-08-15T00:43:57Z</time>
        <sat>7</sat>
      </trkpt>
      <trkpt lat="47.169869" lon="-121.929118">
        <ele>323.2</ele>
        <time>2014-08-15T00:44:00Z</time>
        <sat>7</sat>
      </trkpt>
      <trkpt lat="47.169945" lon="-121.929028">
        <ele>323.2</ele>
        <time>2014-08-15T00:44:03Z</time>
        <sat>7</sat>
      </trkpt>
      <trkpt lat="47.170015" lon="-121.928938">
        <ele>323.4</ele>
        <time>2014-08-15T00:44:06Z</time>
        <sat>7</sat>
      </trkpt>
      <trkpt lat="47.170094" lon="-121.928836">
        <ele>323.5</ele>
        <time>2014-08-15T00:44:10Z</time>
        <sat>7</sat>
      </trkpt>
      <trkpt lat="47.170170" lon="-121.928755">
        <ele>323.1</ele>
        <time>2014-08-15T00:46:04Z</time>
        <sat>6</sat>
      </trkpt>
      <trkpt lat="47.170248" lon="-121.928683">
        <ele>323.3</ele>
        <time>2014-08-15T00:46:08Z</time>
        <sat>6</sat>
      </trkpt>
      <trkpt lat="47.170327" lon="-121.928603">
        <ele>323.1</ele>
        <time>2014-08-15T00:46:12Z</time>
        <sat>6</sat>
      </trkpt>
      <trkpt lat="47.170415" lon="-121.928493">
        <ele>323.3</ele>
        <time>2014-08-15T00:46:16Z</time>
        <sat>6</sat>
      </trkpt>
      <trkpt lat="47.170482" lon="-121.928403">
        <ele>323.3</ele>
        <time>2014-08-15T00:46:19Z</time>
        <sat>6</sat>
      </trkpt>
      <trkpt lat="47.170552" lon="-121.928320">
        <ele>323.6</ele>
        <time>2014-08-15T00:46:22Z</time>
        <sat>6</sat>
      </trkpt>
      <trkpt lat="47.170634" lon="-121.928246">
        <ele>323.5</ele>
        <time>2014-08-15T00:46:25Z</time>
        <sat>6</sat>
      </trkpt>
      <trkpt lat="47.170710" lon="-121.928156">
        <ele>323.8</ele>
        <time>2014-08-15T00:46:28Z</time>
        <sat>6</sat>
      </trkpt>
      <trkpt lat="47.170787" lon="-121.928073">
        <ele>324.0</ele>
        <time>2014-08-15T00:46:31Z</time>
        <sat>6</sat>
      </trkpt>
      <trkpt lat="47.170859" lon="-121.927985">
        <ele>324.3</ele>
        <time>2014-08-15T00:46:34Z</time>
        <sat>6</sat>
      </trkpt>
      <trkpt lat="47.170932" lon="-121.927907">
        <ele>324.4</ele>
        <time>2014-08-15T00:46:37Z</time>
        <sat>6</sat>
      </trkpt>
      <trkpt lat="47.171012" lon="-121.927826">
        <ele>324.7</ele>
        <time>2014-08-15T00:46:40Z</time>
        <sat>6</sat>
      </trkpt>
      <trkpt lat="47.171095" lon="-121.927736">
        <ele>324.6</ele>
        <time>2014-08-15T00:46:43Z</time>
        <sat>6</sat>
      </trkpt>
      <trkpt lat="47.171178" lon="-121.927643">
        <ele>324.7</ele>
        <time>2014-08-15T00:46:46Z</time>
        <sat>6</sat>
      </trkpt>
      <trkpt lat="47.171265" lon="-121.927560">
        <ele>324.8</ele>
        <time>2014-08-15T00:46:49Z</time>
        <sat>6</sat>
      </trkpt>
      <trkpt lat="47.171347" lon="-121.927470">
        <ele>324.8</ele>
        <time>2014-08-15T00:46:52Z</time>
        <sat>6</sat>
      </trkpt>
      <trkpt lat="47.171429" lon="-121.927380">
        <ele>325.3</ele>
        <time>2014-08-15T00:46:55Z</time>
        <sat>6</sat>
      </trkpt>
      <trkpt lat="47.171512" lon="-121.927293">
        <ele>325.2</ele>
        <time>2014-08-15T00:46:58Z</time>
        <sat>6</sat>
      </trkpt>
      <trkpt lat="47.171595" lon="-121.927207">
        <ele>325.3</ele>
        <time>2014-08-15T00:47:01Z</time>
        <sat>6</sat>
      </trkpt>
      <trkpt lat="47.171682" lon="-121.927117">
        <ele>325.7</ele>
        <time>2014-08-15T00:47:04Z</time>
        <sat>6</sat>
      </trkpt>
      <trkpt lat="47.171772" lon="-121.927026">
        <ele>325.5</ele>
        <time>2014-08-15T00:47:07Z</time>
        <sat>6</sat>
      </trkpt>
      <trkpt lat="47.171852" lon="-121.926933">
        <ele>325.6</ele>
        <time>2014-08-15T00:47:10Z</time>
        <sat>6</sat>
      </trkpt>
      <trkpt lat="47.171933" lon="-121.926835">
        <ele>325.9</ele>
        <time>2014-08-15T00:47:13Z</time>
        <sat>6</sat>
      </trkpt>
      <trkpt lat="47.172014" lon="-121.926735">
        <ele>325.9</ele>
        <time>2014-08-15T00:47:16Z</time>
        <sat>6</sat>
      </trkpt>
      <trkpt lat="47.172097" lon="-121.926632">
        <ele>326.1</ele>
        <time>2014-08-15T00:47:19Z</time>
        <sat>6</sat>
      </trkpt>
      <trkpt lat="47.172178" lon="-121.926526">
        <ele>326.2</ele>
        <time>2014-08-15T00:47:22Z</time>
        <sat>7</sat>
      </trkpt>
      <trkpt lat="47.172263" lon="-121.926425">
        <ele>325.8</ele>
        <time>2014-08-15T00:47:25Z</time>
        <sat>6</sat>
      </trkpt>
      <trkpt lat="47.172344" lon="-121.926332">
        <ele>326.2</ele>
        <time>2014-08-15T00:47:28Z</time>
        <sat>6</sat>
      </trkpt>
      <trkpt lat="47.172422" lon="-121.926218">
        <ele>326.2</ele>
        <time>2014-08-15T00:47:31Z</time>
        <sat>7</sat>
      </trkpt>
      <trkpt lat="47.172495" lon="-121.926097">
        <ele>326.1</ele>
        <time>2014-08-15T00:47:34Z</time>
        <sat>7</sat>
      </trkpt>
      <trkpt lat="47.172592" lon="-121.926007">
        <ele>326.0</ele>
        <time>2014-08-15T00:47:37Z</time>
        <sat>7</sat>
      </trkpt>
      <trkpt lat="47.172687" lon="-121.925915">
        <ele>326.2</ele>
        <time>2014-08-15T00:47:40Z</time>
        <sat>6</sat>
      </trkpt>
      <trkpt lat="47.172760" lon="-121.925806">
        <ele>326.3</ele>
        <time>2014-08-15T00:47:43Z</time>
        <sat>7</sat>
      </trkpt>
      <trkpt lat="47.172827" lon="-121.925681">
        <ele>326.3</ele>
        <time>2014-08-15T00:47:46Z</time>
        <sat>7</sat>
      </trkpt>
      <trkpt lat="47.172889" lon="-121.925558">
        <ele>326.3</ele>
        <time>2014-08-15T00:47:49Z</time>
        <sat>7</sat>
      </trkpt>
      <trkpt lat="47.172972" lon="-121.925488">
        <ele>326.5</ele>
        <time>2014-08-15T00:47:52Z</time>
        <sat>7</sat>
      </trkpt>
      <trkpt lat="47.173068" lon="-121.925471">
        <ele>326.5</ele>
        <time>2014-08-15T00:47:56Z</time>
        <sat>7</sat>
      </trkpt>
      <trkpt lat="47.173165" lon="-121.925435">
        <ele>326.8</ele>
        <time>2014-08-15T00:48:02Z</time>
        <sat>7</sat>
      </trkpt>
      <trkpt lat="47.173265" lon="-121.925373">
        <ele>326.5</ele>
        <time>2014-08-15T00:48:06Z</time>
        <sat>7</sat>
      </trkpt>
      <trkpt lat="47.173339" lon="-121.925288">
        <ele>326.5</ele>
        <time>2014-08-15T00:48:09Z</time>
        <sat>7</sat>
      </trkpt>
      <trkpt lat="47.173417" lon="-121.925200">
        <ele>326.6</ele>
        <time>2014-08-15T00:48:12Z</time>
        <sat>7</sat>
      </trkpt>
      <trkpt lat="47.173503" lon="-121.925138">
        <ele>326.7</ele>
        <time>2014-08-15T00:48:15Z</time>
        <sat>7</sat>
      </trkpt>
      <trkpt lat="47.173617" lon="-121.925088">
        <ele>326.4</ele>
        <time>2014-08-15T00:48:18Z</time>
        <sat>7</sat>
      </trkpt>
      <trkpt lat="47.173712" lon="-121.925051">
        <ele>326.2</ele>
        <time>2014-08-15T00:48:21Z</time>
        <sat>7</sat>
      </trkpt>
      <trkpt lat="47.173817" lon="-121.925010">
        <ele>326.3</ele>
        <time>2014-08-15T00:48:24Z</time>
        <sat>7</sat>
      </trkpt>
      <trkpt lat="47.173928" lon="-121.924958">
        <ele>326.2</ele>
        <time>2014-08-15T00:48:27Z</time>
        <sat>7</sat>
      </trkpt>
      <trkpt lat="47.174047" lon="-121.924901">
        <ele>326.0</ele>
        <time>2014-08-15T00:48:30Z</time>
        <sat>7</sat>
      </trkpt>
      <trkpt lat="47.174160" lon="-121.924833">
        <ele>325.8</ele>
        <time>2014-08-15T00:48:33Z</time>
        <sat>6</sat>
      </trkpt>
      <trkpt lat="47.174275" lon="-121.924782">
        <ele>325.8</ele>
        <time>2014-08-15T00:48:36Z</time>
        <sat>7</sat>
      </trkpt>
      <trkpt lat="47.174398" lon="-121.924715">
        <ele>325.9</ele>
        <time>2014-08-15T00:48:39Z</time>
        <sat>7</sat>
      </trkpt>
      <trkpt lat="47.174518" lon="-121.924650">
        <ele>325.7</ele>
        <time>2014-08-15T00:48:42Z</time>
        <sat>6</sat>
      </trkpt>
      <trkpt lat="47.174622" lon="-121.924598">
        <ele>325.5</ele>
        <time>2014-08-15T00:48:45Z</time>
        <sat>6</sat>
      </trkpt>
      <trkpt lat="47.174725" lon="-121.924542">
        <ele>325.5</ele>
        <time>2014-08-15T00:48:48Z</time>
        <sat>6</sat>
      </trkpt>
      <trkpt lat="47.174835" lon="-121.924491">
        <ele>325.2</ele>
        <time>2014-08-15T00:48:51Z</time>
        <sat>7</sat>
      </trkpt>
      <trkpt lat="47.174938" lon="-121.924440">
        <ele>325.2</ele>
        <time>2014-08-15T00:48:54Z</time>
        <sat>7</sat>
      </trkpt>
      <trkpt lat="47.175042" lon="-121.924405">
        <ele>325.0</ele>
        <time>2014-08-15T00:48:57Z</time>
        <sat>7</sat>
      </trkpt>
      <trkpt lat="47.175137" lon="-121.924375">
        <ele>324.8</ele>
        <time>2014-08-15T00:49:00Z</time>
        <sat>7</sat>
      </trkpt>
      <trkpt lat="47.175234" lon="-121.924323">
        <ele>324.7</ele>
        <time>2014-08-15T00:49:03Z</time>
        <sat>7</sat>
      </trkpt>
      <trkpt lat="47.175349" lon="-121.924280">
        <ele>324.9</ele>
        <time>2014-08-15T00:49:06Z</time>
        <sat>7</sat>
      </trkpt>
      <trkpt lat="47.175462" lon="-121.924210">
        <ele>324.7</ele>
        <time>2014-08-15T00:49:09Z</time>
        <sat>7</sat>
      </trkpt>
      <trkpt lat="47.175555" lon="-121.924178">
        <ele>324.7</ele>
        <time>2014-08-15T00:49:11Z</time>
        <sat>7</sat>
      </trkpt>
      <trkpt lat="47.175680" lon="-121.924115">
        <ele>324.8</ele>
        <time>2014-08-15T00:49:14Z</time>
        <sat>7</sat>
      </trkpt>
      <trkpt lat="47.175785" lon="-121.924072">
        <ele>324.5</ele>
        <time>2014-08-15T00:49:17Z</time>
        <sat>7</sat>
      </trkpt>
      <trkpt lat="47.175894" lon="-121.924035">
        <ele>324.5</ele>
        <time>2014-08-15T00:49:20Z</time>
        <sat>7</sat>
      </trkpt>
      <trkpt lat="47.176000" lon="-121.924028">
        <ele>324.1</ele>
        <time>2014-08-15T00:49:23Z</time>
        <sat>7</sat>
      </trkpt>
      <trkpt lat="47.176097" lon="-121.924035">
        <ele>324.0</ele>
        <time>2014-08-15T00:49:26Z</time>
        <sat>7</sat>
      </trkpt>
      <trkpt lat="47.176200" lon="-121.924023">
        <ele>323.5</ele>
        <time>2014-08-15T00:49:29Z</time>
        <sat>7</sat>
      </trkpt>
      <trkpt lat="47.176325" lon="-121.924028">
        <ele>323.0</ele>
        <time>2014-08-15T00:49:32Z</time>
        <sat>7</sat>
      </trkpt>
      <trkpt lat="47.176447" lon="-121.924013">
        <ele>322.4</ele>
        <time>2014-08-15T00:49:35Z</time>
        <sat>7</sat>
      </trkpt>
      <trkpt lat="47.176574" lon="-121.924011">
        <ele>322.1</ele>
        <time>2014-08-15T00:49:38Z</time>
        <sat>7</sat>
      </trkpt>
      <trkpt lat="47.176704" lon="-121.924015">
        <ele>322.0</ele>
        <time>2014-08-15T00:49:41Z</time>
        <sat>7</sat>
      </trkpt>
      <trkpt lat="47.176795" lon="-121.924002">
        <ele>322.0</ele>
        <time>2014-08-15T00:49:43Z</time>
        <sat>7</sat>
      </trkpt>
      <trkpt lat="47.176897" lon="-121.923977">
        <ele>321.9</ele>
        <time>2014-08-15T00:49:45Z</time>
        <sat>7</sat>
      </trkpt>
      <trkpt lat="47.176998" lon="-121.923962">
        <ele>321.9</ele>
        <time>2014-08-15T00:49:47Z</time>
        <sat>7</sat>
      </trkpt>
      <trkpt lat="47.177129" lon="-121.923946">
        <ele>321.8</ele>
        <time>2014-08-15T00:49:50Z</time>
        <sat>7</sat>
      </trkpt>
      <trkpt lat="47.177250" lon="-121.923938">
        <ele>321.4</ele>
        <time>2014-08-15T00:49:53Z</time>
        <sat>7</sat>
      </trkpt>
      <trkpt lat="47.177370" lon="-121.923925">
        <ele>321.3</ele>
        <time>2014-08-15T00:49:56Z</time>
        <sat>7</sat>
      </trkpt>
      <trkpt lat="47.177497" lon="-121.923888">
        <ele>321.0</ele>
        <time>2014-08-15T00:49:59Z</time>
        <sat>7</sat>
      </trkpt>
      <trkpt lat="47.177584" lon="-121.923850">
        <ele>320.7</ele>
        <time>2014-08-15T00:50:01Z</time>
        <sat>7</sat>
      </trkpt>
      <trkpt lat="47.177674" lon="-121.923808">
        <ele>320.4</ele>
        <time>2014-08-15T00:50:03Z</time>
        <sat>7</sat>
      </trkpt>
      <trkpt lat="47.177763" lon="-121.923775">
        <ele>320.2</ele>
        <time>2014-08-15T00:50:05Z</time>
        <sat>7</sat>
      </trkpt>
      <trkpt lat="47.177855" lon="-121.923730">
        <ele>319.9</ele>
        <time>2014-08-15T00:50:07Z</time>
        <sat>8</sat>
      </trkpt>
      <trkpt lat="47.177947" lon="-121.923695">
        <ele>319.9</ele>
        <time>2014-08-15T00:50:09Z</time>
        <sat>8</sat>
      </trkpt>
      <trkpt lat="47.178045" lon="-121.923705">
        <ele>319.5</ele>
        <time>2014-08-15T00:50:11Z</time>
        <sat>8</sat>
      </trkpt>
      <trkpt lat="47.178145" lon="-121.923757">
        <ele>319.3</ele>
        <time>2014-08-15T00:50:13Z</time>
        <sat>8</sat>
      </trkpt>
      <trkpt lat="47.178247" lon="-121.923793">
        <ele>319.1</ele>
        <time>2014-08-15T00:50:15Z</time>
        <sat>7</sat>
      </trkpt>
      <trkpt lat="47.178354" lon="-121.923815">
        <ele>318.9</ele>
        <time>2014-08-15T00:50:17Z</time>
        <sat>8</sat>
      </trkpt>
      <trkpt lat="47.178457" lon="-121.923835">
        <ele>318.7</ele>
        <time>2014-08-15T00:50:19Z</time>
        <sat>8</sat>
      </trkpt>
      <trkpt lat="47.178560" lon="-121.923853">
        <ele>318.4</ele>
        <time>2014-08-15T00:50:21Z</time>
        <sat>8</sat>
      </trkpt>
      <trkpt lat="47.178660" lon="-121.923880">
        <ele>318.0</ele>
        <time>2014-08-15T00:50:23Z</time>
        <sat>8</sat>
      </trkpt>
      <trkpt lat="47.178767" lon="-121.923895">
        <ele>317.5</ele>
        <time>2014-08-15T00:50:25Z</time>
        <sat>7</sat>
      </trkpt>
      <trkpt lat="47.178878" lon="-121.923903">
        <ele>317.4</ele>
        <time>2014-08-15T00:50:27Z</time>
        <sat>7</sat>
      </trkpt>
      <trkpt lat="47.178983" lon="-121.923910">
        <ele>317.2</ele>
        <time>2014-08-15T00:50:29Z</time>
        <sat>7</sat>
      </trkpt>
      <trkpt lat="47.179083" lon="-121.923908">
        <ele>316.8</ele>
        <time>2014-08-15T00:50:31Z</time>
        <sat>7</sat>
      </trkpt>
      <trkpt lat="47.179175" lon="-121.923900">
        <ele>316.6</ele>
        <time>2014-08-15T00:50:33Z</time>
        <sat>7</sat>
      </trkpt>
      <trkpt lat="47.179307" lon="-121.923887">
        <ele>316.5</ele>
        <time>2014-08-15T00:50:36Z</time>
        <sat>7</sat>
      </trkpt>
      <trkpt lat="47.179400" lon="-121.923882">
        <ele>316.3</ele>
        <time>2014-08-15T00:50:38Z</time>
        <sat>7</sat>
      </trkpt>
      <trkpt lat="47.179497" lon="-121.923870">
        <ele>316.4</ele>
        <time>2014-08-15T00:50:40Z</time>
        <sat>7</sat>
      </trkpt>
      <trkpt lat="47.179599" lon="-121.923855">
        <ele>316.5</ele>
        <time>2014-08-15T00:50:42Z</time>
        <sat>7</sat>
      </trkpt>
      <trkpt lat="47.179707" lon="-121.923848">
        <ele>316.2</ele>
        <time>2014-08-15T00:50:44Z</time>
        <sat>7</sat>
      </trkpt>
      <trkpt lat="47.179804" lon="-121.923860">
        <ele>316.3</ele>
        <time>2014-08-15T00:50:46Z</time>
        <sat>7</sat>
      </trkpt>
      <trkpt lat="47.179902" lon="-121.923878">
        <ele>316.5</ele>
        <time>2014-08-15T00:50:48Z</time>
        <sat>7</sat>
      </trkpt>
      <trkpt lat="47.179993" lon="-121.923888">
        <ele>316.5</ele>
        <time>2014-08-15T00:50:50Z</time>
        <sat>7</sat>
      </trkpt>
      <trkpt lat="47.180127" lon="-121.923893">
        <ele>316.8</ele>
        <time>2014-08-15T00:50:53Z</time>
        <sat>7</sat>
      </trkpt>
      <trkpt lat="47.180220" lon="-121.923900">
        <ele>316.8</ele>
        <time>2014-08-15T00:50:55Z</time>
        <sat>7</sat>
      </trkpt>
      <trkpt lat="47.180317" lon="-121.923901">
        <ele>316.7</ele>
        <time>2014-08-15T00:50:57Z</time>
        <sat>7</sat>
      </trkpt>
      <trkpt lat="47.180417" lon="-121.923907">
        <ele>316.4</ele>
        <time>2014-08-15T00:50:59Z</time>
        <sat>7</sat>
      </trkpt>
      <trkpt lat="47.180510" lon="-121.923901">
        <ele>316.2</ele>
        <time>2014-08-15T00:51:01Z</time>
        <sat>7</sat>
      </trkpt>
      <trkpt lat="47.180632" lon="-121.923868">
        <ele>316.0</ele>
        <time>2014-08-15T00:51:04Z</time>
        <sat>7</sat>
      </trkpt>
      <trkpt lat="47.180745" lon="-121.923833">
        <ele>315.6</ele>
        <time>2014-08-15T00:51:07Z</time>
        <sat>7</sat>
      </trkpt>
      <trkpt lat="47.180870" lon="-121.923806">
        <ele>315.3</ele>
        <time>2014-08-15T00:51:10Z</time>
        <sat>8</sat>
      </trkpt>
      <trkpt lat="47.180980" lon="-121.923773">
        <ele>314.5</ele>
        <time>2014-08-15T00:51:13Z</time>
        <sat>8</sat>
      </trkpt>
      <trkpt lat="47.181082" lon="-121.923735">
        <ele>313.9</ele>
        <time>2014-08-15T00:51:16Z</time>
        <sat>8</sat>
      </trkpt>
      <trkpt lat="47.181195" lon="-121.923685">
        <ele>313.1</ele>
        <time>2014-08-15T00:51:19Z</time>
        <sat>8</sat>
      </trkpt>
      <trkpt lat="47.181290" lon="-121.923705">
        <ele>312.7</ele>
        <time>2014-08-15T00:51:21Z</time>
        <sat>8</sat>
      </trkpt>
      <trkpt lat="47.181380" lon="-121.923781">
        <ele>312.3</ele>
        <time>2014-08-15T00:51:23Z</time>
        <sat>8</sat>
      </trkpt>
      <trkpt lat="47.181417" lon="-121.923907">
        <ele>312.0</ele>
        <time>2014-08-15T00:51:35Z</time>
        <sat>8</sat>
      </trkpt>
      <trkpt lat="47.181502" lon="-121.923968">
        <ele>311.5</ele>
        <time>2014-08-15T00:51:43Z</time>
        <sat>8</sat>
      </trkpt>
      <trkpt lat="47.181610" lon="-121.923985">
        <ele>311.6</ele>
        <time>2014-08-15T00:51:54Z</time>
        <sat>8</sat>
      </trkpt>
      <trkpt lat="47.181705" lon="-121.923953">
        <ele>311.2</ele>
        <time>2014-08-15T00:52:00Z</time>
        <sat>8</sat>
      </trkpt>
      <trkpt lat="47.181805" lon="-121.923958">
        <ele>311.1</ele>
        <time>2014-08-15T00:52:04Z</time>
        <sat>8</sat>
      </trkpt>
      <trkpt lat="47.181914" lon="-121.923928">
        <ele>310.9</ele>
        <time>2014-08-15T00:52:08Z</time>
        <sat>8</sat>
      </trkpt>
      <trkpt lat="47.182214" lon="-121.924011">
        <ele>310.0</ele>
        <time>2014-08-15T00:52:14Z</time>
        <sat>8</sat>
      </trkpt>
      <trkpt lat="47.182312" lon="-121.923875">
        <ele>310.5</ele>
        <time>2014-08-15T00:52:19Z</time>
        <sat>8</sat>
      </trkpt>
      <trkpt lat="47.182385" lon="-121.923798">
        <ele>310.5</ele>
        <time>2014-08-15T00:52:23Z</time>
        <sat>8</sat>
      </trkpt>
      <trkpt lat="47.182458" lon="-121.923721">
        <ele>310.4</ele>
        <time>2014-08-15T00:52:27Z</time>
        <sat>8</sat>
      </trkpt>
      <trkpt lat="47.182547" lon="-121.923645">
        <ele>310.5</ele>
        <time>2014-08-15T00:52:31Z</time>
        <sat>8</sat>
      </trkpt>
      <trkpt lat="47.182643" lon="-121.923681">
        <ele>310.8</ele>
        <time>2014-08-15T00:52:35Z</time>
        <sat>7</sat>
      </trkpt>
      <trkpt lat="47.182727" lon="-121.923738">
        <ele>310.9</ele>
        <time>2014-08-15T00:52:38Z</time>
        <sat>7</sat>
      </trkpt>
      <trkpt lat="47.182839" lon="-121.923786">
        <ele>310.9</ele>
        <time>2014-08-15T00:52:41Z</time>
        <sat>7</sat>
      </trkpt>
      <trkpt lat="47.182937" lon="-121.923872">
        <ele>310.9</ele>
        <time>2014-08-15T00:52:44Z</time>
        <sat>7</sat>
      </trkpt>
      <trkpt lat="47.183015" lon="-121.923946">
        <ele>310.8</ele>
        <time>2014-08-15T00:52:47Z</time>
        <sat>7</sat>
      </trkpt>
      <trkpt lat="47.183100" lon="-121.924031">
        <ele>310.4</ele>
        <time>2014-08-15T00:52:51Z</time>
        <sat>7</sat>
      </trkpt>
      <trkpt lat="47.183184" lon="-121.924128">
        <ele>310.4</ele>
        <time>2014-08-15T00:52:56Z</time>
        <sat>7</sat>
      </trkpt>
      <trkpt lat="47.183112" lon="-121.924223">
        <ele>310.9</ele>
        <time>2014-08-15T00:53:18Z</time>
        <sat>8</sat>
      </trkpt>
      <trkpt lat="47.183020" lon="-121.924170">
        <ele>310.8</ele>
        <time>2014-08-15T00:53:21Z</time>
        <sat>7</sat>
      </trkpt>
      <trkpt lat="47.182939" lon="-121.924068">
        <ele>310.7</ele>
        <time>2014-08-15T00:53:24Z</time>
        <sat>8</sat>
      </trkpt>
      <trkpt lat="47.182855" lon="-121.923972">
        <ele>310.7</ele>
        <time>2014-08-15T00:53:27Z</time>
        <sat>8</sat>
      </trkpt>
      <trkpt lat="47.182742" lon="-121.923873">
        <ele>310.7</ele>
        <time>2014-08-15T00:53:30Z</time>
        <sat>7</sat>
      </trkpt>
      <trkpt lat="47.182619" lon="-121.923803">
        <ele>310.7</ele>
        <time>2014-08-15T00:53:33Z</time>
        <sat>7</sat>
      </trkpt>
      <trkpt lat="47.182524" lon="-121.923778">
        <ele>310.4</ele>
        <time>2014-08-15T00:53:35Z</time>
        <sat>8</sat>
      </trkpt>
      <trkpt lat="47.182437" lon="-121.923901">
        <ele>310.5</ele>
        <time>2014-08-15T00:53:38Z</time>
        <sat>8</sat>
      </trkpt>
      <trkpt lat="47.182453" lon="-121.924060">
        <ele>310.9</ele>
        <time>2014-08-15T00:53:41Z</time>
        <sat>8</sat>
      </trkpt>
      <trkpt lat="47.182515" lon="-121.924182">
        <ele>311.1</ele>
        <time>2014-08-15T00:53:44Z</time>
        <sat>8</sat>
      </trkpt>
      <trkpt lat="47.182587" lon="-121.924303">
        <ele>311.1</ele>
        <time>2014-08-15T00:53:47Z</time>
        <sat>8</sat>
      </trkpt>
      <trkpt lat="47.182665" lon="-121.924417">
        <ele>311.0</ele>
        <time>2014-08-15T00:53:50Z</time>
        <sat>8</sat>
      </trkpt>
      <trkpt lat="47.182743" lon="-121.924520">
        <ele>311.6</ele>
        <time>2014-08-15T00:53:53Z</time>
        <sat>8</sat>
      </trkpt>
      <trkpt lat="47.182815" lon="-121.924611">
        <ele>311.9</ele>
        <time>2014-08-15T00:53:56Z</time>
        <sat>8</sat>
      </trkpt>
      <trkpt lat="47.182883" lon="-121.924701">
        <ele>312.2</ele>
        <time>2014-08-15T00:53:59Z</time>
        <sat>8</sat>
      </trkpt>
      <trkpt lat="47.182949" lon="-121.924798">
        <ele>312.8</ele>
        <time>2014-08-15T00:54:02Z</time>
        <sat>8</sat>
      </trkpt>
      <trkpt lat="47.183027" lon="-121.924915">
        <ele>313.3</ele>
        <time>2014-08-15T00:54:06Z</time>
        <sat>8</sat>
      </trkpt>
      <trkpt lat="47.183102" lon="-121.925028">
        <ele>314.0</ele>
        <time>2014-08-15T00:54:10Z</time>
        <sat>8</sat>
      </trkpt>
      <trkpt lat="47.183182" lon="-121.925131">
        <ele>314.2</ele>
        <time>2014-08-15T00:54:14Z</time>
        <sat>8</sat>
      </trkpt>
      <trkpt lat="47.183267" lon="-121.925241">
        <ele>314.8</ele>
        <time>2014-08-15T00:54:18Z</time>
        <sat>8</sat>
      </trkpt>
      <trkpt lat="47.183357" lon="-121.925333">
        <ele>315.0</ele>
        <time>2014-08-15T00:54:22Z</time>
        <sat>8</sat>
      </trkpt>
      <trkpt lat="47.183460" lon="-121.925398">
        <ele>315.6</ele>
        <time>2014-08-15T00:54:26Z</time>
        <sat>7</sat>
      </trkpt>
      <trkpt lat="47.183575" lon="-121.925395">
        <ele>315.8</ele>
        <time>2014-08-15T00:54:30Z</time>
        <sat>7</sat>
      </trkpt>
      <trkpt lat="47.183683" lon="-121.925343">
        <ele>316.2</ele>
        <time>2014-08-15T00:54:34Z</time>
        <sat>7</sat>
      </trkpt>
      <trkpt lat="47.183787" lon="-121.925273">
        <ele>316.4</ele>
        <time>2014-08-15T00:54:38Z</time>
        <sat>8</sat>
      </trkpt>
      <trkpt lat="47.183863" lon="-121.925160">
        <ele>316.5</ele>
        <time>2014-08-15T00:54:58Z</time>
        <sat>8</sat>
      </trkpt>
      <trkpt lat="47.183912" lon="-121.925028">
        <ele>316.5</ele>
        <time>2014-08-15T00:55:04Z</time>
        <sat>8</sat>
      </trkpt>
      <trkpt lat="47.183972" lon="-121.924920">
        <ele>316.7</ele>
        <time>2014-08-15T00:55:33Z</time>
        <sat>8</sat>
      </trkpt>
      <trkpt lat="47.184042" lon="-121.924816">
        <ele>316.4</ele>
        <time>2014-08-15T00:55:39Z</time>
        <sat>8</sat>
      </trkpt>
      <trkpt lat="47.184097" lon="-121.924705">
        <ele>316.4</ele>
        <time>2014-08-15T00:55:43Z</time>
        <sat>8</sat>
      </trkpt>
      <trkpt lat="47.184152" lon="-121.924575">
        <ele>316.3</ele>
        <time>2014-08-15T00:55:47Z</time>
        <sat>8</sat>
      </trkpt>
      <trkpt lat="47.184217" lon="-121.924457">
        <ele>316.1</ele>
        <time>2014-08-15T00:55:50Z</time>
        <sat>8</sat>
      </trkpt>
      <trkpt lat="47.184295" lon="-121.924325">
        <ele>315.7</ele>
        <time>2014-08-15T00:55:53Z</time>
        <sat>8</sat>
      </trkpt>
      <trkpt lat="47.184359" lon="-121.924227">
        <ele>315.3</ele>
        <time>2014-08-15T00:55:55Z</time>
        <sat>8</sat>
      </trkpt>
      <trkpt lat="47.184429" lon="-121.924125">
        <ele>314.8</ele>
        <time>2014-08-15T00:55:57Z</time>
        <sat>8</sat>
      </trkpt>
      <trkpt lat="47.184505" lon="-121.924021">
        <ele>314.2</ele>
        <time>2014-08-15T00:55:59Z</time>
        <sat>8</sat>
      </trkpt>
      <trkpt lat="47.184585" lon="-121.923926">
        <ele>313.8</ele>
        <time>2014-08-15T00:56:01Z</time>
        <sat>8</sat>
      </trkpt>
      <trkpt lat="47.184662" lon="-121.923842">
        <ele>313.7</ele>
        <time>2014-08-15T00:56:03Z</time>
        <sat>7</sat>
      </trkpt>
      <trkpt lat="47.184755" lon="-121.923742">
        <ele>313.9</ele>
        <time>2014-08-15T00:56:06Z</time>
        <sat>7</sat>
      </trkpt>
      <trkpt lat="47.184837" lon="-121.923650">
        <ele>314.1</ele>
        <time>2014-08-15T00:56:09Z</time>
        <sat>8</sat>
      </trkpt>
      <trkpt lat="47.184918" lon="-121.923562">
        <ele>314.1</ele>
        <time>2014-08-15T00:56:12Z</time>
        <sat>7</sat>
      </trkpt>
      <trkpt lat="47.185010" lon="-121.923500">
        <ele>314.1</ele>
        <time>2014-08-15T00:56:15Z</time>
        <sat>7</sat>
      </trkpt>
      <trkpt lat="47.185107" lon="-121.923430">
        <ele>314.4</ele>
        <time>2014-08-15T00:56:18Z</time>
        <sat>7</sat>
      </trkpt>
      <trkpt lat="47.185204" lon="-121.923371">
        <ele>314.8</ele>
        <time>2014-08-15T00:56:21Z</time>
        <sat>7</sat>
      </trkpt>
      <trkpt lat="47.185295" lon="-121.923315">
        <ele>315.0</ele>
        <time>2014-08-15T00:56:24Z</time>
        <sat>7</sat>
      </trkpt>
      <trkpt lat="47.185384" lon="-121.923266">
        <ele>315.2</ele>
        <time>2014-08-15T00:56:27Z</time>
        <sat>7</sat>
      </trkpt>
      <trkpt lat="47.185472" lon="-121.923227">
        <ele>315.5</ele>
        <time>2014-08-15T00:56:30Z</time>
        <sat>7</sat>
      </trkpt>
      <trkpt lat="47.185580" lon="-121.923203">
        <ele>315.8</ele>
        <time>2014-08-15T00:56:34Z</time>
        <sat>7</sat>
      </trkpt>
      <trkpt lat="47.185703" lon="-121.923200">
        <ele>316.3</ele>
        <time>2014-08-15T00:56:38Z</time>
        <sat>7</sat>
      </trkpt>
      <trkpt lat="47.185795" lon="-121.923217">
        <ele>317.2</ele>
        <time>2014-08-15T00:56:44Z</time>
        <sat>7</sat>
      </trkpt>
      <trkpt lat="47.185900" lon="-121.923287">
        <ele>317.9</ele>
        <time>2014-08-15T00:56:51Z</time>
        <sat>7</sat>
      </trkpt>
      <trkpt lat="47.185984" lon="-121.923341">
        <ele>316.7</ele>
        <time>2014-08-15T00:56:54Z</time>
        <sat>7</sat>
      </trkpt>
      <trkpt lat="47.186080" lon="-121.923380">
        <ele>317.1</ele>
        <time>2014-08-15T00:56:57Z</time>
        <sat>7</sat>
      </trkpt>
      <trkpt lat="47.186180" lon="-121.923420">
        <ele>319.1</ele>
        <time>2014-08-15T00:57:01Z</time>
        <sat>7</sat>
      </trkpt>
      <trkpt lat="47.186258" lon="-121.923505">
        <ele>318.8</ele>
        <time>2014-08-15T00:57:05Z</time>
        <sat>7</sat>
      </trkpt>
      <trkpt lat="47.186348" lon="-121.923547">
        <ele>319.3</ele>
        <time>2014-08-15T00:57:09Z</time>
        <sat>7</sat>
      </trkpt>
      <trkpt lat="47.186439" lon="-121.923568">
        <ele>319.6</ele>
        <time>2014-08-15T00:57:12Z</time>
        <sat>7</sat>
      </trkpt>
      <trkpt lat="47.186524" lon="-121.923625">
        <ele>320.2</ele>
        <time>2014-08-15T00:57:15Z</time>
        <sat>7</sat>
      </trkpt>
      <trkpt lat="47.186634" lon="-121.923683">
        <ele>320.2</ele>
        <time>2014-08-15T00:57:18Z</time>
        <sat>7</sat>
      </trkpt>
      <trkpt lat="47.186759" lon="-121.923680">
        <ele>319.8</ele>
        <time>2014-08-15T00:57:21Z</time>
        <sat>7</sat>
      </trkpt>
      <trkpt lat="47.186872" lon="-121.923716">
        <ele>319.5</ele>
        <time>2014-08-15T00:57:24Z</time>
        <sat>6</sat>
      </trkpt>
      <trkpt lat="47.186970" lon="-121.923763">
        <ele>319.6</ele>
        <time>2014-08-15T00:57:27Z</time>
        <sat>6</sat>
      </trkpt>
      <trkpt lat="47.187075" lon="-121.923783">
        <ele>319.5</ele>
        <time>2014-08-15T00:57:30Z</time>
        <sat>6</sat>
      </trkpt>
      <trkpt lat="47.187177" lon="-121.923830">
        <ele>319.8</ele>
        <time>2014-08-15T00:57:33Z</time>
        <sat>6</sat>
      </trkpt>
      <trkpt lat="47.187275" lon="-121.923862">
        <ele>319.6</ele>
        <time>2014-08-15T00:57:36Z</time>
        <sat>6</sat>
      </trkpt>
      <trkpt lat="47.187368" lon="-121.923903">
        <ele>319.8</ele>
        <time>2014-08-15T00:57:39Z</time>
        <sat>6</sat>
      </trkpt>
      <trkpt lat="47.187465" lon="-121.923950">
        <ele>320.2</ele>
        <time>2014-08-15T00:57:42Z</time>
        <sat>6</sat>
      </trkpt>
      <trkpt lat="47.187557" lon="-121.923983">
        <ele>320.7</ele>
        <time>2014-08-15T00:57:46Z</time>
        <sat>6</sat>
      </trkpt>
      <trkpt lat="47.187660" lon="-121.924028">
        <ele>321.4</ele>
        <time>2014-08-15T00:57:50Z</time>
        <sat>6</sat>
      </trkpt>
      <trkpt lat="47.187749" lon="-121.924141">
        <ele>321.7</ele>
        <time>2014-08-15T00:57:54Z</time>
        <sat>6</sat>
      </trkpt>
      <trkpt lat="47.187852" lon="-121.924221">
        <ele>322.1</ele>
        <time>2014-08-15T00:57:58Z</time>
        <sat>6</sat>
      </trkpt>
      <trkpt lat="47.187995" lon="-121.924190">
        <ele>322.2</ele>
        <time>2014-08-15T00:58:01Z</time>
        <sat>6</sat>
      </trkpt>
      <trkpt lat="47.188122" lon="-121.924228">
        <ele>322.4</ele>
        <time>2014-08-15T00:58:04Z</time>
        <sat>6</sat>
      </trkpt>
      <trkpt lat="47.188228" lon="-121.924208">
        <ele>322.8</ele>
        <time>2014-08-15T00:58:07Z</time>
        <sat>6</sat>
      </trkpt>
      <trkpt lat="47.188340" lon="-121.924215">
        <ele>323.0</ele>
        <time>2014-08-15T00:58:10Z</time>
        <sat>6</sat>
      </trkpt>
      <trkpt lat="47.188450" lon="-121.924245">
        <ele>323.0</ele>
        <time>2014-08-15T00:58:13Z</time>
        <sat>6</sat>
      </trkpt>
      <trkpt lat="47.188564" lon="-121.924256">
        <ele>323.3</ele>
        <time>2014-08-15T00:58:17Z</time>
        <sat>6</sat>
      </trkpt>
      <trkpt lat="47.188690" lon="-121.924273">
        <ele>323.7</ele>
        <time>2014-08-15T00:58:20Z</time>
        <sat>7</sat>
      </trkpt>
      <trkpt lat="47.188792" lon="-121.924281">
        <ele>324.3</ele>
        <time>2014-08-15T00:58:23Z</time>
        <sat>7</sat>
      </trkpt>
      <trkpt lat="47.188930" lon="-121.924308">
        <ele>324.7</ele>
        <time>2014-08-15T00:58:27Z</time>
        <sat>7</sat>
      </trkpt>
      <trkpt lat="47.189048" lon="-121.924203">
        <ele>325.6</ele>
        <time>2014-08-15T00:58:32Z</time>
        <sat>7</sat>
      </trkpt>
      <trkpt lat="47.189163" lon="-121.924190">
        <ele>325.8</ele>
        <time>2014-08-15T00:58:35Z</time>
        <sat>7</sat>
      </trkpt>
      <trkpt lat="47.189263" lon="-121.924188">
        <ele>326.0</ele>
        <time>2014-08-15T00:58:37Z</time>
        <sat>7</sat>
      </trkpt>
      <trkpt lat="47.189390" lon="-121.924210">
        <ele>326.3</ele>
        <time>2014-08-15T00:58:40Z</time>
        <sat>8</sat>
      </trkpt>
      <trkpt lat="47.189490" lon="-121.924227">
        <ele>326.8</ele>
        <time>2014-08-15T00:58:43Z</time>
        <sat>8</sat>
      </trkpt>
      <trkpt lat="47.189593" lon="-121.924235">
        <ele>327.3</ele>
        <time>2014-08-15T00:58:46Z</time>
        <sat>8</sat>
      </trkpt>
      <trkpt lat="47.189698" lon="-121.924255">
        <ele>327.9</ele>
        <time>2014-08-15T00:58:50Z</time>
        <sat>8</sat>
      </trkpt>
      <trkpt lat="47.189795" lon="-121.924217">
        <ele>328.1</ele>
        <time>2014-08-15T00:58:54Z</time>
        <sat>8</sat>
      </trkpt>
      <trkpt lat="47.189880" lon="-121.924166">
        <ele>328.6</ele>
        <time>2014-08-15T00:58:58Z</time>
        <sat>8</sat>
      </trkpt>
      <trkpt lat="47.190007" lon="-121.924168">
        <ele>329.4</ele>
        <time>2014-08-15T00:59:04Z</time>
        <sat>8</sat>
      </trkpt>
      <trkpt lat="47.190114" lon="-121.924153">
        <ele>329.6</ele>
        <time>2014-08-15T00:59:07Z</time>
        <sat>8</sat>
      </trkpt>
      <trkpt lat="47.190200" lon="-121.924087">
        <ele>329.4</ele>
        <time>2014-08-15T00:59:11Z</time>
        <sat>8</sat>
      </trkpt>
      <trkpt lat="47.190322" lon="-121.924097">
        <ele>329.8</ele>
        <time>2014-08-15T00:59:14Z</time>
        <sat>8</sat>
      </trkpt>
      <trkpt lat="47.190444" lon="-121.924078">
        <ele>330.2</ele>
        <time>2014-08-15T00:59:17Z</time>
        <sat>8</sat>
      </trkpt>
      <trkpt lat="47.190544" lon="-121.924110">
        <ele>330.1</ele>
        <time>2014-08-15T00:59:19Z</time>
        <sat>8</sat>
      </trkpt>
      <trkpt lat="47.190635" lon="-121.924115">
        <ele>329.9</ele>
        <time>2014-08-15T00:59:21Z</time>
        <sat>8</sat>
      </trkpt>
      <trkpt lat="47.190744" lon="-121.924098">
        <ele>329.9</ele>
        <time>2014-08-15T00:59:24Z</time>
        <sat>8</sat>
      </trkpt>
      <trkpt lat="47.190850" lon="-121.924098">
        <ele>330.1</ele>
        <time>2014-08-15T00:59:27Z</time>
        <sat>8</sat>
      </trkpt>
      <trkpt lat="47.190940" lon="-121.924085">
        <ele>330.1</ele>
        <time>2014-08-15T00:59:30Z</time>
        <sat>8</sat>
      </trkpt>
      <trkpt lat="47.191047" lon="-121.924102">
        <ele>329.8</ele>
        <time>2014-08-15T00:59:33Z</time>
        <sat>8</sat>
      </trkpt>
      <trkpt lat="47.191177" lon="-121.924108">
        <ele>329.8</ele>
        <time>2014-08-15T00:59:36Z</time>
        <sat>8</sat>
      </trkpt>
      <trkpt lat="47.191270" lon="-121.924125">
        <ele>329.8</ele>
        <time>2014-08-15T00:59:38Z</time>
        <sat>8</sat>
      </trkpt>
      <trkpt lat="47.191395" lon="-121.924130">
        <ele>330.0</ele>
        <time>2014-08-15T00:59:41Z</time>
        <sat>8</sat>
      </trkpt>
      <trkpt lat="47.191520" lon="-121.924110">
        <ele>329.9</ele>
        <time>2014-08-15T00:59:44Z</time>
        <sat>8</sat>
      </trkpt>
      <trkpt lat="47.191649" lon="-121.924097">
        <ele>330.2</ele>
        <time>2014-08-15T00:59:47Z</time>
        <sat>8</sat>
      </trkpt>
      <trkpt lat="47.191779" lon="-121.924090">
        <ele>330.3</ele>
        <time>2014-08-15T00:59:50Z</time>
        <sat>8</sat>
      </trkpt>
      <trkpt lat="47.191902" lon="-121.924117">
        <ele>330.3</ele>
        <time>2014-08-15T00:59:53Z</time>
        <sat>8</sat>
      </trkpt>
      <trkpt lat="47.191994" lon="-121.924126">
        <ele>330.7</ele>
        <time>2014-08-15T00:59:55Z</time>
        <sat>8</sat>
      </trkpt>
      <trkpt lat="47.192084" lon="-121.924118">
        <ele>330.8</ele>
        <time>2014-08-15T00:59:57Z</time>
        <sat>8</sat>
      </trkpt>
      <trkpt lat="47.192204" lon="-121.924117">
        <ele>330.7</ele>
        <time>2014-08-15T01:00:00Z</time>
        <sat>8</sat>
      </trkpt>
      <trkpt lat="47.192314" lon="-121.924130">
        <ele>330.7</ele>
        <time>2014-08-15T01:00:03Z</time>
        <sat>8</sat>
      </trkpt>
      <trkpt lat="47.192403" lon="-121.924112">
        <ele>330.6</ele>
        <time>2014-08-15T01:00:05Z</time>
        <sat>8</sat>
      </trkpt>
      <trkpt lat="47.192524" lon="-121.924105">
        <ele>330.9</ele>
        <time>2014-08-15T01:00:08Z</time>
        <sat>8</sat>
      </trkpt>
      <trkpt lat="47.192618" lon="-121.924088">
        <ele>330.7</ele>
        <time>2014-08-15T01:00:11Z</time>
        <sat>8</sat>
      </trkpt>
      <trkpt lat="47.192729" lon="-121.924070">
        <ele>331.0</ele>
        <time>2014-08-15T01:00:14Z</time>
        <sat>8</sat>
      </trkpt>
      <trkpt lat="47.192827" lon="-121.924050">
        <ele>331.5</ele>
        <time>2014-08-15T01:00:16Z</time>
        <sat>8</sat>
      </trkpt>
      <trkpt lat="47.192918" lon="-121.924035">
        <ele>331.6</ele>
        <time>2014-08-15T01:00:19Z</time>
        <sat>8</sat>
      </trkpt>
      <trkpt lat="47.193010" lon="-121.924015">
        <ele>333.1</ele>
        <time>2014-08-15T01:00:26Z</time>
        <sat>8</sat>
      </trkpt>
      <trkpt lat="47.193009" lon="-121.924153">
        <ele>330.7</ele>
        <time>2014-08-15T01:01:20Z</time>
        <sat>8</sat>
      </trkpt>
      <trkpt lat="47.193065" lon="-121.924048">
        <ele>331.5</ele>
        <time>2014-08-15T01:01:32Z</time>
        <sat>8</sat>
      </trkpt>
      <trkpt lat="47.193162" lon="-121.923993">
        <ele>331.3</ele>
        <time>2014-08-15T01:01:37Z</time>
        <sat>8</sat>
      </trkpt>
      <trkpt lat="47.193258" lon="-121.923948">
        <ele>331.4</ele>
        <time>2014-08-15T01:01:41Z</time>
        <sat>8</sat>
      </trkpt>
      <trkpt lat="47.193358" lon="-121.923930">
        <ele>331.4</ele>
        <time>2014-08-15T01:01:45Z</time>
        <sat>8</sat>
      </trkpt>
      <trkpt lat="47.193450" lon="-121.923931">
        <ele>331.5</ele>
        <time>2014-08-15T01:01:48Z</time>
        <sat>8</sat>
      </trkpt>
      <trkpt lat="47.193557" lon="-121.923988">
        <ele>331.8</ele>
        <time>2014-08-15T01:01:52Z</time>
        <sat>8</sat>
      </trkpt>
      <trkpt lat="47.193659" lon="-121.923977">
        <ele>332.0</ele>
        <time>2014-08-15T01:01:56Z</time>
        <sat>8</sat>
      </trkpt>
      <trkpt lat="47.193759" lon="-121.923938">
        <ele>332.2</ele>
        <time>2014-08-15T01:02:00Z</time>
        <sat>8</sat>
      </trkpt>
      <trkpt lat="47.193852" lon="-121.923885">
        <ele>332.1</ele>
        <time>2014-08-15T01:02:04Z</time>
        <sat>8</sat>
      </trkpt>
      <trkpt lat="47.193963" lon="-121.923867">
        <ele>332.0</ele>
        <time>2014-08-15T01:02:08Z</time>
        <sat>8</sat>
      </trkpt>
      <trkpt lat="47.194070" lon="-121.923831">
        <ele>332.4</ele>
        <time>2014-08-15T01:02:12Z</time>
        <sat>8</sat>
      </trkpt>
      <trkpt lat="47.194175" lon="-121.923780">
        <ele>332.4</ele>
        <time>2014-08-15T01:02:17Z</time>
        <sat>8</sat>
      </trkpt>
      <trkpt lat="47.194287" lon="-121.923750">
        <ele>332.7</ele>
        <time>2014-08-15T01:02:21Z</time>
        <sat>8</sat>
      </trkpt>
      <trkpt lat="47.194387" lon="-121.923703">
        <ele>333.1</ele>
        <time>2014-08-15T01:02:25Z</time>
        <sat>8</sat>
      </trkpt>
      <trkpt lat="47.194502" lon="-121.923683">
        <ele>333.4</ele>
        <time>2014-08-15T01:02:30Z</time>
        <sat>8</sat>
      </trkpt>
      <trkpt lat="47.194600" lon="-121.923673">
        <ele>333.8</ele>
        <time>2014-08-15T01:02:35Z</time>
        <sat>8</sat>
      </trkpt>
      <trkpt lat="47.194694" lon="-121.923667">
        <ele>334.1</ele>
        <time>2014-08-15T01:02:40Z</time>
        <sat>8</sat>
      </trkpt>
      <trkpt lat="47.194792" lon="-121.923665">
        <ele>334.2</ele>
        <time>2014-08-15T01:02:44Z</time>
        <sat>8</sat>
      </trkpt>
      <trkpt lat="47.194894" lon="-121.923660">
        <ele>334.6</ele>
        <time>2014-08-15T01:02:48Z</time>
        <sat>8</sat>
      </trkpt>
      <trkpt lat="47.194983" lon="-121.923663">
        <ele>334.8</ele>
        <time>2014-08-15T01:02:51Z</time>
        <sat>8</sat>
      </trkpt>
      <trkpt lat="47.195075" lon="-121.923673">
        <ele>334.7</ele>
        <time>2014-08-15T01:02:54Z</time>
        <sat>8</sat>
      </trkpt>
      <trkpt lat="47.195182" lon="-121.923693">
        <ele>334.9</ele>
        <time>2014-08-15T01:02:58Z</time>
        <sat>8</sat>
      </trkpt>
      <trkpt lat="47.195292" lon="-121.923716">
        <ele>334.8</ele>
        <time>2014-08-15T01:03:03Z</time>
        <sat>8</sat>
      </trkpt>
      <trkpt lat="47.195402" lon="-121.923736">
        <ele>334.7</ele>
        <time>2014-08-15T01:03:07Z</time>
        <sat>8</sat>
      </trkpt>
      <trkpt lat="47.195505" lon="-121.923760">
        <ele>334.1</ele>
        <time>2014-08-15T01:03:11Z</time>
        <sat>8</sat>
      </trkpt>
      <trkpt lat="47.195605" lon="-121.923767">
        <ele>334.3</ele>
        <time>2014-08-15T01:03:15Z</time>
        <sat>8</sat>
      </trkpt>
      <trkpt lat="47.195715" lon="-121.923772">
        <ele>334.1</ele>
        <time>2014-08-15T01:03:19Z</time>
        <sat>8</sat>
      </trkpt>
      <trkpt lat="47.195812" lon="-121.923790">
        <ele>334.0</ele>
        <time>2014-08-15T01:03:22Z</time>
        <sat>8</sat>
      </trkpt>
      <trkpt lat="47.195924" lon="-121.923792">
        <ele>333.8</ele>
        <time>2014-08-15T01:03:26Z</time>
        <sat>8</sat>
      </trkpt>
      <trkpt lat="47.196034" lon="-121.923786">
        <ele>333.2</ele>
        <time>2014-08-15T01:03:29Z</time>
        <sat>8</sat>
      </trkpt>
      <trkpt lat="47.196125" lon="-121.923810">
        <ele>333.6</ele>
        <time>2014-08-15T01:03:33Z</time>
        <sat>8</sat>
      </trkpt>
      <trkpt lat="47.196222" lon="-121.923815">
        <ele>333.4</ele>
        <time>2014-08-15T01:03:36Z</time>
        <sat>8</sat>
      </trkpt>
      <trkpt lat="47.196322" lon="-121.923810">
        <ele>333.3</ele>
        <time>2014-08-15T01:03:39Z</time>
        <sat>8</sat>
      </trkpt>
      <trkpt lat="47.196417" lon="-121.923821">
        <ele>333.1</ele>
        <time>2014-08-15T01:03:42Z</time>
        <sat>8</sat>
      </trkpt>
      <trkpt lat="47.196512" lon="-121.923828">
        <ele>333.0</ele>
        <time>2014-08-15T01:03:45Z</time>
        <sat>8</sat>
      </trkpt>
      <trkpt lat="47.197865" lon="-121.923460">
        <ele>332.0</ele>
        <time>2014-08-15T01:03:50Z</time>
        <sat>8</sat>
      </trkpt>
      <trkpt lat="47.198202" lon="-121.923441">
        <ele>332.7</ele>
        <time>2014-08-15T01:03:55Z</time>
        <sat>8</sat>
      </trkpt>
      <trkpt lat="47.198317" lon="-121.923455">
        <ele>332.8</ele>
        <time>2014-08-15T01:03:58Z</time>
        <sat>8</sat>
      </trkpt>
      <trkpt lat="47.198433" lon="-121.923466">
        <ele>332.9</ele>
        <time>2014-08-15T01:04:01Z</time>
        <sat>8</sat>
      </trkpt>
      <trkpt lat="47.198555" lon="-121.923470">
        <ele>333.0</ele>
        <time>2014-08-15T01:04:04Z</time>
        <sat>8</sat>
      </trkpt>
      <trkpt lat="47.198679" lon="-121.923488">
        <ele>333.1</ele>
        <time>2014-08-15T01:04:07Z</time>
        <sat>8</sat>
      </trkpt>
      <trkpt lat="47.198804" lon="-121.923485">
        <ele>333.1</ele>
        <time>2014-08-15T01:04:10Z</time>
        <sat>8</sat>
      </trkpt>
      <trkpt lat="47.198912" lon="-121.923473">
        <ele>333.0</ele>
        <time>2014-08-15T01:04:12Z</time>
        <sat>8</sat>
      </trkpt>
      <trkpt lat="47.199002" lon="-121.923458">
        <ele>333.0</ele>
        <time>2014-08-15T01:04:14Z</time>
        <sat>8</sat>
      </trkpt>
      <trkpt lat="47.199093" lon="-121.923441">
        <ele>333.0</ele>
        <time>2014-08-15T01:04:16Z</time>
        <sat>8</sat>
      </trkpt>
      <trkpt lat="47.199212" lon="-121.923412">
        <ele>333.1</ele>
        <time>2014-08-15T01:04:19Z</time>
        <sat>8</sat>
      </trkpt>
      <trkpt lat="47.199342" lon="-121.923343">
        <ele>333.3</ele>
        <time>2014-08-15T01:04:22Z</time>
        <sat>8</sat>
      </trkpt>
      <trkpt lat="47.199437" lon="-121.923297">
        <ele>333.5</ele>
        <time>2014-08-15T01:04:24Z</time>
        <sat>8</sat>
      </trkpt>
      <trkpt lat="47.199522" lon="-121.923236">
        <ele>333.4</ele>
        <time>2014-08-15T01:04:26Z</time>
        <sat>8</sat>
      </trkpt>
      <trkpt lat="47.199619" lon="-121.923170">
        <ele>333.7</ele>
        <time>2014-08-15T01:04:29Z</time>
        <sat>8</sat>
      </trkpt>
      <trkpt lat="47.199730" lon="-121.923103">
        <ele>333.8</ele>
        <time>2014-08-15T01:04:32Z</time>
        <sat>8</sat>
      </trkpt>
      <trkpt lat="47.199847" lon="-121.923055">
        <ele>334.0</ele>
        <time>2014-08-15T01:04:35Z</time>
        <sat>8</sat>
      </trkpt>
      <trkpt lat="47.199952" lon="-121.922998">
        <ele>334.2</ele>
        <time>2014-08-15T01:04:38Z</time>
        <sat>8</sat>
      </trkpt>
      <trkpt lat="47.200037" lon="-121.922948">
        <ele>334.4</ele>
        <time>2014-08-15T01:04:41Z</time>
        <sat>8</sat>
      </trkpt>
      <trkpt lat="47.200134" lon="-121.922875">
        <ele>335.0</ele>
        <time>2014-08-15T01:04:44Z</time>
        <sat>8</sat>
      </trkpt>
      <trkpt lat="47.200225" lon="-121.922780">
        <ele>334.9</ele>
        <time>2014-08-15T01:04:47Z</time>
        <sat>8</sat>
      </trkpt>
      <trkpt lat="47.200322" lon="-121.922711">
        <ele>335.5</ele>
        <time>2014-08-15T01:04:50Z</time>
        <sat>8</sat>
      </trkpt>
      <trkpt lat="47.200420" lon="-121.922622">
        <ele>335.7</ele>
        <time>2014-08-15T01:04:53Z</time>
        <sat>8</sat>
      </trkpt>
      <trkpt lat="47.200499" lon="-121.922528">
        <ele>336.0</ele>
        <time>2014-08-15T01:04:56Z</time>
        <sat>8</sat>
      </trkpt>
      <trkpt lat="47.200584" lon="-121.922445">
        <ele>336.2</ele>
        <time>2014-08-15T01:04:59Z</time>
        <sat>8</sat>
      </trkpt>
      <trkpt lat="47.200675" lon="-121.922390">
        <ele>336.3</ele>
        <time>2014-08-15T01:05:01Z</time>
        <sat>8</sat>
      </trkpt>
      <trkpt lat="47.200770" lon="-121.922321">
        <ele>336.7</ele>
        <time>2014-08-15T01:05:04Z</time>
        <sat>8</sat>
      </trkpt>
      <trkpt lat="47.200855" lon="-121.922268">
        <ele>336.9</ele>
        <time>2014-08-15T01:05:07Z</time>
        <sat>8</sat>
      </trkpt>
      <trkpt lat="47.200957" lon="-121.922215">
        <ele>336.8</ele>
        <time>2014-08-15T01:05:10Z</time>
        <sat>8</sat>
      </trkpt>
      <trkpt lat="47.201064" lon="-121.922158">
        <ele>337.2</ele>
        <time>2014-08-15T01:05:13Z</time>
        <sat>8</sat>
      </trkpt>
      <trkpt lat="47.201154" lon="-121.922123">
        <ele>336.7</ele>
        <time>2014-08-15T01:05:15Z</time>
        <sat>7</sat>
      </trkpt>
      <trkpt lat="47.201270" lon="-121.922083">
        <ele>337.4</ele>
        <time>2014-08-15T01:05:17Z</time>
        <sat>8</sat>
      </trkpt>
      <trkpt lat="47.201364" lon="-121.922050">
        <ele>337.4</ele>
        <time>2014-08-15T01:05:19Z</time>
        <sat>8</sat>
      </trkpt>
      <trkpt lat="47.201470" lon="-121.921980">
        <ele>337.8</ele>
        <time>2014-08-15T01:05:22Z</time>
        <sat>8</sat>
      </trkpt>
      <trkpt lat="47.201585" lon="-121.921885">
        <ele>337.9</ele>
        <time>2014-08-15T01:05:25Z</time>
        <sat>8</sat>
      </trkpt>
      <trkpt lat="47.201690" lon="-121.921816">
        <ele>337.7</ele>
        <time>2014-08-15T01:05:28Z</time>
        <sat>7</sat>
      </trkpt>
      <trkpt lat="47.201783" lon="-121.921760">
        <ele>338.1</ele>
        <time>2014-08-15T01:05:32Z</time>
        <sat>8</sat>
      </trkpt>
      <trkpt lat="47.201872" lon="-121.921700">
        <ele>339.3</ele>
        <time>2014-08-15T01:05:37Z</time>
        <sat>8</sat>
      </trkpt>
      <trkpt lat="47.201862" lon="-121.921560">
        <ele>338.0</ele>
        <time>2014-08-15T01:07:19Z</time>
        <sat>8</sat>
      </trkpt>
      <trkpt lat="47.201810" lon="-121.921437">
        <ele>337.7</ele>
        <time>2014-08-15T01:07:25Z</time>
        <sat>8</sat>
      </trkpt>
      <trkpt lat="47.201758" lon="-121.921322">
        <ele>337.7</ele>
        <time>2014-08-15T01:07:30Z</time>
        <sat>8</sat>
      </trkpt>
      <trkpt lat="47.201667" lon="-121.921266">
        <ele>337.7</ele>
        <time>2014-08-15T01:07:37Z</time>
        <sat>8</sat>
      </trkpt>
      <trkpt lat="47.201567" lon="-121.921207">
        <ele>337.1</ele>
        <time>2014-08-15T01:07:46Z</time>
        <sat>7</sat>
      </trkpt>
      <trkpt lat="47.201470" lon="-121.921103">
        <ele>337.1</ele>
        <time>2014-08-15T01:07:50Z</time>
        <sat>8</sat>
      </trkpt>
      <trkpt lat="47.201380" lon="-121.921185">
        <ele>336.7</ele>
        <time>2014-08-15T01:07:52Z</time>
        <sat>7</sat>
      </trkpt>
      <trkpt lat="47.201284" lon="-121.921245">
        <ele>335.6</ele>
        <time>2014-08-15T01:07:59Z</time>
        <sat>8</sat>
      </trkpt>
      <trkpt lat="47.201183" lon="-121.921293">
        <ele>335.2</ele>
        <time>2014-08-15T01:08:04Z</time>
        <sat>7</sat>
      </trkpt>
      <trkpt lat="47.201083" lon="-121.921435">
        <ele>334.5</ele>
        <time>2014-08-15T01:08:11Z</time>
        <sat>8</sat>
      </trkpt>
      <trkpt lat="47.200973" lon="-121.921565">
        <ele>334.4</ele>
        <time>2014-08-15T01:08:13Z</time>
        <sat>8</sat>
      </trkpt>
      <trkpt lat="47.200882" lon="-121.921730">
        <ele>334.6</ele>
        <time>2014-08-15T01:08:15Z</time>
        <sat>8</sat>
      </trkpt>
      <trkpt lat="47.200788" lon="-121.921848">
        <ele>334.5</ele>
        <time>2014-08-15T01:08:17Z</time>
        <sat>8</sat>
      </trkpt>
      <trkpt lat="47.200725" lon="-121.921967">
        <ele>334.3</ele>
        <time>2014-08-15T01:08:19Z</time>
        <sat>8</sat>
      </trkpt>
      <trkpt lat="47.200699" lon="-121.922102">
        <ele>334.3</ele>
        <time>2014-08-15T01:08:22Z</time>
        <sat>7</sat>
      </trkpt>
      <trkpt lat="47.200675" lon="-121.922250">
        <ele>334.4</ele>
        <time>2014-08-15T01:08:25Z</time>
        <sat>8</sat>
      </trkpt>
      <trkpt lat="47.200374" lon="-121.923248">
        <ele>334.0</ele>
        <time>2014-08-15T01:08:41Z</time>
        <sat>8</sat>
      </trkpt>
      <trkpt lat="47.200255" lon="-121.923283">
        <ele>334.0</ele>
        <time>2014-08-15T01:08:46Z</time>
        <sat>8</sat>
      </trkpt>
      <trkpt lat="47.200140" lon="-121.923308">
        <ele>333.8</ele>
        <time>2014-08-15T01:08:50Z</time>
        <sat>8</sat>
      </trkpt>
      <trkpt lat="47.200039" lon="-121.923333">
        <ele>333.8</ele>
        <time>2014-08-15T01:08:54Z</time>
        <sat>8</sat>
      </trkpt>
      <trkpt lat="47.199942" lon="-121.923346">
        <ele>333.9</ele>
        <time>2014-08-15T01:08:58Z</time>
        <sat>8</sat>
      </trkpt>
      <trkpt lat="47.199822" lon="-121.923363">
        <ele>333.7</ele>
        <time>2014-08-15T01:09:02Z</time>
        <sat>8</sat>
      </trkpt>
      <trkpt lat="47.199729" lon="-121.923363">
        <ele>333.7</ele>
        <time>2014-08-15T01:09:05Z</time>
        <sat>8</sat>
      </trkpt>
      <trkpt lat="47.199637" lon="-121.923366">
        <ele>333.4</ele>
        <time>2014-08-15T01:09:08Z</time>
        <sat>8</sat>
      </trkpt>
      <trkpt lat="47.199537" lon="-121.923368">
        <ele>333.9</ele>
        <time>2014-08-15T01:09:12Z</time>
        <sat>8</sat>
      </trkpt>
      <trkpt lat="47.199440" lon="-121.923355">
        <ele>334.2</ele>
        <time>2014-08-15T01:09:18Z</time>
        <sat>7</sat>
      </trkpt>
      <trkpt lat="47.199348" lon="-121.923348">
        <ele>334.0</ele>
        <time>2014-08-15T01:09:22Z</time>
        <sat>7</sat>
      </trkpt>
      <trkpt lat="47.199230" lon="-121.923343">
        <ele>333.9</ele>
        <time>2014-08-15T01:09:26Z</time>
        <sat>8</sat>
      </trkpt>
      <trkpt lat="47.199112" lon="-121.923325">
        <ele>333.7</ele>
        <time>2014-08-15T01:09:29Z</time>
        <sat>8</sat>
      </trkpt>
      <trkpt lat="47.199014" lon="-121.923318">
        <ele>334.8</ele>
        <time>2014-08-15T01:09:32Z</time>
        <sat>8</sat>
      </trkpt>
      <trkpt lat="47.198917" lon="-121.923301">
        <ele>334.2</ele>
        <time>2014-08-15T01:09:36Z</time>
        <sat>8</sat>
      </trkpt>
      <trkpt lat="47.198817" lon="-121.923293">
        <ele>334.1</ele>
        <time>2014-08-15T01:09:43Z</time>
        <sat>8</sat>
      </trkpt>
      <trkpt lat="47.198491" lon="-121.923172">
        <ele>333.0</ele>
        <time>2014-08-15T01:10:21Z</time>
        <sat>8</sat>
      </trkpt>
      <trkpt lat="47.198374" lon="-121.923163">
        <ele>333.5</ele>
        <time>2014-08-15T01:10:26Z</time>
        <sat>8</sat>
      </trkpt>
      <trkpt lat="47.198269" lon="-121.923175">
        <ele>333.7</ele>
        <time>2014-08-15T01:10:29Z</time>
        <sat>8</sat>
      </trkpt>
      <trkpt lat="47.198163" lon="-121.923178">
        <ele>333.6</ele>
        <time>2014-08-15T01:10:32Z</time>
        <sat>8</sat>
      </trkpt>
      <trkpt lat="47.198050" lon="-121.923186">
        <ele>333.5</ele>
        <time>2014-08-15T01:10:35Z</time>
        <sat>8</sat>
      </trkpt>
      <trkpt lat="47.197947" lon="-121.923185">
        <ele>334.0</ele>
        <time>2014-08-15T01:10:38Z</time>
        <sat>8</sat>
      </trkpt>
      <trkpt lat="47.197857" lon="-121.923186">
        <ele>334.2</ele>
        <time>2014-08-15T01:10:40Z</time>
        <sat>8</sat>
      </trkpt>
      <trkpt lat="47.197727" lon="-121.923188">
        <ele>334.2</ele>
        <time>2014-08-15T01:10:43Z</time>
        <sat>8</sat>
      </trkpt>
      <trkpt lat="47.197607" lon="-121.923182">
        <ele>334.7</ele>
        <time>2014-08-15T01:10:46Z</time>
        <sat>7</sat>
      </trkpt>
      <trkpt lat="47.197498" lon="-121.923185">
        <ele>334.7</ele>
        <time>2014-08-15T01:10:49Z</time>
        <sat>8</sat>
      </trkpt>
      <trkpt lat="47.197405" lon="-121.923202">
        <ele>335.0</ele>
        <time>2014-08-15T01:10:53Z</time>
        <sat>8</sat>
      </trkpt>
      <trkpt lat="47.197422" lon="-121.923337">
        <ele>335.1</ele>
        <time>2014-08-15T01:11:42Z</time>
        <sat>8</sat>
      </trkpt>
      <trkpt lat="47.197465" lon="-121.923466">
        <ele>334.5</ele>
        <time>2014-08-15T01:11:51Z</time>
        <sat>8</sat>
      </trkpt>
      <trkpt lat="47.197520" lon="-121.923576">
        <ele>335.0</ele>
        <time>2014-08-15T01:12:12Z</time>
        <sat>8</sat>
      </trkpt>
      <trkpt lat="47.197613" lon="-121.923547">
        <ele>335.2</ele>
        <time>2014-08-15T01:12:40Z</time>
        <sat>8</sat>
      </trkpt>
      <trkpt lat="47.197530" lon="-121.923461">
        <ele>334.5</ele>
        <time>2014-08-15T01:13:02Z</time>
        <sat>8</sat>
      </trkpt>
      <trkpt lat="47.197445" lon="-121.923510">
        <ele>334.7</ele>
        <time>2014-08-15T01:13:08Z</time>
        <sat>8</sat>
      </trkpt>
      <trkpt lat="47.197504" lon="-121.923625">
        <ele>334.7</ele>
        <time>2014-08-15T01:13:18Z</time>
        <sat>8</sat>
      </trkpt>
      <trkpt lat="47.197387" lon="-121.923542">
        <ele>334.0</ele>
        <time>2014-08-15T01:16:15Z</time>
        <sat>8</sat>
      </trkpt>
      <trkpt lat="47.197442" lon="-121.923423">
        <ele>333.6</ele>
        <time>2014-08-15T01:16:27Z</time>
        <sat>8</sat>
      </trkpt>
      <trkpt lat="47.197532" lon="-121.923410">
        <ele>333.6</ele>
        <time>2014-08-15T01:16:32Z</time>
        <sat>8</sat>
      </trkpt>
      <trkpt lat="47.197625" lon="-121.923420">
        <ele>332.9</ele>
        <time>2014-08-15T01:16:39Z</time>
        <sat>8</sat>
      </trkpt>
      <trkpt lat="47.197723" lon="-121.923381">
        <ele>332.3</ele>
        <time>2014-08-15T01:16:50Z</time>
        <sat>8</sat>
      </trkpt>
      <trkpt lat="47.197820" lon="-121.923380">
        <ele>332.1</ele>
        <time>2014-08-15T01:16:56Z</time>
        <sat>8</sat>
      </trkpt>
      <trkpt lat="47.197924" lon="-121.923395">
        <ele>332.0</ele>
        <time>2014-08-15T01:17:00Z</time>
        <sat>8</sat>
      </trkpt>
      <trkpt lat="47.198024" lon="-121.923422">
        <ele>331.6</ele>
        <time>2014-08-15T01:17:04Z</time>
        <sat>8</sat>
      </trkpt>
      <trkpt lat="47.198125" lon="-121.923438">
        <ele>331.3</ele>
        <time>2014-08-15T01:17:08Z</time>
        <sat>8</sat>
      </trkpt>
      <trkpt lat="47.198225" lon="-121.923438">
        <ele>331.1</ele>
        <time>2014-08-15T01:17:12Z</time>
        <sat>8</sat>
      </trkpt>
      <trkpt lat="47.198338" lon="-121.923463">
        <ele>330.7</ele>
        <time>2014-08-15T01:17:16Z</time>
        <sat>8</sat>
      </trkpt>
      <trkpt lat="47.198430" lon="-121.923483">
        <ele>330.9</ele>
        <time>2014-08-15T01:17:20Z</time>
        <sat>8</sat>
      </trkpt>
      <trkpt lat="47.198530" lon="-121.923518">
        <ele>330.9</ele>
        <time>2014-08-15T01:17:24Z</time>
        <sat>8</sat>
      </trkpt>
      <trkpt lat="47.198623" lon="-121.923473">
        <ele>330.1</ele>
        <time>2014-08-15T01:17:29Z</time>
        <sat>8</sat>
      </trkpt>
      <trkpt lat="47.198720" lon="-121.923433">
        <ele>330.3</ele>
        <time>2014-08-15T01:17:36Z</time>
        <sat>8</sat>
      </trkpt>
      <trkpt lat="47.198827" lon="-121.923432">
        <ele>329.9</ele>
        <time>2014-08-15T01:17:41Z</time>
        <sat>8</sat>
      </trkpt>
      <trkpt lat="47.198922" lon="-121.923552">
        <ele>329.6</ele>
        <time>2014-08-15T01:17:51Z</time>
        <sat>8</sat>
      </trkpt>
      <trkpt lat="47.199019" lon="-121.923596">
        <ele>329.5</ele>
        <time>2014-08-15T01:17:54Z</time>
        <sat>8</sat>
      </trkpt>
      <trkpt lat="47.199159" lon="-121.923606">
        <ele>329.5</ele>
        <time>2014-08-15T01:17:58Z</time>
        <sat>8</sat>
      </trkpt>
      <trkpt lat="47.199275" lon="-121.923583">
        <ele>329.3</ele>
        <time>2014-08-15T01:18:01Z</time>
        <sat>8</sat>
      </trkpt>
      <trkpt lat="47.199374" lon="-121.923565">
        <ele>329.2</ele>
        <time>2014-08-15T01:18:04Z</time>
        <sat>8</sat>
      </trkpt>
      <trkpt lat="47.199463" lon="-121.923528">
        <ele>329.0</ele>
        <time>2014-08-15T01:18:07Z</time>
        <sat>8</sat>
      </trkpt>
      <trkpt lat="47.199560" lon="-121.923490">
        <ele>329.0</ele>
        <time>2014-08-15T01:18:10Z</time>
        <sat>8</sat>
      </trkpt>
      <trkpt lat="47.199650" lon="-121.923447">
        <ele>328.8</ele>
        <time>2014-08-15T01:18:13Z</time>
        <sat>8</sat>
      </trkpt>
      <trkpt lat="47.199758" lon="-121.923387">
        <ele>328.9</ele>
        <time>2014-08-15T01:18:17Z</time>
        <sat>8</sat>
      </trkpt>
      <trkpt lat="47.199853" lon="-121.923350">
        <ele>328.8</ele>
        <time>2014-08-15T01:18:21Z</time>
        <sat>8</sat>
      </trkpt>
      <trkpt lat="47.199944" lon="-121.923327">
        <ele>328.8</ele>
        <time>2014-08-15T01:18:24Z</time>
        <sat>8</sat>
      </trkpt>
      <trkpt lat="47.200050" lon="-121.923268">
        <ele>328.9</ele>
        <time>2014-08-15T01:18:27Z</time>
        <sat>8</sat>
      </trkpt>
      <trkpt lat="47.200144" lon="-121.923215">
        <ele>328.9</ele>
        <time>2014-08-15T01:18:30Z</time>
        <sat>8</sat>
      </trkpt>
      <trkpt lat="47.200230" lon="-121.923170">
        <ele>329.0</ele>
        <time>2014-08-15T01:18:33Z</time>
        <sat>8</sat>
      </trkpt>
      <trkpt lat="47.200344" lon="-121.923097">
        <ele>329.0</ele>
        <time>2014-08-15T01:18:37Z</time>
        <sat>8</sat>
      </trkpt>
      <trkpt lat="47.200432" lon="-121.923035">
        <ele>329.2</ele>
        <time>2014-08-15T01:18:40Z</time>
        <sat>8</sat>
      </trkpt>
      <trkpt lat="47.200533" lon="-121.922965">
        <ele>329.5</ele>
        <time>2014-08-15T01:18:43Z</time>
        <sat>8</sat>
      </trkpt>
      <trkpt lat="47.200650" lon="-121.922872">
        <ele>329.7</ele>
        <time>2014-08-15T01:18:46Z</time>
        <sat>8</sat>
      </trkpt>
      <trkpt lat="47.200760" lon="-121.922785">
        <ele>329.8</ele>
        <time>2014-08-15T01:18:49Z</time>
        <sat>8</sat>
      </trkpt>
      <trkpt lat="47.200870" lon="-121.922696">
        <ele>329.8</ele>
        <time>2014-08-15T01:18:52Z</time>
        <sat>8</sat>
      </trkpt>
      <trkpt lat="47.200982" lon="-121.922643">
        <ele>330.3</ele>
        <time>2014-08-15T01:18:56Z</time>
        <sat>8</sat>
      </trkpt>
      <trkpt lat="47.201074" lon="-121.922611">
        <ele>330.3</ele>
        <time>2014-08-15T01:18:58Z</time>
        <sat>8</sat>
      </trkpt>
      <trkpt lat="47.201182" lon="-121.922560">
        <ele>330.2</ele>
        <time>2014-08-15T01:19:01Z</time>
        <sat>8</sat>
      </trkpt>
      <trkpt lat="47.201287" lon="-121.922496">
        <ele>330.5</ele>
        <time>2014-08-15T01:19:04Z</time>
        <sat>8</sat>
      </trkpt>
      <trkpt lat="47.201385" lon="-121.922427">
        <ele>330.8</ele>
        <time>2014-08-15T01:19:07Z</time>
        <sat>8</sat>
      </trkpt>
      <trkpt lat="47.201485" lon="-121.922375">
        <ele>330.9</ele>
        <time>2014-08-15T01:19:10Z</time>
        <sat>8</sat>
      </trkpt>
      <trkpt lat="47.201590" lon="-121.922343">
        <ele>330.6</ele>
        <time>2014-08-15T01:19:13Z</time>
        <sat>8</sat>
      </trkpt>
      <trkpt lat="47.201699" lon="-121.922297">
        <ele>330.5</ele>
        <time>2014-08-15T01:19:16Z</time>
        <sat>8</sat>
      </trkpt>
      <trkpt lat="47.201807" lon="-121.922236">
        <ele>330.4</ele>
        <time>2014-08-15T01:19:19Z</time>
        <sat>8</sat>
      </trkpt>
      <trkpt lat="47.201898" lon="-121.922192">
        <ele>330.4</ele>
        <time>2014-08-15T01:19:22Z</time>
        <sat>8</sat>
      </trkpt>
      <trkpt lat="47.201987" lon="-121.922145">
        <ele>330.3</ele>
        <time>2014-08-15T01:19:25Z</time>
        <sat>8</sat>
      </trkpt>
      <trkpt lat="47.202080" lon="-121.922111">
        <ele>330.1</ele>
        <time>2014-08-15T01:19:28Z</time>
        <sat>8</sat>
      </trkpt>
      <trkpt lat="47.202188" lon="-121.922057">
        <ele>330.2</ele>
        <time>2014-08-15T01:19:31Z</time>
        <sat>8</sat>
      </trkpt>
      <trkpt lat="47.202290" lon="-121.922000">
        <ele>330.2</ele>
        <time>2014-08-15T01:19:34Z</time>
        <sat>8</sat>
      </trkpt>
      <trkpt lat="47.202392" lon="-121.921921">
        <ele>330.1</ele>
        <time>2014-08-15T01:19:37Z</time>
        <sat>8</sat>
      </trkpt>
      <trkpt lat="47.202504" lon="-121.921850">
        <ele>330.0</ele>
        <time>2014-08-15T01:19:40Z</time>
        <sat>8</sat>
      </trkpt>
      <trkpt lat="47.202607" lon="-121.921806">
        <ele>329.9</ele>
        <time>2014-08-15T01:19:43Z</time>
        <sat>8</sat>
      </trkpt>
      <trkpt lat="47.202719" lon="-121.921757">
        <ele>329.8</ele>
        <time>2014-08-15T01:19:46Z</time>
        <sat>8</sat>
      </trkpt>
      <trkpt lat="47.202829" lon="-121.921700">
        <ele>329.9</ele>
        <time>2014-08-15T01:19:49Z</time>
        <sat>8</sat>
      </trkpt>
      <trkpt lat="47.202940" lon="-121.921630">
        <ele>329.5</ele>
        <time>2014-08-15T01:19:52Z</time>
        <sat>8</sat>
      </trkpt>
      <trkpt lat="47.203047" lon="-121.921563">
        <ele>329.9</ele>
        <time>2014-08-15T01:19:55Z</time>
        <sat>8</sat>
      </trkpt>
      <trkpt lat="47.203149" lon="-121.921520">
        <ele>329.6</ele>
        <time>2014-08-15T01:19:58Z</time>
        <sat>8</sat>
      </trkpt>
      <trkpt lat="47.203257" lon="-121.921466">
        <ele>329.7</ele>
        <time>2014-08-15T01:20:01Z</time>
        <sat>8</sat>
      </trkpt>
      <trkpt lat="47.203353" lon="-121.921388">
        <ele>329.9</ele>
        <time>2014-08-15T01:20:04Z</time>
        <sat>8</sat>
      </trkpt>
      <trkpt lat="47.203453" lon="-121.921325">
        <ele>330.3</ele>
        <time>2014-08-15T01:20:07Z</time>
        <sat>8</sat>
      </trkpt>
      <trkpt lat="47.203547" lon="-121.921268">
        <ele>330.8</ele>
        <time>2014-08-15T01:20:11Z</time>
        <sat>8</sat>
      </trkpt>
      <trkpt lat="47.203637" lon="-121.921251">
        <ele>331.2</ele>
        <time>2014-08-15T01:20:15Z</time>
        <sat>7</sat>
      </trkpt>
      <trkpt lat="47.203735" lon="-121.921240">
        <ele>331.8</ele>
        <time>2014-08-15T01:20:20Z</time>
        <sat>8</sat>
      </trkpt>
      <trkpt lat="47.203822" lon="-121.921156">
        <ele>331.8</ele>
        <time>2014-08-15T01:20:36Z</time>
        <sat>8</sat>
      </trkpt>
      <trkpt lat="47.203878" lon="-121.921047">
        <ele>331.0</ele>
        <time>2014-08-15T01:20:56Z</time>
        <sat>8</sat>
      </trkpt>
      <trkpt lat="47.203972" lon="-121.920988">
        <ele>331.0</ele>
        <time>2014-08-15T01:21:05Z</time>
        <sat>8</sat>
      </trkpt>
      <trkpt lat="47.204072" lon="-121.920948">
        <ele>331.6</ele>
        <time>2014-08-15T01:21:10Z</time>
        <sat>8</sat>
      </trkpt>
      <trkpt lat="47.204170" lon="-121.920925">
        <ele>332.2</ele>
        <time>2014-08-15T01:21:15Z</time>
        <sat>8</sat>
      </trkpt>
      <trkpt lat="47.204262" lon="-121.920887">
        <ele>332.9</ele>
        <time>2014-08-15T01:21:20Z</time>
        <sat>8</sat>
      </trkpt>
      <trkpt lat="47.204355" lon="-121.920848">
        <ele>333.3</ele>
        <time>2014-08-15T01:21:25Z</time>
        <sat>8</sat>
      </trkpt>
      <trkpt lat="47.204448" lon="-121.920806">
        <ele>333.8</ele>
        <time>2014-08-15T01:21:29Z</time>
        <sat>8</sat>
      </trkpt>
      <trkpt lat="47.204540" lon="-121.920743">
        <ele>334.2</ele>
        <time>2014-08-15T01:21:33Z</time>
        <sat>8</sat>
      </trkpt>
      <trkpt lat="47.204634" lon="-121.920766">
        <ele>334.6</ele>
        <time>2014-08-15T01:21:38Z</time>
        <sat>8</sat>
      </trkpt>
      <trkpt lat="47.204730" lon="-121.920733">
        <ele>335.2</ele>
        <time>2014-08-15T01:21:43Z</time>
        <sat>8</sat>
      </trkpt>
      <trkpt lat="47.204818" lon="-121.920671">
        <ele>335.7</ele>
        <time>2014-08-15T01:21:48Z</time>
        <sat>8</sat>
      </trkpt>
      <trkpt lat="47.204907" lon="-121.920588">
        <ele>336.4</ele>
        <time>2014-08-15T01:21:54Z</time>
        <sat>8</sat>
      </trkpt>
      <trkpt lat="47.204997" lon="-121.920511">
        <ele>337.3</ele>
        <time>2014-08-15T01:22:00Z</time>
        <sat>8</sat>
      </trkpt>
      <trkpt lat="47.205067" lon="-121.920418">
        <ele>337.9</ele>
        <time>2014-08-15T01:22:04Z</time>
        <sat>8</sat>
      </trkpt>
      <trkpt lat="47.205112" lon="-121.920283">
        <ele>338.0</ele>
        <time>2014-08-15T01:22:07Z</time>
        <sat>8</sat>
      </trkpt>
      <trkpt lat="47.205205" lon="-121.920261">
        <ele>338.6</ele>
        <time>2014-08-15T01:22:12Z</time>
        <sat>8</sat>
      </trkpt>
      <trkpt lat="47.205279" lon="-121.920165">
        <ele>339.1</ele>
        <time>2014-08-15T01:22:17Z</time>
        <sat>8</sat>
      </trkpt>
      <trkpt lat="47.205370" lon="-121.920101">
        <ele>339.2</ele>
        <time>2014-08-15T01:22:22Z</time>
        <sat>8</sat>
      </trkpt>
      <trkpt lat="47.205422" lon="-121.919967">
        <ele>340.0</ele>
        <time>2014-08-15T01:22:25Z</time>
        <sat>8</sat>
      </trkpt>
      <trkpt lat="47.205492" lon="-121.919860">
        <ele>340.6</ele>
        <time>2014-08-15T01:22:31Z</time>
        <sat>8</sat>
      </trkpt>
      <trkpt lat="47.205580" lon="-121.919783">
        <ele>341.0</ele>
        <time>2014-08-15T01:22:34Z</time>
        <sat>8</sat>
      </trkpt>
      <trkpt lat="47.205667" lon="-121.919722">
        <ele>341.6</ele>
        <time>2014-08-15T01:22:37Z</time>
        <sat>8</sat>
      </trkpt>
      <trkpt lat="47.205749" lon="-121.919640">
        <ele>342.3</ele>
        <time>2014-08-15T01:22:42Z</time>
        <sat>8</sat>
      </trkpt>
      <trkpt lat="47.205807" lon="-121.919503">
        <ele>342.3</ele>
        <time>2014-08-15T01:22:44Z</time>
        <sat>8</sat>
      </trkpt>
      <trkpt lat="47.205893" lon="-121.919398">
        <ele>343.1</ele>
        <time>2014-08-15T01:22:49Z</time>
        <sat>8</sat>
      </trkpt>
      <trkpt lat="47.205965" lon="-121.919308">
        <ele>343.3</ele>
        <time>2014-08-15T01:22:52Z</time>
        <sat>8</sat>
      </trkpt>
      <trkpt lat="47.206035" lon="-121.919210">
        <ele>343.5</ele>
        <time>2014-08-15T01:22:55Z</time>
        <sat>8</sat>
      </trkpt>
      <trkpt lat="47.206090" lon="-121.919075">
        <ele>343.9</ele>
        <time>2014-08-15T01:23:01Z</time>
        <sat>8</sat>
      </trkpt>
      <trkpt lat="47.206160" lon="-121.918945">
        <ele>344.1</ele>
        <time>2014-08-15T01:23:05Z</time>
        <sat>8</sat>
      </trkpt>
      <trkpt lat="47.206265" lon="-121.918870">
        <ele>344.1</ele>
        <time>2014-08-15T01:23:08Z</time>
        <sat>8</sat>
      </trkpt>
      <trkpt lat="47.206353" lon="-121.918805">
        <ele>344.4</ele>
        <time>2014-08-15T01:23:11Z</time>
        <sat>8</sat>
      </trkpt>
      <trkpt lat="47.206435" lon="-121.918735">
        <ele>344.7</ele>
        <time>2014-08-15T01:23:14Z</time>
        <sat>8</sat>
      </trkpt>
      <trkpt lat="47.206553" lon="-121.918625">
        <ele>345.1</ele>
        <time>2014-08-15T01:23:19Z</time>
        <sat>8</sat>
      </trkpt>
      <trkpt lat="47.206632" lon="-121.918502">
        <ele>343.1</ele>
        <time>2014-08-15T01:23:22Z</time>
        <sat>8</sat>
      </trkpt>
      <trkpt lat="47.206727" lon="-121.918420">
        <ele>344.4</ele>
        <time>2014-08-15T01:23:25Z</time>
        <sat>8</sat>
      </trkpt>
      <trkpt lat="47.206820" lon="-121.918315">
        <ele>346.1</ele>
        <time>2014-08-15T01:23:29Z</time>
        <sat>8</sat>
      </trkpt>
      <trkpt lat="47.206907" lon="-121.918250">
        <ele>346.1</ele>
        <time>2014-08-15T01:23:34Z</time>
        <sat>7</sat>
      </trkpt>
      <trkpt lat="47.207020" lon="-121.918168">
        <ele>346.3</ele>
        <time>2014-08-15T01:23:38Z</time>
        <sat>7</sat>
      </trkpt>
      <trkpt lat="47.207102" lon="-121.918068">
        <ele>346.3</ele>
        <time>2014-08-15T01:23:41Z</time>
        <sat>7</sat>
      </trkpt>
      <trkpt lat="47.207179" lon="-121.917976">
        <ele>346.4</ele>
        <time>2014-08-15T01:23:46Z</time>
        <sat>7</sat>
      </trkpt>
      <trkpt lat="47.207262" lon="-121.917917">
        <ele>346.6</ele>
        <time>2014-08-15T01:23:51Z</time>
        <sat>7</sat>
      </trkpt>
      <trkpt lat="47.207252" lon="-121.917768">
        <ele>347.5</ele>
        <time>2014-08-15T01:23:57Z</time>
        <sat>7</sat>
      </trkpt>
      <trkpt lat="47.207297" lon="-121.917643">
        <ele>348.2</ele>
        <time>2014-08-15T01:24:05Z</time>
        <sat>7</sat>
      </trkpt>
      <trkpt lat="47.207333" lon="-121.917491">
        <ele>349.5</ele>
        <time>2014-08-15T01:24:15Z</time>
        <sat>6</sat>
      </trkpt>
      <trkpt lat="47.207429" lon="-121.917423">
        <ele>350.3</ele>
        <time>2014-08-15T01:24:21Z</time>
        <sat>6</sat>
      </trkpt>
      <trkpt lat="47.207524" lon="-121.917433">
        <ele>350.5</ele>
        <time>2014-08-15T01:24:23Z</time>
        <sat>6</sat>
      </trkpt>
      <trkpt lat="47.207629" lon="-121.917356">
        <ele>351.2</ele>
        <time>2014-08-15T01:24:28Z</time>
        <sat>6</sat>
      </trkpt>
      <trkpt lat="47.207708" lon="-121.917238">
        <ele>351.5</ele>
        <time>2014-08-15T01:24:33Z</time>
        <sat>6</sat>
      </trkpt>
      <trkpt lat="47.207812" lon="-121.917203">
        <ele>351.8</ele>
        <time>2014-08-15T01:24:36Z</time>
        <sat>5</sat>
      </trkpt>
      <trkpt lat="47.207883" lon="-121.917118">
        <ele>352.0</ele>
        <time>2014-08-15T01:24:39Z</time>
        <sat>5</sat>
      </trkpt>
      <trkpt lat="47.207975" lon="-121.917011">
        <ele>352.2</ele>
        <time>2014-08-15T01:24:43Z</time>
        <sat>5</sat>
      </trkpt>
      <trkpt lat="47.208050" lon="-121.916928">
        <ele>352.5</ele>
        <time>2014-08-15T01:24:48Z</time>
        <sat>5</sat>
      </trkpt>
      <trkpt lat="47.208128" lon="-121.916847">
        <ele>352.9</ele>
        <time>2014-08-15T01:24:52Z</time>
        <sat>5</sat>
      </trkpt>
      <trkpt lat="47.208222" lon="-121.916766">
        <ele>353.3</ele>
        <time>2014-08-15T01:24:56Z</time>
        <sat>5</sat>
      </trkpt>
      <trkpt lat="47.208315" lon="-121.916713">
        <ele>353.3</ele>
        <time>2014-08-15T01:24:59Z</time>
        <sat>5</sat>
      </trkpt>
      <trkpt lat="47.208419" lon="-121.916660">
        <ele>354.0</ele>
        <time>2014-08-15T01:25:02Z</time>
        <sat>5</sat>
      </trkpt>
      <trkpt lat="47.208517" lon="-121.916597">
        <ele>354.3</ele>
        <time>2014-08-15T01:25:05Z</time>
        <sat>5</sat>
      </trkpt>
      <trkpt lat="47.208608" lon="-121.916528">
        <ele>354.4</ele>
        <time>2014-08-15T01:25:08Z</time>
        <sat>5</sat>
      </trkpt>
      <trkpt lat="47.208717" lon="-121.916472">
        <ele>354.7</ele>
        <time>2014-08-15T01:25:11Z</time>
        <sat>5</sat>
      </trkpt>
      <trkpt lat="47.208797" lon="-121.916398">
        <ele>355.0</ele>
        <time>2014-08-15T01:25:14Z</time>
        <sat>5</sat>
      </trkpt>
      <trkpt lat="47.208895" lon="-121.916355">
        <ele>355.3</ele>
        <time>2014-08-15T01:25:18Z</time>
        <sat>5</sat>
      </trkpt>
      <trkpt lat="47.209010" lon="-121.916333">
        <ele>355.7</ele>
        <time>2014-08-15T01:25:22Z</time>
        <sat>5</sat>
      </trkpt>
      <trkpt lat="47.209135" lon="-121.916240">
        <ele>355.8</ele>
        <time>2014-08-15T01:25:26Z</time>
        <sat>5</sat>
      </trkpt>
      <trkpt lat="47.209222" lon="-121.916186">
        <ele>356.3</ele>
        <time>2014-08-15T01:25:29Z</time>
        <sat>5</sat>
      </trkpt>
      <trkpt lat="47.209360" lon="-121.916101">
        <ele>356.8</ele>
        <time>2014-08-15T01:25:34Z</time>
        <sat>5</sat>
      </trkpt>
      <trkpt lat="47.209454" lon="-121.916040">
        <ele>357.1</ele>
        <time>2014-08-15T01:25:38Z</time>
        <sat>5</sat>
      </trkpt>
      <trkpt lat="47.209545" lon="-121.915963">
        <ele>357.6</ele>
        <time>2014-08-15T01:25:43Z</time>
        <sat>5</sat>
      </trkpt>
      <trkpt lat="47.209600" lon="-121.915807">
        <ele>358.6</ele>
        <time>2014-08-15T01:25:49Z</time>
        <sat>5</sat>
      </trkpt>
      <trkpt lat="47.209674" lon="-121.915722">
        <ele>359.2</ele>
        <time>2014-08-15T01:25:53Z</time>
        <sat>5</sat>
      </trkpt>
      <trkpt lat="47.209785" lon="-121.915646">
        <ele>359.6</ele>
        <time>2014-08-15T01:25:58Z</time>
        <sat>5</sat>
      </trkpt>
      <trkpt lat="47.209850" lon="-121.915548">
        <ele>360.5</ele>
        <time>2014-08-15T01:26:08Z</time>
        <sat>5</sat>
      </trkpt>
      <trkpt lat="47.209930" lon="-121.915483">
        <ele>361.3</ele>
        <time>2014-08-15T01:26:14Z</time>
        <sat>5</sat>
      </trkpt>
      <trkpt lat="47.210027" lon="-121.915423">
        <ele>362.1</ele>
        <time>2014-08-15T01:26:20Z</time>
        <sat>5</sat>
      </trkpt>
      <trkpt lat="47.210110" lon="-121.915355">
        <ele>362.8</ele>
        <time>2014-08-15T01:26:26Z</time>
        <sat>5</sat>
      </trkpt>
      <trkpt lat="47.210190" lon="-121.915247">
        <ele>363.0</ele>
        <time>2014-08-15T01:26:31Z</time>
        <sat>5</sat>
      </trkpt>
      <trkpt lat="47.210257" lon="-121.915147">
        <ele>362.3</ele>
        <time>2014-08-15T01:26:34Z</time>
        <sat>5</sat>
      </trkpt>
      <trkpt lat="47.210303" lon="-121.915023">
        <ele>362.4</ele>
        <time>2014-08-15T01:26:36Z</time>
        <sat>5</sat>
      </trkpt>
      <trkpt lat="47.210383" lon="-121.914905">
        <ele>362.9</ele>
        <time>2014-08-15T01:26:40Z</time>
        <sat>5</sat>
      </trkpt>
      <trkpt lat="47.210459" lon="-121.914798">
        <ele>363.4</ele>
        <time>2014-08-15T01:26:43Z</time>
        <sat>5</sat>
      </trkpt>
      <trkpt lat="47.210513" lon="-121.914661">
        <ele>363.9</ele>
        <time>2014-08-15T01:26:46Z</time>
        <sat>5</sat>
      </trkpt>
      <trkpt lat="47.210550" lon="-121.914512">
        <ele>364.2</ele>
        <time>2014-08-15T01:26:49Z</time>
        <sat>5</sat>
      </trkpt>
      <trkpt lat="47.210654" lon="-121.914503">
        <ele>364.9</ele>
        <time>2014-08-15T01:26:56Z</time>
        <sat>5</sat>
      </trkpt>
      <trkpt lat="47.210695" lon="-121.914373">
        <ele>364.9</ele>
        <time>2014-08-15T01:27:00Z</time>
        <sat>5</sat>
      </trkpt>
      <trkpt lat="47.210790" lon="-121.914286">
        <ele>364.9</ele>
        <time>2014-08-15T01:27:04Z</time>
        <sat>5</sat>
      </trkpt>
      <trkpt lat="47.210889" lon="-121.914240">
        <ele>365.1</ele>
        <time>2014-08-15T01:27:08Z</time>
        <sat>6</sat>
      </trkpt>
      <trkpt lat="47.210975" lon="-121.914162">
        <ele>365.1</ele>
        <time>2014-08-15T01:27:12Z</time>
        <sat>6</sat>
      </trkpt>
      <trkpt lat="47.211052" lon="-121.914060">
        <ele>365.4</ele>
        <time>2014-08-15T01:27:17Z</time>
        <sat>7</sat>
      </trkpt>
      <trkpt lat="47.211122" lon="-121.913975">
        <ele>365.6</ele>
        <time>2014-08-15T01:27:21Z</time>
        <sat>7</sat>
      </trkpt>
      <trkpt lat="47.211050" lon="-121.914088">
        <ele>365.1</ele>
        <time>2014-08-15T01:27:42Z</time>
        <sat>5</sat>
      </trkpt>
      <trkpt lat="47.210967" lon="-121.914148">
        <ele>364.7</ele>
        <time>2014-08-15T01:27:46Z</time>
        <sat>6</sat>
      </trkpt>
      <trkpt lat="47.211047" lon="-121.914030">
        <ele>364.2</ele>
        <time>2014-08-15T01:28:05Z</time>
        <sat>7</sat>
      </trkpt>
      <trkpt lat="47.211127" lon="-121.913965">
        <ele>364.7</ele>
        <time>2014-08-15T01:28:09Z</time>
        <sat>7</sat>
      </trkpt>
      <trkpt lat="47.211209" lon="-121.913896">
        <ele>365.0</ele>
        <time>2014-08-15T01:28:12Z</time>
        <sat>6</sat>
      </trkpt>
      <trkpt lat="47.211310" lon="-121.913828">
        <ele>365.2</ele>
        <time>2014-08-15T01:28:16Z</time>
        <sat>7</sat>
      </trkpt>
      <trkpt lat="47.211405" lon="-121.913745">
        <ele>365.3</ele>
        <time>2014-08-15T01:28:20Z</time>
        <sat>6</sat>
      </trkpt>
      <trkpt lat="47.211500" lon="-121.913673">
        <ele>365.0</ele>
        <time>2014-08-15T01:28:24Z</time>
        <sat>6</sat>
      </trkpt>
      <trkpt lat="47.211602" lon="-121.913595">
        <ele>365.1</ele>
        <time>2014-08-15T01:28:28Z</time>
        <sat>6</sat>
      </trkpt>
      <trkpt lat="47.211689" lon="-121.913516">
        <ele>365.7</ele>
        <time>2014-08-15T01:28:32Z</time>
        <sat>6</sat>
      </trkpt>
      <trkpt lat="47.211775" lon="-121.913445">
        <ele>365.9</ele>
        <time>2014-08-15T01:28:37Z</time>
        <sat>7</sat>
      </trkpt>
      <trkpt lat="47.211869" lon="-121.913420">
        <ele>366.1</ele>
        <time>2014-08-15T01:28:41Z</time>
        <sat>6</sat>
      </trkpt>
      <trkpt lat="47.211933" lon="-121.913308">
        <ele>366.1</ele>
        <time>2014-08-15T01:28:43Z</time>
        <sat>6</sat>
      </trkpt>
      <trkpt lat="47.212015" lon="-121.913210">
        <ele>366.3</ele>
        <time>2014-08-15T01:28:47Z</time>
        <sat>7</sat>
      </trkpt>
      <trkpt lat="47.212104" lon="-121.913137">
        <ele>366.9</ele>
        <time>2014-08-15T01:28:51Z</time>
        <sat>7</sat>
      </trkpt>
      <trkpt lat="47.212204" lon="-121.913067">
        <ele>366.9</ele>
        <time>2014-08-15T01:28:54Z</time>
        <sat>7</sat>
      </trkpt>
      <trkpt lat="47.212293" lon="-121.912966">
        <ele>366.7</ele>
        <time>2014-08-15T01:28:57Z</time>
        <sat>6</sat>
      </trkpt>
      <trkpt lat="47.212375" lon="-121.912876">
        <ele>366.8</ele>
        <time>2014-08-15T01:29:00Z</time>
        <sat>7</sat>
      </trkpt>
      <trkpt lat="47.212454" lon="-121.912792">
        <ele>367.1</ele>
        <time>2014-08-15T01:29:03Z</time>
        <sat>7</sat>
      </trkpt>
      <trkpt lat="47.212528" lon="-121.912715">
        <ele>367.2</ele>
        <time>2014-08-15T01:29:06Z</time>
        <sat>7</sat>
      </trkpt>
      <trkpt lat="47.212605" lon="-121.912625">
        <ele>367.0</ele>
        <time>2014-08-15T01:29:10Z</time>
        <sat>7</sat>
      </trkpt>
      <trkpt lat="47.212708" lon="-121.912548">
        <ele>367.5</ele>
        <time>2014-08-15T01:29:14Z</time>
        <sat>6</sat>
      </trkpt>
      <trkpt lat="47.212799" lon="-121.912470">
        <ele>367.4</ele>
        <time>2014-08-15T01:29:17Z</time>
        <sat>7</sat>
      </trkpt>
      <trkpt lat="47.212895" lon="-121.912415">
        <ele>367.8</ele>
        <time>2014-08-15T01:29:20Z</time>
        <sat>7</sat>
      </trkpt>
      <trkpt lat="47.212974" lon="-121.912342">
        <ele>368.3</ele>
        <time>2014-08-15T01:29:23Z</time>
        <sat>7</sat>
      </trkpt>
      <trkpt lat="47.213062" lon="-121.912270">
        <ele>368.8</ele>
        <time>2014-08-15T01:29:26Z</time>
        <sat>7</sat>
      </trkpt>
      <trkpt lat="47.213167" lon="-121.912220">
        <ele>368.8</ele>
        <time>2014-08-15T01:29:30Z</time>
        <sat>7</sat>
      </trkpt>
      <trkpt lat="47.213245" lon="-121.912100">
        <ele>369.4</ele>
        <time>2014-08-15T01:29:35Z</time>
        <sat>7</sat>
      </trkpt>
      <trkpt lat="47.213330" lon="-121.912051">
        <ele>369.6</ele>
        <time>2014-08-15T01:29:38Z</time>
        <sat>7</sat>
      </trkpt>
      <trkpt lat="47.213417" lon="-121.911963">
        <ele>369.7</ele>
        <time>2014-08-15T01:29:41Z</time>
        <sat>7</sat>
      </trkpt>
      <trkpt lat="47.213498" lon="-121.911875">
        <ele>369.5</ele>
        <time>2014-08-15T01:29:44Z</time>
        <sat>7</sat>
      </trkpt>
      <trkpt lat="47.213622" lon="-121.911726">
        <ele>369.7</ele>
        <time>2014-08-15T01:29:47Z</time>
        <sat>7</sat>
      </trkpt>
      <trkpt lat="47.213689" lon="-121.911636">
        <ele>369.5</ele>
        <time>2014-08-15T01:29:49Z</time>
        <sat>7</sat>
      </trkpt>
      <trkpt lat="47.213780" lon="-121.911505">
        <ele>369.8</ele>
        <time>2014-08-15T01:29:52Z</time>
        <sat>7</sat>
      </trkpt>
      <trkpt lat="47.213870" lon="-121.911395">
        <ele>370.1</ele>
        <time>2014-08-15T01:29:55Z</time>
        <sat>7</sat>
      </trkpt>
      <trkpt lat="47.213948" lon="-121.911296">
        <ele>370.5</ele>
        <time>2014-08-15T01:29:58Z</time>
        <sat>7</sat>
      </trkpt>
      <trkpt lat="47.214025" lon="-121.911203">
        <ele>369.3</ele>
        <time>2014-08-15T01:30:01Z</time>
        <sat>7</sat>
      </trkpt>
      <trkpt lat="47.214100" lon="-121.911091">
        <ele>370.2</ele>
        <time>2014-08-15T01:30:05Z</time>
        <sat>7</sat>
      </trkpt>
      <trkpt lat="47.214135" lon="-121.910965">
        <ele>370.9</ele>
        <time>2014-08-15T01:30:10Z</time>
        <sat>7</sat>
      </trkpt>
      <trkpt lat="47.214222" lon="-121.910927">
        <ele>370.0</ele>
        <time>2014-08-15T01:30:39Z</time>
        <sat>6</sat>
      </trkpt>
      <trkpt lat="47.214280" lon="-121.910810">
        <ele>356.1</ele>
        <time>2014-08-15T01:38:11Z</time>
        <sat>7</sat>
      </trkpt>
      <trkpt lat="47.214352" lon="-121.910718">
        <ele>356.6</ele>
        <time>2014-08-15T01:38:16Z</time>
        <sat>7</sat>
      </trkpt>
      <trkpt lat="47.214434" lon="-121.910618">
        <ele>356.6</ele>
        <time>2014-08-15T01:38:22Z</time>
        <sat>7</sat>
      </trkpt>
      <trkpt lat="47.214507" lon="-121.910505">
        <ele>357.4</ele>
        <time>2014-08-15T01:38:29Z</time>
        <sat>7</sat>
      </trkpt>
      <trkpt lat="47.214584" lon="-121.910420">
        <ele>357.7</ele>
        <time>2014-08-15T01:38:34Z</time>
        <sat>7</sat>
      </trkpt>
      <trkpt lat="47.214655" lon="-121.910338">
        <ele>357.8</ele>
        <time>2014-08-15T01:38:39Z</time>
        <sat>7</sat>
      </trkpt>
      <trkpt lat="47.214743" lon="-121.910266">
        <ele>358.4</ele>
        <time>2014-08-15T01:38:43Z</time>
        <sat>7</sat>
      </trkpt>
      <trkpt lat="47.214825" lon="-121.910208">
        <ele>358.3</ele>
        <time>2014-08-15T01:38:48Z</time>
        <sat>7</sat>
      </trkpt>
      <trkpt lat="47.214910" lon="-121.910137">
        <ele>358.5</ele>
        <time>2014-08-15T01:38:52Z</time>
        <sat>7</sat>
      </trkpt>
      <trkpt lat="47.215004" lon="-121.910083">
        <ele>359.0</ele>
        <time>2014-08-15T01:38:57Z</time>
        <sat>7</sat>
      </trkpt>
      <trkpt lat="47.215112" lon="-121.910032">
        <ele>359.5</ele>
        <time>2014-08-15T01:39:02Z</time>
        <sat>7</sat>
      </trkpt>
      <trkpt lat="47.215198" lon="-121.909991">
        <ele>359.5</ele>
        <time>2014-08-15T01:39:06Z</time>
        <sat>7</sat>
      </trkpt>
      <trkpt lat="47.215310" lon="-121.909970">
        <ele>359.6</ele>
        <time>2014-08-15T01:39:09Z</time>
        <sat>7</sat>
      </trkpt>
      <trkpt lat="47.215410" lon="-121.909943">
        <ele>359.9</ele>
        <time>2014-08-15T01:39:13Z</time>
        <sat>7</sat>
      </trkpt>
      <trkpt lat="47.215527" lon="-121.909923">
        <ele>359.9</ele>
        <time>2014-08-15T01:39:17Z</time>
        <sat>7</sat>
      </trkpt>
      <trkpt lat="47.215622" lon="-121.909897">
        <ele>359.5</ele>
        <time>2014-08-15T01:39:20Z</time>
        <sat>7</sat>
      </trkpt>
      <trkpt lat="47.215720" lon="-121.909865">
        <ele>359.5</ele>
        <time>2014-08-15T01:39:23Z</time>
        <sat>7</sat>
      </trkpt>
      <trkpt lat="47.215820" lon="-121.909830">
        <ele>359.9</ele>
        <time>2014-08-15T01:39:26Z</time>
        <sat>7</sat>
      </trkpt>
      <trkpt lat="47.215920" lon="-121.909793">
        <ele>360.0</ele>
        <time>2014-08-15T01:39:29Z</time>
        <sat>7</sat>
      </trkpt>
      <trkpt lat="47.216019" lon="-121.909755">
        <ele>360.2</ele>
        <time>2014-08-15T01:39:32Z</time>
        <sat>7</sat>
      </trkpt>
      <trkpt lat="47.216117" lon="-121.909715">
        <ele>360.2</ele>
        <time>2014-08-15T01:39:35Z</time>
        <sat>7</sat>
      </trkpt>
      <trkpt lat="47.216210" lon="-121.909672">
        <ele>359.7</ele>
        <time>2014-08-15T01:39:38Z</time>
        <sat>7</sat>
      </trkpt>
      <trkpt lat="47.216302" lon="-121.909631">
        <ele>359.9</ele>
        <time>2014-08-15T01:39:41Z</time>
        <sat>7</sat>
      </trkpt>
      <trkpt lat="47.216397" lon="-121.909581">
        <ele>360.2</ele>
        <time>2014-08-15T01:39:44Z</time>
        <sat>7</sat>
      </trkpt>
      <trkpt lat="47.216489" lon="-121.909542">
        <ele>360.0</ele>
        <time>2014-08-15T01:39:47Z</time>
        <sat>7</sat>
      </trkpt>
      <trkpt lat="47.216584" lon="-121.909490">
        <ele>360.2</ele>
        <time>2014-08-15T01:39:50Z</time>
        <sat>7</sat>
      </trkpt>
      <trkpt lat="47.216685" lon="-121.909437">
        <ele>360.7</ele>
        <time>2014-08-15T01:39:53Z</time>
        <sat>7</sat>
      </trkpt>
      <trkpt lat="47.216784" lon="-121.909378">
        <ele>360.8</ele>
        <time>2014-08-15T01:39:56Z</time>
        <sat>7</sat>
      </trkpt>
      <trkpt lat="47.216872" lon="-121.909325">
        <ele>361.1</ele>
        <time>2014-08-15T01:39:59Z</time>
        <sat>7</sat>
      </trkpt>
      <trkpt lat="47.216968" lon="-121.909263">
        <ele>363.5</ele>
        <time>2014-08-15T01:40:03Z</time>
        <sat>7</sat>
      </trkpt>
      <trkpt lat="47.217053" lon="-121.909207">
        <ele>362.4</ele>
        <time>2014-08-15T01:40:07Z</time>
        <sat>7</sat>
      </trkpt>
      <trkpt lat="47.217139" lon="-121.909138">
        <ele>362.3</ele>
        <time>2014-08-15T01:40:11Z</time>
        <sat>7</sat>
      </trkpt>
      <trkpt lat="47.217229" lon="-121.909075">
        <ele>362.4</ele>
        <time>2014-08-15T01:40:15Z</time>
        <sat>7</sat>
      </trkpt>
      <trkpt lat="47.217313" lon="-121.909008">
        <ele>362.4</ele>
        <time>2014-08-15T01:40:19Z</time>
        <sat>7</sat>
      </trkpt>
      <trkpt lat="47.217282" lon="-121.909181">
        <ele>362.4</ele>
        <time>2014-08-15T01:40:28Z</time>
        <sat>7</sat>
      </trkpt>
      <trkpt lat="47.217303" lon="-121.909350">
        <ele>362.0</ele>
        <time>2014-08-15T01:40:31Z</time>
        <sat>7</sat>
      </trkpt>
      <trkpt lat="47.217332" lon="-121.909523">
        <ele>361.9</ele>
        <time>2014-08-15T01:40:34Z</time>
        <sat>7</sat>
      </trkpt>
      <trkpt lat="47.217349" lon="-121.909696">
        <ele>361.5</ele>
        <time>2014-08-15T01:40:37Z</time>
        <sat>7</sat>
      </trkpt>
      <trkpt lat="47.217357" lon="-121.909867">
        <ele>361.8</ele>
        <time>2014-08-15T01:40:40Z</time>
        <sat>7</sat>
      </trkpt>
      <trkpt lat="47.217362" lon="-121.910050">
        <ele>361.6</ele>
        <time>2014-08-15T01:40:43Z</time>
        <sat>7</sat>
      </trkpt>
      <trkpt lat="47.217362" lon="-121.910225">
        <ele>361.6</ele>
        <time>2014-08-15T01:40:46Z</time>
        <sat>7</sat>
      </trkpt>
      <trkpt lat="47.217357" lon="-121.910365">
        <ele>361.3</ele>
        <time>2014-08-15T01:40:49Z</time>
        <sat>7</sat>
      </trkpt>
      <trkpt lat="47.217369" lon="-121.910513">
        <ele>361.2</ele>
        <time>2014-08-15T01:40:53Z</time>
        <sat>7</sat>
      </trkpt>
      <trkpt lat="47.217352" lon="-121.910533">
        <ele>358.3</ele>
        <time>2014-08-15T01:41:56Z</time>
        <sat>7</sat>
      </trkpt>
    </trkseg>
  </trk>
</gpx>
